<?xml version='1.0' encoding='UTF-8'?><gpx version="1.1" creator="JPX - https://github.com/jenetics/jpx" xmlns="http://www.topografix.com/GPX/1/1"><trk><trkseg><trkpt lat="45.61312657785219" lon="10.42527487502473"><ele>583.0</ele><time>2026-04-11T09:41:28Z</time></trkpt><trkpt lat="45.61310074773241" lon="10.425159299812371"><ele>583.0</ele><time>2026-04-11T09:41:39Z</time></trkpt><trkpt lat="45.61313125890116" lon="10.425240513183995"><ele>583.0</ele><time>2026-04-11T09:42:15.001Z</time></trkpt><trkpt lat="45.61320252472225" lon="10.425271880157325"><ele>583.0</ele><time>2026-04-11T09:44:17.001Z</time></trkpt><trkpt lat="45.613239786114484" lon="10.425364782868243"><ele>583.0</ele><time>2026-04-11T09:44:19.001Z</time></trkpt><trkpt lat="45.613316252720566" lon="10.425455530987621"><ele>583.0</ele><time>2026-04-11T09:44:21.001Z</time></trkpt><trkpt lat="45.61337247635999" lon="10.425498500997504"><ele>584.6</ele><time>2026-04-11T09:44:22.001Z</time></trkpt><trkpt lat="45.613460498905006" lon="10.42558067760611"><ele>586.1999999999999</ele><time>2026-04-11T09:44:24.001Z</time></trkpt><trkpt lat="45.61350113756741" lon="10.425674528772431"><ele>587.8</ele><time>2026-04-11T09:44:25.001Z</time></trkpt><trkpt lat="45.61352903599496" lon="10.42580170320114"><ele>589.4</ele><time>2026-04-11T09:44:26.001Z</time></trkpt><trkpt lat="45.61357443652432" lon="10.425899382249371"><ele>591.0</ele><time>2026-04-11T09:44:27.001Z</time></trkpt><trkpt lat="45.61361831822191" lon="10.426049735171384"><ele>591.0</ele><time>2026-04-11T09:44:29.001Z</time></trkpt><trkpt lat="45.61365077256188" lon="10.426129559482645"><ele>591.0</ele><time>2026-04-11T09:44:30.001Z</time></trkpt><trkpt lat="45.61366373611466" lon="10.42623224044477"><ele>591.0</ele><time>2026-04-11T09:44:31.001Z</time></trkpt><trkpt lat="45.613700508942735" lon="10.426330024914295"><ele>591.0</ele><time>2026-04-11T09:44:32.001Z</time></trkpt><trkpt lat="45.61374220356862" lon="10.426420729441748"><ele>591.0</ele><time>2026-04-11T09:44:33.001Z</time></trkpt><trkpt lat="45.61378820373158" lon="10.426505538059873"><ele>591.0</ele><time>2026-04-11T09:44:34.001Z</time></trkpt><trkpt lat="45.61383954148009" lon="10.42659437477452"><ele>591.0</ele><time>2026-04-11T09:44:35.001Z</time></trkpt><trkpt lat="45.61388897221231" lon="10.426678113595965"><ele>593.1428571428571</ele><time>2026-04-11T09:44:36.001Z</time></trkpt><trkpt lat="45.61393147151731" lon="10.426746242327566"><ele>595.2857142857143</ele><time>2026-04-11T09:44:37.001Z</time></trkpt><trkpt lat="45.61397646696778" lon="10.426819126466272"><ele>597.4285714285714</ele><time>2026-04-11T09:44:38.001Z</time></trkpt><trkpt lat="45.614021604621605" lon="10.426902520566683"><ele>599.5714285714286</ele><time>2026-04-11T09:44:39.001Z</time></trkpt><trkpt lat="45.614062028438106" lon="10.426995781700246"><ele>601.7142857142857</ele><time>2026-04-11T09:44:40.001Z</time></trkpt><trkpt lat="45.61410035449592" lon="10.427097742100823"><ele>603.8571428571429</ele><time>2026-04-11T09:44:41.002Z</time></trkpt><trkpt lat="45.61414109670406" lon="10.42720058154076"><ele>606.0</ele><time>2026-04-11T09:44:42.002Z</time></trkpt><trkpt lat="45.614183805629764" lon="10.427292416072092"><ele>606.5</ele><time>2026-04-11T09:44:43.002Z</time></trkpt><trkpt lat="45.614232816090784" lon="10.427373632013515"><ele>607.0</ele><time>2026-04-11T09:44:44.002Z</time></trkpt><trkpt lat="45.61429915415867" lon="10.42745223965989"><ele>607.5</ele><time>2026-04-11T09:44:45.002Z</time></trkpt><trkpt lat="45.61436008539131" lon="10.42749279002132"><ele>608.0</ele><time>2026-04-11T09:44:46.002Z</time></trkpt><trkpt lat="45.61441932907364" lon="10.427591898760678"><ele>608.5</ele><time>2026-04-11T09:44:47.002Z</time></trkpt><trkpt lat="45.61447524869496" lon="10.427718854672683"><ele>609.0</ele><time>2026-04-11T09:44:48.002Z</time></trkpt><trkpt lat="45.61452789741721" lon="10.427854861189891"><ele>607.2</ele><time>2026-04-11T09:44:49.002Z</time></trkpt><trkpt lat="45.61458990600977" lon="10.42798667058542"><ele>605.4</ele><time>2026-04-11T09:44:50.002Z</time></trkpt><trkpt lat="45.61466114728339" lon="10.42811306331332"><ele>603.6</ele><time>2026-04-11T09:44:51.002Z</time></trkpt><trkpt lat="45.614729988985516" lon="10.428212744311617"><ele>601.8</ele><time>2026-04-11T09:44:52.002Z</time></trkpt><trkpt lat="45.61480168600704" lon="10.428299832540791"><ele>600.0</ele><time>2026-04-11T09:44:53.002Z</time></trkpt><trkpt lat="45.61487940567443" lon="10.428390052572542"><ele>600.0</ele><time>2026-04-11T09:44:54.002Z</time></trkpt><trkpt lat="45.61496553368353" lon="10.4284821280928"><ele>600.0</ele><time>2026-04-11T09:44:55.002Z</time></trkpt><trkpt lat="45.615043847625515" lon="10.428534450262065"><ele>600.0</ele><time>2026-04-11T09:44:56.002Z</time></trkpt><trkpt lat="45.615127338803184" lon="10.428614674562178"><ele>600.0</ele><time>2026-04-11T09:44:57.002Z</time></trkpt><trkpt lat="45.6151989487425" lon="10.428687862524168"><ele>600.0</ele><time>2026-04-11T09:44:58.002Z</time></trkpt><trkpt lat="45.615274583169374" lon="10.428754663414573"><ele>601.0</ele><time>2026-04-11T09:44:59.002Z</time></trkpt><trkpt lat="45.61535332480185" lon="10.428842115507557"><ele>602.0</ele><time>2026-04-11T09:45:00.002Z</time></trkpt><trkpt lat="45.61544119571217" lon="10.428893961718627"><ele>603.0</ele><time>2026-04-11T09:45:01.002Z</time></trkpt><trkpt lat="45.61553142180357" lon="10.428948641605299"><ele>604.0</ele><time>2026-04-11T09:45:02.002Z</time></trkpt><trkpt lat="45.615632052371865" lon="10.428975809518576"><ele>605.0</ele><time>2026-04-11T09:45:03.002Z</time></trkpt><trkpt lat="45.61573772756456" lon="10.429003193997051"><ele>605.0</ele><time>2026-04-11T09:45:04.002Z</time></trkpt><trkpt lat="45.61582807409398" lon="10.429068434506638"><ele>605.0</ele><time>2026-04-11T09:45:05.002Z</time></trkpt><trkpt lat="45.615918254447614" lon="10.429112396412812"><ele>605.0</ele><time>2026-04-11T09:45:06.002Z</time></trkpt><trkpt lat="45.61598344893652" lon="10.429201681740533"><ele>605.0</ele><time>2026-04-11T09:45:07.002Z</time></trkpt><trkpt lat="45.61606450261852" lon="10.42926837602852"><ele>605.0</ele><time>2026-04-11T09:45:08.002Z</time></trkpt><trkpt lat="45.61613318637227" lon="10.429381340302715"><ele>604.2</ele><time>2026-04-11T09:45:09.002Z</time></trkpt><trkpt lat="45.61616282376871" lon="10.429494229391759"><ele>603.4</ele><time>2026-04-11T09:45:10.002Z</time></trkpt><trkpt lat="45.61622514059532" lon="10.429610534752223"><ele>602.6</ele><time>2026-04-11T09:45:11.002Z</time></trkpt><trkpt lat="45.61629477183677" lon="10.429738484318309"><ele>601.8</ele><time>2026-04-11T09:45:12.002Z</time></trkpt><trkpt lat="45.6163962409029" lon="10.429846517641751"><ele>601.0</ele><time>2026-04-11T09:45:13.002Z</time></trkpt><trkpt lat="45.61652645232992" lon="10.429960034796073"><ele>600.8</ele><time>2026-04-11T09:45:14Z</time></trkpt><trkpt lat="45.61664960210505" lon="10.430027698740655"><ele>600.6</ele><time>2026-04-11T09:45:15Z</time></trkpt><trkpt lat="45.61675608294556" lon="10.430078395388827"><ele>600.4</ele><time>2026-04-11T09:45:16Z</time></trkpt><trkpt lat="45.61685587347707" lon="10.430114722300809"><ele>600.2</ele><time>2026-04-11T09:45:17Z</time></trkpt><trkpt lat="45.61695308077031" lon="10.430152564342213"><ele>600.0</ele><time>2026-04-11T09:45:18Z</time></trkpt><trkpt lat="45.61703762923966" lon="10.430185478402244"><ele>600.8333333333334</ele><time>2026-04-11T09:45:19Z</time></trkpt><trkpt lat="45.61712442821337" lon="10.430222044999425"><ele>601.6666666666666</ele><time>2026-04-11T09:45:20Z</time></trkpt><trkpt lat="45.617197562078104" lon="10.430260673069249"><ele>602.5</ele><time>2026-04-11T09:45:21Z</time></trkpt><trkpt lat="45.61726804219923" lon="10.43031566080042"><ele>603.3333333333333</ele><time>2026-04-11T09:45:22Z</time></trkpt><trkpt lat="45.617322212052756" lon="10.430368816271809"><ele>604.1666666666666</ele><time>2026-04-11T09:45:23Z</time></trkpt><trkpt lat="45.617376246102836" lon="10.430424898197492"><ele>605.0</ele><time>2026-04-11T09:45:24Z</time></trkpt><trkpt lat="45.617441633146186" lon="10.430492763392424"><ele>605.0</ele><time>2026-04-11T09:45:25Z</time></trkpt><trkpt lat="45.61750801249498" lon="10.430561658499117"><ele>605.0</ele><time>2026-04-11T09:45:26Z</time></trkpt><trkpt lat="45.617573926827006" lon="10.430632014068252"><ele>605.0</ele><time>2026-04-11T09:45:27Z</time></trkpt><trkpt lat="45.617645439770975" lon="10.430718278471932"><ele>605.0</ele><time>2026-04-11T09:45:28Z</time></trkpt><trkpt lat="45.61771281915805" lon="10.43081196650522"><ele>605.0</ele><time>2026-04-11T09:45:29Z</time></trkpt><trkpt lat="45.61777428538576" lon="10.43091393826254"><ele>605.0</ele><time>2026-04-11T09:45:30Z</time></trkpt><trkpt lat="45.61783733445827" lon="10.43102445248497"><ele>603.8</ele><time>2026-04-11T09:45:31Z</time></trkpt><trkpt lat="45.61790357859479" lon="10.431139504596633"><ele>602.6</ele><time>2026-04-11T09:45:32Z</time></trkpt><trkpt lat="45.61797518453806" lon="10.431254492246069"><ele>601.4</ele><time>2026-04-11T09:45:33Z</time></trkpt><trkpt lat="45.61805249886141" lon="10.431370384474581"><ele>600.2</ele><time>2026-04-11T09:45:34Z</time></trkpt><trkpt lat="45.61813285964343" lon="10.431488978825413"><ele>599.0</ele><time>2026-04-11T09:45:35Z</time></trkpt><trkpt lat="45.61820864772786" lon="10.431597335483547"><ele>599.0</ele><time>2026-04-11T09:45:36Z</time></trkpt><trkpt lat="45.61829274789851" lon="10.431686931178668"><ele>599.0</ele><time>2026-04-11T09:45:37Z</time></trkpt><trkpt lat="45.618370552988615" lon="10.431800548367455"><ele>599.0</ele><time>2026-04-11T09:45:38Z</time></trkpt><trkpt lat="45.618444032824975" lon="10.431917889947066"><ele>599.0</ele><time>2026-04-11T09:45:39Z</time></trkpt><trkpt lat="45.61852129968878" lon="10.432053427002355"><ele>599.0</ele><time>2026-04-11T09:45:40Z</time></trkpt><trkpt lat="45.61858832595093" lon="10.432186273566607"><ele>597.8</ele><time>2026-04-11T09:45:41Z</time></trkpt><trkpt lat="45.61865435295465" lon="10.432300846663658"><ele>596.5999999999999</ele><time>2026-04-11T09:45:42Z</time></trkpt><trkpt lat="45.61870118393392" lon="10.432411555467171"><ele>595.4</ele><time>2026-04-11T09:45:43Z</time></trkpt><trkpt lat="45.61875950615599" lon="10.432527145963965"><ele>594.1999999999999</ele><time>2026-04-11T09:45:45Z</time></trkpt><trkpt lat="45.61882063342925" lon="10.432636559838883"><ele>593.0</ele><time>2026-04-11T09:45:47Z</time></trkpt><trkpt lat="45.61886839652201" lon="10.43274907408251"><ele>593.0</ele><time>2026-04-11T09:45:49Z</time></trkpt><trkpt lat="45.618920753661996" lon="10.432857620441032"><ele>593.0</ele><time>2026-04-11T09:45:51.001Z</time></trkpt><trkpt lat="45.61895961344246" lon="10.432972432681778"><ele>593.0</ele><time>2026-04-11T09:45:53.001Z</time></trkpt><trkpt lat="45.61902609266744" lon="10.433064372918635"><ele>593.0</ele><time>2026-04-11T09:45:55.001Z</time></trkpt><trkpt lat="45.619086941491524" lon="10.433160905075683"><ele>593.0</ele><time>2026-04-11T09:45:57.001Z</time></trkpt><trkpt lat="45.619131612116064" lon="10.433250234881099"><ele>593.0</ele><time>2026-04-11T09:45:59.001Z</time></trkpt><trkpt lat="45.619196401095294" lon="10.433295710172997"><ele>592.3333333333333</ele><time>2026-04-11T09:46:07.001Z</time></trkpt><trkpt lat="45.61930190220288" lon="10.433340145142093"><ele>591.6666666666666</ele><time>2026-04-11T09:46:09.001Z</time></trkpt><trkpt lat="45.619380163866865" lon="10.433410761765492"><ele>591.0</ele><time>2026-04-11T09:46:10.001Z</time></trkpt><trkpt lat="45.61944002965927" lon="10.433445591542577"><ele>590.3333333333334</ele><time>2026-04-11T09:46:11.001Z</time></trkpt><trkpt lat="45.61950410407205" lon="10.433464906294391"><ele>589.6666666666667</ele><time>2026-04-11T09:46:12.001Z</time></trkpt><trkpt lat="45.61958541420622" lon="10.433507220484687"><ele>589.0</ele><time>2026-04-11T09:46:13.001Z</time></trkpt><trkpt lat="45.619660860635854" lon="10.43349920780069"><ele>589.0</ele><time>2026-04-11T09:46:14.001Z</time></trkpt><trkpt lat="45.619733181770854" lon="10.433473482811392"><ele>589.0</ele><time>2026-04-11T09:46:15.001Z</time></trkpt><trkpt lat="45.61981806874377" lon="10.433469634024494"><ele>589.0</ele><time>2026-04-11T09:46:16.001Z</time></trkpt><trkpt lat="45.61989718245911" lon="10.433466047001374"><ele>589.0</ele><time>2026-04-11T09:46:17.001Z</time></trkpt><trkpt lat="45.61996509265792" lon="10.4334452058818"><ele>589.0</ele><time>2026-04-11T09:46:18.001Z</time></trkpt><trkpt lat="45.620041851746464" lon="10.433423235114303"><ele>589.0</ele><time>2026-04-11T09:46:19.001Z</time></trkpt><trkpt lat="45.6201163294752" lon="10.433402408035745"><ele>589.0</ele><time>2026-04-11T09:46:20.001Z</time></trkpt><trkpt lat="45.620315768178436" lon="10.433320620767898"><ele>589.0</ele><time>2026-04-11T09:46:21.001Z</time></trkpt><trkpt lat="45.620444314181874" lon="10.434297513203417"><ele>589.6</ele><time>2026-04-11T09:46:26.001Z</time></trkpt><trkpt lat="45.62049378107581" lon="10.434417685149505"><ele>590.2</ele><time>2026-04-11T09:46:27.001Z</time></trkpt><trkpt lat="45.62054836297442" lon="10.434519488816266"><ele>590.8000000000001</ele><time>2026-04-11T09:46:28.001Z</time></trkpt><trkpt lat="45.62060424791678" lon="10.434637725787052"><ele>591.4</ele><time>2026-04-11T09:46:29.001Z</time></trkpt><trkpt lat="45.62065119714976" lon="10.434725830005268"><ele>592.0</ele><time>2026-04-11T09:46:30.001Z</time></trkpt><trkpt lat="45.62069751584591" lon="10.434859499962105"><ele>592.0</ele><time>2026-04-11T09:46:31.001Z</time></trkpt><trkpt lat="45.62075920667984" lon="10.434929388196176"><ele>592.0</ele><time>2026-04-11T09:46:32.001Z</time></trkpt><trkpt lat="45.62082845616587" lon="10.435009600273766"><ele>592.0</ele><time>2026-04-11T09:46:33.001Z</time></trkpt><trkpt lat="45.62089973016387" lon="10.435094731518994"><ele>592.0</ele><time>2026-04-11T09:46:34.001Z</time></trkpt><trkpt lat="45.62097505383108" lon="10.435172542601496"><ele>592.0</ele><time>2026-04-11T09:46:35.001Z</time></trkpt><trkpt lat="45.62105752249534" lon="10.435251689746522"><ele>592.0</ele><time>2026-04-11T09:46:36.001Z</time></trkpt><trkpt lat="45.621139366499534" lon="10.43532668301652"><ele>592.0</ele><time>2026-04-11T09:46:37.001Z</time></trkpt><trkpt lat="45.621231278183764" lon="10.435410285052287"><ele>592.0</ele><time>2026-04-11T09:46:38.001Z</time></trkpt><trkpt lat="45.62130151796433" lon="10.435493444849179"><ele>592.0</ele><time>2026-04-11T09:46:39.001Z</time></trkpt><trkpt lat="45.62135778394054" lon="10.435566640374528"><ele>592.0</ele><time>2026-04-11T09:46:40.001Z</time></trkpt><trkpt lat="45.62143979763159" lon="10.435695632222966"><ele>590.0</ele><time>2026-04-11T09:46:42.001Z</time></trkpt><trkpt lat="45.62154827131905" lon="10.4357853195478"><ele>588.0</ele><time>2026-04-11T09:46:44.001Z</time></trkpt><trkpt lat="45.6216002690595" lon="10.435881453836872"><ele>586.0</ele><time>2026-04-11T09:46:45.001Z</time></trkpt><trkpt lat="45.62165550475346" lon="10.43595899297788"><ele>584.0</ele><time>2026-04-11T09:46:46.002Z</time></trkpt><trkpt lat="45.62170915579632" lon="10.436046745583978"><ele>582.0</ele><time>2026-04-11T09:46:47.002Z</time></trkpt><trkpt lat="45.62176040340691" lon="10.436138856158369"><ele>582.0</ele><time>2026-04-11T09:46:48.002Z</time></trkpt><trkpt lat="45.62180194839455" lon="10.436241779994203"><ele>582.0</ele><time>2026-04-11T09:46:49.002Z</time></trkpt><trkpt lat="45.62184129178447" lon="10.436334969996874"><ele>582.0</ele><time>2026-04-11T09:46:50.002Z</time></trkpt><trkpt lat="45.62185462325402" lon="10.436433479234541"><ele>582.0</ele><time>2026-04-11T09:46:51.002Z</time></trkpt><trkpt lat="45.621959274208805" lon="10.436469582716018"><ele>582.0</ele><time>2026-04-11T09:46:52.002Z</time></trkpt><trkpt lat="45.62203417473041" lon="10.436500875563835"><ele>582.0</ele><time>2026-04-11T09:46:53.002Z</time></trkpt><trkpt lat="45.62210201728059" lon="10.436555487361987"><ele>580.6666666666666</ele><time>2026-04-11T09:46:54.002Z</time></trkpt><trkpt lat="45.6221632057214" lon="10.436585521858852"><ele>579.3333333333334</ele><time>2026-04-11T09:46:55.002Z</time></trkpt><trkpt lat="45.62222292019468" lon="10.436618173415713"><ele>578.0</ele><time>2026-04-11T09:46:56.002Z</time></trkpt><trkpt lat="45.622290839918456" lon="10.43662570356599"><ele>576.6666666666667</ele><time>2026-04-11T09:46:57.002Z</time></trkpt><trkpt lat="45.622371938972485" lon="10.43655492844659"><ele>575.3333333333334</ele><time>2026-04-11T09:46:58.002Z</time></trkpt><trkpt lat="45.62245646926618" lon="10.436436277241238"><ele>574.0</ele><time>2026-04-11T09:46:59.002Z</time></trkpt><trkpt lat="45.62254362012629" lon="10.436382101530617"><ele>574.0</ele><time>2026-04-11T09:47:00.002Z</time></trkpt><trkpt lat="45.622630752087595" lon="10.436336879055478"><ele>574.0</ele><time>2026-04-11T09:47:01.002Z</time></trkpt><trkpt lat="45.622725460913735" lon="10.436324657495087"><ele>574.0</ele><time>2026-04-11T09:47:02.002Z</time></trkpt><trkpt lat="45.6228317863392" lon="10.436339771752019"><ele>574.0</ele><time>2026-04-11T09:47:03.002Z</time></trkpt><trkpt lat="45.62293220136348" lon="10.436372009689359"><ele>574.0</ele><time>2026-04-11T09:47:04.002Z</time></trkpt><trkpt lat="45.62301116148212" lon="10.436381725252929"><ele>571.0</ele><time>2026-04-11T09:47:05.002Z</time></trkpt><trkpt lat="45.623097867508086" lon="10.436387878444444"><ele>568.0</ele><time>2026-04-11T09:47:06.002Z</time></trkpt><trkpt lat="45.62323202116277" lon="10.436445135185211"><ele>565.0</ele><time>2026-04-11T09:47:08.002Z</time></trkpt><trkpt lat="45.62332589672695" lon="10.436440007841853"><ele>562.0</ele><time>2026-04-11T09:47:10.002Z</time></trkpt><trkpt lat="45.62341582436287" lon="10.436474538631394"><ele>559.0</ele><time>2026-04-11T09:47:11.002Z</time></trkpt><trkpt lat="45.623513390284366" lon="10.436547575906918"><ele>559.0</ele><time>2026-04-11T09:47:12.002Z</time></trkpt><trkpt lat="45.62358632021353" lon="10.436583718332436"><ele>559.0</ele><time>2026-04-11T09:47:13.002Z</time></trkpt><trkpt lat="45.62368230915489" lon="10.436608478149164"><ele>559.0</ele><time>2026-04-11T09:47:14.002Z</time></trkpt><trkpt lat="45.62378163293277" lon="10.436634104028505"><ele>559.0</ele><time>2026-04-11T09:47:15.002Z</time></trkpt><trkpt lat="45.623876098110784" lon="10.436702267669936"><ele>559.0</ele><time>2026-04-11T09:47:16.002Z</time></trkpt><trkpt lat="45.62396887839111" lon="10.436728639981478"><ele>556.2</ele><time>2026-04-11T09:47:17.002Z</time></trkpt><trkpt lat="45.62403765894591" lon="10.436752061475422"><ele>553.4</ele><time>2026-04-11T09:47:18.002Z</time></trkpt><trkpt lat="45.624099341195944" lon="10.436788657137416"><ele>550.6</ele><time>2026-04-11T09:47:19.002Z</time></trkpt><trkpt lat="45.62418833139546" lon="10.436882672275697"><ele>547.8</ele><time>2026-04-11T09:47:21Z</time></trkpt><trkpt lat="45.62425905685069" lon="10.43693760466986"><ele>545.0</ele><time>2026-04-11T09:47:23Z</time></trkpt><trkpt lat="45.624337796517736" lon="10.437120695197772"><ele>545.4</ele><time>2026-04-11T09:47:25Z</time></trkpt><trkpt lat="45.624331955519516" lon="10.4372188496495"><ele>545.8</ele><time>2026-04-11T09:47:26Z</time></trkpt><trkpt lat="45.62428677929172" lon="10.437401640625657"><ele>546.2</ele><time>2026-04-11T09:47:27Z</time></trkpt><trkpt lat="45.6242443498608" lon="10.437539047457475"><ele>546.6</ele><time>2026-04-11T09:47:29Z</time></trkpt><trkpt lat="45.62425255108896" lon="10.437704967751683"><ele>547.0</ele><time>2026-04-11T09:47:31Z</time></trkpt><trkpt lat="45.624239768157345" lon="10.437816513849798"><ele>547.0</ele><time>2026-04-11T09:47:32Z</time></trkpt><trkpt lat="45.62419117424399" lon="10.437917774231469"><ele>547.0</ele><time>2026-04-11T09:47:33Z</time></trkpt><trkpt lat="45.62415876776039" lon="10.438036866563664"><ele>547.0</ele><time>2026-04-11T09:47:34Z</time></trkpt><trkpt lat="45.62412253740919" lon="10.43817122158901"><ele>547.0</ele><time>2026-04-11T09:47:36Z</time></trkpt><trkpt lat="45.62407080710576" lon="10.43824493271698"><ele>547.0</ele><time>2026-04-11T09:47:37Z</time></trkpt><trkpt lat="45.62402181483422" lon="10.43830443832162"><ele>547.0</ele><time>2026-04-11T09:47:39Z</time></trkpt><trkpt lat="45.6240016811373" lon="10.43840015945799"><ele>546.8333333333334</ele><time>2026-04-11T09:47:42Z</time></trkpt><trkpt lat="45.62393992616877" lon="10.438455565943244"><ele>546.6666666666667</ele><time>2026-04-11T09:47:43Z</time></trkpt><trkpt lat="45.623872290735235" lon="10.438529155065773"><ele>546.5</ele><time>2026-04-11T09:47:45Z</time></trkpt><trkpt lat="45.62385609110228" lon="10.438626540908382"><ele>546.3333333333334</ele><time>2026-04-11T09:47:51Z</time></trkpt><trkpt lat="45.62389716748448" lon="10.438747537756193"><ele>546.1666666666666</ele><time>2026-04-11T09:47:55.001Z</time></trkpt><trkpt lat="45.62397388040672" lon="10.4388001934427"><ele>546.0</ele><time>2026-04-11T09:47:57.001Z</time></trkpt><trkpt lat="45.6240477626421" lon="10.438856117513554"><ele>547.2</ele><time>2026-04-11T09:47:59.001Z</time></trkpt><trkpt lat="45.6241395151744" lon="10.438893029752988"><ele>548.4000000000001</ele><time>2026-04-11T09:48:01.001Z</time></trkpt><trkpt lat="45.624213503983746" lon="10.43893569358785"><ele>549.6</ele><time>2026-04-11T09:48:05.001Z</time></trkpt><trkpt lat="45.62430250254543" lon="10.439001499376168"><ele>550.8000000000001</ele><time>2026-04-11T09:48:07.001Z</time></trkpt><trkpt lat="45.62440198984791" lon="10.439084472527117"><ele>552.0</ele><time>2026-04-11T09:48:10.001Z</time></trkpt><trkpt lat="45.624460247924794" lon="10.439138265661212"><ele>549.2</ele><time>2026-04-11T09:48:12.001Z</time></trkpt><trkpt lat="45.62451191726849" lon="10.439223559558165"><ele>546.4000000000001</ele><time>2026-04-11T09:48:14.001Z</time></trkpt><trkpt lat="45.62460427949093" lon="10.439276341399383"><ele>543.5999999999999</ele><time>2026-04-11T09:48:17.001Z</time></trkpt><trkpt lat="45.62466518748165" lon="10.4393535359953"><ele>540.8</ele><time>2026-04-11T09:48:19.001Z</time></trkpt><trkpt lat="45.62476787180221" lon="10.439447431728103"><ele>538.0</ele><time>2026-04-11T09:48:21.001Z</time></trkpt><trkpt lat="45.62482877137188" lon="10.43953286486443"><ele>538.0</ele><time>2026-04-11T09:48:22.001Z</time></trkpt><trkpt lat="45.624886392515855" lon="10.43962085629278"><ele>538.0</ele><time>2026-04-11T09:48:23.001Z</time></trkpt><trkpt lat="45.624942375918636" lon="10.439707663757876"><ele>538.0</ele><time>2026-04-11T09:48:24.001Z</time></trkpt><trkpt lat="45.62499343111464" lon="10.439805882722206"><ele>538.0</ele><time>2026-04-11T09:48:25.001Z</time></trkpt><trkpt lat="45.62508305544522" lon="10.439892145044743"><ele>538.0</ele><time>2026-04-11T09:48:27.001Z</time></trkpt><trkpt lat="45.625154912467366" lon="10.440015255682159"><ele>536.1999999999999</ele><time>2026-04-11T09:48:28.001Z</time></trkpt><trkpt lat="45.62519167087643" lon="10.440092020950937"><ele>534.4</ele><time>2026-04-11T09:48:29.001Z</time></trkpt><trkpt lat="45.625268359487045" lon="10.440200571930603"><ele>532.5999999999999</ele><time>2026-04-11T09:48:30.001Z</time></trkpt><trkpt lat="45.625348888045586" lon="10.440258698248957"><ele>530.8</ele><time>2026-04-11T09:48:31.001Z</time></trkpt><trkpt lat="45.625439884019286" lon="10.44029259272125"><ele>529.0</ele><time>2026-04-11T09:48:32.001Z</time></trkpt><trkpt lat="45.62553166575928" lon="10.440324005445081"><ele>529.0</ele><time>2026-04-11T09:48:33.001Z</time></trkpt><trkpt lat="45.625611094457234" lon="10.440356204282178"><ele>529.0</ele><time>2026-04-11T09:48:34.001Z</time></trkpt><trkpt lat="45.625672785986545" lon="10.440410530387894"><ele>529.0</ele><time>2026-04-11T09:48:35.001Z</time></trkpt><trkpt lat="45.6257495594973" lon="10.440566504855573"><ele>529.0</ele><time>2026-04-11T09:48:37.001Z</time></trkpt><trkpt lat="45.62580856939879" lon="10.440635139446947"><ele>529.0</ele><time>2026-04-11T09:48:38.001Z</time></trkpt><trkpt lat="45.625937466826535" lon="10.440695389760165"><ele>528.1666666666667</ele><time>2026-04-11T09:48:40.001Z</time></trkpt><trkpt lat="45.626007679581406" lon="10.440751333611527"><ele>527.3333333333334</ele><time>2026-04-11T09:48:41.001Z</time></trkpt><trkpt lat="45.62606146590961" lon="10.440825730175932"><ele>526.5</ele><time>2026-04-11T09:48:42.001Z</time></trkpt><trkpt lat="45.62613726690899" lon="10.440881622188037"><ele>525.6666666666666</ele><time>2026-04-11T09:48:44.001Z</time></trkpt><trkpt lat="45.62623973036944" lon="10.440852169519768"><ele>524.8333333333333</ele><time>2026-04-11T09:48:54.002Z</time></trkpt><trkpt lat="45.62632559067128" lon="10.440857740619155"><ele>524.0</ele><time>2026-04-11T09:48:58.002Z</time></trkpt><trkpt lat="45.62641874687432" lon="10.440887347015526"><ele>524.0</ele><time>2026-04-11T09:49:02.002Z</time></trkpt><trkpt lat="45.62649680570092" lon="10.440887035005673"><ele>524.0</ele><time>2026-04-11T09:49:04.002Z</time></trkpt><trkpt lat="45.62657732023046" lon="10.440887444470544"><ele>524.0</ele><time>2026-04-11T09:49:05.002Z</time></trkpt><trkpt lat="45.626682753460955" lon="10.440912567140648"><ele>524.0</ele><time>2026-04-11T09:49:07.002Z</time></trkpt><trkpt lat="45.6267699132073" lon="10.440867990383937"><ele>524.0</ele><time>2026-04-11T09:49:09.002Z</time></trkpt><trkpt lat="45.62685129609029" lon="10.44082191387297"><ele>524.0</ele><time>2026-04-11T09:49:11.002Z</time></trkpt><trkpt lat="45.62693281521642" lon="10.440778185239548"><ele>523.6666666666666</ele><time>2026-04-11T09:49:13.002Z</time></trkpt><trkpt lat="45.627007587517966" lon="10.440743801532731"><ele>523.3333333333333</ele><time>2026-04-11T09:49:14.002Z</time></trkpt><trkpt lat="45.627074820140805" lon="10.44068621640063"><ele>523.0</ele><time>2026-04-11T09:49:15.002Z</time></trkpt><trkpt lat="45.62713574216415" lon="10.4406290798882"><ele>522.6666666666666</ele><time>2026-04-11T09:49:16.002Z</time></trkpt><trkpt lat="45.62721582394952" lon="10.440572706592487"><ele>522.3333333333334</ele><time>2026-04-11T09:49:17.002Z</time></trkpt><trkpt lat="45.62727998503845" lon="10.440521820422418"><ele>522.0</ele><time>2026-04-11T09:49:18.002Z</time></trkpt><trkpt lat="45.627336502090515" lon="10.440462369375862"><ele>517.2</ele><time>2026-04-11T09:49:19.002Z</time></trkpt><trkpt lat="45.627434683236444" lon="10.440366640983566"><ele>512.4000000000001</ele><time>2026-04-11T09:49:21.002Z</time></trkpt><trkpt lat="45.627486370815596" lon="10.440305138485746"><ele>507.59999999999997</ele><time>2026-04-11T09:49:22.002Z</time></trkpt><trkpt lat="45.62753842654588" lon="10.440235367015541"><ele>502.79999999999995</ele><time>2026-04-11T09:49:23.002Z</time></trkpt><trkpt lat="45.62762135429973" lon="10.440178148467007"><ele>498.0</ele><time>2026-04-11T09:49:25.002Z</time></trkpt><trkpt lat="45.62773513237235" lon="10.440122132224252"><ele>498.0</ele><time>2026-04-11T09:49:28.001Z</time></trkpt><trkpt lat="45.62779881897043" lon="10.440098181317012"><ele>497.99999999999994</ele><time>2026-04-11T09:49:29.001Z</time></trkpt><trkpt lat="45.62793174261603" lon="10.440091998862549"><ele>497.99999999999994</ele><time>2026-04-11T09:49:31.001Z</time></trkpt><trkpt lat="45.62805063885966" lon="10.440050887494092"><ele>498.0</ele><time>2026-04-11T09:49:33Z</time></trkpt><trkpt lat="45.62811532950963" lon="10.440053459525473"><ele>498.0</ele><time>2026-04-11T09:49:34Z</time></trkpt><trkpt lat="45.62818038632403" lon="10.440052875388274"><ele>496.0</ele><time>2026-04-11T09:49:35Z</time></trkpt><trkpt lat="45.628297670204205" lon="10.440053274533948"><ele>493.99999999999994</ele><time>2026-04-11T09:49:37Z</time></trkpt><trkpt lat="45.62840085152346" lon="10.440121057105058"><ele>491.99999999999994</ele><time>2026-04-11T09:49:39Z</time></trkpt><trkpt lat="45.62848974109624" lon="10.440207075392047"><ele>490.0</ele><time>2026-04-11T09:49:41Z</time></trkpt><trkpt lat="45.628548966183935" lon="10.440318712735223"><ele>488.0</ele><time>2026-04-11T09:49:43Z</time></trkpt><trkpt lat="45.628626995266465" lon="10.44022462833825"><ele>487.59999999999997</ele><time>2026-04-11T09:49:46Z</time></trkpt><trkpt lat="45.628644031275606" lon="10.440127767716922"><ele>487.19999999999993</ele><time>2026-04-11T09:49:47Z</time></trkpt><trkpt lat="45.628675591921564" lon="10.4399361295638"><ele>486.8</ele><time>2026-04-11T09:49:49Z</time></trkpt><trkpt lat="45.62873487521402" lon="10.439835067611433"><ele>486.4</ele><time>2026-04-11T09:49:51Z</time></trkpt><trkpt lat="45.62883225156188" lon="10.439795377779141"><ele>486.0</ele><time>2026-04-11T09:49:53.001Z</time></trkpt><trkpt lat="45.62890953861861" lon="10.439741401488893"><ele>486.0</ele><time>2026-04-11T09:49:55.001Z</time></trkpt><trkpt lat="45.62897682020201" lon="10.439682345155088"><ele>486.0</ele><time>2026-04-11T09:49:58.001Z</time></trkpt><trkpt lat="45.62902982535925" lon="10.439619077988477"><ele>486.0</ele><time>2026-04-11T09:50:00.001Z</time></trkpt><trkpt lat="45.62907632142719" lon="10.43954452960413"><ele>486.0</ele><time>2026-04-11T09:50:02.001Z</time></trkpt><trkpt lat="45.6291153971061" lon="10.43945521229767"><ele>486.0</ele><time>2026-04-11T09:50:05.001Z</time></trkpt><trkpt lat="45.62916269399504" lon="10.439374310458788"><ele>486.0</ele><time>2026-04-11T09:50:07.001Z</time></trkpt><trkpt lat="45.62921631140469" lon="10.43930916902275"><ele>486.0</ele><time>2026-04-11T09:50:09.001Z</time></trkpt><trkpt lat="45.629287876493926" lon="10.439243120020672"><ele>481.4</ele><time>2026-04-11T09:50:21.001Z</time></trkpt><trkpt lat="45.62937292330971" lon="10.439203989069531"><ele>476.8</ele><time>2026-04-11T09:50:29.001Z</time></trkpt><trkpt lat="45.629440070768055" lon="10.439152586970241"><ele>472.19999999999993</ele><time>2026-04-11T09:50:31.001Z</time></trkpt><trkpt lat="45.629522880692285" lon="10.439089063848256"><ele>467.59999999999997</ele><time>2026-04-11T09:50:33.001Z</time></trkpt><trkpt lat="45.62961440010674" lon="10.438981978657097"><ele>463.0</ele><time>2026-04-11T09:50:35.001Z</time></trkpt><trkpt lat="45.62971576082199" lon="10.438924853310553"><ele>463.0</ele><time>2026-04-11T09:50:37.001Z</time></trkpt><trkpt lat="45.62981149017311" lon="10.43889044388569"><ele>462.99999999999994</ele><time>2026-04-11T09:50:39.001Z</time></trkpt><trkpt lat="45.62988891797097" lon="10.438859658956117"><ele>462.99999999999994</ele><time>2026-04-11T09:50:41.001Z</time></trkpt><trkpt lat="45.629996528591384" lon="10.438818102184385"><ele>463.0</ele><time>2026-04-11T09:50:43.001Z</time></trkpt><trkpt lat="45.63009885796976" lon="10.438773390226753"><ele>463.0</ele><time>2026-04-11T09:50:45.001Z</time></trkpt><trkpt lat="45.630206461608985" lon="10.438741918137847"><ele>461.4</ele><time>2026-04-11T09:50:47.001Z</time></trkpt><trkpt lat="45.63032629725875" lon="10.438707598409286"><ele>459.79999999999995</ele><time>2026-04-11T09:50:49.001Z</time></trkpt><trkpt lat="45.630404607331066" lon="10.43868257337668"><ele>458.2</ele><time>2026-04-11T09:50:50.001Z</time></trkpt><trkpt lat="45.630508678172525" lon="10.438677711433344"><ele>456.6</ele><time>2026-04-11T09:50:52.001Z</time></trkpt><trkpt lat="45.630593134435536" lon="10.438704939807186"><ele>455.0</ele><time>2026-04-11T09:50:53.001Z</time></trkpt><trkpt lat="45.6306770515749" lon="10.438812999965089"><ele>455.0</ele><time>2026-04-11T09:50:54.001Z</time></trkpt><trkpt lat="45.63070117857707" lon="10.438902751387793"><ele>455.0</ele><time>2026-04-11T09:50:55.001Z</time></trkpt><trkpt lat="45.630790424807756" lon="10.439062405774159"><ele>455.0</ele><time>2026-04-11T09:50:57.001Z</time></trkpt><trkpt lat="45.63090072555668" lon="10.439100308322462"><ele>455.0</ele><time>2026-04-11T09:50:58.001Z</time></trkpt><trkpt lat="45.630993897372896" lon="10.439112875914507"><ele>455.0</ele><time>2026-04-11T09:51:00.002Z</time></trkpt><trkpt lat="45.63105356971125" lon="10.439036638989657"><ele>454.99999999999994</ele><time>2026-04-11T09:51:01.002Z</time></trkpt><trkpt lat="45.63115437755727" lon="10.438987968051297"><ele>455.0</ele><time>2026-04-11T09:51:02.002Z</time></trkpt><trkpt lat="45.63123224704999" lon="10.439003688447231"><ele>455.0</ele><time>2026-04-11T09:51:03.002Z</time></trkpt><trkpt lat="45.631287552785" lon="10.438951403228431"><ele>455.0</ele><time>2026-04-11T09:51:04.002Z</time></trkpt><trkpt lat="45.63133833093252" lon="10.438858957692062"><ele>454.99999999999994</ele><time>2026-04-11T09:51:05.002Z</time></trkpt><trkpt lat="45.63140796172874" lon="10.43876087671215"><ele>455.0</ele><time>2026-04-11T09:51:06.002Z</time></trkpt><trkpt lat="45.631471901642215" lon="10.438710295027162"><ele>449.8333333333333</ele><time>2026-04-11T09:51:07.002Z</time></trkpt><trkpt lat="45.63154694328231" lon="10.438664041468645"><ele>444.66666666666663</ele><time>2026-04-11T09:51:08.002Z</time></trkpt><trkpt lat="45.6316307723016" lon="10.438608780766401"><ele>439.5</ele><time>2026-04-11T09:51:09.002Z</time></trkpt><trkpt lat="45.63172144076993" lon="10.43859763488892"><ele>434.33333333333337</ele><time>2026-04-11T09:51:10.002Z</time></trkpt><trkpt lat="45.6317945834351" lon="10.438533276296894"><ele>429.1666666666667</ele><time>2026-04-11T09:51:11.002Z</time></trkpt><trkpt lat="45.63187437988663" lon="10.43851226443143"><ele>424.0</ele><time>2026-04-11T09:51:12.002Z</time></trkpt><trkpt lat="45.63194377433015" lon="10.438502434187766"><ele>422.6666666666667</ele><time>2026-04-11T09:51:13.002Z</time></trkpt><trkpt lat="45.63201648718564" lon="10.438502331019683"><ele>421.33333333333337</ele><time>2026-04-11T09:51:14.002Z</time></trkpt><trkpt lat="45.632080180076244" lon="10.438491566514779"><ele>420.0</ele><time>2026-04-11T09:51:15.002Z</time></trkpt><trkpt lat="45.6321748065418" lon="10.438537845388604"><ele>418.66666666666663</ele><time>2026-04-11T09:51:17.002Z</time></trkpt><trkpt lat="45.632237468648945" lon="10.438639135516924"><ele>417.3333333333333</ele><time>2026-04-11T09:51:18.002Z</time></trkpt><trkpt lat="45.63232901778329" lon="10.438743685322702"><ele>416.0</ele><time>2026-04-11T09:51:19.002Z</time></trkpt><trkpt lat="45.63237825156042" lon="10.438844671952474"><ele>415.3333333333333</ele><time>2026-04-11T09:51:20.002Z</time></trkpt><trkpt lat="45.6324363960692" lon="10.43893012585799"><ele>414.66666666666663</ele><time>2026-04-11T09:51:21.002Z</time></trkpt><trkpt lat="45.632507942837805" lon="10.43897631229788"><ele>414.0</ele><time>2026-04-11T09:51:22.002Z</time></trkpt><trkpt lat="45.63259815494195" lon="10.439016223984652"><ele>413.33333333333337</ele><time>2026-04-11T09:51:23.002Z</time></trkpt><trkpt lat="45.63268198108058" lon="10.439069723928174"><ele>412.6666666666667</ele><time>2026-04-11T09:51:24.002Z</time></trkpt><trkpt lat="45.63275048134003" lon="10.439137585002406"><ele>412.0</ele><time>2026-04-11T09:51:25.002Z</time></trkpt><trkpt lat="45.63284830961421" lon="10.439219961464426"><ele>412.0</ele><time>2026-04-11T09:51:26.002Z</time></trkpt><trkpt lat="45.63294640556899" lon="10.43928132897953"><ele>412.0</ele><time>2026-04-11T09:51:27.002Z</time></trkpt><trkpt lat="45.633030325741466" lon="10.43935292754154"><ele>412.0</ele><time>2026-04-11T09:51:28.002Z</time></trkpt><trkpt lat="45.633113414913396" lon="10.439443638579405"><ele>412.0</ele><time>2026-04-11T09:51:29.002Z</time></trkpt><trkpt lat="45.63319001959314" lon="10.43949314064428"><ele>412.0</ele><time>2026-04-11T09:51:30.002Z</time></trkpt><trkpt lat="45.633280970078616" lon="10.439529622038743"><ele>412.0</ele><time>2026-04-11T09:51:31.002Z</time></trkpt><trkpt lat="45.633364373703294" lon="10.439598366845651"><ele>412.0</ele><time>2026-04-11T09:51:32Z</time></trkpt><trkpt lat="45.63344437913918" lon="10.43967257057897"><ele>412.0</ele><time>2026-04-11T09:51:33Z</time></trkpt><trkpt lat="45.63351794790796" lon="10.439748418285287"><ele>412.0</ele><time>2026-04-11T09:51:34Z</time></trkpt><trkpt lat="45.63358592781934" lon="10.439813611035447"><ele>412.0</ele><time>2026-04-11T09:51:35Z</time></trkpt><trkpt lat="45.63367579642807" lon="10.43990980908171"><ele>408.75</ele><time>2026-04-11T09:51:36Z</time></trkpt><trkpt lat="45.63377760724151" lon="10.44003579833038"><ele>405.5</ele><time>2026-04-11T09:51:37Z</time></trkpt><trkpt lat="45.63386866304492" lon="10.440158289715837"><ele>402.25</ele><time>2026-04-11T09:51:38Z</time></trkpt><trkpt lat="45.63393866380575" lon="10.440290715183442"><ele>399.0</ele><time>2026-04-11T09:51:39Z</time></trkpt><trkpt lat="45.633931110593025" lon="10.44046373225443"><ele>402.4</ele><time>2026-04-11T09:51:41Z</time></trkpt><trkpt lat="45.63389723912983" lon="10.440588840662013"><ele>405.79999999999995</ele><time>2026-04-11T09:51:42Z</time></trkpt><trkpt lat="45.633987219844606" lon="10.44067839997761"><ele>409.20000000000005</ele><time>2026-04-11T09:51:44Z</time></trkpt><trkpt lat="45.63408752566186" lon="10.440741077366482"><ele>412.6</ele><time>2026-04-11T09:51:45Z</time></trkpt><trkpt lat="45.63418169689964" lon="10.440805267693264"><ele>416.0</ele><time>2026-04-11T09:51:46Z</time></trkpt><trkpt lat="45.6342548808755" lon="10.440860566182423"><ele>416.0</ele><time>2026-04-11T09:51:47Z</time></trkpt><trkpt lat="45.634309026370815" lon="10.441011913465735"><ele>416.0</ele><time>2026-04-11T09:51:49Z</time></trkpt><trkpt lat="45.634374712351" lon="10.441077892399663"><ele>416.0</ele><time>2026-04-11T09:51:50Z</time></trkpt><trkpt lat="45.63446339581085" lon="10.44111495769669"><ele>416.0</ele><time>2026-04-11T09:51:51Z</time></trkpt><trkpt lat="45.63454199324543" lon="10.441115524147982"><ele>416.0</ele><time>2026-04-11T09:51:52Z</time></trkpt><trkpt lat="45.634630309509184" lon="10.441087422364907"><ele>413.0</ele><time>2026-04-11T09:51:53Z</time></trkpt><trkpt lat="45.634719281644486" lon="10.441077141223293"><ele>410.0</ele><time>2026-04-11T09:51:54Z</time></trkpt><trkpt lat="45.63479081858305" lon="10.441117200960758"><ele>407.0</ele><time>2026-04-11T09:51:55Z</time></trkpt><trkpt lat="45.634868546557946" lon="10.441286823961809"><ele>404.0</ele><time>2026-04-11T09:51:57Z</time></trkpt><trkpt lat="45.634904203610546" lon="10.441413501850613"><ele>401.0</ele><time>2026-04-11T09:51:58Z</time></trkpt><trkpt lat="45.6349511507337" lon="10.441522519527279"><ele>400.99999999999994</ele><time>2026-04-11T09:51:59Z</time></trkpt><trkpt lat="45.63499812170766" lon="10.441649335092777"><ele>401.0</ele><time>2026-04-11T09:52:00Z</time></trkpt><trkpt lat="45.635039122476186" lon="10.441762489946683"><ele>401.0</ele><time>2026-04-11T09:52:01Z</time></trkpt><trkpt lat="45.63505554803511" lon="10.44185031761214"><ele>401.0</ele><time>2026-04-11T09:52:02Z</time></trkpt><trkpt lat="45.635079563925" lon="10.441991600945547"><ele>400.99999999999994</ele><time>2026-04-11T09:52:04Z</time></trkpt><trkpt lat="45.63505984952667" lon="10.442109806449414"><ele>401.0</ele><time>2026-04-11T09:52:06.001Z</time></trkpt><trkpt lat="45.635034620656526" lon="10.44220387597137"><ele>401.99999999999994</ele><time>2026-04-11T09:52:07.001Z</time></trkpt><trkpt lat="45.63506554472184" lon="10.442286853555382"><ele>403.0</ele><time>2026-04-11T09:52:08.001Z</time></trkpt><trkpt lat="45.63508273162367" lon="10.442402650622661"><ele>404.0</ele><time>2026-04-11T09:52:09.001Z</time></trkpt><trkpt lat="45.635104170099915" lon="10.44250641549689"><ele>405.0</ele><time>2026-04-11T09:52:10.001Z</time></trkpt><trkpt lat="45.63518617994869" lon="10.442629725894907"><ele>405.99999999999994</ele><time>2026-04-11T09:52:12.001Z</time></trkpt><trkpt lat="45.63525826920491" lon="10.44264737743646"><ele>407.0</ele><time>2026-04-11T09:52:13.001Z</time></trkpt><trkpt lat="45.635326419569175" lon="10.44255490540877"><ele>407.0</ele><time>2026-04-11T09:52:14.001Z</time></trkpt><trkpt lat="45.63537047643775" lon="10.442459692974555"><ele>407.0</ele><time>2026-04-11T09:52:15.001Z</time></trkpt><trkpt lat="45.63552079948425" lon="10.442375310710702"><ele>407.0</ele><time>2026-04-11T09:52:17.001Z</time></trkpt><trkpt lat="45.63564498149077" lon="10.442317314539045"><ele>407.0</ele><time>2026-04-11T09:52:18.001Z</time></trkpt><trkpt lat="45.63576112822123" lon="10.44228741459397"><ele>407.0</ele><time>2026-04-11T09:52:19.001Z</time></trkpt><trkpt lat="45.635883054578876" lon="10.442232519965332"><ele>407.0</ele><time>2026-04-11T09:52:20.001Z</time></trkpt><trkpt lat="45.63602193612832" lon="10.442209471474076"><ele>407.0</ele><time>2026-04-11T09:52:21.001Z</time></trkpt><trkpt lat="45.636127488024584" lon="10.442137035323407"><ele>407.0</ele><time>2026-04-11T09:52:22.001Z</time></trkpt><trkpt lat="45.636239241676385" lon="10.442061908230865"><ele>401.5</ele><time>2026-04-11T09:52:23.001Z</time></trkpt><trkpt lat="45.6363646724176" lon="10.442001151726275"><ele>396.0</ele><time>2026-04-11T09:52:24.001Z</time></trkpt><trkpt lat="45.63652507086728" lon="10.441913874271087"><ele>390.5</ele><time>2026-04-11T09:52:25.001Z</time></trkpt><trkpt lat="45.63666093946251" lon="10.441847637495771"><ele>385.0</ele><time>2026-04-11T09:52:26.001Z</time></trkpt><trkpt lat="45.636764064529906" lon="10.44182294526761"><ele>385.0</ele><time>2026-04-11T09:52:27.001Z</time></trkpt><trkpt lat="45.63683000057725" lon="10.441820262161606"><ele>385.0</ele><time>2026-04-11T09:52:28.001Z</time></trkpt><trkpt lat="45.636944987028734" lon="10.441872195371577"><ele>385.0</ele><time>2026-04-11T09:52:30.001Z</time></trkpt><trkpt lat="45.63704343224215" lon="10.441974178225122"><ele>385.0</ele><time>2026-04-11T09:52:31.001Z</time></trkpt><trkpt lat="45.63713321781254" lon="10.442077010873513"><ele>385.0</ele><time>2026-04-11T09:52:32.001Z</time></trkpt><trkpt lat="45.637213849181286" lon="10.442182070789707"><ele>384.2</ele><time>2026-04-11T09:52:33.001Z</time></trkpt><trkpt lat="45.637271243391616" lon="10.442258842955212"><ele>383.4</ele><time>2026-04-11T09:52:34.001Z</time></trkpt><trkpt lat="45.63736124810075" lon="10.44232306393101"><ele>382.6</ele><time>2026-04-11T09:52:35.001Z</time></trkpt><trkpt lat="45.63746719033171" lon="10.44235675993037"><ele>381.8</ele><time>2026-04-11T09:52:36.001Z</time></trkpt><trkpt lat="45.637522706112755" lon="10.442476288658774"><ele>381.0</ele><time>2026-04-11T09:52:38.001Z</time></trkpt><trkpt lat="45.63752071681971" lon="10.442640209225551"><ele>381.0</ele><time>2026-04-11T09:52:39.001Z</time></trkpt><trkpt lat="45.63749744418439" lon="10.442801393477632"><ele>381.0</ele><time>2026-04-11T09:52:40.001Z</time></trkpt><trkpt lat="45.637459248758915" lon="10.442956979906537"><ele>381.0</ele><time>2026-04-11T09:52:41.001Z</time></trkpt><trkpt lat="45.6374125882068" lon="10.44310507075055"><ele>381.0</ele><time>2026-04-11T09:52:42.001Z</time></trkpt><trkpt lat="45.63737645034288" lon="10.443237406750693"><ele>381.0</ele><time>2026-04-11T09:52:43.001Z</time></trkpt><trkpt lat="45.63735007482274" lon="10.44333433861708"><ele>380.85714285714283</ele><time>2026-04-11T09:52:44.001Z</time></trkpt><trkpt lat="45.637312572173" lon="10.443429211614049"><ele>380.7142857142857</ele><time>2026-04-11T09:52:50.001Z</time></trkpt><trkpt lat="45.63729404161562" lon="10.443534097077947"><ele>380.57142857142856</ele><time>2026-04-11T09:52:53.001Z</time></trkpt><trkpt lat="45.637266483565924" lon="10.443627722177212"><ele>380.42857142857144</ele><time>2026-04-11T09:52:55.001Z</time></trkpt><trkpt lat="45.63722289558243" lon="10.443695525719106"><ele>380.28571428571433</ele><time>2026-04-11T09:52:57.001Z</time></trkpt><trkpt lat="45.63717340163995" lon="10.443783426909397"><ele>380.14285714285717</ele><time>2026-04-11T09:52:59.001Z</time></trkpt><trkpt lat="45.637120072785976" lon="10.443867929691773"><ele>380.0</ele><time>2026-04-11T09:53:01.001Z</time></trkpt><trkpt lat="45.637086328715625" lon="10.444007752683504"><ele>379.1666666666667</ele><time>2026-04-11T09:53:03.001Z</time></trkpt><trkpt lat="45.63711835385757" lon="10.44411058846712"><ele>378.33333333333337</ele><time>2026-04-11T09:53:06.001Z</time></trkpt><trkpt lat="45.637189507620214" lon="10.444064870368754"><ele>377.5</ele><time>2026-04-11T09:53:08.001Z</time></trkpt><trkpt lat="45.63726429379885" lon="10.444037989337696"><ele>376.6666666666667</ele><time>2026-04-11T09:53:11.002Z</time></trkpt><trkpt lat="45.63733157359345" lon="10.443996086313788"><ele>375.8333333333333</ele><time>2026-04-11T09:53:14.002Z</time></trkpt><trkpt lat="45.63739815695989" lon="10.443931454383304"><ele>375.0</ele><time>2026-04-11T09:53:17.002Z</time></trkpt><trkpt lat="45.6374553978937" lon="10.443878418468193"><ele>375.8333333333333</ele><time>2026-04-11T09:53:19.002Z</time></trkpt><trkpt lat="45.63746790492825" lon="10.443788247783132"><ele>376.6666666666667</ele><time>2026-04-11T09:53:21.002Z</time></trkpt><trkpt lat="45.63749052311026" lon="10.443680079424396"><ele>377.5</ele><time>2026-04-11T09:53:23.002Z</time></trkpt><trkpt lat="45.63754613183819" lon="10.443601244113456"><ele>378.33333333333337</ele><time>2026-04-11T09:53:26.002Z</time></trkpt><trkpt lat="45.63760418392044" lon="10.443552764044274"><ele>379.1666666666667</ele><time>2026-04-11T09:53:28.002Z</time></trkpt><trkpt lat="45.63771883654392" lon="10.44345709939974"><ele>380.0</ele><time>2026-04-11T09:53:35.002Z</time></trkpt><trkpt lat="45.63779377131128" lon="10.44335592881352"><ele>377.6666666666667</ele><time>2026-04-11T09:53:40Z</time></trkpt><trkpt lat="45.637848127423545" lon="10.443222136218305"><ele>375.33333333333337</ele><time>2026-04-11T09:53:52Z</time></trkpt><trkpt lat="45.63787182238069" lon="10.443060275576046"><ele>373.0</ele><time>2026-04-11T09:53:54Z</time></trkpt><trkpt lat="45.63790627545714" lon="10.442961767253113"><ele>370.6666666666667</ele><time>2026-04-11T09:53:55Z</time></trkpt><trkpt lat="45.637894328958645" lon="10.442851379719015"><ele>368.3333333333333</ele><time>2026-04-11T09:53:56Z</time></trkpt><trkpt lat="45.63789836233986" lon="10.442758102162308"><ele>366.0</ele><time>2026-04-11T09:53:57Z</time></trkpt><trkpt lat="45.63791809403491" lon="10.442633200314663"><ele>364.8</ele><time>2026-04-11T09:53:58Z</time></trkpt><trkpt lat="45.63793116983742" lon="10.442523706923545"><ele>363.6</ele><time>2026-04-11T09:53:59Z</time></trkpt><trkpt lat="45.63798543013152" lon="10.442325947728488"><ele>362.4</ele><time>2026-04-11T09:54:00Z</time></trkpt><trkpt lat="45.63803353373463" lon="10.442174339307416"><ele>361.2</ele><time>2026-04-11T09:54:01Z</time></trkpt><trkpt lat="45.63806448435875" lon="10.442037566255872"><ele>360.0</ele><time>2026-04-11T09:54:02Z</time></trkpt><trkpt lat="45.63809479291674" lon="10.441898716146417"><ele>358.4</ele><time>2026-04-11T09:54:03Z</time></trkpt><trkpt lat="45.63810877177241" lon="10.441756763061761"><ele>356.8</ele><time>2026-04-11T09:54:04Z</time></trkpt><trkpt lat="45.63813079428529" lon="10.441622751534286"><ele>355.20000000000005</ele><time>2026-04-11T09:54:05Z</time></trkpt><trkpt lat="45.63812315915986" lon="10.441481078814196"><ele>353.6</ele><time>2026-04-11T09:54:06Z</time></trkpt><trkpt lat="45.638124633058496" lon="10.441357233507691"><ele>352.0</ele><time>2026-04-11T09:54:07Z</time></trkpt><trkpt lat="45.63811457288173" lon="10.441233586761193"><ele>350.5</ele><time>2026-04-11T09:54:08Z</time></trkpt><trkpt lat="45.63812757793449" lon="10.441124315108802"><ele>349.0</ele><time>2026-04-11T09:54:09Z</time></trkpt><trkpt lat="45.638173533115726" lon="10.441048949752346"><ele>347.5</ele><time>2026-04-11T09:54:10Z</time></trkpt><trkpt lat="45.63823295678931" lon="10.440977683429471"><ele>346.0</ele><time>2026-04-11T09:54:11Z</time></trkpt><trkpt lat="45.63831198386488" lon="10.440887447685814"><ele>344.5</ele><time>2026-04-11T09:54:12Z</time></trkpt><trkpt lat="45.63840072079031" lon="10.440811263264344"><ele>343.0</ele><time>2026-04-11T09:54:13Z</time></trkpt><trkpt lat="45.638481723056074" lon="10.440758863088826"><ele>343.0</ele><time>2026-04-11T09:54:14Z</time></trkpt><trkpt lat="45.63855718933111" lon="10.44068914195194"><ele>343.0</ele><time>2026-04-11T09:54:15Z</time></trkpt><trkpt lat="45.63861129356211" lon="10.440614702734651"><ele>343.0</ele><time>2026-04-11T09:54:16Z</time></trkpt><trkpt lat="45.63865593090494" lon="10.440526998721566"><ele>343.0</ele><time>2026-04-11T09:54:17Z</time></trkpt><trkpt lat="45.63859212081579" lon="10.440393636810647"><ele>343.0</ele><time>2026-04-11T09:54:19Z</time></trkpt><trkpt lat="45.63856751558883" lon="10.440293978205387"><ele>343.0</ele><time>2026-04-11T09:54:20Z</time></trkpt><trkpt lat="45.638540576455426" lon="10.440136904655342"><ele>341.0</ele><time>2026-04-11T09:54:22.001Z</time></trkpt><trkpt lat="45.63859431537719" lon="10.440051055253912"><ele>339.0</ele><time>2026-04-11T09:54:23.001Z</time></trkpt><trkpt lat="45.63865995777086" lon="10.439964981565025"><ele>337.0</ele><time>2026-04-11T09:54:24.001Z</time></trkpt><trkpt lat="45.63874053851552" lon="10.439912963849833"><ele>335.0</ele><time>2026-04-11T09:54:25.001Z</time></trkpt><trkpt lat="45.63880522273421" lon="10.439825344056256"><ele>333.0</ele><time>2026-04-11T09:54:26.001Z</time></trkpt><trkpt lat="45.63887413486829" lon="10.43975288315381"><ele>331.0</ele><time>2026-04-11T09:54:27.001Z</time></trkpt><trkpt lat="45.63894506977251" lon="10.4396971804117"><ele>330.5</ele><time>2026-04-11T09:54:28.001Z</time></trkpt><trkpt lat="45.63901105377071" lon="10.439649670628341"><ele>330.0</ele><time>2026-04-11T09:54:29.001Z</time></trkpt><trkpt lat="45.639062878063676" lon="10.43959563024957"><ele>329.5</ele><time>2026-04-11T09:54:30.001Z</time></trkpt><trkpt lat="45.639099437494465" lon="10.439507715081799"><ele>329.0</ele><time>2026-04-11T09:54:31.001Z</time></trkpt><trkpt lat="45.63912871264988" lon="10.439400905368093"><ele>328.5</ele><time>2026-04-11T09:54:32.001Z</time></trkpt><trkpt lat="45.63916527440095" lon="10.43926078712514"><ele>328.0</ele><time>2026-04-11T09:54:33.001Z</time></trkpt><trkpt lat="45.63922049770376" lon="10.439164768638342"><ele>325.16666666666663</ele><time>2026-04-11T09:54:34.001Z</time></trkpt><trkpt lat="45.63927914816201" lon="10.439097141538427"><ele>322.3333333333333</ele><time>2026-04-11T09:54:35.001Z</time></trkpt><trkpt lat="45.6393602317057" lon="10.439091389949713"><ele>319.5</ele><time>2026-04-11T09:54:36.001Z</time></trkpt><trkpt lat="45.639420843402306" lon="10.439062743812993"><ele>316.6666666666667</ele><time>2026-04-11T09:54:37.001Z</time></trkpt><trkpt lat="45.63952933418" lon="10.439092880369117"><ele>313.83333333333337</ele><time>2026-04-11T09:54:38.001Z</time></trkpt><trkpt lat="45.6396131770958" lon="10.439077062354464"><ele>311.0</ele><time>2026-04-11T09:54:39.001Z</time></trkpt><trkpt lat="45.639704743618665" lon="10.439021582073956"><ele>311.0</ele><time>2026-04-11T09:54:40.001Z</time></trkpt><trkpt lat="45.63979567619797" lon="10.438968377698313"><ele>311.0</ele><time>2026-04-11T09:54:41.001Z</time></trkpt><trkpt lat="45.639865501752276" lon="10.438912152023429"><ele>311.0</ele><time>2026-04-11T09:54:42.001Z</time></trkpt><trkpt lat="45.63994506089288" lon="10.438882554713766"><ele>311.0</ele><time>2026-04-11T09:54:43.001Z</time></trkpt><trkpt lat="45.640034980871825" lon="10.43884598098698"><ele>311.0</ele><time>2026-04-11T09:54:44.001Z</time></trkpt><trkpt lat="45.64013366778479" lon="10.438815059191771"><ele>309.33333333333337</ele><time>2026-04-11T09:54:45.001Z</time></trkpt><trkpt lat="45.640214944589445" lon="10.438788256413448"><ele>307.6666666666667</ele><time>2026-04-11T09:54:46.001Z</time></trkpt><trkpt lat="45.640284552256205" lon="10.438760077060133"><ele>306.0</ele><time>2026-04-11T09:54:47.001Z</time></trkpt><trkpt lat="45.64035169610492" lon="10.438646853432846"><ele>304.3333333333333</ele><time>2026-04-11T09:54:49.001Z</time></trkpt><trkpt lat="45.640332479608944" lon="10.438543365490537"><ele>302.66666666666663</ele><time>2026-04-11T09:54:50.001Z</time></trkpt><trkpt lat="45.640299805216785" lon="10.438442956182094"><ele>301.0</ele><time>2026-04-11T09:54:51.001Z</time></trkpt><trkpt lat="45.64033436503954" lon="10.438319558607661"><ele>301.0</ele><time>2026-04-11T09:54:52.001Z</time></trkpt><trkpt lat="45.640380343613096" lon="10.438208957709787"><ele>301.0</ele><time>2026-04-11T09:54:53.001Z</time></trkpt><trkpt lat="45.64045163131582" lon="10.43804698436057"><ele>301.0</ele><time>2026-04-11T09:54:54.001Z</time></trkpt><trkpt lat="45.64052518495935" lon="10.437886746943853"><ele>301.0</ele><time>2026-04-11T09:54:55.001Z</time></trkpt><trkpt lat="45.640603875242626" lon="10.437709644568923"><ele>299.5</ele><time>2026-04-11T09:54:56.001Z</time></trkpt><trkpt lat="45.640667726710966" lon="10.437563776997662"><ele>298.0</ele><time>2026-04-11T09:54:57.001Z</time></trkpt><trkpt lat="45.64075591844917" lon="10.437398062150466"><ele>296.5</ele><time>2026-04-11T09:54:58.001Z</time></trkpt><trkpt lat="45.640845431418555" lon="10.4372429330019"><ele>295.0</ele><time>2026-04-11T09:54:59.001Z</time></trkpt><trkpt lat="45.64092632025287" lon="10.437103857846374"><ele>294.0</ele><time>2026-04-11T09:55:00.001Z</time></trkpt><trkpt lat="45.641008312583644" lon="10.436962441567859"><ele>293.0</ele><time>2026-04-11T09:55:01.001Z</time></trkpt><trkpt lat="45.641074484841766" lon="10.436847879275533"><ele>292.0</ele><time>2026-04-11T09:55:02.001Z</time></trkpt><trkpt lat="45.64113279243164" lon="10.436746932875144"><ele>291.0</ele><time>2026-04-11T09:55:03.001Z</time></trkpt><trkpt lat="45.641195400142294" lon="10.43663854178039"><ele>290.0</ele><time>2026-04-11T09:55:04.001Z</time></trkpt><trkpt lat="45.641254850570085" lon="10.436535344562392"><ele>289.8</ele><time>2026-04-11T09:55:05.001Z</time></trkpt><trkpt lat="45.641321800138954" lon="10.436419051931543"><ele>289.6</ele><time>2026-04-11T09:55:06.001Z</time></trkpt><trkpt lat="45.64138799028159" lon="10.436304078434166"><ele>289.4</ele><time>2026-04-11T09:55:07.001Z</time></trkpt><trkpt lat="45.64144218686252" lon="10.436207265711396"><ele>289.2</ele><time>2026-04-11T09:55:08.001Z</time></trkpt><trkpt lat="45.6414998599937" lon="10.436104312020248"><ele>289.0</ele><time>2026-04-11T09:55:09.001Z</time></trkpt><trkpt lat="45.64155625701148" lon="10.436010060696699"><ele>288.8</ele><time>2026-04-11T09:55:10.001Z</time></trkpt><trkpt lat="45.641619703822464" lon="10.435901212038178"><ele>288.59999999999997</ele><time>2026-04-11T09:55:11.001Z</time></trkpt><trkpt lat="45.64169040990903" lon="10.43580845027874"><ele>288.4</ele><time>2026-04-11T09:55:12.001Z</time></trkpt><trkpt lat="45.6417877244335" lon="10.435782159886521"><ele>288.2</ele><time>2026-04-11T09:55:13.001Z</time></trkpt><trkpt lat="45.64188442741424" lon="10.435803350479341"><ele>288.0</ele><time>2026-04-11T09:55:14.001Z</time></trkpt><trkpt lat="45.64200956911398" lon="10.435785157931782"><ele>287.6</ele><time>2026-04-11T09:55:15.001Z</time></trkpt><trkpt lat="45.642115385704265" lon="10.435763686856976"><ele>287.20000000000005</ele><time>2026-04-11T09:55:16.001Z</time></trkpt><trkpt lat="45.64222410337929" lon="10.435740871891564"><ele>286.8</ele><time>2026-04-11T09:55:17.001Z</time></trkpt><trkpt lat="45.64233760598322" lon="10.435720309459942"><ele>286.40000000000003</ele><time>2026-04-11T09:55:18.001Z</time></trkpt><trkpt lat="45.64245087113178" lon="10.435694059208585"><ele>286.0</ele><time>2026-04-11T09:55:19.001Z</time></trkpt><trkpt lat="45.642551356060466" lon="10.435645282975718"><ele>286.0</ele><time>2026-04-11T09:55:20.001Z</time></trkpt><trkpt lat="45.642640537803004" lon="10.435539469241553"><ele>286.0</ele><time>2026-04-11T09:55:21.001Z</time></trkpt><trkpt lat="45.6427271479045" lon="10.435454048746813"><ele>286.0</ele><time>2026-04-11T09:55:22.001Z</time></trkpt><trkpt lat="45.64281371830655" lon="10.435375149282711"><ele>286.0</ele><time>2026-04-11T09:55:23.001Z</time></trkpt><trkpt lat="45.6429031625303" lon="10.43532159716497"><ele>286.0</ele><time>2026-04-11T09:55:24.001Z</time></trkpt><trkpt lat="45.64301029871599" lon="10.43527129048924"><ele>285.75</ele><time>2026-04-11T09:55:25.001Z</time></trkpt><trkpt lat="45.643121248450804" lon="10.435173430224351"><ele>285.5</ele><time>2026-04-11T09:55:26.001Z</time></trkpt><trkpt lat="45.64322382506965" lon="10.435056675430406"><ele>285.25</ele><time>2026-04-11T09:55:27.001Z</time></trkpt><trkpt lat="45.64332355253608" lon="10.434909784518737"><ele>285.0</ele><time>2026-04-11T09:55:28.001Z</time></trkpt><trkpt lat="45.64345441369851" lon="10.434846575840268"><ele>285.0</ele><time>2026-04-11T09:55:29.001Z</time></trkpt><trkpt lat="45.64358974280511" lon="10.43478393305767"><ele>285.0</ele><time>2026-04-11T09:55:30.001Z</time></trkpt><trkpt lat="45.643707178260335" lon="10.434718985249742"><ele>285.0</ele><time>2026-04-11T09:55:31.001Z</time></trkpt><trkpt lat="45.64382634350039" lon="10.434656297897622"><ele>285.0</ele><time>2026-04-11T09:55:32.002Z</time></trkpt><trkpt lat="45.643930740219076" lon="10.434620219617864"><ele>288.5</ele><time>2026-04-11T09:55:33.002Z</time></trkpt><trkpt lat="45.6440436284392" lon="10.43458968982348"><ele>292.0</ele><time>2026-04-11T09:55:34.002Z</time></trkpt><trkpt lat="45.64415566964664" lon="10.43457069664455"><ele>295.5</ele><time>2026-04-11T09:55:35.002Z</time></trkpt><trkpt lat="45.64428241601101" lon="10.434558738583535"><ele>299.0</ele><time>2026-04-11T09:55:36.002Z</time></trkpt><trkpt lat="45.64442765390787" lon="10.434556008188197"><ele>299.5</ele><time>2026-04-11T09:55:37.002Z</time></trkpt><trkpt lat="45.644555540223735" lon="10.434563696440977"><ele>300.0</ele><time>2026-04-11T09:55:38.002Z</time></trkpt><trkpt lat="45.644684242048896" lon="10.434585412481482"><ele>300.5</ele><time>2026-04-11T09:55:39.002Z</time></trkpt><trkpt lat="45.64480317407496" lon="10.43462714528162"><ele>301.0</ele><time>2026-04-11T09:55:40.002Z</time></trkpt><trkpt lat="45.64493338096584" lon="10.434681583818278"><ele>296.5</ele><time>2026-04-11T09:55:41.002Z</time></trkpt><trkpt lat="45.645055959878114" lon="10.43473679223419"><ele>292.0</ele><time>2026-04-11T09:55:42.002Z</time></trkpt><trkpt lat="45.64516997548224" lon="10.434777343388562"><ele>287.5</ele><time>2026-04-11T09:55:43.002Z</time></trkpt><trkpt lat="45.645275070274174" lon="10.43484231920442"><ele>283.0</ele><time>2026-04-11T09:55:44Z</time></trkpt><trkpt lat="45.645369857958585" lon="10.43487718502833"><ele>282.0</ele><time>2026-04-11T09:55:45Z</time></trkpt><trkpt lat="45.645492157391416" lon="10.434848249657133"><ele>281.0</ele><time>2026-04-11T09:55:46Z</time></trkpt><trkpt lat="45.64558731710595" lon="10.434731362262422"><ele>280.0</ele><time>2026-04-11T09:55:47Z</time></trkpt><trkpt lat="45.64571238247277" lon="10.434683150635777"><ele>279.0</ele><time>2026-04-11T09:55:48Z</time></trkpt><trkpt lat="45.645879866389905" lon="10.434587117039381"><ele>279.0</ele><time>2026-04-11T09:55:49Z</time></trkpt><trkpt lat="45.6459697588294" lon="10.434575931472576"><ele>279.0</ele><time>2026-04-11T09:55:50Z</time></trkpt><trkpt lat="45.64607410411529" lon="10.434534931886505"><ele>279.0</ele><time>2026-04-11T09:55:51Z</time></trkpt><trkpt lat="45.64618130379944" lon="10.43449754138813"><ele>279.0</ele><time>2026-04-11T09:55:52Z</time></trkpt><trkpt lat="45.64628527658324" lon="10.434482497844195"><ele>279.0</ele><time>2026-04-11T09:55:53Z</time></trkpt><trkpt lat="45.646398249018944" lon="10.43448901505818"><ele>279.0</ele><time>2026-04-11T09:55:54Z</time></trkpt><trkpt lat="45.64651060566271" lon="10.434475473370924"><ele>279.0</ele><time>2026-04-11T09:55:55Z</time></trkpt><trkpt lat="45.646634369597564" lon="10.434439577007087"><ele>279.0</ele><time>2026-04-11T09:55:56Z</time></trkpt><trkpt lat="45.6467547511001" lon="10.434415878843712"><ele>279.0</ele><time>2026-04-11T09:55:57Z</time></trkpt><trkpt lat="45.64685284267605" lon="10.434339607119108"><ele>279.0</ele><time>2026-04-11T09:55:58Z</time></trkpt><trkpt lat="45.646935965858596" lon="10.43428113814514"><ele>279.0</ele><time>2026-04-11T09:55:59Z</time></trkpt><trkpt lat="45.64701526304471" lon="10.434225701195745"><ele>279.0</ele><time>2026-04-11T09:56:00Z</time></trkpt><trkpt lat="45.64708523340666" lon="10.434204806581416"><ele>279.0</ele><time>2026-04-11T09:56:01Z</time></trkpt><trkpt lat="45.64716245913829" lon="10.434154081442214"><ele>279.0</ele><time>2026-04-11T09:56:03Z</time></trkpt><trkpt lat="45.64709736795852" lon="10.433866990787571"><ele>279.5</ele><time>2026-04-11T09:56:04Z</time></trkpt><trkpt lat="45.64709190607462" lon="10.43374134679267"><ele>280.0</ele><time>2026-04-11T09:56:05Z</time></trkpt><trkpt lat="45.64709773003428" lon="10.43363975056533"><ele>280.5</ele><time>2026-04-11T09:56:06Z</time></trkpt><trkpt lat="45.647094141457465" lon="10.433487021287291"><ele>281.0</ele><time>2026-04-11T09:56:07Z</time></trkpt><trkpt lat="45.64708281692649" lon="10.433360164942906"><ele>281.5</ele><time>2026-04-11T09:56:08Z</time></trkpt><trkpt lat="45.64706899638901" lon="10.433261257676335"><ele>282.0</ele><time>2026-04-11T09:56:09Z</time></trkpt><trkpt lat="45.64705801166812" lon="10.433131306831477"><ele>282.0</ele><time>2026-04-11T09:56:10Z</time></trkpt><trkpt lat="45.647049855136984" lon="10.432993549947163"><ele>282.0</ele><time>2026-04-11T09:56:11Z</time></trkpt><trkpt lat="45.647040590840746" lon="10.432860480720832"><ele>282.0</ele><time>2026-04-11T09:56:12Z</time></trkpt><trkpt lat="45.64702838203835" lon="10.43269902217823"><ele>282.0</ele><time>2026-04-11T09:56:13Z</time></trkpt><trkpt lat="45.647021525113374" lon="10.432507898937459"><ele>282.0</ele><time>2026-04-11T09:56:14Z</time></trkpt><trkpt lat="45.64703279143877" lon="10.432342289619047"><ele>282.0</ele><time>2026-04-11T09:56:15Z</time></trkpt><trkpt lat="45.64701161782751" lon="10.43218917831889"><ele>282.0</ele><time>2026-04-11T09:56:16Z</time></trkpt><trkpt lat="45.646995974126945" lon="10.431999209630009"><ele>282.0</ele><time>2026-04-11T09:56:17Z</time></trkpt><trkpt lat="45.6469909079767" lon="10.431812318738583"><ele>282.0</ele><time>2026-04-11T09:56:18Z</time></trkpt><trkpt lat="45.646991562987026" lon="10.43165111696413"><ele>282.0</ele><time>2026-04-11T09:56:19Z</time></trkpt><trkpt lat="45.64700069218651" lon="10.431521068007994"><ele>282.0</ele><time>2026-04-11T09:56:20Z</time></trkpt><trkpt lat="45.647034608748484" lon="10.431383693678093"><ele>282.0</ele><time>2026-04-11T09:56:21Z</time></trkpt><trkpt lat="45.647071443428146" lon="10.43124693491776"><ele>282.0</ele><time>2026-04-11T09:56:22Z</time></trkpt><trkpt lat="45.64711120345681" lon="10.431120862281464"><ele>282.0</ele><time>2026-04-11T09:56:23Z</time></trkpt><trkpt lat="45.64715733622209" lon="10.430984359031996"><ele>282.0</ele><time>2026-04-11T09:56:24.001Z</time></trkpt><trkpt lat="45.64720580559279" lon="10.430854696767522"><ele>282.0</ele><time>2026-04-11T09:56:25.001Z</time></trkpt><trkpt lat="45.647259318352035" lon="10.430709470835117"><ele>282.0</ele><time>2026-04-11T09:56:26.001Z</time></trkpt><trkpt lat="45.64731586945085" lon="10.430556048084286"><ele>282.0</ele><time>2026-04-11T09:56:27.001Z</time></trkpt><trkpt lat="45.64736667085122" lon="10.430379137859072"><ele>282.0</ele><time>2026-04-11T09:56:28.001Z</time></trkpt><trkpt lat="45.647445952609736" lon="10.430224269914692"><ele>282.0</ele><time>2026-04-11T09:56:29.001Z</time></trkpt><trkpt lat="45.64750700709829" lon="10.430056127778718"><ele>282.0</ele><time>2026-04-11T09:56:30.001Z</time></trkpt><trkpt lat="45.647564300047534" lon="10.42988964351345"><ele>282.0</ele><time>2026-04-11T09:56:31.001Z</time></trkpt><trkpt lat="45.64761956786099" lon="10.429728550654565"><ele>282.0</ele><time>2026-04-11T09:56:32.001Z</time></trkpt><trkpt lat="45.64765488298043" lon="10.429568798998936"><ele>282.0</ele><time>2026-04-11T09:56:33.001Z</time></trkpt><trkpt lat="45.64768896376689" lon="10.429408129265841"><ele>282.0</ele><time>2026-04-11T09:56:34.001Z</time></trkpt><trkpt lat="45.64772129832506" lon="10.429225965316785"><ele>282.0</ele><time>2026-04-11T09:56:35.001Z</time></trkpt><trkpt lat="45.64778746013676" lon="10.429059790063826"><ele>282.75</ele><time>2026-04-11T09:56:36.001Z</time></trkpt><trkpt lat="45.64786767627653" lon="10.428896354424829"><ele>283.5</ele><time>2026-04-11T09:56:37.001Z</time></trkpt><trkpt lat="45.64797810676622" lon="10.42876601587954"><ele>284.25</ele><time>2026-04-11T09:56:38.001Z</time></trkpt><trkpt lat="45.648084448152986" lon="10.428623914090323"><ele>285.0</ele><time>2026-04-11T09:56:39.001Z</time></trkpt><trkpt lat="45.64818732232081" lon="10.428476302945734"><ele>285.0</ele><time>2026-04-11T09:56:40.001Z</time></trkpt><trkpt lat="45.64826845315293" lon="10.428311338005036"><ele>285.0</ele><time>2026-04-11T09:56:41.001Z</time></trkpt><trkpt lat="45.64834334302883" lon="10.428144924632466"><ele>285.0</ele><time>2026-04-11T09:56:42.001Z</time></trkpt><trkpt lat="45.648425922108466" lon="10.427980900663723"><ele>285.0</ele><time>2026-04-11T09:56:43.001Z</time></trkpt><trkpt lat="45.64850462523488" lon="10.427812498470779"><ele>285.5</ele><time>2026-04-11T09:56:44.001Z</time></trkpt><trkpt lat="45.64858354460368" lon="10.427638253096207"><ele>286.0</ele><time>2026-04-11T09:56:45.001Z</time></trkpt><trkpt lat="45.648674162945255" lon="10.427472603447567"><ele>286.5</ele><time>2026-04-11T09:56:46.001Z</time></trkpt><trkpt lat="45.64875627806254" lon="10.427330525160313"><ele>287.0</ele><time>2026-04-11T09:56:47.001Z</time></trkpt><trkpt lat="45.648832729074606" lon="10.427157778676944"><ele>286.25</ele><time>2026-04-11T09:56:48.001Z</time></trkpt><trkpt lat="45.64890222648411" lon="10.426987550519975"><ele>285.5</ele><time>2026-04-11T09:56:49.001Z</time></trkpt><trkpt lat="45.648958598885535" lon="10.42680258701739"><ele>284.75</ele><time>2026-04-11T09:56:50.001Z</time></trkpt><trkpt lat="45.648991701293156" lon="10.42662023278491"><ele>284.0</ele><time>2026-04-11T09:56:51.001Z</time></trkpt><trkpt lat="45.64902775373481" lon="10.426443194901326"><ele>283.25</ele><time>2026-04-11T09:56:52.001Z</time></trkpt><trkpt lat="45.649076257618496" lon="10.426264595183726"><ele>282.5</ele><time>2026-04-11T09:56:53.001Z</time></trkpt><trkpt lat="45.649132922905785" lon="10.426083801300086"><ele>281.75</ele><time>2026-04-11T09:56:54.001Z</time></trkpt><trkpt lat="45.64919231691184" lon="10.42590950400126"><ele>281.0</ele><time>2026-04-11T09:56:55.001Z</time></trkpt><trkpt lat="45.64926417163059" lon="10.425739435610494"><ele>281.0</ele><time>2026-04-11T09:56:56.001Z</time></trkpt><trkpt lat="45.64935225269179" lon="10.425586718943217"><ele>281.0</ele><time>2026-04-11T09:56:57.001Z</time></trkpt><trkpt lat="45.64943951845585" lon="10.425456046754453"><ele>281.0</ele><time>2026-04-11T09:56:58.001Z</time></trkpt><trkpt lat="45.64952349812947" lon="10.425325848585386"><ele>281.0</ele><time>2026-04-11T09:56:59.001Z</time></trkpt><trkpt lat="45.64960540586337" lon="10.425185497915347"><ele>281.75</ele><time>2026-04-11T09:57:00.001Z</time></trkpt><trkpt lat="45.64968701920546" lon="10.425040214958855"><ele>282.5</ele><time>2026-04-11T09:57:01.001Z</time></trkpt><trkpt lat="45.64976955573037" lon="10.42489623091086"><ele>283.25</ele><time>2026-04-11T09:57:02.001Z</time></trkpt><trkpt lat="45.649846297490846" lon="10.424767704651789"><ele>284.0</ele><time>2026-04-11T09:57:03.001Z</time></trkpt><trkpt lat="45.649915018895385" lon="10.424653700046292"><ele>283.4</ele><time>2026-04-11T09:57:04.001Z</time></trkpt><trkpt lat="45.64998195934159" lon="10.424548955651932"><ele>282.79999999999995</ele><time>2026-04-11T09:57:05.001Z</time></trkpt><trkpt lat="45.65004641373956" lon="10.424450054085998"><ele>282.20000000000005</ele><time>2026-04-11T09:57:06.001Z</time></trkpt><trkpt lat="45.65011126211903" lon="10.424335383549831"><ele>281.6</ele><time>2026-04-11T09:57:07.001Z</time></trkpt><trkpt lat="45.650176345894" lon="10.424221163203702"><ele>281.0</ele><time>2026-04-11T09:57:08.001Z</time></trkpt><trkpt lat="45.65025081437336" lon="10.424102075470556"><ele>281.5</ele><time>2026-04-11T09:57:09.001Z</time></trkpt><trkpt lat="45.65033634700934" lon="10.423963999162703"><ele>282.0</ele><time>2026-04-11T09:57:10.001Z</time></trkpt><trkpt lat="45.65043822218084" lon="10.42381361296525"><ele>282.5</ele><time>2026-04-11T09:57:11.001Z</time></trkpt><trkpt lat="45.650546332301666" lon="10.423658720490126"><ele>283.0</ele><time>2026-04-11T09:57:12.001Z</time></trkpt><trkpt lat="45.650651720253386" lon="10.423520133260503"><ele>283.0</ele><time>2026-04-11T09:57:13.001Z</time></trkpt><trkpt lat="45.65074686779228" lon="10.423408266140298"><ele>283.0</ele><time>2026-04-11T09:57:14.001Z</time></trkpt><trkpt lat="45.650829556780565" lon="10.423309768203334"><ele>283.0</ele><time>2026-04-11T09:57:15.001Z</time></trkpt><trkpt lat="45.650904270099154" lon="10.423210449408243"><ele>283.0</ele><time>2026-04-11T09:57:16.001Z</time></trkpt><trkpt lat="45.65096551297613" lon="10.423109704192601"><ele>283.0</ele><time>2026-04-11T09:57:17.001Z</time></trkpt><trkpt lat="45.651010717972135" lon="10.423005171203494"><ele>283.0</ele><time>2026-04-11T09:57:18.001Z</time></trkpt><trkpt lat="45.651045926962134" lon="10.422864613666835"><ele>283.0</ele><time>2026-04-11T09:57:19.001Z</time></trkpt><trkpt lat="45.65109672244197" lon="10.422722862125418"><ele>283.0</ele><time>2026-04-11T09:57:20.001Z</time></trkpt><trkpt lat="45.65116853820839" lon="10.422603532386814"><ele>283.0</ele><time>2026-04-11T09:57:21.001Z</time></trkpt><trkpt lat="45.65124405580624" lon="10.422518319476632"><ele>283.0</ele><time>2026-04-11T09:57:22.001Z</time></trkpt><trkpt lat="45.65133463354074" lon="10.422449032292281"><ele>283.0</ele><time>2026-04-11T09:57:23.001Z</time></trkpt><trkpt lat="45.651412679899074" lon="10.422360324533953"><ele>283.0</ele><time>2026-04-11T09:57:24.001Z</time></trkpt><trkpt lat="45.65148578224765" lon="10.422268655490285"><ele>283.0</ele><time>2026-04-11T09:57:25.001Z</time></trkpt><trkpt lat="45.651558662825686" lon="10.422182590692712"><ele>283.0</ele><time>2026-04-11T09:57:26.001Z</time></trkpt><trkpt lat="45.65163584832817" lon="10.42209345850264"><ele>283.0</ele><time>2026-04-11T09:57:27.001Z</time></trkpt><trkpt lat="45.65170881078589" lon="10.422004002716742"><ele>282.8</ele><time>2026-04-11T09:57:28.001Z</time></trkpt><trkpt lat="45.651778410205154" lon="10.42191374871952"><ele>282.6</ele><time>2026-04-11T09:57:29.001Z</time></trkpt><trkpt lat="45.65184805463247" lon="10.42181263167447"><ele>282.4</ele><time>2026-04-11T09:57:30.001Z</time></trkpt><trkpt lat="45.65191596594312" lon="10.421705017650622"><ele>282.2</ele><time>2026-04-11T09:57:31.001Z</time></trkpt><trkpt lat="45.651975807440685" lon="10.421594610793703"><ele>282.0</ele><time>2026-04-11T09:57:32.001Z</time></trkpt><trkpt lat="45.65203925027322" lon="10.421482646267473"><ele>282.2</ele><time>2026-04-11T09:57:33.002Z</time></trkpt><trkpt lat="45.65210137317225" lon="10.421403882930216"><ele>282.4</ele><time>2026-04-11T09:57:34.002Z</time></trkpt><trkpt lat="45.65219075772055" lon="10.421259020567879"><ele>282.6</ele><time>2026-04-11T09:57:35.002Z</time></trkpt><trkpt lat="45.652264425039334" lon="10.421138562534148"><ele>282.8</ele><time>2026-04-11T09:57:36.002Z</time></trkpt><trkpt lat="45.652327507213" lon="10.421024072955092"><ele>283.0</ele><time>2026-04-11T09:57:37.002Z</time></trkpt><trkpt lat="45.65239137473127" lon="10.420942081200593"><ele>283.0</ele><time>2026-04-11T09:57:38.002Z</time></trkpt><trkpt lat="45.652447828174296" lon="10.420857807615793"><ele>283.0</ele><time>2026-04-11T09:57:39.002Z</time></trkpt><trkpt lat="45.65253241713789" lon="10.420791377367816"><ele>283.0</ele><time>2026-04-11T09:57:40.002Z</time></trkpt><trkpt lat="45.65260532186685" lon="10.42072145176722"><ele>283.0</ele><time>2026-04-11T09:57:41.002Z</time></trkpt><trkpt lat="45.65268882898437" lon="10.420645611402833"><ele>283.0</ele><time>2026-04-11T09:57:42.002Z</time></trkpt><trkpt lat="45.65277092553232" lon="10.420572904523846"><ele>283.4</ele><time>2026-04-11T09:57:43.002Z</time></trkpt><trkpt lat="45.652851381020675" lon="10.42050519569086"><ele>283.8</ele><time>2026-04-11T09:57:44.002Z</time></trkpt><trkpt lat="45.652948129367125" lon="10.420425169760733"><ele>284.2</ele><time>2026-04-11T09:57:45.002Z</time></trkpt><trkpt lat="45.65303695934921" lon="10.42035219440172"><ele>284.6</ele><time>2026-04-11T09:57:46.002Z</time></trkpt><trkpt lat="45.65313866962898" lon="10.420268637619982"><ele>285.0</ele><time>2026-04-11T09:57:47.002Z</time></trkpt><trkpt lat="45.6532349407729" lon="10.42018902005009"><ele>285.0</ele><time>2026-04-11T09:57:48.002Z</time></trkpt><trkpt lat="45.65332947664302" lon="10.420109918592361"><ele>285.0</ele><time>2026-04-11T09:57:49.002Z</time></trkpt><trkpt lat="45.65341878526422" lon="10.420035190985617"><ele>285.0</ele><time>2026-04-11T09:57:50Z</time></trkpt><trkpt lat="45.65350916997484" lon="10.419960849223976"><ele>285.0</ele><time>2026-04-11T09:57:51Z</time></trkpt><trkpt lat="45.65356225444818" lon="10.419907738747392"><ele>285.0</ele><time>2026-04-11T09:57:52Z</time></trkpt><trkpt lat="45.653623178001276" lon="10.419859873175728"><ele>285.25</ele><time>2026-04-11T09:57:53Z</time></trkpt><trkpt lat="45.653689810159506" lon="10.41981441032385"><ele>285.5</ele><time>2026-04-11T09:57:57Z</time></trkpt><trkpt lat="45.65351391522859" lon="10.419593627915683"><ele>285.75</ele><time>2026-04-11T09:57:59Z</time></trkpt><trkpt lat="45.65343985067902" lon="10.419516845897363"><ele>286.0</ele><time>2026-04-11T09:58:00Z</time></trkpt><trkpt lat="45.65337864220465" lon="10.419422869758366"><ele>286.0</ele><time>2026-04-11T09:58:01Z</time></trkpt><trkpt lat="45.65329981485618" lon="10.419345443671364"><ele>286.0</ele><time>2026-04-11T09:58:02Z</time></trkpt><trkpt lat="45.65322292979411" lon="10.419269267618064"><ele>286.0</ele><time>2026-04-11T09:58:03Z</time></trkpt><trkpt lat="45.653152325702045" lon="10.419156470528184"><ele>286.0</ele><time>2026-04-11T09:58:04Z</time></trkpt><trkpt lat="45.65306386302475" lon="10.419071218466563"><ele>286.0</ele><time>2026-04-11T09:58:05Z</time></trkpt><trkpt lat="45.652977688508415" lon="10.418976813846548"><ele>286.0</ele><time>2026-04-11T09:58:06Z</time></trkpt><trkpt lat="45.652888750317096" lon="10.41887453962073"><ele>286.0</ele><time>2026-04-11T09:58:07Z</time></trkpt><trkpt lat="45.652796377572145" lon="10.418780189294914"><ele>286.0</ele><time>2026-04-11T09:58:08Z</time></trkpt><trkpt lat="45.65270471299727" lon="10.418700936517912"><ele>286.0</ele><time>2026-04-11T09:58:09Z</time></trkpt><trkpt lat="45.65260007271105" lon="10.41866772383281"><ele>286.0</ele><time>2026-04-11T09:58:10Z</time></trkpt><trkpt lat="45.652474142919424" lon="10.418602488513866"><ele>286.25</ele><time>2026-04-11T09:58:11Z</time></trkpt><trkpt lat="45.65236037238441" lon="10.418524176806347"><ele>286.5</ele><time>2026-04-11T09:58:12Z</time></trkpt><trkpt lat="45.652238228720535" lon="10.418417285237329"><ele>286.75</ele><time>2026-04-11T09:58:13Z</time></trkpt><trkpt lat="45.65215909713634" lon="10.418291317797475"><ele>287.0</ele><time>2026-04-11T09:58:14Z</time></trkpt><trkpt lat="45.65206462445893" lon="10.41818065924744"><ele>287.0</ele><time>2026-04-11T09:58:15Z</time></trkpt><trkpt lat="45.65198002843159" lon="10.418083225165837"><ele>287.0</ele><time>2026-04-11T09:58:16Z</time></trkpt><trkpt lat="45.65189860438043" lon="10.418021099981319"><ele>287.0</ele><time>2026-04-11T09:58:17Z</time></trkpt><trkpt lat="45.65180876436375" lon="10.41797378068178"><ele>287.0</ele><time>2026-04-11T09:58:18Z</time></trkpt><trkpt lat="45.6517057969921" lon="10.418000034191488"><ele>287.0</ele><time>2026-04-11T09:58:19Z</time></trkpt><trkpt lat="45.65163296848276" lon="10.417994263079876"><ele>288.2</ele><time>2026-04-11T09:58:20Z</time></trkpt><trkpt lat="45.651539007149154" lon="10.418035280298916"><ele>289.4</ele><time>2026-04-11T09:58:21Z</time></trkpt><trkpt lat="45.65143622145037" lon="10.41806242598371"><ele>290.6</ele><time>2026-04-11T09:58:22Z</time></trkpt><trkpt lat="45.651318054058436" lon="10.418084326441056"><ele>291.8</ele><time>2026-04-11T09:58:23Z</time></trkpt><trkpt lat="45.65121871560055" lon="10.4180772008457"><ele>293.0</ele><time>2026-04-11T09:58:24Z</time></trkpt><trkpt lat="45.651121853789604" lon="10.417962080629104"><ele>293.0</ele><time>2026-04-11T09:58:26Z</time></trkpt><trkpt lat="45.6510257204984" lon="10.417858551134215"><ele>293.0</ele><time>2026-04-11T09:58:27Z</time></trkpt><trkpt lat="45.65092829580045" lon="10.417746648211665"><ele>293.0</ele><time>2026-04-11T09:58:28Z</time></trkpt><trkpt lat="45.650834323485356" lon="10.417681959544309"><ele>293.0</ele><time>2026-04-11T09:58:29Z</time></trkpt><trkpt lat="45.650720206235455" lon="10.417672124898898"><ele>293.0</ele><time>2026-04-11T09:58:30Z</time></trkpt><trkpt lat="45.650612154033446" lon="10.417653469358811"><ele>293.0</ele><time>2026-04-11T09:58:31Z</time></trkpt><trkpt lat="45.65048079002532" lon="10.417609512050213"><ele>293.0</ele><time>2026-04-11T09:58:32Z</time></trkpt><trkpt lat="45.650372778707094" lon="10.417542974638224"><ele>293.0</ele><time>2026-04-11T09:58:33Z</time></trkpt><trkpt lat="45.650279792809776" lon="10.417453149927411"><ele>292.75</ele><time>2026-04-11T09:58:34.001Z</time></trkpt><trkpt lat="45.650185174448545" lon="10.417349232191969"><ele>292.5</ele><time>2026-04-11T09:58:35.001Z</time></trkpt><trkpt lat="45.65008826600863" lon="10.417280182604882"><ele>292.25</ele><time>2026-04-11T09:58:36.001Z</time></trkpt><trkpt lat="45.64999665157979" lon="10.41719504061797"><ele>292.0</ele><time>2026-04-11T09:58:37.001Z</time></trkpt><trkpt lat="45.649913978519876" lon="10.417077535405708"><ele>292.0</ele><time>2026-04-11T09:58:38.001Z</time></trkpt><trkpt lat="45.64984482211382" lon="10.416937838190792"><ele>292.0</ele><time>2026-04-11T09:58:39.001Z</time></trkpt><trkpt lat="45.64976943337851" lon="10.416779372430952"><ele>292.0</ele><time>2026-04-11T09:58:40.001Z</time></trkpt><trkpt lat="45.64966370082859" lon="10.416670661912839"><ele>292.0</ele><time>2026-04-11T09:58:41.001Z</time></trkpt><trkpt lat="45.64954872257019" lon="10.416614074536405"><ele>294.25</ele><time>2026-04-11T09:58:42.001Z</time></trkpt><trkpt lat="45.64943911994452" lon="10.416564170865144"><ele>296.5</ele><time>2026-04-11T09:58:43.001Z</time></trkpt><trkpt lat="45.64931934987902" lon="10.416520193481627"><ele>298.75</ele><time>2026-04-11T09:58:44.001Z</time></trkpt><trkpt lat="45.64918590856804" lon="10.416493785692932"><ele>301.0</ele><time>2026-04-11T09:58:45.001Z</time></trkpt><trkpt lat="45.64905876657025" lon="10.416473545479892"><ele>301.0</ele><time>2026-04-11T09:58:46.001Z</time></trkpt><trkpt lat="45.64891969852358" lon="10.41644021114523"><ele>301.0</ele><time>2026-04-11T09:58:47.001Z</time></trkpt><trkpt lat="45.64879948248569" lon="10.416400353172266"><ele>301.0</ele><time>2026-04-11T09:58:48.001Z</time></trkpt><trkpt lat="45.648666571694214" lon="10.41635994856438"><ele>301.0</ele><time>2026-04-11T09:58:49.001Z</time></trkpt><trkpt lat="45.648536933029106" lon="10.416314344975177"><ele>299.5</ele><time>2026-04-11T09:58:50.001Z</time></trkpt><trkpt lat="45.64842805259669" lon="10.416223706503848"><ele>298.0</ele><time>2026-04-11T09:58:51.001Z</time></trkpt><trkpt lat="45.64832395561753" lon="10.416102274551772"><ele>296.5</ele><time>2026-04-11T09:58:52.001Z</time></trkpt><trkpt lat="45.64823591552699" lon="10.415968990101906"><ele>295.0</ele><time>2026-04-11T09:58:53.001Z</time></trkpt><trkpt lat="45.64815736396477" lon="10.415836071029235"><ele>295.0</ele><time>2026-04-11T09:58:54.001Z</time></trkpt><trkpt lat="45.64809270876968" lon="10.415714621156154"><ele>295.0</ele><time>2026-04-11T09:58:55.001Z</time></trkpt><trkpt lat="45.6480412309101" lon="10.41560312258949"><ele>295.0</ele><time>2026-04-11T09:58:56.001Z</time></trkpt><trkpt lat="45.64802378407618" lon="10.415476524116633"><ele>295.0</ele><time>2026-04-11T09:58:57.001Z</time></trkpt><trkpt lat="45.64802333840088" lon="10.4153505722987"><ele>295.0</ele><time>2026-04-11T09:58:58.001Z</time></trkpt><trkpt lat="45.648180230540305" lon="10.415282103551807"><ele>293.0</ele><time>2026-04-11T09:58:59.001Z</time></trkpt><trkpt lat="45.6482760781271" lon="10.415136426122329"><ele>291.0</ele><time>2026-04-11T09:59:00.001Z</time></trkpt><trkpt lat="45.64838512412879" lon="10.414966597638172"><ele>289.0</ele><time>2026-04-11T09:59:01.001Z</time></trkpt><trkpt lat="45.64849504390129" lon="10.414797209197955"><ele>289.0</ele><time>2026-04-11T09:59:02.001Z</time></trkpt><trkpt lat="45.6485737807703" lon="10.414674133951564"><ele>289.0</ele><time>2026-04-11T09:59:03.001Z</time></trkpt><trkpt lat="45.648643745742994" lon="10.41453319048859"><ele>289.0</ele><time>2026-04-11T09:59:04.001Z</time></trkpt><trkpt lat="45.6487308196005" lon="10.414397299719004"><ele>289.0</ele><time>2026-04-11T09:59:05.001Z</time></trkpt><trkpt lat="45.64882903803685" lon="10.414253522602934"><ele>289.75</ele><time>2026-04-11T09:59:06.001Z</time></trkpt><trkpt lat="45.648937728329315" lon="10.414148611643892"><ele>290.5</ele><time>2026-04-11T09:59:07.001Z</time></trkpt><trkpt lat="45.649025955539756" lon="10.414067379518096"><ele>291.25</ele><time>2026-04-11T09:59:08.001Z</time></trkpt><trkpt lat="45.64912410608896" lon="10.414000679457693"><ele>292.0</ele><time>2026-04-11T09:59:09.001Z</time></trkpt><trkpt lat="45.649224932614935" lon="10.413945633716157"><ele>292.0</ele><time>2026-04-11T09:59:10.001Z</time></trkpt><trkpt lat="45.6493129045719" lon="10.413903843121638"><ele>292.0</ele><time>2026-04-11T09:59:11.001Z</time></trkpt><trkpt lat="45.64939684403305" lon="10.413922660063403"><ele>292.0</ele><time>2026-04-11T09:59:12.001Z</time></trkpt><trkpt lat="45.64946901035956" lon="10.413896938605594"><ele>292.0</ele><time>2026-04-11T09:59:13.001Z</time></trkpt><trkpt lat="45.649550557348796" lon="10.413896599688705"><ele>292.0</ele><time>2026-04-11T09:59:15.001Z</time></trkpt><trkpt lat="45.649606314453486" lon="10.413832176156976"><ele>292.0</ele><time>2026-04-11T09:59:24.001Z</time></trkpt><trkpt lat="45.64960686461268" lon="10.413595531287294"><ele>293.75</ele><time>2026-04-11T09:59:25.001Z</time></trkpt><trkpt lat="45.649594562140955" lon="10.413473062607304"><ele>295.5</ele><time>2026-04-11T09:59:26.001Z</time></trkpt><trkpt lat="45.64957181011457" lon="10.413325916237014"><ele>297.25</ele><time>2026-04-11T09:59:27.001Z</time></trkpt><trkpt lat="45.64958029897107" lon="10.413117869353014"><ele>299.0</ele><time>2026-04-11T09:59:28.001Z</time></trkpt><trkpt lat="45.649583623598645" lon="10.412886167721611"><ele>299.0</ele><time>2026-04-11T09:59:29.001Z</time></trkpt><trkpt lat="45.64959506962781" lon="10.412609508639525"><ele>299.0</ele><time>2026-04-11T09:59:30.001Z</time></trkpt><trkpt lat="45.64961454731369" lon="10.412333096349624"><ele>299.0</ele><time>2026-04-11T09:59:31.001Z</time></trkpt><trkpt lat="45.64964246483299" lon="10.412060464955422"><ele>299.0</ele><time>2026-04-11T09:59:32.001Z</time></trkpt><trkpt lat="45.64967624768808" lon="10.411778577428255"><ele>299.0</ele><time>2026-04-11T09:59:33.001Z</time></trkpt><trkpt lat="45.64972270636833" lon="10.411517140082815"><ele>299.0</ele><time>2026-04-11T09:59:34.001Z</time></trkpt><trkpt lat="45.64977226092363" lon="10.41125799381974"><ele>298.0</ele><time>2026-04-11T09:59:35.001Z</time></trkpt><trkpt lat="45.649825603406114" lon="10.411000918787632"><ele>297.0</ele><time>2026-04-11T09:59:36.001Z</time></trkpt><trkpt lat="45.649887072527065" lon="10.41074910663004"><ele>296.0</ele><time>2026-04-11T09:59:37.001Z</time></trkpt><trkpt lat="45.64995622327809" lon="10.410502954173374"><ele>296.0</ele><time>2026-04-11T09:59:38.001Z</time></trkpt><trkpt lat="45.65003719953945" lon="10.410262459763594"><ele>296.0</ele><time>2026-04-11T09:59:39.001Z</time></trkpt><trkpt lat="45.650118682607726" lon="10.410028222114153"><ele>296.0</ele><time>2026-04-11T09:59:40.001Z</time></trkpt><trkpt lat="45.65019598103786" lon="10.40980310576955"><ele>296.0</ele><time>2026-04-11T09:59:41.001Z</time></trkpt><trkpt lat="45.650273843728364" lon="10.409577043896748"><ele>296.0</ele><time>2026-04-11T09:59:42.001Z</time></trkpt><trkpt lat="45.65034513247832" lon="10.409358744391085"><ele>296.0</ele><time>2026-04-11T09:59:43.001Z</time></trkpt><trkpt lat="45.650422577135025" lon="10.409131937018872"><ele>297.33333333333337</ele><time>2026-04-11T09:59:44.002Z</time></trkpt><trkpt lat="45.65049098247288" lon="10.408911380401204"><ele>298.6666666666667</ele><time>2026-04-11T09:59:45.002Z</time></trkpt><trkpt lat="45.65056305062356" lon="10.408682062026871"><ele>300.0</ele><time>2026-04-11T09:59:46.002Z</time></trkpt><trkpt lat="45.650644654893966" lon="10.40845326207446"><ele>300.0</ele><time>2026-04-11T09:59:47.002Z</time></trkpt><trkpt lat="45.65073067168887" lon="10.408220017118703"><ele>300.0</ele><time>2026-04-11T09:59:48.002Z</time></trkpt><trkpt lat="45.6508107755138" lon="10.407990012000575"><ele>300.0</ele><time>2026-04-11T09:59:49.002Z</time></trkpt><trkpt lat="45.650887849412086" lon="10.407765277803305"><ele>299.0</ele><time>2026-04-11T09:59:50.002Z</time></trkpt><trkpt lat="45.650962406740746" lon="10.407532861043258"><ele>298.0</ele><time>2026-04-11T09:59:51.002Z</time></trkpt><trkpt lat="45.651038816855284" lon="10.407295914771579"><ele>297.0</ele><time>2026-04-11T09:59:52.002Z</time></trkpt><trkpt lat="45.651106965184724" lon="10.40708291319827"><ele>298.25</ele><time>2026-04-11T09:59:53.002Z</time></trkpt><trkpt lat="45.65116707756084" lon="10.406897013971484"><ele>299.5</ele><time>2026-04-11T09:59:54.002Z</time></trkpt><trkpt lat="45.65123249542243" lon="10.406716607028953"><ele>300.75</ele><time>2026-04-11T09:59:55.002Z</time></trkpt><trkpt lat="45.6512884591171" lon="10.406551678402987"><ele>302.0</ele><time>2026-04-11T09:59:56Z</time></trkpt><trkpt lat="45.65133929818596" lon="10.406408553939608"><ele>301.6666666666667</ele><time>2026-04-11T09:59:57Z</time></trkpt><trkpt lat="45.651386694496395" lon="10.406277692987235"><ele>301.33333333333337</ele><time>2026-04-11T09:59:58Z</time></trkpt><trkpt lat="45.6514427080951" lon="10.40620038079872"><ele>301.0</ele><time>2026-04-11T09:59:59Z</time></trkpt><trkpt lat="45.651525051342716" lon="10.406179660641655"><ele>300.6666666666667</ele><time>2026-04-11T10:00:01Z</time></trkpt><trkpt lat="45.65162420791082" lon="10.406152328881268"><ele>300.3333333333333</ele><time>2026-04-11T10:00:03Z</time></trkpt><trkpt lat="45.65168010830869" lon="10.406100911845108"><ele>300.0</ele><time>2026-04-11T10:00:05Z</time></trkpt><trkpt lat="45.651792082298556" lon="10.405993675049665"><ele>300.0</ele><time>2026-04-11T10:00:07Z</time></trkpt><trkpt lat="45.65187872786321" lon="10.40597039946861"><ele>300.0</ele><time>2026-04-11T10:00:08Z</time></trkpt><trkpt lat="45.65195343393957" lon="10.405911091295879"><ele>300.0</ele><time>2026-04-11T10:00:09Z</time></trkpt><trkpt lat="45.65202901378643" lon="10.405852587657042"><ele>300.0</ele><time>2026-04-11T10:00:10Z</time></trkpt><trkpt lat="45.652100643948536" lon="10.40580809645885"><ele>300.0</ele><time>2026-04-11T10:00:11Z</time></trkpt><trkpt lat="45.65217457263825" lon="10.40578245974746"><ele>300.0</ele><time>2026-04-11T10:00:12Z</time></trkpt><trkpt lat="45.652244076205804" lon="10.405811010689238"><ele>302.2</ele><time>2026-04-11T10:00:13Z</time></trkpt><trkpt lat="45.65236289165732" lon="10.405899353233325"><ele>304.4</ele><time>2026-04-11T10:00:15Z</time></trkpt><trkpt lat="45.65244050660991" lon="10.405947510963284"><ele>306.6</ele><time>2026-04-11T10:00:16Z</time></trkpt><trkpt lat="45.65251144241595" lon="10.406006589602326"><ele>308.8</ele><time>2026-04-11T10:00:17Z</time></trkpt><trkpt lat="45.65259335121681" lon="10.406021696178186"><ele>311.0</ele><time>2026-04-11T10:00:18Z</time></trkpt><trkpt lat="45.65268273712152" lon="10.405923958494634"><ele>311.0</ele><time>2026-04-11T10:00:19Z</time></trkpt><trkpt lat="45.65277726895264" lon="10.405865310914276"><ele>311.0</ele><time>2026-04-11T10:00:20Z</time></trkpt><trkpt lat="45.652874566006254" lon="10.405792881560998"><ele>311.0</ele><time>2026-04-11T10:00:21Z</time></trkpt><trkpt lat="45.652974181983446" lon="10.405729394888354"><ele>311.0</ele><time>2026-04-11T10:00:22Z</time></trkpt><trkpt lat="45.65307329239398" lon="10.405677347811674"><ele>311.0</ele><time>2026-04-11T10:00:23Z</time></trkpt><trkpt lat="45.65314818688955" lon="10.405640066094653"><ele>313.0</ele><time>2026-04-11T10:00:24Z</time></trkpt><trkpt lat="45.653250079303334" lon="10.405584855180324"><ele>315.0</ele><time>2026-04-11T10:00:25Z</time></trkpt><trkpt lat="45.65332788444909" lon="10.4055334582026"><ele>317.0</ele><time>2026-04-11T10:00:26Z</time></trkpt><trkpt lat="45.65343573841244" lon="10.405474103488984"><ele>319.0</ele><time>2026-04-11T10:00:28Z</time></trkpt><trkpt lat="45.653521578887734" lon="10.405421988730067"><ele>321.0</ele><time>2026-04-11T10:00:30Z</time></trkpt><trkpt lat="45.65360597015872" lon="10.405361713430493"><ele>322.1666666666667</ele><time>2026-04-11T10:00:32Z</time></trkpt><trkpt lat="45.653701631570414" lon="10.405425138528994"><ele>323.3333333333333</ele><time>2026-04-11T10:00:35Z</time></trkpt><trkpt lat="45.653755740419385" lon="10.405505185864255"><ele>324.5</ele><time>2026-04-11T10:00:36Z</time></trkpt><trkpt lat="45.65384606077895" lon="10.405482449914322"><ele>325.66666666666663</ele><time>2026-04-11T10:00:38Z</time></trkpt><trkpt lat="45.653854764818725" lon="10.405385494000763"><ele>326.8333333333333</ele><time>2026-04-11T10:00:39Z</time></trkpt><trkpt lat="45.65387914641777" lon="10.40529330093141"><ele>328.0</ele><time>2026-04-11T10:00:40Z</time></trkpt><trkpt lat="45.65389033442798" lon="10.405189798614796"><ele>330.2</ele><time>2026-04-11T10:00:41Z</time></trkpt><trkpt lat="45.653911164813834" lon="10.405064411887661"><ele>332.4</ele><time>2026-04-11T10:00:42Z</time></trkpt><trkpt lat="45.65393206205825" lon="10.404954218474115"><ele>334.59999999999997</ele><time>2026-04-11T10:00:43Z</time></trkpt><trkpt lat="45.65404127649172" lon="10.404867815641765"><ele>336.79999999999995</ele><time>2026-04-11T10:00:45.001Z</time></trkpt><trkpt lat="45.65410815549998" lon="10.404838276662012"><ele>339.0</ele><time>2026-04-11T10:00:46.001Z</time></trkpt><trkpt lat="45.6541926026491" lon="10.404857180677224"><ele>339.0</ele><time>2026-04-11T10:00:47.001Z</time></trkpt><trkpt lat="45.654297813260676" lon="10.404911601486388"><ele>339.0</ele><time>2026-04-11T10:00:48.001Z</time></trkpt><trkpt lat="45.654433048170716" lon="10.404974102683054"><ele>339.0</ele><time>2026-04-11T10:00:49.001Z</time></trkpt><trkpt lat="45.6545533526145" lon="10.404995711740783"><ele>339.0</ele><time>2026-04-11T10:00:50.001Z</time></trkpt><trkpt lat="45.65467861414211" lon="10.404995476829997"><ele>341.25</ele><time>2026-04-11T10:00:51.001Z</time></trkpt><trkpt lat="45.654810089117355" lon="10.405020423692749"><ele>343.5</ele><time>2026-04-11T10:00:52.001Z</time></trkpt><trkpt lat="45.65496111947346" lon="10.405055610318751"><ele>345.75</ele><time>2026-04-11T10:00:53.001Z</time></trkpt><trkpt lat="45.65508648081357" lon="10.405062768992696"><ele>348.0</ele><time>2026-04-11T10:00:54.001Z</time></trkpt><trkpt lat="45.6551821898216" lon="10.405002572169652"><ele>348.0</ele><time>2026-04-11T10:00:55.001Z</time></trkpt><trkpt lat="45.655255875012955" lon="10.40495495751897"><ele>348.0</ele><time>2026-04-11T10:00:56.001Z</time></trkpt><trkpt lat="45.655311733684414" lon="10.404880027237125"><ele>348.0</ele><time>2026-04-11T10:00:57.001Z</time></trkpt><trkpt lat="45.65540312611182" lon="10.404708586866938"><ele>348.0</ele><time>2026-04-11T10:00:59.001Z</time></trkpt><trkpt lat="45.65548329683031" lon="10.404670770484987"><ele>348.0</ele><time>2026-04-11T10:01:00.001Z</time></trkpt><trkpt lat="45.65559185678042" lon="10.404663154404082"><ele>348.0</ele><time>2026-04-11T10:01:01.001Z</time></trkpt><trkpt lat="45.65569538554651" lon="10.404669945762295"><ele>348.0</ele><time>2026-04-11T10:01:02.001Z</time></trkpt><trkpt lat="45.65581513074398" lon="10.404657319848319"><ele>348.0</ele><time>2026-04-11T10:01:03.001Z</time></trkpt><trkpt lat="45.65589929638438" lon="10.404603882595225"><ele>348.0</ele><time>2026-04-11T10:01:04.001Z</time></trkpt><trkpt lat="45.65601479482068" lon="10.404537244692714"><ele>348.0</ele><time>2026-04-11T10:01:05.001Z</time></trkpt><trkpt lat="45.65614147665924" lon="10.404471314193502"><ele>350.5</ele><time>2026-04-11T10:01:06.001Z</time></trkpt><trkpt lat="45.65628385670175" lon="10.404419551535696"><ele>353.0</ele><time>2026-04-11T10:01:07.001Z</time></trkpt><trkpt lat="45.65641574611186" lon="10.404379864552672"><ele>355.5</ele><time>2026-04-11T10:01:08.001Z</time></trkpt><trkpt lat="45.656539878250356" lon="10.404349644003814"><ele>358.0</ele><time>2026-04-11T10:01:09.001Z</time></trkpt><trkpt lat="45.6566590553562" lon="10.404304695682399"><ele>358.0</ele><time>2026-04-11T10:01:10.001Z</time></trkpt><trkpt lat="45.65677116270744" lon="10.404272103318995"><ele>358.0</ele><time>2026-04-11T10:01:11.001Z</time></trkpt><trkpt lat="45.65689205473446" lon="10.40424575738918"><ele>358.0</ele><time>2026-04-11T10:01:12.001Z</time></trkpt><trkpt lat="45.657016906031636" lon="10.404219953605034"><ele>358.0</ele><time>2026-04-11T10:01:13.001Z</time></trkpt><trkpt lat="45.657120549853644" lon="10.40417930842986"><ele>359.5</ele><time>2026-04-11T10:01:14.001Z</time></trkpt><trkpt lat="45.657236642228504" lon="10.404143929392639"><ele>361.0</ele><time>2026-04-11T10:01:15.001Z</time></trkpt><trkpt lat="45.65735560186819" lon="10.404117654923395"><ele>362.5</ele><time>2026-04-11T10:01:16.001Z</time></trkpt><trkpt lat="45.657494291043946" lon="10.404140033838273"><ele>364.0</ele><time>2026-04-11T10:01:17.001Z</time></trkpt><trkpt lat="45.65762864139093" lon="10.404151641134934"><ele>364.0</ele><time>2026-04-11T10:01:18.001Z</time></trkpt><trkpt lat="45.65776774305627" lon="10.40415332460687"><ele>364.0</ele><time>2026-04-11T10:01:19.001Z</time></trkpt><trkpt lat="45.65790204302162" lon="10.404156529490313"><ele>364.0</ele><time>2026-04-11T10:01:20.001Z</time></trkpt><trkpt lat="45.65805527599623" lon="10.40419052113535"><ele>364.0</ele><time>2026-04-11T10:01:21.001Z</time></trkpt><trkpt lat="45.65819723450649" lon="10.404176185037226"><ele>365.0</ele><time>2026-04-11T10:01:22.001Z</time></trkpt><trkpt lat="45.658363028001034" lon="10.404152685432827"><ele>366.0</ele><time>2026-04-11T10:01:23.001Z</time></trkpt><trkpt lat="45.65851607465065" lon="10.404137821711233"><ele>367.0</ele><time>2026-04-11T10:01:24.001Z</time></trkpt><trkpt lat="45.65865864928487" lon="10.404100862418998"><ele>368.8</ele><time>2026-04-11T10:01:25.001Z</time></trkpt><trkpt lat="45.658752805931485" lon="10.40405829449525"><ele>370.6</ele><time>2026-04-11T10:01:26.001Z</time></trkpt><trkpt lat="45.65884196384417" lon="10.404052196010028"><ele>372.40000000000003</ele><time>2026-04-11T10:01:27.001Z</time></trkpt><trkpt lat="45.65895432255279" lon="10.404053464460617"><ele>374.20000000000005</ele><time>2026-04-11T10:01:28.001Z</time></trkpt><trkpt lat="45.65904782223408" lon="10.404052109291506"><ele>376.0</ele><time>2026-04-11T10:01:29.001Z</time></trkpt><trkpt lat="45.65914632848831" lon="10.404068682229571"><ele>376.0</ele><time>2026-04-11T10:01:30.001Z</time></trkpt><trkpt lat="45.659242951333106" lon="10.404155615425765"><ele>376.0</ele><time>2026-04-11T10:01:31.001Z</time></trkpt><trkpt lat="45.65929608060049" lon="10.404251631075152"><ele>376.0</ele><time>2026-04-11T10:01:32.001Z</time></trkpt><trkpt lat="45.659323108562084" lon="10.40438071857228"><ele>376.0</ele><time>2026-04-11T10:01:33.001Z</time></trkpt><trkpt lat="45.659383705379526" lon="10.404481609489073"><ele>376.0</ele><time>2026-04-11T10:01:34.001Z</time></trkpt><trkpt lat="45.659473787230034" lon="10.404549690761376"><ele>377.0</ele><time>2026-04-11T10:01:35.001Z</time></trkpt><trkpt lat="45.65958173814423" lon="10.40459860085973"><ele>378.0</ele><time>2026-04-11T10:01:36.001Z</time></trkpt><trkpt lat="45.659669136763796" lon="10.404648744120584"><ele>379.0</ele><time>2026-04-11T10:01:37.001Z</time></trkpt><trkpt lat="45.65976125637288" lon="10.40471085607365"><ele>380.0</ele><time>2026-04-11T10:01:38.001Z</time></trkpt><trkpt lat="45.65986891258819" lon="10.404748137347283"><ele>381.0</ele><time>2026-04-11T10:01:39.001Z</time></trkpt><trkpt lat="45.65997792935077" lon="10.404752693288229"><ele>381.0</ele><time>2026-04-11T10:01:40.001Z</time></trkpt><trkpt lat="45.66007554583428" lon="10.404732657775888"><ele>381.0</ele><time>2026-04-11T10:01:41.001Z</time></trkpt><trkpt lat="45.66014124678391" lon="10.404615994342"><ele>381.0</ele><time>2026-04-11T10:01:42.001Z</time></trkpt><trkpt lat="45.660207276476356" lon="10.40447501571272"><ele>381.0</ele><time>2026-04-11T10:01:43.001Z</time></trkpt><trkpt lat="45.660288747738896" lon="10.404381527077115"><ele>381.0</ele><time>2026-04-11T10:01:44.001Z</time></trkpt><trkpt lat="45.660374748709195" lon="10.40429879818557"><ele>383.4</ele><time>2026-04-11T10:01:45.001Z</time></trkpt><trkpt lat="45.66044585897976" lon="10.40419660816967"><ele>385.8</ele><time>2026-04-11T10:01:46.001Z</time></trkpt><trkpt lat="45.66052110058605" lon="10.404113734258123"><ele>388.2</ele><time>2026-04-11T10:01:47.001Z</time></trkpt><trkpt lat="45.66062663115977" lon="10.40401863823718"><ele>390.59999999999997</ele><time>2026-04-11T10:01:49.001Z</time></trkpt><trkpt lat="45.66070398372607" lon="10.40398636428901"><ele>393.0</ele><time>2026-04-11T10:01:50.001Z</time></trkpt><trkpt lat="45.660789329482334" lon="10.403969384094992"><ele>393.0</ele><time>2026-04-11T10:01:51.001Z</time></trkpt><trkpt lat="45.66088816465041" lon="10.403952885474462"><ele>393.0</ele><time>2026-04-11T10:01:52.002Z</time></trkpt><trkpt lat="45.660977579339594" lon="10.403909664484765"><ele>393.0</ele><time>2026-04-11T10:01:53.002Z</time></trkpt><trkpt lat="45.661099268289895" lon="10.403876285960537"><ele>393.0</ele><time>2026-04-11T10:01:54.002Z</time></trkpt><trkpt lat="45.66123490193467" lon="10.40381956357469"><ele>392.79999999999995</ele><time>2026-04-11T10:01:55.002Z</time></trkpt><trkpt lat="45.66136663562522" lon="10.403749886788537"><ele>392.6</ele><time>2026-04-11T10:01:56.002Z</time></trkpt><trkpt lat="45.66148360072767" lon="10.40374616437773"><ele>392.4</ele><time>2026-04-11T10:01:57.002Z</time></trkpt><trkpt lat="45.66155206772911" lon="10.403727897909052"><ele>392.20000000000005</ele><time>2026-04-11T10:01:58.002Z</time></trkpt><trkpt lat="45.66161912408373" lon="10.403651504456802"><ele>392.0</ele><time>2026-04-11T10:01:59.002Z</time></trkpt><trkpt lat="45.66166922180865" lon="10.403545904930066"><ele>391.99999999999994</ele><time>2026-04-11T10:02:00.002Z</time></trkpt><trkpt lat="45.66171527078561" lon="10.403429824412633"><ele>392.0</ele><time>2026-04-11T10:02:01.002Z</time></trkpt><trkpt lat="45.66178588689141" lon="10.403354419636264"><ele>392.0</ele><time>2026-04-11T10:02:02Z</time></trkpt><trkpt lat="45.66187142175192" lon="10.403331767915773"><ele>392.0</ele><time>2026-04-11T10:02:03Z</time></trkpt><trkpt lat="45.66194260227949" lon="10.403330898198757"><ele>391.99999999999994</ele><time>2026-04-11T10:02:04Z</time></trkpt><trkpt lat="45.66194924998435" lon="10.40318942794461"><ele>392.0</ele><time>2026-04-11T10:02:06Z</time></trkpt><trkpt lat="45.661898736352356" lon="10.403081467231566"><ele>391.20000000000005</ele><time>2026-04-11T10:02:07Z</time></trkpt><trkpt lat="45.661812130736465" lon="10.40298833956323"><ele>390.4</ele><time>2026-04-11T10:02:08Z</time></trkpt><trkpt lat="45.661775515603665" lon="10.402841666534178"><ele>389.6</ele><time>2026-04-11T10:02:09Z</time></trkpt><trkpt lat="45.66178643377485" lon="10.402715509484194"><ele>388.79999999999995</ele><time>2026-04-11T10:02:10Z</time></trkpt><trkpt lat="45.661829490679786" lon="10.402581644978353"><ele>388.0</ele><time>2026-04-11T10:02:11Z</time></trkpt><trkpt lat="45.66188975859301" lon="10.40249020915504"><ele>393.0</ele><time>2026-04-11T10:02:12Z</time></trkpt><trkpt lat="45.66198879628507" lon="10.402401084892864"><ele>398.0</ele><time>2026-04-11T10:02:13Z</time></trkpt><trkpt lat="45.66207392867536" lon="10.402315088284643"><ele>403.0</ele><time>2026-04-11T10:02:14Z</time></trkpt><trkpt lat="45.662185922577635" lon="10.402252908396228"><ele>408.0</ele><time>2026-04-11T10:02:15Z</time></trkpt><trkpt lat="45.662296457598515" lon="10.402187566994241"><ele>404.6666666666667</ele><time>2026-04-11T10:02:16Z</time></trkpt><trkpt lat="45.66237179851147" lon="10.402153067484067"><ele>401.33333333333337</ele><time>2026-04-11T10:02:17Z</time></trkpt><trkpt lat="45.6624638298106" lon="10.40213961932254"><ele>398.0</ele><time>2026-04-11T10:02:18Z</time></trkpt><trkpt lat="45.662537933479626" lon="10.402105517906566"><ele>394.6666666666667</ele><time>2026-04-11T10:02:19Z</time></trkpt><trkpt lat="45.662614943598435" lon="10.40206065764438"><ele>391.33333333333337</ele><time>2026-04-11T10:02:20Z</time></trkpt><trkpt lat="45.66268572978682" lon="10.4019645163413"><ele>388.0</ele><time>2026-04-11T10:02:21Z</time></trkpt><trkpt lat="45.66275885067088" lon="10.401895486138688"><ele>388.0</ele><time>2026-04-11T10:02:22Z</time></trkpt><trkpt lat="45.662845096519185" lon="10.4018741163222"><ele>388.0</ele><time>2026-04-11T10:02:23Z</time></trkpt><trkpt lat="45.662935047212066" lon="10.401868859403537"><ele>388.0</ele><time>2026-04-11T10:02:24Z</time></trkpt><trkpt lat="45.66301874520625" lon="10.401855733992077"><ele>388.0</ele><time>2026-04-11T10:02:25Z</time></trkpt><trkpt lat="45.66311807059997" lon="10.401887366052117"><ele>388.0</ele><time>2026-04-11T10:02:26Z</time></trkpt><trkpt lat="45.663209373091696" lon="10.401910615161297"><ele>388.00000000000006</ele><time>2026-04-11T10:02:27Z</time></trkpt><trkpt lat="45.66328687714707" lon="10.401959184673853"><ele>388.0</ele><time>2026-04-11T10:02:28Z</time></trkpt><trkpt lat="45.66334812527076" lon="10.4019848533831"><ele>388.0</ele><time>2026-04-11T10:02:29Z</time></trkpt><trkpt lat="45.663431236657466" lon="10.40188286551677"><ele>388.0</ele><time>2026-04-11T10:02:31Z</time></trkpt><trkpt lat="45.663434419580646" lon="10.401782366345179"><ele>388.00000000000006</ele><time>2026-04-11T10:02:32Z</time></trkpt><trkpt lat="45.6634216307406" lon="10.401639037221736"><ele>388.0</ele><time>2026-04-11T10:02:33Z</time></trkpt><trkpt lat="45.663474580845595" lon="10.40155531769843"><ele>388.0</ele><time>2026-04-11T10:02:34Z</time></trkpt><trkpt lat="45.66355885534076" lon="10.401556691392301"><ele>388.0</ele><time>2026-04-11T10:02:35Z</time></trkpt><trkpt lat="45.66365096678647" lon="10.401559931644893"><ele>388.0</ele><time>2026-04-11T10:02:36Z</time></trkpt><trkpt lat="45.66373171088359" lon="10.401531370812375"><ele>388.0</ele><time>2026-04-11T10:02:37Z</time></trkpt><trkpt lat="45.66384314360122" lon="10.4015019568485"><ele>388.0</ele><time>2026-04-11T10:02:38Z</time></trkpt><trkpt lat="45.66395582255381" lon="10.401445708064886"><ele>389.25</ele><time>2026-04-11T10:02:39Z</time></trkpt><trkpt lat="45.66405360036615" lon="10.401440773695818"><ele>390.5</ele><time>2026-04-11T10:02:40Z</time></trkpt><trkpt lat="45.66419562353133" lon="10.401464537355762"><ele>391.75</ele><time>2026-04-11T10:02:41Z</time></trkpt><trkpt lat="45.66432086167784" lon="10.401493245917907"><ele>393.0</ele><time>2026-04-11T10:02:42Z</time></trkpt><trkpt lat="45.66440460222167" lon="10.4015178323111"><ele>393.79999999999995</ele><time>2026-04-11T10:02:43Z</time></trkpt><trkpt lat="45.6645292865522" lon="10.40155607481413"><ele>394.6</ele><time>2026-04-11T10:02:45Z</time></trkpt><trkpt lat="45.664607621450045" lon="10.40151765664079"><ele>395.4</ele><time>2026-04-11T10:02:46Z</time></trkpt><trkpt lat="45.66464897366257" lon="10.401440297171412"><ele>396.20000000000005</ele><time>2026-04-11T10:02:47Z</time></trkpt><trkpt lat="45.66471491981809" lon="10.401363846869627"><ele>397.0</ele><time>2026-04-11T10:02:48Z</time></trkpt><trkpt lat="45.66478861449474" lon="10.40128523313425"><ele>395.33333333333337</ele><time>2026-04-11T10:02:49.001Z</time></trkpt><trkpt lat="45.6648475386397" lon="10.40120699717589"><ele>393.6666666666667</ele><time>2026-04-11T10:02:50.001Z</time></trkpt><trkpt lat="45.66491134259514" lon="10.401144939989873"><ele>392.0</ele><time>2026-04-11T10:02:51.001Z</time></trkpt><trkpt lat="45.66496504324778" lon="10.401075870065759"><ele>390.33333333333337</ele><time>2026-04-11T10:02:52.001Z</time></trkpt><trkpt lat="45.66504969146983" lon="10.401013066067506"><ele>388.6666666666667</ele><time>2026-04-11T10:02:53.001Z</time></trkpt><trkpt lat="45.665156284074556" lon="10.400971869264112"><ele>387.0</ele><time>2026-04-11T10:02:54.001Z</time></trkpt><trkpt lat="45.665260340859724" lon="10.400970729304564"><ele>389.20000000000005</ele><time>2026-04-11T10:02:55.001Z</time></trkpt><trkpt lat="45.665335449095345" lon="10.400984131611976"><ele>391.4</ele><time>2026-04-11T10:02:56.001Z</time></trkpt><trkpt lat="45.66543363311173" lon="10.400972342986476"><ele>393.6</ele><time>2026-04-11T10:02:57.001Z</time></trkpt><trkpt lat="45.66552622233736" lon="10.400895768758572"><ele>395.79999999999995</ele><time>2026-04-11T10:02:58.001Z</time></trkpt><trkpt lat="45.66562473415769" lon="10.400793739394024"><ele>398.0</ele><time>2026-04-11T10:02:59.001Z</time></trkpt><trkpt lat="45.66572610216974" lon="10.400698731460416"><ele>398.0</ele><time>2026-04-11T10:03:00.001Z</time></trkpt><trkpt lat="45.66583335243382" lon="10.400635499129823"><ele>398.0</ele><time>2026-04-11T10:03:01.001Z</time></trkpt><trkpt lat="45.66590464906472" lon="10.400604985858376"><ele>398.0</ele><time>2026-04-11T10:03:02.001Z</time></trkpt><trkpt lat="45.66597287027066" lon="10.400598181194717"><ele>398.0</ele><time>2026-04-11T10:03:05.001Z</time></trkpt><trkpt lat="45.66606830998821" lon="10.400630366891837"><ele>398.0</ele><time>2026-04-11T10:03:08.001Z</time></trkpt><trkpt lat="45.66618558314652" lon="10.400707209142167"><ele>398.2</ele><time>2026-04-11T10:03:10.001Z</time></trkpt><trkpt lat="45.6662598211751" lon="10.400771948159608"><ele>398.4</ele><time>2026-04-11T10:03:11.001Z</time></trkpt><trkpt lat="45.666325690241926" lon="10.400848190467855"><ele>398.59999999999997</ele><time>2026-04-11T10:03:12.001Z</time></trkpt><trkpt lat="45.666405857098674" lon="10.400956913260517"><ele>398.79999999999995</ele><time>2026-04-11T10:03:13.001Z</time></trkpt><trkpt lat="45.66646214381557" lon="10.401032977697232"><ele>399.0</ele><time>2026-04-11T10:03:14.001Z</time></trkpt><trkpt lat="45.6665218588693" lon="10.401133345643126"><ele>399.0</ele><time>2026-04-11T10:03:15.001Z</time></trkpt><trkpt lat="45.66655833627692" lon="10.401217915642496"><ele>399.0</ele><time>2026-04-11T10:03:16.001Z</time></trkpt><trkpt lat="45.66662239591945" lon="10.401385492308608"><ele>399.0</ele><time>2026-04-11T10:03:18.001Z</time></trkpt><trkpt lat="45.66667766173099" lon="10.401444782016688"><ele>399.0</ele><time>2026-04-11T10:03:19.001Z</time></trkpt><trkpt lat="45.666781962220256" lon="10.401428914828397"><ele>399.0</ele><time>2026-04-11T10:03:20.001Z</time></trkpt><trkpt lat="45.666853523643205" lon="10.4014367090978"><ele>399.0</ele><time>2026-04-11T10:03:21.001Z</time></trkpt><trkpt lat="45.66693296783794" lon="10.401382296254543"><ele>400.6</ele><time>2026-04-11T10:03:22.001Z</time></trkpt><trkpt lat="45.667020782948626" lon="10.401307483239766"><ele>402.2</ele><time>2026-04-11T10:03:23.001Z</time></trkpt><trkpt lat="45.66712525392507" lon="10.401193738875648"><ele>403.8</ele><time>2026-04-11T10:03:24.001Z</time></trkpt><trkpt lat="45.667210543119054" lon="10.401123817130172"><ele>405.40000000000003</ele><time>2026-04-11T10:03:25.001Z</time></trkpt><trkpt lat="45.66728296073946" lon="10.401096388744199"><ele>407.0</ele><time>2026-04-11T10:03:26.001Z</time></trkpt><trkpt lat="45.667348020893556" lon="10.401088442166296"><ele>407.0</ele><time>2026-04-11T10:03:27.001Z</time></trkpt><trkpt lat="45.667461412477785" lon="10.401047436244157"><ele>407.0</ele><time>2026-04-11T10:03:29.001Z</time></trkpt><trkpt lat="45.66751664162672" lon="10.40100026907703"><ele>407.0</ele><time>2026-04-11T10:03:31.001Z</time></trkpt><trkpt lat="45.66755215901377" lon="10.400824836744151"><ele>407.0</ele><time>2026-04-11T10:03:37.001Z</time></trkpt><trkpt lat="45.66761872856927" lon="10.40073914162596"><ele>407.0</ele><time>2026-04-11T10:03:38.001Z</time></trkpt><trkpt lat="45.66770998181289" lon="10.400674849565215"><ele>408.20000000000005</ele><time>2026-04-11T10:03:39.001Z</time></trkpt><trkpt lat="45.667836476469496" lon="10.400765846013757"><ele>409.4</ele><time>2026-04-11T10:03:40.001Z</time></trkpt><trkpt lat="45.66794536523007" lon="10.400752087827994"><ele>410.6</ele><time>2026-04-11T10:03:41.001Z</time></trkpt><trkpt lat="45.66804006412876" lon="10.400734276136772"><ele>411.79999999999995</ele><time>2026-04-11T10:03:42.001Z</time></trkpt><trkpt lat="45.668124097031985" lon="10.400652206312067"><ele>413.0</ele><time>2026-04-11T10:03:43.001Z</time></trkpt><trkpt lat="45.66821282468512" lon="10.400580795304986"><ele>410.59999999999997</ele><time>2026-04-11T10:03:44.001Z</time></trkpt><trkpt lat="45.66828163663362" lon="10.400482075802726"><ele>408.2</ele><time>2026-04-11T10:03:45.001Z</time></trkpt><trkpt lat="45.668342760769185" lon="10.400374309883073"><ele>405.8</ele><time>2026-04-11T10:03:46.001Z</time></trkpt><trkpt lat="45.66840049764036" lon="10.400241502895229"><ele>403.4</ele><time>2026-04-11T10:03:47.001Z</time></trkpt><trkpt lat="45.66844909380873" lon="10.400123338681516"><ele>401.0</ele><time>2026-04-11T10:03:48.001Z</time></trkpt><trkpt lat="45.66849698561455" lon="10.400012613444398"><ele>401.0</ele><time>2026-04-11T10:03:49.001Z</time></trkpt><trkpt lat="45.66854241703105" lon="10.399901493877683"><ele>401.0</ele><time>2026-04-11T10:03:50.001Z</time></trkpt><trkpt lat="45.66858204110617" lon="10.39979537714402"><ele>401.0</ele><time>2026-04-11T10:03:51.001Z</time></trkpt><trkpt lat="45.66860566005663" lon="10.399666680200177"><ele>401.0</ele><time>2026-04-11T10:03:52.001Z</time></trkpt><trkpt lat="45.66865580378041" lon="10.399551872142933"><ele>401.0</ele><time>2026-04-11T10:03:53.001Z</time></trkpt><trkpt lat="45.66869338955091" lon="10.39940669107131"><ele>399.4</ele><time>2026-04-11T10:03:54.001Z</time></trkpt><trkpt lat="45.66871065665448" lon="10.399252675487231"><ele>397.8</ele><time>2026-04-11T10:03:55.001Z</time></trkpt><trkpt lat="45.66874374388057" lon="10.399105596666603"><ele>396.2</ele><time>2026-04-11T10:03:56.001Z</time></trkpt><trkpt lat="45.66876627229647" lon="10.398969763639997"><ele>394.59999999999997</ele><time>2026-04-11T10:03:57.002Z</time></trkpt><trkpt lat="45.66880202499984" lon="10.398838696803006"><ele>393.0</ele><time>2026-04-11T10:03:58.002Z</time></trkpt><trkpt lat="45.66882145995281" lon="10.398717269890227"><ele>392.4</ele><time>2026-04-11T10:03:59.002Z</time></trkpt><trkpt lat="45.66883730965323" lon="10.39859241060784"><ele>391.79999999999995</ele><time>2026-04-11T10:04:00.002Z</time></trkpt><trkpt lat="45.66884198580027" lon="10.398449985635205"><ele>391.2</ele><time>2026-04-11T10:04:01.002Z</time></trkpt><trkpt lat="45.6688168786322" lon="10.398325091118775"><ele>390.6</ele><time>2026-04-11T10:04:02.002Z</time></trkpt><trkpt lat="45.66881672965798" lon="10.39819540926256"><ele>390.0</ele><time>2026-04-11T10:04:03.002Z</time></trkpt><trkpt lat="45.668809603652896" lon="10.398044036871017"><ele>390.8</ele><time>2026-04-11T10:04:05.002Z</time></trkpt><trkpt lat="45.66882038624918" lon="10.397943984723437"><ele>391.6</ele><time>2026-04-11T10:04:22Z</time></trkpt><trkpt lat="45.66883242764829" lon="10.397799689036054"><ele>392.4</ele><time>2026-04-11T10:04:27Z</time></trkpt><trkpt lat="45.668848873043174" lon="10.39770691894486"><ele>393.2</ele><time>2026-04-11T10:04:28Z</time></trkpt><trkpt lat="45.668912063681944" lon="10.3975998300715"><ele>394.0</ele><time>2026-04-11T10:04:29Z</time></trkpt><trkpt lat="45.66901520043579" lon="10.397485755457277"><ele>394.0</ele><time>2026-04-11T10:04:30Z</time></trkpt><trkpt lat="45.669132014677906" lon="10.397387421249558"><ele>394.0</ele><time>2026-04-11T10:04:31Z</time></trkpt><trkpt lat="45.66920654033967" lon="10.39730128193052"><ele>394.0</ele><time>2026-04-11T10:04:32Z</time></trkpt><trkpt lat="45.66931979388978" lon="10.39730275834451"><ele>394.0</ele><time>2026-04-11T10:04:33Z</time></trkpt><trkpt lat="45.66942035991533" lon="10.397239074445878"><ele>398.75</ele><time>2026-04-11T10:04:34Z</time></trkpt><trkpt lat="45.66952592442028" lon="10.3971164240217"><ele>403.5</ele><time>2026-04-11T10:04:35Z</time></trkpt><trkpt lat="45.669644556078715" lon="10.397017864879663"><ele>408.25</ele><time>2026-04-11T10:04:36Z</time></trkpt><trkpt lat="45.66974718333863" lon="10.396869987330271"><ele>413.0</ele><time>2026-04-11T10:04:37Z</time></trkpt><trkpt lat="45.66984663815847" lon="10.396779611412217"><ele>413.0</ele><time>2026-04-11T10:04:38Z</time></trkpt><trkpt lat="45.66993902307133" lon="10.39669516797651"><ele>413.0</ele><time>2026-04-11T10:04:39Z</time></trkpt><trkpt lat="45.67001702641172" lon="10.396624623918171"><ele>413.0</ele><time>2026-04-11T10:04:40Z</time></trkpt><trkpt lat="45.67009039133168" lon="10.396569385144376"><ele>413.0</ele><time>2026-04-11T10:04:41Z</time></trkpt><trkpt lat="45.67017497383371" lon="10.396513065511021"><ele>413.0</ele><time>2026-04-11T10:04:42Z</time></trkpt><trkpt lat="45.670240426851954" lon="10.39646277111216"><ele>413.0</ele><time>2026-04-11T10:04:43Z</time></trkpt><trkpt lat="45.67030635539468" lon="10.396404794295721"><ele>413.0</ele><time>2026-04-11T10:04:44Z</time></trkpt><trkpt lat="45.67034958020305" lon="10.396298359189021"><ele>413.0</ele><time>2026-04-11T10:04:48Z</time></trkpt><trkpt lat="45.670415548941996" lon="10.39621654992815"><ele>413.0</ele><time>2026-04-11T10:04:50Z</time></trkpt><trkpt lat="45.67047129023325" lon="10.396059863007746"><ele>413.0</ele><time>2026-04-11T10:04:52Z</time></trkpt><trkpt lat="45.67045924254937" lon="10.395933322799777"><ele>415.79999999999995</ele><time>2026-04-11T10:04:53Z</time></trkpt><trkpt lat="45.67043425984198" lon="10.39580722247539"><ele>418.6</ele><time>2026-04-11T10:04:54Z</time></trkpt><trkpt lat="45.67042062008519" lon="10.395668741934653"><ele>421.40000000000003</ele><time>2026-04-11T10:04:55Z</time></trkpt><trkpt lat="45.670435205102905" lon="10.39553505330656"><ele>424.20000000000005</ele><time>2026-04-11T10:04:56Z</time></trkpt><trkpt lat="45.67046224390177" lon="10.39542685002199"><ele>427.0</ele><time>2026-04-11T10:04:57.001Z</time></trkpt><trkpt lat="45.67054619839624" lon="10.395275030652702"><ele>429.0</ele><time>2026-04-11T10:04:58.001Z</time></trkpt><trkpt lat="45.670587209687945" lon="10.395101885792329"><ele>431.0</ele><time>2026-04-11T10:04:59.001Z</time></trkpt><trkpt lat="45.670660933998356" lon="10.394893281416332"><ele>433.0</ele><time>2026-04-11T10:05:00.001Z</time></trkpt><trkpt lat="45.67073314530821" lon="10.394727409955847"><ele>435.0</ele><time>2026-04-11T10:05:01.001Z</time></trkpt><trkpt lat="45.67081698289" lon="10.394561364113681"><ele>435.0</ele><time>2026-04-11T10:05:02.001Z</time></trkpt><trkpt lat="45.67090692406034" lon="10.394393559465433"><ele>435.0</ele><time>2026-04-11T10:05:03.001Z</time></trkpt><trkpt lat="45.67098433977523" lon="10.394220812654366"><ele>435.0</ele><time>2026-04-11T10:05:04.001Z</time></trkpt><trkpt lat="45.671061813025766" lon="10.39403965158541"><ele>435.0</ele><time>2026-04-11T10:05:05.001Z</time></trkpt><trkpt lat="45.67113174952334" lon="10.393843173369529"><ele>439.5</ele><time>2026-04-11T10:05:06.001Z</time></trkpt><trkpt lat="45.67120004089545" lon="10.393666181483864"><ele>444.0</ele><time>2026-04-11T10:05:07.001Z</time></trkpt><trkpt lat="45.671267475579434" lon="10.393522878821505"><ele>448.5</ele><time>2026-04-11T10:05:08.001Z</time></trkpt><trkpt lat="45.671363077727946" lon="10.39341404902692"><ele>453.0</ele><time>2026-04-11T10:05:09.001Z</time></trkpt><trkpt lat="45.67145722320764" lon="10.393361003768272"><ele>453.0</ele><time>2026-04-11T10:05:10.001Z</time></trkpt><trkpt lat="45.67147466601955" lon="10.393192304029"><ele>452.99999999999994</ele><time>2026-04-11T10:05:12.001Z</time></trkpt><trkpt lat="45.67139024443826" lon="10.393100314855955"><ele>452.99999999999994</ele><time>2026-04-11T10:05:13.001Z</time></trkpt><trkpt lat="45.67130191435768" lon="10.393038103634206"><ele>453.0</ele><time>2026-04-11T10:05:14.001Z</time></trkpt><trkpt lat="45.671198366346864" lon="10.392977537908006"><ele>453.0</ele><time>2026-04-11T10:05:15.001Z</time></trkpt><trkpt lat="45.67110268122678" lon="10.392931711110975"><ele>452.59999999999997</ele><time>2026-04-11T10:05:16.001Z</time></trkpt><trkpt lat="45.671041260946474" lon="10.392875645475478"><ele>452.19999999999993</ele><time>2026-04-11T10:05:17.001Z</time></trkpt><trkpt lat="45.67097674071933" lon="10.392710929979991"><ele>451.8</ele><time>2026-04-11T10:05:19.001Z</time></trkpt><trkpt lat="45.67096832604896" lon="10.392538063152816"><ele>451.4</ele><time>2026-04-11T10:05:21.001Z</time></trkpt><trkpt lat="45.67098663573758" lon="10.39241666583971"><ele>451.0</ele><time>2026-04-11T10:05:23.001Z</time></trkpt><trkpt lat="45.67108286610344" lon="10.392396272096121"><ele>452.6</ele><time>2026-04-11T10:05:25.001Z</time></trkpt><trkpt lat="45.67117689067659" lon="10.39229993287734"><ele>454.20000000000005</ele><time>2026-04-11T10:05:26.001Z</time></trkpt><trkpt lat="45.671253128365436" lon="10.392233797228188"><ele>455.79999999999995</ele><time>2026-04-11T10:05:27.001Z</time></trkpt><trkpt lat="45.67130830132149" lon="10.392178235941167"><ele>457.4</ele><time>2026-04-11T10:05:28.001Z</time></trkpt><trkpt lat="45.67142970562647" lon="10.392143301942205"><ele>459.0</ele><time>2026-04-11T10:05:30.001Z</time></trkpt><trkpt lat="45.67152223222273" lon="10.392110044921312"><ele>459.0</ele><time>2026-04-11T10:05:32.001Z</time></trkpt><trkpt lat="45.671525908859486" lon="10.392226386501486"><ele>459.0</ele><time>2026-04-11T10:05:35.001Z</time></trkpt><trkpt lat="45.67159072440547" lon="10.392214819118065"><ele>459.0</ele><time>2026-04-11T10:05:38.001Z</time></trkpt><trkpt lat="45.67157263816795" lon="10.392048002983216"><ele>459.0</ele><time>2026-04-11T10:05:45.001Z</time></trkpt><trkpt lat="45.67160842641337" lon="10.391830910141994"><ele>459.0</ele><time>2026-04-11T10:05:47.001Z</time></trkpt><trkpt lat="45.671618890344966" lon="10.391704790667145"><ele>459.2</ele><time>2026-04-11T10:05:48.001Z</time></trkpt><trkpt lat="45.67172815072689" lon="10.391642209614883"><ele>459.4</ele><time>2026-04-11T10:05:49.001Z</time></trkpt><trkpt lat="45.67187307571118" lon="10.39156962803637"><ele>459.6</ele><time>2026-04-11T10:05:50.001Z</time></trkpt><trkpt lat="45.67193577732478" lon="10.391535559049393"><ele>459.8</ele><time>2026-04-11T10:05:51.001Z</time></trkpt><trkpt lat="45.67200225800388" lon="10.391637915969918"><ele>460.0</ele><time>2026-04-11T10:05:52.001Z</time></trkpt><trkpt lat="45.67207962855663" lon="10.391692747383845"><ele>462.8</ele><time>2026-04-11T10:05:53.001Z</time></trkpt><trkpt lat="45.67217031840132" lon="10.391731389417604"><ele>465.6</ele><time>2026-04-11T10:05:54.001Z</time></trkpt><trkpt lat="45.67226239949397" lon="10.391715644139792"><ele>468.4</ele><time>2026-04-11T10:05:55.001Z</time></trkpt><trkpt lat="45.67236564056818" lon="10.391747019788852"><ele>471.2</ele><time>2026-04-11T10:05:56.001Z</time></trkpt><trkpt lat="45.67247646159867" lon="10.39175756290188"><ele>474.0</ele><time>2026-04-11T10:05:57.001Z</time></trkpt><trkpt lat="45.67260644322115" lon="10.391767510676308"><ele>474.0</ele><time>2026-04-11T10:05:58.001Z</time></trkpt><trkpt lat="45.67276655322592" lon="10.391759139794292"><ele>474.0</ele><time>2026-04-11T10:05:59.001Z</time></trkpt><trkpt lat="45.6729092418179" lon="10.39177611390466"><ele>474.0</ele><time>2026-04-11T10:06:00.001Z</time></trkpt><trkpt lat="45.67303290387923" lon="10.391816542411819"><ele>474.0</ele><time>2026-04-11T10:06:01.001Z</time></trkpt><trkpt lat="45.67313052798139" lon="10.391863780482181"><ele>478.0</ele><time>2026-04-11T10:06:02.001Z</time></trkpt><trkpt lat="45.67322050211922" lon="10.391910946357601"><ele>482.0</ele><time>2026-04-11T10:06:03.001Z</time></trkpt><trkpt lat="45.67331269114884" lon="10.391959115976618"><ele>486.0</ele><time>2026-04-11T10:06:04.002Z</time></trkpt><trkpt lat="45.67340453881962" lon="10.392009135639315"><ele>490.0</ele><time>2026-04-11T10:06:05.002Z</time></trkpt><trkpt lat="45.67350500974682" lon="10.3920640652419"><ele>494.0</ele><time>2026-04-11T10:06:06.002Z</time></trkpt><trkpt lat="45.673609503412244" lon="10.39212119408888"><ele>498.16666666666663</ele><time>2026-04-11T10:06:07.002Z</time></trkpt><trkpt lat="45.67370391412806" lon="10.39213448136368"><ele>502.3333333333333</ele><time>2026-04-11T10:06:08.002Z</time></trkpt><trkpt lat="45.67377409644438" lon="10.392131857584928"><ele>506.5</ele><time>2026-04-11T10:06:09.002Z</time></trkpt><trkpt lat="45.673869214521275" lon="10.392101343137963"><ele>510.66666666666663</ele><time>2026-04-11T10:06:10.002Z</time></trkpt><trkpt lat="45.67393975741053" lon="10.392058282512641"><ele>514.8333333333334</ele><time>2026-04-11T10:06:11.002Z</time></trkpt><trkpt lat="45.6740294476047" lon="10.392023939603193"><ele>519.0</ele><time>2026-04-11T10:06:12.002Z</time></trkpt><trkpt lat="45.674100896523164" lon="10.391948931841322"><ele>519.0</ele><time>2026-04-11T10:06:13.002Z</time></trkpt><trkpt lat="45.67414108665169" lon="10.391847651659372"><ele>519.0</ele><time>2026-04-11T10:06:14Z</time></trkpt><trkpt lat="45.67413542975343" lon="10.391725015035583"><ele>519.0</ele><time>2026-04-11T10:06:15Z</time></trkpt><trkpt lat="45.67409347049306" lon="10.391576179536656"><ele>519.0</ele><time>2026-04-11T10:06:16Z</time></trkpt><trkpt lat="45.674052682318845" lon="10.39142806020083"><ele>519.0</ele><time>2026-04-11T10:06:17Z</time></trkpt><trkpt lat="45.67400900965867" lon="10.391299027458823"><ele>524.0</ele><time>2026-04-11T10:06:18Z</time></trkpt><trkpt lat="45.67393041982162" lon="10.391190362827562"><ele>529.0</ele><time>2026-04-11T10:06:19Z</time></trkpt><trkpt lat="45.673835978745366" lon="10.391129181716726"><ele>534.0</ele><time>2026-04-11T10:06:20Z</time></trkpt><trkpt lat="45.673767629781985" lon="10.391026312181673"><ele>539.0</ele><time>2026-04-11T10:06:21Z</time></trkpt><trkpt lat="45.67369938270583" lon="10.390925503852625"><ele>544.0</ele><time>2026-04-11T10:06:22Z</time></trkpt><trkpt lat="45.6736627338686" lon="10.390796210937804"><ele>544.0</ele><time>2026-04-11T10:06:23Z</time></trkpt><trkpt lat="45.67364061209563" lon="10.3906536294009"><ele>544.0</ele><time>2026-04-11T10:06:24Z</time></trkpt><trkpt lat="45.67362326466995" lon="10.3905234713152"><ele>544.0</ele><time>2026-04-11T10:06:25Z</time></trkpt><trkpt lat="45.67362788717198" lon="10.390374282300096"><ele>544.0</ele><time>2026-04-11T10:06:26Z</time></trkpt><trkpt lat="45.673589868012044" lon="10.390235180739115"><ele>544.0</ele><time>2026-04-11T10:06:27Z</time></trkpt><trkpt lat="45.67354916675641" lon="10.390091236071783"><ele>546.75</ele><time>2026-04-11T10:06:28Z</time></trkpt><trkpt lat="45.67351488443694" lon="10.389949021197598"><ele>549.5</ele><time>2026-04-11T10:06:29Z</time></trkpt><trkpt lat="45.6734635272144" lon="10.38981327164093"><ele>552.25</ele><time>2026-04-11T10:06:30Z</time></trkpt><trkpt lat="45.67340797665247" lon="10.38965280009636"><ele>555.0</ele><time>2026-04-11T10:06:31Z</time></trkpt><trkpt lat="45.673352852794814" lon="10.389494866370182"><ele>555.0</ele><time>2026-04-11T10:06:32Z</time></trkpt><trkpt lat="45.67329561023996" lon="10.389316586788372"><ele>555.0</ele><time>2026-04-11T10:06:33Z</time></trkpt><trkpt lat="45.67326481509507" lon="10.389176746357125"><ele>555.0</ele><time>2026-04-11T10:06:34Z</time></trkpt><trkpt lat="45.67320566111036" lon="10.388990650585828"><ele>555.0</ele><time>2026-04-11T10:06:35Z</time></trkpt><trkpt lat="45.673149004802404" lon="10.388805588559913"><ele>558.6</ele><time>2026-04-11T10:06:36Z</time></trkpt><trkpt lat="45.673096889309456" lon="10.388623892961695"><ele>562.2</ele><time>2026-04-11T10:06:37Z</time></trkpt><trkpt lat="45.67305278673918" lon="10.388443989654865"><ele>565.8</ele><time>2026-04-11T10:06:38Z</time></trkpt><trkpt lat="45.67302691885237" lon="10.388311296869341"><ele>569.4</ele><time>2026-04-11T10:06:39Z</time></trkpt><trkpt lat="45.67303394718406" lon="10.388213122954397"><ele>573.0</ele><time>2026-04-11T10:06:40Z</time></trkpt><trkpt lat="45.673105859432994" lon="10.388088857959175"><ele>575.6</ele><time>2026-04-11T10:06:41Z</time></trkpt><trkpt lat="45.6731878937672" lon="10.387869012074578"><ele>578.1999999999999</ele><time>2026-04-11T10:06:43Z</time></trkpt><trkpt lat="45.67322420862168" lon="10.387746943206128"><ele>580.8</ele><time>2026-04-11T10:06:44Z</time></trkpt><trkpt lat="45.67324087721996" lon="10.387612592138879"><ele>583.4</ele><time>2026-04-11T10:06:45Z</time></trkpt><trkpt lat="45.67321884594181" lon="10.387496924899617"><ele>586.0</ele><time>2026-04-11T10:06:46Z</time></trkpt><trkpt lat="45.673080626692276" lon="10.387383195892543"><ele>586.0</ele><time>2026-04-11T10:06:47Z</time></trkpt><trkpt lat="45.673016775171796" lon="10.387256670679605"><ele>586.0</ele><time>2026-04-11T10:06:48Z</time></trkpt><trkpt lat="45.672951519810994" lon="10.387185908340264"><ele>586.0</ele><time>2026-04-11T10:06:49Z</time></trkpt><trkpt lat="45.67291670875421" lon="10.387086713493055"><ele>586.0</ele><time>2026-04-11T10:06:50Z</time></trkpt><trkpt lat="45.67288145237368" lon="10.38697982341737"><ele>586.0</ele><time>2026-04-11T10:06:51Z</time></trkpt><trkpt lat="45.67285905700735" lon="10.386869522812077"><ele>586.0</ele><time>2026-04-11T10:06:52Z</time></trkpt><trkpt lat="45.672815995584074" lon="10.38679973068352"><ele>588.0</ele><time>2026-04-11T10:06:53Z</time></trkpt><trkpt lat="45.67284426243" lon="10.386683891655283"><ele>590.0</ele><time>2026-04-11T10:06:55Z</time></trkpt><trkpt lat="45.67287965491876" lon="10.386605883750358"><ele>592.0</ele><time>2026-04-11T10:06:56Z</time></trkpt><trkpt lat="45.672920239897934" lon="10.386527107976358"><ele>594.0</ele><time>2026-04-11T10:06:57Z</time></trkpt><trkpt lat="45.672957044654744" lon="10.386434923717173"><ele>596.0</ele><time>2026-04-11T10:06:58Z</time></trkpt><trkpt lat="45.67297573414587" lon="10.386318975985091"><ele>598.0</ele><time>2026-04-11T10:06:59Z</time></trkpt><trkpt lat="45.67297576337914" lon="10.386172432330682"><ele>600.1999999999999</ele><time>2026-04-11T10:07:00Z</time></trkpt><trkpt lat="45.672971507408185" lon="10.386023615865666"><ele>602.4</ele><time>2026-04-11T10:07:01Z</time></trkpt><trkpt lat="45.67298713500837" lon="10.385883804605157"><ele>604.5999999999999</ele><time>2026-04-11T10:07:02Z</time></trkpt><trkpt lat="45.672997151484374" lon="10.385771009718551"><ele>606.8</ele><time>2026-04-11T10:07:03.001Z</time></trkpt><trkpt lat="45.6729701838952" lon="10.385658812594048"><ele>609.0</ele><time>2026-04-11T10:07:05.001Z</time></trkpt><trkpt lat="45.67298376641637" lon="10.385502939720444"><ele>609.0</ele><time>2026-04-11T10:07:07.001Z</time></trkpt><trkpt lat="45.673000737973986" lon="10.385304549824028"><ele>609.0</ele><time>2026-04-11T10:07:10.001Z</time></trkpt><trkpt lat="45.673037097022515" lon="10.385185117076356"><ele>609.0</ele><time>2026-04-11T10:07:12.001Z</time></trkpt><trkpt lat="45.67307271751706" lon="10.385052041400193"><ele>609.0</ele><time>2026-04-11T10:07:14.001Z</time></trkpt><trkpt lat="45.67311143264199" lon="10.384975464509983"><ele>609.0</ele><time>2026-04-11T10:07:15.001Z</time></trkpt><trkpt lat="45.67314284696198" lon="10.384846640582902"><ele>609.0</ele><time>2026-04-11T10:07:17.001Z</time></trkpt><trkpt lat="45.67322653743257" lon="10.38475984435398"><ele>609.0</ele><time>2026-04-11T10:07:19.001Z</time></trkpt><trkpt lat="45.6733079033694" lon="10.384680917687339"><ele>609.0</ele><time>2026-04-11T10:07:24.001Z</time></trkpt><trkpt lat="45.67335374486815" lon="10.384608723513956"><ele>609.0</ele><time>2026-04-11T10:07:25.001Z</time></trkpt><trkpt lat="45.67340477416444" lon="10.384505976408494"><ele>609.0</ele><time>2026-04-11T10:07:27.001Z</time></trkpt><trkpt lat="45.673408343829884" lon="10.38439510104368"><ele>609.0</ele><time>2026-04-11T10:07:30.001Z</time></trkpt><trkpt lat="45.67345904838958" lon="10.384229040257917"><ele>607.6666666666666</ele><time>2026-04-11T10:07:33.001Z</time></trkpt><trkpt lat="45.67350010266618" lon="10.384158651872433"><ele>606.3333333333334</ele><time>2026-04-11T10:07:34.001Z</time></trkpt><trkpt lat="45.673529984237305" lon="10.384060614577699"><ele>605.0</ele><time>2026-04-11T10:07:35.001Z</time></trkpt><trkpt lat="45.673607005311965" lon="10.383972444813732"><ele>603.6666666666667</ele><time>2026-04-11T10:07:36.001Z</time></trkpt><trkpt lat="45.67366398810639" lon="10.383905777343553"><ele>602.3333333333334</ele><time>2026-04-11T10:07:37.001Z</time></trkpt><trkpt lat="45.67370285503274" lon="10.383816141867685"><ele>601.0</ele><time>2026-04-11T10:07:38.001Z</time></trkpt><trkpt lat="45.67376464592324" lon="10.383751737962182"><ele>605.6</ele><time>2026-04-11T10:07:39.001Z</time></trkpt><trkpt lat="45.673850406751974" lon="10.383679496385898"><ele>610.2</ele><time>2026-04-11T10:07:41.001Z</time></trkpt><trkpt lat="45.67391705758393" lon="10.383651668150346"><ele>614.8</ele><time>2026-04-11T10:07:42.001Z</time></trkpt><trkpt lat="45.67403172479303" lon="10.383577221547165"><ele>619.4</ele><time>2026-04-11T10:07:44.001Z</time></trkpt><trkpt lat="45.67406914900021" lon="10.383474495625844"><ele>624.0</ele><time>2026-04-11T10:07:46.001Z</time></trkpt><trkpt lat="45.67412698894004" lon="10.38338526796985"><ele>624.0</ele><time>2026-04-11T10:07:48.001Z</time></trkpt><trkpt lat="45.67421256628239" lon="10.383285759883652"><ele>624.0</ele><time>2026-04-11T10:07:49.001Z</time></trkpt><trkpt lat="45.674265046177005" lon="10.383230661644605"><ele>624.0</ele><time>2026-04-11T10:07:50.001Z</time></trkpt><trkpt lat="45.67436074228482" lon="10.383175751386688"><ele>624.0</ele><time>2026-04-11T10:07:52.001Z</time></trkpt><trkpt lat="45.67444739622491" lon="10.383150612522401"><ele>624.0</ele><time>2026-04-11T10:07:54.001Z</time></trkpt><trkpt lat="45.674525442727635" lon="10.383133320409863"><ele>624.0</ele><time>2026-04-11T10:07:56.001Z</time></trkpt><trkpt lat="45.67461477955435" lon="10.383065476809115"><ele>622.6</ele><time>2026-04-11T10:07:58.001Z</time></trkpt><trkpt lat="45.67466895789613" lon="10.3830186139137"><ele>621.2</ele><time>2026-04-11T10:07:59.001Z</time></trkpt><trkpt lat="45.674781606070404" lon="10.382974806014694"><ele>619.8000000000001</ele><time>2026-04-11T10:08:01.001Z</time></trkpt><trkpt lat="45.6748923625295" lon="10.382937822715778"><ele>618.4</ele><time>2026-04-11T10:08:03.001Z</time></trkpt><trkpt lat="45.67499252318487" lon="10.382869322750945"><ele>617.0</ele><time>2026-04-11T10:08:05.001Z</time></trkpt><trkpt lat="45.67509489635347" lon="10.38281603618959"><ele>617.0</ele><time>2026-04-11T10:08:07.001Z</time></trkpt><trkpt lat="45.6752050395459" lon="10.382756353352718"><ele>617.0</ele><time>2026-04-11T10:08:09.002Z</time></trkpt><trkpt lat="45.675289682793874" lon="10.3827710509564"><ele>617.0</ele><time>2026-04-11T10:08:11.002Z</time></trkpt><trkpt lat="45.675408498552805" lon="10.382774505682775"><ele>617.0</ele><time>2026-04-11T10:08:13.002Z</time></trkpt><trkpt lat="45.67547506221633" lon="10.382769510921674"><ele>617.0</ele><time>2026-04-11T10:08:14.002Z</time></trkpt><trkpt lat="45.67558946265411" lon="10.382731713893614"><ele>621.1666666666666</ele><time>2026-04-11T10:08:16.002Z</time></trkpt><trkpt lat="45.67565235809471" lon="10.382688338133807"><ele>625.3333333333333</ele><time>2026-04-11T10:08:17.002Z</time></trkpt><trkpt lat="45.67571500130016" lon="10.382640817392938"><ele>629.5</ele><time>2026-04-11T10:08:18.002Z</time></trkpt><trkpt lat="45.67577508277109" lon="10.382680076643142"><ele>633.6666666666666</ele><time>2026-04-11T10:08:19.002Z</time></trkpt><trkpt lat="45.67587159086147" lon="10.38263766387257"><ele>637.8333333333334</ele><time>2026-04-11T10:08:21Z</time></trkpt><trkpt lat="45.67597430330492" lon="10.382631053453776"><ele>642.0</ele><time>2026-04-11T10:08:23Z</time></trkpt><trkpt lat="45.67607300329369" lon="10.38263095539101"><ele>646.4000000000001</ele><time>2026-04-11T10:08:25Z</time></trkpt><trkpt lat="45.67616171967537" lon="10.382587938573941"><ele>650.8000000000001</ele><time>2026-04-11T10:08:27Z</time></trkpt><trkpt lat="45.676275955511755" lon="10.382547375791118"><ele>655.2</ele><time>2026-04-11T10:08:29Z</time></trkpt><trkpt lat="45.67638040328713" lon="10.382466609347173"><ele>659.6</ele><time>2026-04-11T10:08:31Z</time></trkpt><trkpt lat="45.67644695244327" lon="10.382428405930915"><ele>664.0</ele><time>2026-04-11T10:08:32Z</time></trkpt><trkpt lat="45.676531447476385" lon="10.38238062251673"><ele>664.0</ele><time>2026-04-11T10:08:33Z</time></trkpt><trkpt lat="45.67662024080912" lon="10.382326116731136"><ele>664.0</ele><time>2026-04-11T10:08:34Z</time></trkpt><trkpt lat="45.67668522797851" lon="10.38229672806675"><ele>664.0</ele><time>2026-04-11T10:08:35Z</time></trkpt><trkpt lat="45.676832304593816" lon="10.382304388918827"><ele>664.0</ele><time>2026-04-11T10:08:37Z</time></trkpt><trkpt lat="45.67690653999351" lon="10.382292498693992"><ele>664.0</ele><time>2026-04-11T10:08:38Z</time></trkpt><trkpt lat="45.67698767873467" lon="10.382247081056649"><ele>667.6</ele><time>2026-04-11T10:08:39Z</time></trkpt><trkpt lat="45.67708059622182" lon="10.382225924203112"><ele>671.2</ele><time>2026-04-11T10:08:41Z</time></trkpt><trkpt lat="45.677152139872504" lon="10.382243793441747"><ele>674.8000000000001</ele><time>2026-04-11T10:08:42Z</time></trkpt><trkpt lat="45.67725933669589" lon="10.382288959822622"><ele>678.4000000000001</ele><time>2026-04-11T10:08:44Z</time></trkpt><trkpt lat="45.67735146035621" lon="10.382343978020494"><ele>682.0</ele><time>2026-04-11T10:08:46Z</time></trkpt><trkpt lat="45.677429797492664" lon="10.38239968511444"><ele>682.0</ele><time>2026-04-11T10:08:48Z</time></trkpt><trkpt lat="45.67748770230826" lon="10.382347273353744"><ele>682.0</ele><time>2026-04-11T10:08:50Z</time></trkpt><trkpt lat="45.67751981785384" lon="10.382148901389229"><ele>682.0</ele><time>2026-04-11T10:08:52Z</time></trkpt><trkpt lat="45.67759165872489" lon="10.3820482978014"><ele>682.0</ele><time>2026-04-11T10:08:53Z</time></trkpt><trkpt lat="45.677653456970766" lon="10.381968694596065"><ele>682.0</ele><time>2026-04-11T10:08:54Z</time></trkpt><trkpt lat="45.67772040779173" lon="10.381909159228433"><ele>682.8</ele><time>2026-04-11T10:08:55Z</time></trkpt><trkpt lat="45.67778352979938" lon="10.381886649068711"><ele>683.6</ele><time>2026-04-11T10:08:56Z</time></trkpt><trkpt lat="45.677887389191184" lon="10.381811423540103"><ele>684.4</ele><time>2026-04-11T10:08:58Z</time></trkpt><trkpt lat="45.67794921094529" lon="10.381669867397123"><ele>685.1999999999999</ele><time>2026-04-11T10:09:00.001Z</time></trkpt><trkpt lat="45.677991865796066" lon="10.381533568933795"><ele>686.0</ele><time>2026-04-11T10:09:02.001Z</time></trkpt><trkpt lat="45.67805998752946" lon="10.381366247687113"><ele>684.8</ele><time>2026-04-11T10:09:07.001Z</time></trkpt><trkpt lat="45.67810649570984" lon="10.381272768692174"><ele>683.5999999999999</ele><time>2026-04-11T10:09:08.001Z</time></trkpt><trkpt lat="45.67819257152649" lon="10.381194305708638"><ele>682.4</ele><time>2026-04-11T10:09:09.001Z</time></trkpt><trkpt lat="45.678258390917094" lon="10.381106510810401"><ele>681.2</ele><time>2026-04-11T10:09:10.001Z</time></trkpt><trkpt lat="45.678322459795226" lon="10.381007134681802"><ele>680.0</ele><time>2026-04-11T10:09:11.001Z</time></trkpt><trkpt lat="45.67840611447191" lon="10.380937663485756"><ele>680.0</ele><time>2026-04-11T10:09:12.001Z</time></trkpt><trkpt lat="45.67846766052001" lon="10.38087260100887"><ele>680.0</ele><time>2026-04-11T10:09:13.001Z</time></trkpt><trkpt lat="45.67855503716623" lon="10.38077547002292"><ele>680.0</ele><time>2026-04-11T10:09:15.001Z</time></trkpt><trkpt lat="45.67861756381376" lon="10.380731240349188"><ele>680.0</ele><time>2026-04-11T10:09:16.001Z</time></trkpt><trkpt lat="45.67865638801971" lon="10.380643625260848"><ele>680.0</ele><time>2026-04-11T10:09:17.001Z</time></trkpt><trkpt lat="45.67872025877621" lon="10.380614701013105"><ele>680.0</ele><time>2026-04-11T10:09:18.001Z</time></trkpt><trkpt lat="45.678844002282304" lon="10.380549772372614"><ele>681.5</ele><time>2026-04-11T10:09:20.001Z</time></trkpt><trkpt lat="45.678920796965954" lon="10.380497675980905"><ele>683.0</ele><time>2026-04-11T10:09:21.001Z</time></trkpt><trkpt lat="45.678989739189404" lon="10.380468411384637"><ele>684.5</ele><time>2026-04-11T10:09:22.001Z</time></trkpt><trkpt lat="45.679070116800844" lon="10.38042434722438"><ele>686.0</ele><time>2026-04-11T10:09:23.001Z</time></trkpt><trkpt lat="45.6791781393514" lon="10.380378501078058"><ele>687.5</ele><time>2026-04-11T10:09:24.001Z</time></trkpt><trkpt lat="45.67924544235105" lon="10.380345205447998"><ele>689.0</ele><time>2026-04-11T10:09:25.001Z</time></trkpt><trkpt lat="45.67931511178714" lon="10.380307498266422"><ele>689.0</ele><time>2026-04-11T10:09:26.001Z</time></trkpt><trkpt lat="45.67938547835436" lon="10.380302960556962"><ele>689.0</ele><time>2026-04-11T10:09:27.001Z</time></trkpt><trkpt lat="45.679447112267674" lon="10.380280321396562"><ele>689.0</ele><time>2026-04-11T10:09:28.001Z</time></trkpt><trkpt lat="45.67952855804343" lon="10.380150387667646"><ele>689.0</ele><time>2026-04-11T10:09:30.001Z</time></trkpt><trkpt lat="45.67959859662747" lon="10.380088294475204"><ele>689.0</ele><time>2026-04-11T10:09:31.001Z</time></trkpt><trkpt lat="45.679675813804835" lon="10.380050896384981"><ele>689.0</ele><time>2026-04-11T10:09:32.001Z</time></trkpt><trkpt lat="45.67975381789738" lon="10.380002782651363"><ele>691.8000000000001</ele><time>2026-04-11T10:09:33.001Z</time></trkpt><trkpt lat="45.67980995121397" lon="10.379952635976725"><ele>694.6</ele><time>2026-04-11T10:09:34.001Z</time></trkpt><trkpt lat="45.67991069981524" lon="10.379918075248911"><ele>697.4</ele><time>2026-04-11T10:09:35.001Z</time></trkpt><trkpt lat="45.68001568406961" lon="10.379869496598968"><ele>700.2</ele><time>2026-04-11T10:09:36.001Z</time></trkpt><trkpt lat="45.68011964117654" lon="10.379841993429796"><ele>703.0</ele><time>2026-04-11T10:09:37.001Z</time></trkpt><trkpt lat="45.680216864418966" lon="10.379806659486714"><ele>707.1666666666667</ele><time>2026-04-11T10:09:38.001Z</time></trkpt><trkpt lat="45.68029989872834" lon="10.379784768623946"><ele>711.3333333333334</ele><time>2026-04-11T10:09:39.001Z</time></trkpt><trkpt lat="45.680399537291336" lon="10.379753329570747"><ele>715.5</ele><time>2026-04-11T10:09:40.001Z</time></trkpt><trkpt lat="45.68047088001682" lon="10.379728275311955"><ele>719.6666666666666</ele><time>2026-04-11T10:09:41.001Z</time></trkpt><trkpt lat="45.68053290105626" lon="10.379794044592508"><ele>723.8333333333333</ele><time>2026-04-11T10:09:42.001Z</time></trkpt><trkpt lat="45.680608396238306" lon="10.37982557303184"><ele>728.0</ele><time>2026-04-11T10:09:43.001Z</time></trkpt><trkpt lat="45.68068007711702" lon="10.37982256190428"><ele>724.5</ele><time>2026-04-11T10:09:45.001Z</time></trkpt><trkpt lat="45.680709079545444" lon="10.37967125136971"><ele>721.0</ele><time>2026-04-11T10:09:47.001Z</time></trkpt><trkpt lat="45.68075407246167" lon="10.379567506794652"><ele>717.5</ele><time>2026-04-11T10:09:50.001Z</time></trkpt><trkpt lat="45.6809358453361" lon="10.379342273504852"><ele>714.0</ele><time>2026-04-11T10:09:52.001Z</time></trkpt><trkpt lat="45.68102749507436" lon="10.379278928481638"><ele>714.0</ele><time>2026-04-11T10:09:53.001Z</time></trkpt><trkpt lat="45.681095361801034" lon="10.37922133449886"><ele>714.0</ele><time>2026-04-11T10:09:54.001Z</time></trkpt><trkpt lat="45.68117163606343" lon="10.37918787761746"><ele>714.0</ele><time>2026-04-11T10:09:55.001Z</time></trkpt><trkpt lat="45.68125460080505" lon="10.37921677153112"><ele>714.0</ele><time>2026-04-11T10:09:56.001Z</time></trkpt><trkpt lat="45.68134806580332" lon="10.379212056698336"><ele>714.0</ele><time>2026-04-11T10:09:57.001Z</time></trkpt><trkpt lat="45.6814429141555" lon="10.379194293196571"><ele>714.0</ele><time>2026-04-11T10:09:58.001Z</time></trkpt><trkpt lat="45.68155078434539" lon="10.37916232472053"><ele>715.4000000000001</ele><time>2026-04-11T10:09:59.001Z</time></trkpt><trkpt lat="45.68164734041443" lon="10.379194347951291"><ele>716.8</ele><time>2026-04-11T10:10:00.001Z</time></trkpt><trkpt lat="45.68174723689482" lon="10.379270544441196"><ele>718.2</ele><time>2026-04-11T10:10:01.001Z</time></trkpt><trkpt lat="45.68184280596092" lon="10.379362828531198"><ele>719.5999999999999</ele><time>2026-04-11T10:10:02.001Z</time></trkpt><trkpt lat="45.68193763936095" lon="10.379414284997"><ele>721.0</ele><time>2026-04-11T10:10:03.001Z</time></trkpt><trkpt lat="45.68201306988533" lon="10.379438248988192"><ele>721.4</ele><time>2026-04-11T10:10:04.001Z</time></trkpt><trkpt lat="45.68209383954583" lon="10.379438855438146"><ele>721.8</ele><time>2026-04-11T10:10:05.001Z</time></trkpt><trkpt lat="45.682173351660325" lon="10.379407068549968"><ele>722.1999999999999</ele><time>2026-04-11T10:10:06.002Z</time></trkpt><trkpt lat="45.682217636632394" lon="10.379302369976967"><ele>722.5999999999999</ele><time>2026-04-11T10:10:07.002Z</time></trkpt><trkpt lat="45.68227240950928" lon="10.379084037922603"><ele>723.0</ele><time>2026-04-11T10:10:08.002Z</time></trkpt><trkpt lat="45.682391824764466" lon="10.378888703751691"><ele>722.75</ele><time>2026-04-11T10:10:09.002Z</time></trkpt><trkpt lat="45.68249858686321" lon="10.378759376104968"><ele>722.5</ele><time>2026-04-11T10:10:10.002Z</time></trkpt><trkpt lat="45.682616601344826" lon="10.378662071346566"><ele>722.25</ele><time>2026-04-11T10:10:11.002Z</time></trkpt><trkpt lat="45.682707055806034" lon="10.378596450565361"><ele>722.0</ele><time>2026-04-11T10:10:12.002Z</time></trkpt><trkpt lat="45.68277754102714" lon="10.378559681698034"><ele>720.6</ele><time>2026-04-11T10:10:13.002Z</time></trkpt><trkpt lat="45.682842295676096" lon="10.378529996369316"><ele>719.2</ele><time>2026-04-11T10:10:15.002Z</time></trkpt><trkpt lat="45.68292887989359" lon="10.378385462026786"><ele>717.8</ele><time>2026-04-11T10:12:12.001Z</time></trkpt><trkpt lat="45.68298221022132" lon="10.37830292463632"><ele>716.4</ele><time>2026-04-11T10:12:13.001Z</time></trkpt><trkpt lat="45.683048040334725" lon="10.378208011144062"><ele>715.0</ele><time>2026-04-11T10:12:14.002Z</time></trkpt><trkpt lat="45.68312819302914" lon="10.37811975958556"><ele>715.0</ele><time>2026-04-11T10:12:15.002Z</time></trkpt><trkpt lat="45.68320635834506" lon="10.378023904662546"><ele>715.0</ele><time>2026-04-11T10:12:16.002Z</time></trkpt><trkpt lat="45.683315170881855" lon="10.378002712803003"><ele>715.0</ele><time>2026-04-11T10:12:17.002Z</time></trkpt><trkpt lat="45.68343325966692" lon="10.377931305219795"><ele>715.0</ele><time>2026-04-11T10:12:18.002Z</time></trkpt><trkpt lat="45.68351752465472" lon="10.377803301922034"><ele>716.5</ele><time>2026-04-11T10:12:19.002Z</time></trkpt><trkpt lat="45.68360950557121" lon="10.377684248272695"><ele>718.0</ele><time>2026-04-11T10:12:20.002Z</time></trkpt><trkpt lat="45.68372495490235" lon="10.377560494442212"><ele>719.5</ele><time>2026-04-11T10:12:21.002Z</time></trkpt><trkpt lat="45.68383323668604" lon="10.377449802166156"><ele>721.0</ele><time>2026-04-11T10:12:22.002Z</time></trkpt><trkpt lat="45.68394495361421" lon="10.377309822032176"><ele>721.0</ele><time>2026-04-11T10:12:23.002Z</time></trkpt><trkpt lat="45.684065418761335" lon="10.377201621011048"><ele>721.0</ele><time>2026-04-11T10:12:24.002Z</time></trkpt><trkpt lat="45.68415930275488" lon="10.377102229811586"><ele>721.0</ele><time>2026-04-11T10:12:25.002Z</time></trkpt><trkpt lat="45.684241066322166" lon="10.377009351600984"><ele>721.0</ele><time>2026-04-11T10:12:26.002Z</time></trkpt><trkpt lat="45.684300171885404" lon="10.376886568513951"><ele>723.4</ele><time>2026-04-11T10:12:27.002Z</time></trkpt><trkpt lat="45.684348427999424" lon="10.37676499665673"><ele>725.8</ele><time>2026-04-11T10:12:28.002Z</time></trkpt><trkpt lat="45.6843657171598" lon="10.376625923813076"><ele>728.1999999999999</ele><time>2026-04-11T10:12:29.002Z</time></trkpt><trkpt lat="45.684375044662985" lon="10.376483982052902"><ele>730.5999999999999</ele><time>2026-04-11T10:12:30.002Z</time></trkpt><trkpt lat="45.684367489813496" lon="10.376331359997954"><ele>733.0</ele><time>2026-04-11T10:12:31.002Z</time></trkpt><trkpt lat="45.684365643022225" lon="10.376176933092733"><ele>735.3333333333334</ele><time>2026-04-11T10:12:32Z</time></trkpt><trkpt lat="45.68437258455966" lon="10.37606687537918"><ele>737.6666666666666</ele><time>2026-04-11T10:12:33Z</time></trkpt><trkpt lat="45.68438261597729" lon="10.375962426805744"><ele>740.0</ele><time>2026-04-11T10:12:34Z</time></trkpt><trkpt lat="45.68479190723442" lon="10.375875584907693"><ele>738.4</ele><time>2026-04-11T10:12:35Z</time></trkpt><trkpt lat="45.68488366294632" lon="10.375799218982356"><ele>736.8</ele><time>2026-04-11T10:12:36Z</time></trkpt><trkpt lat="45.68497226856914" lon="10.375726221902772"><ele>735.2</ele><time>2026-04-11T10:12:37Z</time></trkpt><trkpt lat="45.68507685702046" lon="10.375656209674025"><ele>733.6</ele><time>2026-04-11T10:12:38Z</time></trkpt><trkpt lat="45.68518806265339" lon="10.375589269303559"><ele>732.0</ele><time>2026-04-11T10:12:39Z</time></trkpt><trkpt lat="45.685296072415625" lon="10.37551521402576"><ele>732.0</ele><time>2026-04-11T10:12:40Z</time></trkpt><trkpt lat="45.685403042117535" lon="10.375458234743972"><ele>732.0</ele><time>2026-04-11T10:12:41Z</time></trkpt><trkpt lat="45.68552382239088" lon="10.375398189459744"><ele>732.0</ele><time>2026-04-11T10:12:42Z</time></trkpt><trkpt lat="45.685627207096424" lon="10.37533548666288"><ele>732.0</ele><time>2026-04-11T10:12:43Z</time></trkpt><trkpt lat="45.68576048029847" lon="10.37531224903201"><ele>732.0</ele><time>2026-04-11T10:12:44Z</time></trkpt><trkpt lat="45.68589837553411" lon="10.375285184239972"><ele>732.0</ele><time>2026-04-11T10:12:45Z</time></trkpt><trkpt lat="45.686032288351676" lon="10.375276857541387"><ele>732.0</ele><time>2026-04-11T10:12:46Z</time></trkpt><trkpt lat="45.68615985487688" lon="10.375234035223107"><ele>732.0</ele><time>2026-04-11T10:12:47Z</time></trkpt><trkpt lat="45.6862565797638" lon="10.375225248971145"><ele>730.6</ele><time>2026-04-11T10:12:48Z</time></trkpt><trkpt lat="45.68638559009701" lon="10.37522785909517"><ele>729.2</ele><time>2026-04-11T10:12:49Z</time></trkpt><trkpt lat="45.68649503578913" lon="10.375244770540395"><ele>727.8</ele><time>2026-04-11T10:12:50Z</time></trkpt><trkpt lat="45.68659012583867" lon="10.375282539681391"><ele>726.4</ele><time>2026-04-11T10:12:51Z</time></trkpt><trkpt lat="45.68667512750157" lon="10.375313373873164"><ele>725.0</ele><time>2026-04-11T10:12:52Z</time></trkpt><trkpt lat="45.68676174548969" lon="10.375206430015801"><ele>725.0</ele><time>2026-04-11T10:12:54Z</time></trkpt><trkpt lat="45.6868529196463" lon="10.375162102045586"><ele>725.0</ele><time>2026-04-11T10:12:56Z</time></trkpt><trkpt lat="45.68693027697874" lon="10.375099288182753"><ele>725.0</ele><time>2026-04-11T10:12:58Z</time></trkpt><trkpt lat="45.686991161721835" lon="10.375043807700731"><ele>725.0</ele><time>2026-04-11T10:13:27.001Z</time></trkpt><trkpt lat="45.687009533316015" lon="10.374952262105404"><ele>725.0</ele><time>2026-04-11T10:13:30.001Z</time></trkpt><trkpt lat="45.68695019816086" lon="10.374825792693175"><ele>725.0</ele><time>2026-04-11T10:13:32.001Z</time></trkpt><trkpt lat="45.68689341227535" lon="10.374718106446064"><ele>724.5</ele><time>2026-04-11T10:13:33.001Z</time></trkpt><trkpt lat="45.686835509162734" lon="10.374587881085487"><ele>724.0</ele><time>2026-04-11T10:13:34.001Z</time></trkpt><trkpt lat="45.686774399369305" lon="10.374417991726933"><ele>723.5</ele><time>2026-04-11T10:13:35.001Z</time></trkpt><trkpt lat="45.68671453870265" lon="10.374252659231194"><ele>723.0</ele><time>2026-04-11T10:13:36.001Z</time></trkpt><trkpt lat="45.68666140855116" lon="10.37413464826631"><ele>723.0</ele><time>2026-04-11T10:13:37.001Z</time></trkpt><trkpt lat="45.686604664799624" lon="10.374019310198513"><ele>723.0</ele><time>2026-04-11T10:13:38.001Z</time></trkpt><trkpt lat="45.68649880633797" lon="10.373918607037629"><ele>723.0</ele><time>2026-04-11T10:13:39.001Z</time></trkpt><trkpt lat="45.686389048905056" lon="10.373835286984958"><ele>723.0</ele><time>2026-04-11T10:13:40.001Z</time></trkpt><trkpt lat="45.68630626310588" lon="10.373781526127424"><ele>723.0</ele><time>2026-04-11T10:13:41.001Z</time></trkpt><trkpt lat="45.68623826169564" lon="10.373800554322155"><ele>722.4</ele><time>2026-04-11T10:13:42.001Z</time></trkpt><trkpt lat="45.68615763673664" lon="10.373850234947362"><ele>721.8</ele><time>2026-04-11T10:13:43.001Z</time></trkpt><trkpt lat="45.68607919864678" lon="10.373968609980317"><ele>721.2</ele><time>2026-04-11T10:13:44.001Z</time></trkpt><trkpt lat="45.68600019996067" lon="10.373962106421654"><ele>720.6</ele><time>2026-04-11T10:13:45.001Z</time></trkpt><trkpt lat="45.68589939315295" lon="10.373921435524226"><ele>720.0</ele><time>2026-04-11T10:13:46.001Z</time></trkpt><trkpt lat="45.685782706366176" lon="10.373827765984023"><ele>720.0</ele><time>2026-04-11T10:13:47.001Z</time></trkpt><trkpt lat="45.68568632353132" lon="10.373703084806797"><ele>720.0</ele><time>2026-04-11T10:13:48.001Z</time></trkpt><trkpt lat="45.685591418204694" lon="10.373684888243124"><ele>720.0</ele><time>2026-04-11T10:13:49.001Z</time></trkpt><trkpt lat="45.68551799923729" lon="10.373666026289214"><ele>720.0</ele><time>2026-04-11T10:13:50.001Z</time></trkpt><trkpt lat="45.68542227591063" lon="10.373624861289139"><ele>720.0</ele><time>2026-04-11T10:13:51.001Z</time></trkpt><trkpt lat="45.685337939534705" lon="10.373554307481129"><ele>720.0</ele><time>2026-04-11T10:13:52.001Z</time></trkpt><trkpt lat="45.68530457926252" lon="10.373476294271079"><ele>720.0</ele><time>2026-04-11T10:13:53.001Z</time></trkpt><trkpt lat="45.68520714123233" lon="10.37357425942059"><ele>720.0</ele><time>2026-04-11T10:13:55.001Z</time></trkpt><trkpt lat="45.68513689600172" lon="10.373698286583496"><ele>720.0</ele><time>2026-04-11T10:13:56.001Z</time></trkpt><trkpt lat="45.68508834767657" lon="10.373788569372332"><ele>720.0</ele><time>2026-04-11T10:13:57.001Z</time></trkpt><trkpt lat="45.68500455622445" lon="10.3738711021674"><ele>719.0</ele><time>2026-04-11T10:14:14.001Z</time></trkpt><trkpt lat="45.68493917833717" lon="10.373907884361621"><ele>718.0</ele><time>2026-04-11T10:14:15.001Z</time></trkpt><trkpt lat="45.68486198787484" lon="10.373986092149904"><ele>717.0</ele><time>2026-04-11T10:14:16.001Z</time></trkpt><trkpt lat="45.684729786173165" lon="10.373936910529396"><ele>716.0</ele><time>2026-04-11T10:14:18.001Z</time></trkpt><trkpt lat="45.68463956538676" lon="10.373851592730086"><ele>715.0</ele><time>2026-04-11T10:14:19.001Z</time></trkpt><trkpt lat="45.68452342593728" lon="10.373759247856826"><ele>715.0</ele><time>2026-04-11T10:14:20.001Z</time></trkpt><trkpt lat="45.68444568396521" lon="10.373695099611663"><ele>715.0</ele><time>2026-04-11T10:14:21.001Z</time></trkpt><trkpt lat="45.684343571272734" lon="10.373656639474445"><ele>715.0</ele><time>2026-04-11T10:14:22.001Z</time></trkpt><trkpt lat="45.68427465808986" lon="10.373679688158589"><ele>715.0</ele><time>2026-04-11T10:14:23.001Z</time></trkpt><trkpt lat="45.68420822360203" lon="10.373690463926861"><ele>715.0</ele><time>2026-04-11T10:14:24.001Z</time></trkpt><trkpt lat="45.68414352113575" lon="10.3736828623587"><ele>715.0</ele><time>2026-04-11T10:14:26.001Z</time></trkpt><trkpt lat="45.68422130922359" lon="10.373686492774638"><ele>712.0</ele><time>2026-04-11T10:14:28.002Z</time></trkpt><trkpt lat="45.684144924659314" lon="10.373723715793805"><ele>709.0</ele><time>2026-04-11T10:14:33.002Z</time></trkpt><trkpt lat="45.68405295940319" lon="10.373769622339525"><ele>706.0</ele><time>2026-04-11T10:14:36.002Z</time></trkpt><trkpt lat="45.68398237940246" lon="10.373760875601365"><ele>703.0</ele><time>2026-04-11T10:14:37.002Z</time></trkpt><trkpt lat="45.68382226607476" lon="10.373813050445479"><ele>700.0</ele><time>2026-04-11T10:14:39Z</time></trkpt><trkpt lat="45.68372284387026" lon="10.37385600488866"><ele>700.4</ele><time>2026-04-11T10:14:40Z</time></trkpt><trkpt lat="45.68364814324767" lon="10.373886508217973"><ele>700.8</ele><time>2026-04-11T10:14:41Z</time></trkpt><trkpt lat="45.683586918444014" lon="10.373825335785828"><ele>701.2</ele><time>2026-04-11T10:14:42Z</time></trkpt><trkpt lat="45.68348984528667" lon="10.373667230337572"><ele>701.6</ele><time>2026-04-11T10:14:43Z</time></trkpt><trkpt lat="45.68337848572694" lon="10.373578294755308"><ele>702.0</ele><time>2026-04-11T10:14:44Z</time></trkpt><trkpt lat="45.68323769609937" lon="10.373462566455645"><ele>702.0</ele><time>2026-04-11T10:14:45Z</time></trkpt><trkpt lat="45.68313314730729" lon="10.37336699587989"><ele>702.0</ele><time>2026-04-11T10:14:46Z</time></trkpt><trkpt lat="45.68303613722599" lon="10.373279498659272"><ele>702.0</ele><time>2026-04-11T10:14:47Z</time></trkpt><trkpt lat="45.68296816978662" lon="10.373179186556218"><ele>702.0</ele><time>2026-04-11T10:14:48Z</time></trkpt><trkpt lat="45.682914878933886" lon="10.373107905603261"><ele>702.0</ele><time>2026-04-11T10:14:49Z</time></trkpt><trkpt lat="45.68286659820107" lon="10.373014655962095"><ele>699.1666666666666</ele><time>2026-04-11T10:14:50Z</time></trkpt><trkpt lat="45.682809470376824" lon="10.372932670658619"><ele>696.3333333333334</ele><time>2026-04-11T10:14:51Z</time></trkpt><trkpt lat="45.682764466040574" lon="10.37283867340051"><ele>693.5</ele><time>2026-04-11T10:14:53Z</time></trkpt><trkpt lat="45.682823807819844" lon="10.372731612375915"><ele>690.6666666666667</ele><time>2026-04-11T10:14:55Z</time></trkpt><trkpt lat="45.68286577052063" lon="10.372660800658842"><ele>687.8333333333334</ele><time>2026-04-11T10:14:56Z</time></trkpt><trkpt lat="45.682866963136824" lon="10.372511642809293"><ele>685.0</ele><time>2026-04-11T10:15:46.001Z</time></trkpt><trkpt lat="45.682834790838214" lon="10.372394234901531"><ele>685.0</ele><time>2026-04-11T10:15:47.001Z</time></trkpt><trkpt lat="45.68280335434918" lon="10.372239117770645"><ele>685.0</ele><time>2026-04-11T10:15:48.001Z</time></trkpt><trkpt lat="45.68280170250277" lon="10.372073572117786"><ele>685.0</ele><time>2026-04-11T10:15:49.001Z</time></trkpt><trkpt lat="45.68280733219628" lon="10.371922013502687"><ele>685.0</ele><time>2026-04-11T10:15:50.001Z</time></trkpt><trkpt lat="45.68280104960166" lon="10.371788183199724"><ele>685.0</ele><time>2026-04-11T10:15:51.001Z</time></trkpt><trkpt lat="45.682793999311365" lon="10.371678036771206"><ele>681.6</ele><time>2026-04-11T10:15:52.001Z</time></trkpt><trkpt lat="45.68282269565002" lon="10.371589472049294"><ele>678.2</ele><time>2026-04-11T10:15:53.001Z</time></trkpt><trkpt lat="45.682850563412494" lon="10.371475934357333"><ele>674.8</ele><time>2026-04-11T10:15:54.001Z</time></trkpt><trkpt lat="45.682863139786406" lon="10.371346590309066"><ele>671.4</ele><time>2026-04-11T10:15:55.001Z</time></trkpt><trkpt lat="45.68286171040403" lon="10.371199009516902"><ele>668.0</ele><time>2026-04-11T10:15:56.001Z</time></trkpt><trkpt lat="45.682841998041106" lon="10.371031504098081"><ele>666.5</ele><time>2026-04-11T10:15:57.001Z</time></trkpt><trkpt lat="45.68281779487725" lon="10.370932567724605"><ele>665.0</ele><time>2026-04-11T10:15:58.001Z</time></trkpt><trkpt lat="45.68279117499272" lon="10.370821808153739"><ele>663.5</ele><time>2026-04-11T10:15:59.001Z</time></trkpt><trkpt lat="45.682739706562096" lon="10.370716247129984"><ele>662.0</ele><time>2026-04-11T10:16:00.001Z</time></trkpt><trkpt lat="45.682719003470126" lon="10.3706084767075"><ele>660.5</ele><time>2026-04-11T10:16:01.001Z</time></trkpt><trkpt lat="45.68272473227559" lon="10.370481159296848"><ele>659.0</ele><time>2026-04-11T10:16:02.001Z</time></trkpt><trkpt lat="45.682740232231986" lon="10.370308451949304"><ele>658.4000000000001</ele><time>2026-04-11T10:16:03.001Z</time></trkpt><trkpt lat="45.682749762424656" lon="10.370148428742802"><ele>657.8</ele><time>2026-04-11T10:16:04.001Z</time></trkpt><trkpt lat="45.68274783221842" lon="10.369983158746873"><ele>657.2</ele><time>2026-04-11T10:16:05.001Z</time></trkpt><trkpt lat="45.682759468284964" lon="10.369832652681342"><ele>656.5999999999999</ele><time>2026-04-11T10:16:06.001Z</time></trkpt><trkpt lat="45.68278062308437" lon="10.36968283895816"><ele>656.0</ele><time>2026-04-11T10:16:07.001Z</time></trkpt><trkpt lat="45.68281775215633" lon="10.369530510546399"><ele>653.0</ele><time>2026-04-11T10:16:08.001Z</time></trkpt><trkpt lat="45.68282979936993" lon="10.369365702308604"><ele>650.0</ele><time>2026-04-11T10:16:09.001Z</time></trkpt><trkpt lat="45.682840702396376" lon="10.36918469095732"><ele>647.0</ele><time>2026-04-11T10:16:10.001Z</time></trkpt><trkpt lat="45.682834106890354" lon="10.368959887378056"><ele>644.0</ele><time>2026-04-11T10:16:11.001Z</time></trkpt><trkpt lat="45.6828442980064" lon="10.368725944827451"><ele>643.2</ele><time>2026-04-11T10:16:12.001Z</time></trkpt><trkpt lat="45.68285614861103" lon="10.368528871428756"><ele>642.4000000000001</ele><time>2026-04-11T10:16:13.001Z</time></trkpt><trkpt lat="45.68285776604265" lon="10.368357653620729"><ele>641.6</ele><time>2026-04-11T10:16:14.001Z</time></trkpt><trkpt lat="45.682847590151624" lon="10.368237008999058"><ele>640.8</ele><time>2026-04-11T10:16:15.001Z</time></trkpt><trkpt lat="45.68281934996519" lon="10.36811524707825"><ele>640.0</ele><time>2026-04-11T10:16:16.001Z</time></trkpt><trkpt lat="45.68277971719821" lon="10.368014709155979"><ele>642.2</ele><time>2026-04-11T10:16:17.001Z</time></trkpt><trkpt lat="45.68271279395874" lon="10.36789419584844"><ele>644.4</ele><time>2026-04-11T10:16:18.001Z</time></trkpt><trkpt lat="45.682615215097904" lon="10.367781579522584"><ele>646.5999999999999</ele><time>2026-04-11T10:16:19.001Z</time></trkpt><trkpt lat="45.68255383752405" lon="10.367687127012704"><ele>648.8</ele><time>2026-04-11T10:16:20.001Z</time></trkpt><trkpt lat="45.68249740025494" lon="10.367627504944357"><ele>651.0</ele><time>2026-04-11T10:16:21.001Z</time></trkpt><trkpt lat="45.68243335892531" lon="10.367572497205828"><ele>651.0</ele><time>2026-04-11T10:16:22.001Z</time></trkpt><trkpt lat="45.68235508650018" lon="10.3675504485174"><ele>651.0</ele><time>2026-04-11T10:16:23.001Z</time></trkpt><trkpt lat="45.68227173745887" lon="10.367474197574593"><ele>651.0</ele><time>2026-04-11T10:16:24.001Z</time></trkpt><trkpt lat="45.68218295449136" lon="10.36737295073422"><ele>651.0</ele><time>2026-04-11T10:16:25.001Z</time></trkpt><trkpt lat="45.68209138126307" lon="10.367263625283877"><ele>651.0</ele><time>2026-04-11T10:16:26.001Z</time></trkpt><trkpt lat="45.68199616942612" lon="10.367167049182763"><ele>649.4</ele><time>2026-04-11T10:16:27.001Z</time></trkpt><trkpt lat="45.68188252163017" lon="10.367073832073482"><ele>647.8</ele><time>2026-04-11T10:16:28.001Z</time></trkpt><trkpt lat="45.68178090575956" lon="10.366962319365696"><ele>646.1999999999999</ele><time>2026-04-11T10:16:29.001Z</time></trkpt><trkpt lat="45.681686186335085" lon="10.36689382132136"><ele>644.5999999999999</ele><time>2026-04-11T10:16:30.001Z</time></trkpt><trkpt lat="45.68161705039384" lon="10.366847006585115"><ele>643.0</ele><time>2026-04-11T10:16:31.001Z</time></trkpt><trkpt lat="45.68157444164541" lon="10.366774802986768"><ele>643.0</ele><time>2026-04-11T10:16:32.001Z</time></trkpt><trkpt lat="45.68155576047838" lon="10.366681671187191"><ele>643.0</ele><time>2026-04-11T10:16:33.001Z</time></trkpt><trkpt lat="45.68155765207094" lon="10.366503468008997"><ele>643.0</ele><time>2026-04-11T10:16:34.001Z</time></trkpt><trkpt lat="45.68155198008536" lon="10.366357738559998"><ele>643.0</ele><time>2026-04-11T10:16:35.001Z</time></trkpt><trkpt lat="45.68155002822712" lon="10.366209296127339"><ele>643.0</ele><time>2026-04-11T10:16:36.001Z</time></trkpt><trkpt lat="45.68150793863135" lon="10.366080295888532"><ele>642.4</ele><time>2026-04-11T10:16:37.001Z</time></trkpt><trkpt lat="45.68144284784432" lon="10.36593912624426"><ele>641.8</ele><time>2026-04-11T10:16:38.002Z</time></trkpt><trkpt lat="45.681385244432064" lon="10.365818428733057"><ele>641.2</ele><time>2026-04-11T10:16:39.002Z</time></trkpt><trkpt lat="45.68136485806485" lon="10.365653472061176"><ele>640.6</ele><time>2026-04-11T10:16:40.002Z</time></trkpt><trkpt lat="45.681328302184426" lon="10.365522921215197"><ele>640.0</ele><time>2026-04-11T10:16:41.002Z</time></trkpt><trkpt lat="45.681273204746184" lon="10.365432614856314"><ele>637.6666666666667</ele><time>2026-04-11T10:16:42.002Z</time></trkpt><trkpt lat="45.68121453010442" lon="10.365364958009296"><ele>635.3333333333334</ele><time>2026-04-11T10:16:43.002Z</time></trkpt><trkpt lat="45.681138074487386" lon="10.365316216520972"><ele>633.0</ele><time>2026-04-11T10:16:44Z</time></trkpt><trkpt lat="45.68107529894445" lon="10.365265090585888"><ele>630.6666666666666</ele><time>2026-04-11T10:16:45Z</time></trkpt><trkpt lat="45.6811416678081" lon="10.365097790129203"><ele>628.3333333333333</ele><time>2026-04-11T10:16:47Z</time></trkpt><trkpt lat="45.68115069080618" lon="10.364983589482819"><ele>626.0</ele><time>2026-04-11T10:16:48Z</time></trkpt><trkpt lat="45.68113228308328" lon="10.364878875955318"><ele>626.0</ele><time>2026-04-11T10:16:49Z</time></trkpt><trkpt lat="45.68112197673468" lon="10.364778766702052"><ele>626.0</ele><time>2026-04-11T10:16:51Z</time></trkpt><trkpt lat="45.681204646644424" lon="10.36477126479875"><ele>626.0</ele><time>2026-04-11T10:17:01Z</time></trkpt><trkpt lat="45.681310170479556" lon="10.364788153573214"><ele>626.0</ele><time>2026-04-11T10:17:02Z</time></trkpt><trkpt lat="45.68139554704244" lon="10.364813386725556"><ele>626.0</ele><time>2026-04-11T10:17:03Z</time></trkpt><trkpt lat="45.681487852804416" lon="10.364891935234724"><ele>626.0</ele><time>2026-04-11T10:17:04Z</time></trkpt><trkpt lat="45.681566357774045" lon="10.365055835076534"><ele>626.0</ele><time>2026-04-11T10:17:05Z</time></trkpt><trkpt lat="45.681633505853306" lon="10.365132574774751"><ele>626.0</ele><time>2026-04-11T10:17:06Z</time></trkpt><trkpt lat="45.68171493427182" lon="10.365234924123715"><ele>626.0</ele><time>2026-04-11T10:17:07Z</time></trkpt><trkpt lat="45.68176314994164" lon="10.36538512413476"><ele>626.0</ele><time>2026-04-11T10:17:08Z</time></trkpt><trkpt lat="45.681845424886895" lon="10.36548800460819"><ele>624.75</ele><time>2026-04-11T10:17:09Z</time></trkpt><trkpt lat="45.68193093613323" lon="10.36558814064118"><ele>623.5</ele><time>2026-04-11T10:17:10Z</time></trkpt><trkpt lat="45.68204100175975" lon="10.365659715053798"><ele>622.25</ele><time>2026-04-11T10:17:11Z</time></trkpt><trkpt lat="45.68215875800988" lon="10.365752199721225"><ele>621.0</ele><time>2026-04-11T10:17:12Z</time></trkpt><trkpt lat="45.68225016394062" lon="10.36583980375368"><ele>621.0</ele><time>2026-04-11T10:17:13Z</time></trkpt><trkpt lat="45.68232951317243" lon="10.365973128502961"><ele>621.0</ele><time>2026-04-11T10:17:14Z</time></trkpt><trkpt lat="45.68236665429911" lon="10.366077768615495"><ele>621.0</ele><time>2026-04-11T10:17:15Z</time></trkpt><trkpt lat="45.68239847243654" lon="10.366193075104558"><ele>621.0</ele><time>2026-04-11T10:17:16Z</time></trkpt><trkpt lat="45.682435780404866" lon="10.366285805817986"><ele>621.0</ele><time>2026-04-11T10:17:17Z</time></trkpt><trkpt lat="45.68251344135987" lon="10.366331560011158"><ele>621.0</ele><time>2026-04-11T10:17:18Z</time></trkpt><trkpt lat="45.68265617188223" lon="10.366358195816806"><ele>621.0</ele><time>2026-04-11T10:17:19Z</time></trkpt><trkpt lat="45.68278564858167" lon="10.366306803591414"><ele>621.0</ele><time>2026-04-11T10:17:20Z</time></trkpt><trkpt lat="45.68288501810547" lon="10.366186423929928"><ele>621.0</ele><time>2026-04-11T10:17:21Z</time></trkpt><trkpt lat="45.68297619313158" lon="10.366180364892864"><ele>617.4</ele><time>2026-04-11T10:17:22Z</time></trkpt><trkpt lat="45.68307010717076" lon="10.366186298514911"><ele>613.8</ele><time>2026-04-11T10:17:23Z</time></trkpt><trkpt lat="45.6831738182119" lon="10.366220910487746"><ele>610.1999999999999</ele><time>2026-04-11T10:17:24Z</time></trkpt><trkpt lat="45.683231300285854" lon="10.366291067926197"><ele>606.6</ele><time>2026-04-11T10:17:25Z</time></trkpt><trkpt lat="45.6833268082616" lon="10.366265153047467"><ele>603.0</ele><time>2026-04-11T10:17:27Z</time></trkpt><trkpt lat="45.683436150404575" lon="10.366223069258663"><ele>603.0</ele><time>2026-04-11T10:17:29Z</time></trkpt><trkpt lat="45.68349831460629" lon="10.366202286195406"><ele>603.0</ele><time>2026-04-11T10:17:31.001Z</time></trkpt><trkpt lat="45.683414803471315" lon="10.366082012295308"><ele>603.0</ele><time>2026-04-11T10:17:50.001Z</time></trkpt><trkpt lat="45.68333297256582" lon="10.365977361407655"><ele>603.0</ele><time>2026-04-11T10:17:51.001Z</time></trkpt><trkpt lat="45.6832446588642" lon="10.365900228491029"><ele>603.0</ele><time>2026-04-11T10:17:52.001Z</time></trkpt><trkpt lat="45.68311926123242" lon="10.365818853423475"><ele>603.0</ele><time>2026-04-11T10:17:53.001Z</time></trkpt><trkpt lat="45.68299116029979" lon="10.365782106925357"><ele>603.0</ele><time>2026-04-11T10:17:54.001Z</time></trkpt><trkpt lat="45.682879280192545" lon="10.365773855985664"><ele>603.0</ele><time>2026-04-11T10:17:55.001Z</time></trkpt><trkpt lat="45.6827751165898" lon="10.365770601424105"><ele>603.0</ele><time>2026-04-11T10:17:56.001Z</time></trkpt><trkpt lat="45.682705154938915" lon="10.365662459748794"><ele>603.3333333333334</ele><time>2026-04-11T10:17:57.001Z</time></trkpt><trkpt lat="45.68262645200095" lon="10.365587638571201"><ele>603.6666666666667</ele><time>2026-04-11T10:17:58.001Z</time></trkpt><trkpt lat="45.682424596506344" lon="10.36541878533148"><ele>604.0</ele><time>2026-04-11T10:18:00.001Z</time></trkpt><trkpt lat="45.682301111372574" lon="10.365288112506517"><ele>604.0</ele><time>2026-04-11T10:18:01.001Z</time></trkpt><trkpt lat="45.68217468093304" lon="10.365192340403448"><ele>604.0</ele><time>2026-04-11T10:18:02.001Z</time></trkpt><trkpt lat="45.682078792679384" lon="10.365098657363141"><ele>604.0</ele><time>2026-04-11T10:18:03.001Z</time></trkpt><trkpt lat="45.68200983659149" lon="10.365001068093713"><ele>604.0</ele><time>2026-04-11T10:18:04.001Z</time></trkpt><trkpt lat="45.68199068244394" lon="10.364887089889514"><ele>604.0</ele><time>2026-04-11T10:18:06.001Z</time></trkpt><trkpt lat="45.68205137141988" lon="10.364775332922651"><ele>606.0</ele><time>2026-04-11T10:18:07.001Z</time></trkpt><trkpt lat="45.68207342939829" lon="10.364683906697513"><ele>608.0</ele><time>2026-04-11T10:18:08.001Z</time></trkpt><trkpt lat="45.68196961448794" lon="10.364553560990641"><ele>610.0</ele><time>2026-04-11T10:18:10.001Z</time></trkpt><trkpt lat="45.681888452938516" lon="10.364423705252937"><ele>612.0</ele><time>2026-04-11T10:18:11.001Z</time></trkpt><trkpt lat="45.68178769558241" lon="10.364293356235503"><ele>612.0</ele><time>2026-04-11T10:18:12.001Z</time></trkpt><trkpt lat="45.68167961701611" lon="10.364169147481428"><ele>612.0</ele><time>2026-04-11T10:18:13.001Z</time></trkpt><trkpt lat="45.681553521095424" lon="10.364048918516838"><ele>612.0</ele><time>2026-04-11T10:18:14.001Z</time></trkpt><trkpt lat="45.681419827514105" lon="10.363920127643494"><ele>609.2</ele><time>2026-04-11T10:18:15.001Z</time></trkpt><trkpt lat="45.68131320942717" lon="10.363834449958036"><ele>606.4000000000001</ele><time>2026-04-11T10:18:16.001Z</time></trkpt><trkpt lat="45.68125475147387" lon="10.363790320908347"><ele>603.5999999999999</ele><time>2026-04-11T10:18:17.001Z</time></trkpt><trkpt lat="45.68137939677674" lon="10.363670573120896"><ele>600.8</ele><time>2026-04-11T10:18:19.001Z</time></trkpt><trkpt lat="45.68139302513217" lon="10.363579419372277"><ele>598.0</ele><time>2026-04-11T10:18:20.001Z</time></trkpt><trkpt lat="45.68139331302655" lon="10.363477829203097"><ele>598.0</ele><time>2026-04-11T10:18:21.001Z</time></trkpt><trkpt lat="45.68136555176035" lon="10.363329682871337"><ele>598.0</ele><time>2026-04-11T10:18:22.001Z</time></trkpt><trkpt lat="45.681339258899804" lon="10.363177527004188"><ele>598.0</ele><time>2026-04-11T10:18:23.001Z</time></trkpt><trkpt lat="45.681376846221305" lon="10.362962105092658"><ele>598.0</ele><time>2026-04-11T10:18:24.001Z</time></trkpt><trkpt lat="45.68142142496229" lon="10.362764570224911"><ele>597.0</ele><time>2026-04-11T10:18:25.001Z</time></trkpt><trkpt lat="45.681419583842874" lon="10.362630332158464"><ele>596.0</ele><time>2026-04-11T10:18:26.001Z</time></trkpt><trkpt lat="45.68139241531709" lon="10.362529738058681"><ele>595.0</ele><time>2026-04-11T10:18:27.001Z</time></trkpt><trkpt lat="45.681366788492724" lon="10.362416222100112"><ele>594.0</ele><time>2026-04-11T10:18:28.001Z</time></trkpt><trkpt lat="45.68130035032965" lon="10.362330747377099"><ele>593.0</ele><time>2026-04-11T10:18:29.001Z</time></trkpt><trkpt lat="45.6812283075869" lon="10.362311235371005"><ele>592.0</ele><time>2026-04-11T10:18:30.001Z</time></trkpt><trkpt lat="45.68111380886995" lon="10.36235238005322"><ele>598.5</ele><time>2026-04-11T10:18:31.001Z</time></trkpt><trkpt lat="45.680986645275645" lon="10.36235925545107"><ele>605.0</ele><time>2026-04-11T10:18:32.001Z</time></trkpt><trkpt lat="45.68080988947745" lon="10.362341240490759"><ele>611.5</ele><time>2026-04-11T10:18:33.001Z</time></trkpt><trkpt lat="45.680689685787115" lon="10.36229645843419"><ele>618.0</ele><time>2026-04-11T10:18:34.001Z</time></trkpt><trkpt lat="45.680589464707424" lon="10.36225212191054"><ele>617.4</ele><time>2026-04-11T10:18:35.001Z</time></trkpt><trkpt lat="45.68051274030437" lon="10.362162310373677"><ele>616.8</ele><time>2026-04-11T10:18:36.001Z</time></trkpt><trkpt lat="45.68047363462723" lon="10.362051482522613"><ele>616.2</ele><time>2026-04-11T10:18:37.001Z</time></trkpt><trkpt lat="45.680407715349546" lon="10.36195339927018"><ele>615.6</ele><time>2026-04-11T10:18:38.001Z</time></trkpt><trkpt lat="45.680344223545184" lon="10.361883559389522"><ele>615.0</ele><time>2026-04-11T10:18:39.001Z</time></trkpt><trkpt lat="45.68021375776186" lon="10.361805740124268"><ele>615.0</ele><time>2026-04-11T10:18:41.001Z</time></trkpt><trkpt lat="45.68009239970369" lon="10.361837833195883"><ele>615.0</ele><time>2026-04-11T10:18:42.001Z</time></trkpt><trkpt lat="45.6799800662382" lon="10.361797417706242"><ele>615.0</ele><time>2026-04-11T10:18:43.001Z</time></trkpt><trkpt lat="45.67985598539164" lon="10.361737161812904"><ele>615.0</ele><time>2026-04-11T10:18:44.001Z</time></trkpt><trkpt lat="45.67975389398401" lon="10.36164101353325"><ele>615.0</ele><time>2026-04-11T10:18:45.002Z</time></trkpt><trkpt lat="45.67966715364808" lon="10.361562027044101"><ele>615.0</ele><time>2026-04-11T10:18:46.002Z</time></trkpt><trkpt lat="45.67955806994748" lon="10.361479676506963"><ele>615.0</ele><time>2026-04-11T10:18:47.002Z</time></trkpt><trkpt lat="45.679474986834244" lon="10.361404107234671"><ele>615.0</ele><time>2026-04-11T10:18:48.002Z</time></trkpt><trkpt lat="45.67940492238037" lon="10.361340934770645"><ele>615.0</ele><time>2026-04-11T10:18:49.002Z</time></trkpt><trkpt lat="45.67937051144722" lon="10.36119818710218"><ele>615.8</ele><time>2026-04-11T10:18:50Z</time></trkpt><trkpt lat="45.679310611402336" lon="10.361044608632005"><ele>616.6</ele><time>2026-04-11T10:18:51Z</time></trkpt><trkpt lat="45.67924141846507" lon="10.360926376565413"><ele>617.4</ele><time>2026-04-11T10:18:52Z</time></trkpt><trkpt lat="45.67919266071725" lon="10.360817227189358"><ele>618.2</ele><time>2026-04-11T10:18:53Z</time></trkpt><trkpt lat="45.67914246884496" lon="10.360741225714106"><ele>619.0</ele><time>2026-04-11T10:18:54Z</time></trkpt><trkpt lat="45.679082303543375" lon="10.360681416959217"><ele>619.0</ele><time>2026-04-11T10:18:55Z</time></trkpt><trkpt lat="45.67901409422698" lon="10.360625584109854"><ele>619.0</ele><time>2026-04-11T10:18:56Z</time></trkpt><trkpt lat="45.678923760715236" lon="10.360609332873166"><ele>619.0</ele><time>2026-04-11T10:18:57Z</time></trkpt><trkpt lat="45.67889044784896" lon="10.360479558536078"><ele>619.0</ele><time>2026-04-11T10:18:58Z</time></trkpt><trkpt lat="45.67886028641196" lon="10.36033824107862"><ele>619.0</ele><time>2026-04-11T10:18:59Z</time></trkpt><trkpt lat="45.6788088209443" lon="10.360184317659941"><ele>616.25</ele><time>2026-04-11T10:19:00Z</time></trkpt><trkpt lat="45.67874846425557" lon="10.360003738346185"><ele>613.5</ele><time>2026-04-11T10:19:01Z</time></trkpt><trkpt lat="45.678688365064495" lon="10.359837897545964"><ele>610.75</ele><time>2026-04-11T10:19:02Z</time></trkpt><trkpt lat="45.67863651426825" lon="10.359695713224218"><ele>608.0</ele><time>2026-04-11T10:19:03Z</time></trkpt><trkpt lat="45.67859277091137" lon="10.359605072581267"><ele>607.8571428571428</ele><time>2026-04-11T10:19:04Z</time></trkpt><trkpt lat="45.678623766962865" lon="10.35952134460508"><ele>607.7142857142858</ele><time>2026-04-11T10:19:20Z</time></trkpt><trkpt lat="45.67858774003737" lon="10.359441562574359"><ele>607.5714285714286</ele><time>2026-04-11T10:19:21Z</time></trkpt><trkpt lat="45.678563285705046" lon="10.359330322749129"><ele>607.4285714285713</ele><time>2026-04-11T10:19:22Z</time></trkpt><trkpt lat="45.67853395654926" lon="10.359240592999303"><ele>607.2857142857142</ele><time>2026-04-11T10:19:23Z</time></trkpt><trkpt lat="45.67852696066945" lon="10.359141625491915"><ele>607.1428571428571</ele><time>2026-04-11T10:19:24Z</time></trkpt><trkpt lat="45.67854711923371" lon="10.359040637423925"><ele>607.0</ele><time>2026-04-11T10:19:25Z</time></trkpt><trkpt lat="45.67860268695292" lon="10.358947258926541"><ele>607.0</ele><time>2026-04-11T10:19:26Z</time></trkpt><trkpt lat="45.67864430313828" lon="10.358875545324828"><ele>607.0</ele><time>2026-04-11T10:19:27Z</time></trkpt><trkpt lat="45.678706230468876" lon="10.35871013936765"><ele>607.0</ele><time>2026-04-11T10:19:29Z</time></trkpt><trkpt lat="45.67874011450825" lon="10.358609513283472"><ele>607.0</ele><time>2026-04-11T10:19:30Z</time></trkpt><trkpt lat="45.678786942334355" lon="10.358540187745424"><ele>607.0</ele><time>2026-04-11T10:19:31Z</time></trkpt><trkpt lat="45.67885061496758" lon="10.358481320927167"><ele>607.0</ele><time>2026-04-11T10:19:32Z</time></trkpt><trkpt lat="45.67896909115143" lon="10.35849119887477"><ele>605.0</ele><time>2026-04-11T10:19:33Z</time></trkpt><trkpt lat="45.6790462577661" lon="10.35848407527552"><ele>603.0</ele><time>2026-04-11T10:19:34Z</time></trkpt><trkpt lat="45.679087532266756" lon="10.358388900811526"><ele>601.0</ele><time>2026-04-11T10:19:35.001Z</time></trkpt><trkpt lat="45.67912939886661" lon="10.358242857488982"><ele>599.0</ele><time>2026-04-11T10:19:36.001Z</time></trkpt><trkpt lat="45.67920683436003" lon="10.358155977448174"><ele>597.0</ele><time>2026-04-11T10:19:37.001Z</time></trkpt><trkpt lat="45.6793266750359" lon="10.358044273958187"><ele>593.8333333333334</ele><time>2026-04-11T10:19:38.001Z</time></trkpt><trkpt lat="45.679411072582944" lon="10.357961592635684"><ele>590.6666666666666</ele><time>2026-04-11T10:19:39.001Z</time></trkpt><trkpt lat="45.67950130799128" lon="10.35790829688509"><ele>587.5</ele><time>2026-04-11T10:19:40.001Z</time></trkpt><trkpt lat="45.67957382261131" lon="10.357889837884455"><ele>584.3333333333333</ele><time>2026-04-11T10:19:41.001Z</time></trkpt><trkpt lat="45.67965366034068" lon="10.357872655999461"><ele>581.1666666666666</ele><time>2026-04-11T10:19:42.001Z</time></trkpt><trkpt lat="45.67972771570264" lon="10.357839765889832"><ele>578.0</ele><time>2026-04-11T10:19:43.001Z</time></trkpt><trkpt lat="45.679812294225364" lon="10.357787088803077"><ele>578.0</ele><time>2026-04-11T10:19:44.001Z</time></trkpt><trkpt lat="45.679891551845245" lon="10.357749864115963"><ele>578.0</ele><time>2026-04-11T10:19:45.001Z</time></trkpt><trkpt lat="45.679994829393394" lon="10.35774892049418"><ele>578.0</ele><time>2026-04-11T10:19:46.001Z</time></trkpt><trkpt lat="45.68008820682557" lon="10.35774482586813"><ele>578.0</ele><time>2026-04-11T10:19:47.001Z</time></trkpt><trkpt lat="45.680186440005436" lon="10.357770296706727"><ele>578.0</ele><time>2026-04-11T10:19:48.001Z</time></trkpt><trkpt lat="45.68025936024176" lon="10.357786764414644"><ele>575.6666666666666</ele><time>2026-04-11T10:19:49.001Z</time></trkpt><trkpt lat="45.680328381050515" lon="10.357802279582968"><ele>573.3333333333333</ele><time>2026-04-11T10:19:50.001Z</time></trkpt><trkpt lat="45.680399356248884" lon="10.357832601086141"><ele>571.0</ele><time>2026-04-11T10:19:51.001Z</time></trkpt><trkpt lat="45.68050306325588" lon="10.357851999167002"><ele>568.6666666666666</ele><time>2026-04-11T10:19:53.001Z</time></trkpt><trkpt lat="45.68058529611613" lon="10.357780640852056"><ele>566.3333333333334</ele><time>2026-04-11T10:19:55.001Z</time></trkpt><trkpt lat="45.680654664629984" lon="10.35777301849919"><ele>564.0</ele><time>2026-04-11T10:20:01.001Z</time></trkpt><trkpt lat="45.68069736219444" lon="10.357677427376478"><ele>564.0</ele><time>2026-04-11T10:20:05.001Z</time></trkpt><trkpt lat="45.6807312117001" lon="10.357591024711738"><ele>564.0</ele><time>2026-04-11T10:20:07.001Z</time></trkpt><trkpt lat="45.68066939287413" lon="10.35754424550056"><ele>564.0</ele><time>2026-04-11T10:20:12.001Z</time></trkpt><trkpt lat="45.680618304188606" lon="10.357430709130181"><ele>564.0</ele><time>2026-04-11T10:20:13.001Z</time></trkpt><trkpt lat="45.6805721751048" lon="10.357323545069013"><ele>564.0</ele><time>2026-04-11T10:20:14.001Z</time></trkpt><trkpt lat="45.680518934365686" lon="10.357224893787395"><ele>564.0</ele><time>2026-04-11T10:20:15.001Z</time></trkpt><trkpt lat="45.68042804725884" lon="10.357149499372353"><ele>562.25</ele><time>2026-04-11T10:20:16.001Z</time></trkpt><trkpt lat="45.68030207758212" lon="10.357058751708523"><ele>560.5</ele><time>2026-04-11T10:20:17.001Z</time></trkpt><trkpt lat="45.68021121359183" lon="10.35689602143333"><ele>558.75</ele><time>2026-04-11T10:20:18.001Z</time></trkpt><trkpt lat="45.680110802634196" lon="10.356768301964285"><ele>557.0</ele><time>2026-04-11T10:20:19.001Z</time></trkpt><trkpt lat="45.680051699479584" lon="10.356652285114631"><ele>557.0</ele><time>2026-04-11T10:20:20.001Z</time></trkpt><trkpt lat="45.679991261068594" lon="10.356531857623093"><ele>557.0</ele><time>2026-04-11T10:20:21.001Z</time></trkpt><trkpt lat="45.679916099807826" lon="10.356412827123547"><ele>557.0</ele><time>2026-04-11T10:20:22.001Z</time></trkpt><trkpt lat="45.67985728076278" lon="10.356296273387938"><ele>557.0</ele><time>2026-04-11T10:20:23.001Z</time></trkpt><trkpt lat="45.6798145407741" lon="10.356136176554651"><ele>557.0</ele><time>2026-04-11T10:20:24.001Z</time></trkpt><trkpt lat="45.67976772234629" lon="10.356008565644022"><ele>555.1666666666666</ele><time>2026-04-11T10:20:25.001Z</time></trkpt><trkpt lat="45.67974150451831" lon="10.355893489533113"><ele>553.3333333333333</ele><time>2026-04-11T10:20:26.001Z</time></trkpt><trkpt lat="45.67974806359927" lon="10.355778689961369"><ele>551.5</ele><time>2026-04-11T10:20:27.001Z</time></trkpt><trkpt lat="45.67977013057381" lon="10.355668862240384"><ele>549.6666666666666</ele><time>2026-04-11T10:20:28.001Z</time></trkpt><trkpt lat="45.67977224823443" lon="10.355577536284578"><ele>547.8333333333334</ele><time>2026-04-11T10:20:29.001Z</time></trkpt><trkpt lat="45.679708177187386" lon="10.355399737017363"><ele>546.0</ele><time>2026-04-11T10:20:31.001Z</time></trkpt><trkpt lat="45.67967572789118" lon="10.355280184690107"><ele>543.8333333333334</ele><time>2026-04-11T10:20:32.001Z</time></trkpt><trkpt lat="45.67965851816537" lon="10.355177158833063"><ele>541.6666666666666</ele><time>2026-04-11T10:20:33.001Z</time></trkpt><trkpt lat="45.67962335982089" lon="10.355100388740947"><ele>539.5</ele><time>2026-04-11T10:20:34.001Z</time></trkpt><trkpt lat="45.679575186704845" lon="10.355033195209183"><ele>537.3333333333333</ele><time>2026-04-11T10:20:35.001Z</time></trkpt><trkpt lat="45.679497740601924" lon="10.354970858179666"><ele>535.1666666666666</ele><time>2026-04-11T10:20:36.001Z</time></trkpt><trkpt lat="45.67941865285656" lon="10.354927645840627"><ele>533.0</ele><time>2026-04-11T10:20:37.001Z</time></trkpt><trkpt lat="45.67934441826809" lon="10.35487601331136"><ele>532.1999999999999</ele><time>2026-04-11T10:20:38.001Z</time></trkpt><trkpt lat="45.6792395369594" lon="10.354812676269216"><ele>531.4</ele><time>2026-04-11T10:20:39.001Z</time></trkpt><trkpt lat="45.67917126897544" lon="10.354721352971069"><ele>530.5999999999999</ele><time>2026-04-11T10:20:40.001Z</time></trkpt><trkpt lat="45.67908371892994" lon="10.354609408808766"><ele>529.8</ele><time>2026-04-11T10:20:41.001Z</time></trkpt><trkpt lat="45.67898765338378" lon="10.354556210421281"><ele>529.0</ele><time>2026-04-11T10:20:42.001Z</time></trkpt><trkpt lat="45.678918907329205" lon="10.354462371675272"><ele>528.8</ele><time>2026-04-11T10:20:43.001Z</time></trkpt><trkpt lat="45.67892522982398" lon="10.35434646406462"><ele>528.5999999999999</ele><time>2026-04-11T10:20:44.001Z</time></trkpt><trkpt lat="45.6790013777963" lon="10.354240432479765"><ele>528.4</ele><time>2026-04-11T10:20:46.001Z</time></trkpt><trkpt lat="45.679080924795834" lon="10.354171426536846"><ele>528.1999999999999</ele><time>2026-04-11T10:20:47.001Z</time></trkpt><trkpt lat="45.67917166150812" lon="10.35410944653008"><ele>528.0</ele><time>2026-04-11T10:20:48.001Z</time></trkpt><trkpt lat="45.679243719555004" lon="10.354087618579575"><ele>528.0</ele><time>2026-04-11T10:20:49.002Z</time></trkpt><trkpt lat="45.67932782252283" lon="10.354099603075907"><ele>528.0</ele><time>2026-04-11T10:20:50.002Z</time></trkpt><trkpt lat="45.67939971748829" lon="10.354078099885866"><ele>528.0</ele><time>2026-04-11T10:20:51.002Z</time></trkpt><trkpt lat="45.6794812312991" lon="10.354037139056464"><ele>528.0</ele><time>2026-04-11T10:20:52.002Z</time></trkpt><trkpt lat="45.679549530480266" lon="10.35401586211704"><ele>528.0</ele><time>2026-04-11T10:20:53.002Z</time></trkpt><trkpt lat="45.67963915504586" lon="10.353938549899459"><ele>528.0</ele><time>2026-04-11T10:20:54.002Z</time></trkpt><trkpt lat="45.67975038833398" lon="10.353847887281775"><ele>527.0</ele><time>2026-04-11T10:20:55.002Z</time></trkpt><trkpt lat="45.67986846715018" lon="10.353775183958673"><ele>526.0</ele><time>2026-04-11T10:20:56Z</time></trkpt><trkpt lat="45.67997202507215" lon="10.353702657397553"><ele>525.0</ele><time>2026-04-11T10:20:57Z</time></trkpt><trkpt lat="45.680072148978006" lon="10.353656196722486"><ele>524.0</ele><time>2026-04-11T10:20:58Z</time></trkpt><trkpt lat="45.68015461650465" lon="10.353576797526726"><ele>523.0</ele><time>2026-04-11T10:20:59Z</time></trkpt><trkpt lat="45.6802062699316" lon="10.353453653831853"><ele>523.0</ele><time>2026-04-11T10:21:00Z</time></trkpt><trkpt lat="45.68026214265212" lon="10.353331699963375"><ele>523.0</ele><time>2026-04-11T10:21:01Z</time></trkpt><trkpt lat="45.68027865096146" lon="10.353191650922103"><ele>523.0</ele><time>2026-04-11T10:21:02Z</time></trkpt><trkpt lat="45.680290960423555" lon="10.353081770448027"><ele>523.0</ele><time>2026-04-11T10:21:03Z</time></trkpt><trkpt lat="45.680314422150786" lon="10.352990460126762"><ele>523.0</ele><time>2026-04-11T10:21:04Z</time></trkpt><trkpt lat="45.68020796348055" lon="10.352875039436418"><ele>522.75</ele><time>2026-04-11T10:21:06Z</time></trkpt><trkpt lat="45.68025675982856" lon="10.352728336674703"><ele>522.5</ele><time>2026-04-11T10:21:08Z</time></trkpt><trkpt lat="45.68033592956197" lon="10.35264060454204"><ele>522.25</ele><time>2026-04-11T10:21:09Z</time></trkpt><trkpt lat="45.68047498228398" lon="10.352546173895771"><ele>522.0</ele><time>2026-04-11T10:21:10Z</time></trkpt><trkpt lat="45.68057493461506" lon="10.352502437196787"><ele>521.3333333333334</ele><time>2026-04-11T10:21:11Z</time></trkpt><trkpt lat="45.68063833719273" lon="10.352410150981584"><ele>520.6666666666666</ele><time>2026-04-11T10:21:12Z</time></trkpt><trkpt lat="45.68067790688444" lon="10.352316621874962"><ele>520.0</ele><time>2026-04-11T10:21:13Z</time></trkpt><trkpt lat="45.680708854615204" lon="10.352138214904075"><ele>519.3333333333333</ele><time>2026-04-11T10:21:15Z</time></trkpt><trkpt lat="45.68071619184262" lon="10.352046462398267"><ele>518.6666666666666</ele><time>2026-04-11T10:21:16Z</time></trkpt><trkpt lat="45.680670574023615" lon="10.351948295147471"><ele>518.0</ele><time>2026-04-11T10:21:17Z</time></trkpt><trkpt lat="45.68061022478412" lon="10.351864707017986"><ele>518.4</ele><time>2026-04-11T10:21:18Z</time></trkpt><trkpt lat="45.680504810041526" lon="10.351772802682445"><ele>518.8</ele><time>2026-04-11T10:21:19Z</time></trkpt><trkpt lat="45.68042065082183" lon="10.351719223528015"><ele>519.2</ele><time>2026-04-11T10:21:20Z</time></trkpt><trkpt lat="45.680392632096" lon="10.351532611976301"><ele>519.6</ele><time>2026-04-11T10:21:22Z</time></trkpt><trkpt lat="45.6803941771573" lon="10.35141498427068"><ele>520.0</ele><time>2026-04-11T10:21:23Z</time></trkpt><trkpt lat="45.68044601555045" lon="10.35128445692843"><ele>520.0</ele><time>2026-04-11T10:21:24Z</time></trkpt><trkpt lat="45.68048330499289" lon="10.351146663445872"><ele>520.0</ele><time>2026-04-11T10:21:25Z</time></trkpt><trkpt lat="45.68049535989297" lon="10.351006466511361"><ele>520.0</ele><time>2026-04-11T10:21:26Z</time></trkpt><trkpt lat="45.680488810145555" lon="10.350882084793797"><ele>520.0</ele><time>2026-04-11T10:21:27Z</time></trkpt><trkpt lat="45.68048263025893" lon="10.350767547966253"><ele>520.0</ele><time>2026-04-11T10:21:28Z</time></trkpt><trkpt lat="45.680506022249936" lon="10.350677426656622"><ele>520.0</ele><time>2026-04-11T10:21:29Z</time></trkpt><trkpt lat="45.68051818721577" lon="10.350583862268149"><ele>522.0</ele><time>2026-04-11T10:21:30Z</time></trkpt><trkpt lat="45.68056599326481" lon="10.350452955283725"><ele>524.0</ele><time>2026-04-11T10:21:31Z</time></trkpt><trkpt lat="45.68056711213144" lon="10.350323945733068"><ele>526.0</ele><time>2026-04-11T10:21:32Z</time></trkpt><trkpt lat="45.68057499549842" lon="10.350159015207966"><ele>528.0</ele><time>2026-04-11T10:21:33Z</time></trkpt><trkpt lat="45.680583234423224" lon="10.350029228895634"><ele>530.0</ele><time>2026-04-11T10:21:34Z</time></trkpt><trkpt lat="45.68060133975615" lon="10.349910811238164"><ele>530.0</ele><time>2026-04-11T10:21:35Z</time></trkpt><trkpt lat="45.680624725340586" lon="10.349769482875717"><ele>530.0</ele><time>2026-04-11T10:21:36Z</time></trkpt><trkpt lat="45.68063892059064" lon="10.34967120185255"><ele>530.0</ele><time>2026-04-11T10:21:37Z</time></trkpt><trkpt lat="45.68067724900511" lon="10.34958954650003"><ele>530.0</ele><time>2026-04-11T10:21:38Z</time></trkpt><trkpt lat="45.680744483444656" lon="10.34949195965387"><ele>530.0</ele><time>2026-04-11T10:21:39Z</time></trkpt><trkpt lat="45.680819538927224" lon="10.349385865265969"><ele>530.0</ele><time>2026-04-11T10:21:40Z</time></trkpt><trkpt lat="45.68085338107147" lon="10.349275475751718"><ele>530.0</ele><time>2026-04-11T10:21:41Z</time></trkpt><trkpt lat="45.68089397032303" lon="10.3491421065499"><ele>530.0</ele><time>2026-04-11T10:21:42Z</time></trkpt><trkpt lat="45.680908400467324" lon="10.3490074156402"><ele>530.0</ele><time>2026-04-11T10:21:43Z</time></trkpt><trkpt lat="45.68092108510886" lon="10.348854608799686"><ele>530.0</ele><time>2026-04-11T10:21:44Z</time></trkpt><trkpt lat="45.68094531433998" lon="10.348701591077036"><ele>530.0</ele><time>2026-04-11T10:21:45Z</time></trkpt><trkpt lat="45.68097389932019" lon="10.348573697473112"><ele>530.4</ele><time>2026-04-11T10:21:46Z</time></trkpt><trkpt lat="45.68099702500762" lon="10.348456725662416"><ele>530.8</ele><time>2026-04-11T10:21:47Z</time></trkpt><trkpt lat="45.6810117034286" lon="10.348322007619752"><ele>531.2</ele><time>2026-04-11T10:21:48.001Z</time></trkpt><trkpt lat="45.681004410546414" lon="10.348178836971092"><ele>531.6</ele><time>2026-04-11T10:21:49.001Z</time></trkpt><trkpt lat="45.681013390449884" lon="10.348030268504823"><ele>532.0</ele><time>2026-04-11T10:21:50.001Z</time></trkpt><trkpt lat="45.68102844620057" lon="10.34787395101578"><ele>532.6</ele><time>2026-04-11T10:21:51.001Z</time></trkpt><trkpt lat="45.68104451994436" lon="10.347726811171158"><ele>533.2</ele><time>2026-04-11T10:21:52.001Z</time></trkpt><trkpt lat="45.68105259479372" lon="10.34754109724178"><ele>533.8</ele><time>2026-04-11T10:21:53.001Z</time></trkpt><trkpt lat="45.68105773784773" lon="10.347414419749185"><ele>534.4</ele><time>2026-04-11T10:21:54.001Z</time></trkpt><trkpt lat="45.68106328244275" lon="10.34729045201588"><ele>535.0</ele><time>2026-04-11T10:21:55.001Z</time></trkpt><trkpt lat="45.68105803031459" lon="10.347175769048519"><ele>536.6</ele><time>2026-04-11T10:21:56.001Z</time></trkpt><trkpt lat="45.681028397721015" lon="10.347092229888352"><ele>538.2</ele><time>2026-04-11T10:21:57.001Z</time></trkpt><trkpt lat="45.680957317702564" lon="10.346950646865437"><ele>539.8</ele><time>2026-04-11T10:21:59.001Z</time></trkpt><trkpt lat="45.680892972443964" lon="10.346841150793647"><ele>541.4</ele><time>2026-04-11T10:22:00.001Z</time></trkpt><trkpt lat="45.68081465980135" lon="10.346711956733774"><ele>543.0</ele><time>2026-04-11T10:22:01.001Z</time></trkpt><trkpt lat="45.68074034239923" lon="10.346585450245495"><ele>543.0</ele><time>2026-04-11T10:22:02.001Z</time></trkpt><trkpt lat="45.68064814022551" lon="10.346480306051308"><ele>543.0</ele><time>2026-04-11T10:22:03.001Z</time></trkpt><trkpt lat="45.68054726810975" lon="10.346387251381397"><ele>543.0</ele><time>2026-04-11T10:22:04.001Z</time></trkpt><trkpt lat="45.68045474732006" lon="10.34632324740194"><ele>543.0</ele><time>2026-04-11T10:22:05.001Z</time></trkpt><trkpt lat="45.68038619715919" lon="10.346265212792357"><ele>543.0</ele><time>2026-04-11T10:22:06.001Z</time></trkpt><trkpt lat="45.680321845513845" lon="10.346201458263053"><ele>546.0</ele><time>2026-04-11T10:22:07.001Z</time></trkpt><trkpt lat="45.6802593394109" lon="10.346166878011644"><ele>549.0</ele><time>2026-04-11T10:22:08.001Z</time></trkpt><trkpt lat="45.68016166393012" lon="10.346146205831094"><ele>552.0</ele><time>2026-04-11T10:22:10.001Z</time></trkpt><trkpt lat="45.68025148006558" lon="10.346111163144538"><ele>555.0</ele><time>2026-04-11T10:22:13.001Z</time></trkpt><trkpt lat="45.680342055106166" lon="10.346118452346383"><ele>558.0</ele><time>2026-04-11T10:22:14.001Z</time></trkpt><trkpt lat="45.680450434605596" lon="10.346094264472327"><ele>558.0</ele><time>2026-04-11T10:22:15.001Z</time></trkpt><trkpt lat="45.68055145595842" lon="10.346056627063408"><ele>558.0</ele><time>2026-04-11T10:22:16.001Z</time></trkpt><trkpt lat="45.68066012201537" lon="10.346008174195397"><ele>558.0</ele><time>2026-04-11T10:22:17.001Z</time></trkpt><trkpt lat="45.68077557399989" lon="10.345944929567159"><ele>558.0</ele><time>2026-04-11T10:22:18.001Z</time></trkpt><trkpt lat="45.68087531045817" lon="10.345870885510479"><ele>558.0</ele><time>2026-04-11T10:22:19.001Z</time></trkpt><trkpt lat="45.680941558007035" lon="10.345809221748006"><ele>558.0</ele><time>2026-04-11T10:22:20.001Z</time></trkpt><trkpt lat="45.68099928875404" lon="10.345705784649034"><ele>558.0</ele><time>2026-04-11T10:22:21.001Z</time></trkpt><trkpt lat="45.68104720068311" lon="10.345576029845718"><ele>558.0</ele><time>2026-04-11T10:22:22.001Z</time></trkpt><trkpt lat="45.68107122162983" lon="10.345428704281536"><ele>558.0</ele><time>2026-04-11T10:22:23.001Z</time></trkpt><trkpt lat="45.68111686015067" lon="10.345291092443443"><ele>557.8</ele><time>2026-04-11T10:22:24.001Z</time></trkpt><trkpt lat="45.68115317902099" lon="10.345152585046455"><ele>557.5999999999999</ele><time>2026-04-11T10:22:25.001Z</time></trkpt><trkpt lat="45.68119014041886" lon="10.34501566782313"><ele>557.4000000000001</ele><time>2026-04-11T10:22:26.001Z</time></trkpt><trkpt lat="45.68121883495526" lon="10.34488203214306"><ele>557.2</ele><time>2026-04-11T10:22:27.001Z</time></trkpt><trkpt lat="45.68126419325394" lon="10.344768541211636"><ele>557.0</ele><time>2026-04-11T10:22:28.001Z</time></trkpt><trkpt lat="45.6813486950605" lon="10.344692644676423"><ele>562.25</ele><time>2026-04-11T10:22:29.001Z</time></trkpt><trkpt lat="45.68142486502593" lon="10.344615821116577"><ele>567.5</ele><time>2026-04-11T10:22:30.001Z</time></trkpt><trkpt lat="45.68151093062678" lon="10.344504703534861"><ele>572.75</ele><time>2026-04-11T10:22:31.001Z</time></trkpt><trkpt lat="45.68160200927746" lon="10.344402737774722"><ele>578.0</ele><time>2026-04-11T10:22:32.001Z</time></trkpt><trkpt lat="45.68172032135952" lon="10.34432457699276"><ele>578.0</ele><time>2026-04-11T10:22:33.001Z</time></trkpt><trkpt lat="45.68184588883389" lon="10.344252039933409"><ele>578.0</ele><time>2026-04-11T10:22:34.001Z</time></trkpt><trkpt lat="45.6819646991892" lon="10.344181256301525"><ele>578.0</ele><time>2026-04-11T10:22:35.001Z</time></trkpt><trkpt lat="45.682087442327514" lon="10.34410812369518"><ele>578.0</ele><time>2026-04-11T10:22:36.001Z</time></trkpt><trkpt lat="45.68222095815632" lon="10.344049600225878"><ele>579.0</ele><time>2026-04-11T10:22:37.001Z</time></trkpt><trkpt lat="45.68235284478684" lon="10.344029651108412"><ele>580.0</ele><time>2026-04-11T10:22:38.001Z</time></trkpt><trkpt lat="45.68250176173216" lon="10.343985987327196"><ele>581.0</ele><time>2026-04-11T10:22:39.001Z</time></trkpt><trkpt lat="45.682613062326844" lon="10.343881600178856"><ele>582.0</ele><time>2026-04-11T10:22:40.001Z</time></trkpt><trkpt lat="45.68272961015987" lon="10.34386978639452"><ele>584.75</ele><time>2026-04-11T10:22:41.001Z</time></trkpt><trkpt lat="45.68283199547211" lon="10.343895103978474"><ele>587.5</ele><time>2026-04-11T10:22:42.001Z</time></trkpt><trkpt lat="45.682965673122276" lon="10.343951646905069"><ele>590.25</ele><time>2026-04-11T10:22:43.001Z</time></trkpt><trkpt lat="45.683096092735894" lon="10.343955793102129"><ele>593.0</ele><time>2026-04-11T10:22:44.001Z</time></trkpt><trkpt lat="45.6831890365765" lon="10.343939378156353"><ele>593.0</ele><time>2026-04-11T10:22:45.001Z</time></trkpt><trkpt lat="45.6832946584708" lon="10.343944956971528"><ele>593.0</ele><time>2026-04-11T10:22:46.001Z</time></trkpt><trkpt lat="45.68341308534159" lon="10.343935198750401"><ele>593.0</ele><time>2026-04-11T10:22:47.001Z</time></trkpt><trkpt lat="45.6835341787269" lon="10.343939645375517"><ele>593.0</ele><time>2026-04-11T10:22:48.001Z</time></trkpt><trkpt lat="45.683641783988826" lon="10.34400493035993"><ele>593.4</ele><time>2026-04-11T10:22:49.001Z</time></trkpt><trkpt lat="45.68375321911411" lon="10.344058733735272"><ele>593.8</ele><time>2026-04-11T10:22:50.001Z</time></trkpt><trkpt lat="45.68385859247175" lon="10.344104283463261"><ele>594.2</ele><time>2026-04-11T10:22:51.001Z</time></trkpt><trkpt lat="45.683957018031116" lon="10.344123370068054"><ele>594.6</ele><time>2026-04-11T10:22:52.001Z</time></trkpt><trkpt lat="45.68403617092035" lon="10.344110984999972"><ele>595.0</ele><time>2026-04-11T10:22:53.001Z</time></trkpt><trkpt lat="45.68412627608504" lon="10.343986129752455"><ele>599.25</ele><time>2026-04-11T10:22:54.001Z</time></trkpt><trkpt lat="45.68420279948302" lon="10.343819984761945"><ele>603.5</ele><time>2026-04-11T10:22:55.001Z</time></trkpt><trkpt lat="45.68426711702829" lon="10.343667952321246"><ele>607.75</ele><time>2026-04-11T10:22:56.001Z</time></trkpt><trkpt lat="45.68431388844083" lon="10.343524247338042"><ele>612.0</ele><time>2026-04-11T10:22:57.001Z</time></trkpt><trkpt lat="45.684383753323935" lon="10.343421496097271"><ele>609.5</ele><time>2026-04-11T10:22:58.001Z</time></trkpt><trkpt lat="45.684448671657016" lon="10.343353929679829"><ele>607.0</ele><time>2026-04-11T10:22:59.001Z</time></trkpt><trkpt lat="45.68457526958481" lon="10.343442830340257"><ele>604.5</ele><time>2026-04-11T10:23:00.001Z</time></trkpt><trkpt lat="45.68470508751589" lon="10.343350197981254"><ele>602.0</ele><time>2026-04-11T10:23:02Z</time></trkpt><trkpt lat="45.68474940535137" lon="10.343191356312266"><ele>606.5</ele><time>2026-04-11T10:23:03Z</time></trkpt><trkpt lat="45.684796022889856" lon="10.343040772219618"><ele>611.0</ele><time>2026-04-11T10:23:04Z</time></trkpt><trkpt lat="45.68487537201964" lon="10.342908953357778"><ele>615.5</ele><time>2026-04-11T10:23:05Z</time></trkpt><trkpt lat="45.68494313389438" lon="10.342750153291547"><ele>620.0</ele><time>2026-04-11T10:23:06Z</time></trkpt><trkpt lat="45.68497527801853" lon="10.342592577125345"><ele>620.0</ele><time>2026-04-11T10:23:07Z</time></trkpt><trkpt lat="45.68502233343523" lon="10.342469336918288"><ele>620.0</ele><time>2026-04-11T10:23:08Z</time></trkpt><trkpt lat="45.68507828614315" lon="10.342390853988102"><ele>620.0</ele><time>2026-04-11T10:23:10Z</time></trkpt><trkpt lat="45.68492597333404" lon="10.342411984257616"><ele>620.0</ele><time>2026-04-11T10:23:14Z</time></trkpt><trkpt lat="45.68486016563521" lon="10.342441147731028"><ele>620.0</ele><time>2026-04-11T10:23:15Z</time></trkpt><trkpt lat="45.68479614161918" lon="10.342440097270476"><ele>620.0</ele><time>2026-04-11T10:23:16Z</time></trkpt><trkpt lat="45.68470626118054" lon="10.342412432387793"><ele>620.0</ele><time>2026-04-11T10:23:17Z</time></trkpt><trkpt lat="45.68464872404246" lon="10.342371846005715"><ele>620.0</ele><time>2026-04-11T10:23:18Z</time></trkpt><trkpt lat="45.68456646376098" lon="10.342280725323699"><ele>620.0</ele><time>2026-04-11T10:23:20Z</time></trkpt><trkpt lat="45.68450309762438" lon="10.342149577866856"><ele>620.0</ele><time>2026-04-11T10:23:22Z</time></trkpt><trkpt lat="45.68445148967065" lon="10.342082509586866"><ele>620.0</ele><time>2026-04-11T10:23:23Z</time></trkpt><trkpt lat="45.68437431241644" lon="10.342014735020914"><ele>625.0</ele><time>2026-04-11T10:23:24Z</time></trkpt><trkpt lat="45.684281463496305" lon="10.34198505105703"><ele>630.0</ele><time>2026-04-11T10:23:25Z</time></trkpt><trkpt lat="45.684203945707985" lon="10.34193768359632"><ele>635.0</ele><time>2026-04-11T10:23:26Z</time></trkpt><trkpt lat="45.68414338278324" lon="10.341892980358896"><ele>640.0</ele><time>2026-04-11T10:23:27Z</time></trkpt><trkpt lat="45.684020210618016" lon="10.34188615738773"><ele>645.0</ele><time>2026-04-11T10:23:29Z</time></trkpt><trkpt lat="45.683940331286955" lon="10.34191383065956"><ele>645.0</ele><time>2026-04-11T10:23:30Z</time></trkpt><trkpt lat="45.68386627365191" lon="10.34196333102603"><ele>645.0</ele><time>2026-04-11T10:23:31Z</time></trkpt><trkpt lat="45.683785863686" lon="10.342041888678963"><ele>645.0</ele><time>2026-04-11T10:23:32Z</time></trkpt><trkpt lat="45.68371798001989" lon="10.342116077227631"><ele>645.0</ele><time>2026-04-11T10:23:33Z</time></trkpt><trkpt lat="45.68365101005797" lon="10.342161699266603"><ele>645.0</ele><time>2026-04-11T10:23:34Z</time></trkpt><trkpt lat="45.683532674705745" lon="10.342232865746963"><ele>644.4</ele><time>2026-04-11T10:23:36Z</time></trkpt><trkpt lat="45.68349465938003" lon="10.342307083398264"><ele>643.8</ele><time>2026-04-11T10:23:37Z</time></trkpt><trkpt lat="45.68337024087488" lon="10.342371147077104"><ele>643.2</ele><time>2026-04-11T10:23:38Z</time></trkpt><trkpt lat="45.68327441650474" lon="10.342400257703593"><ele>642.6</ele><time>2026-04-11T10:23:39Z</time></trkpt><trkpt lat="45.68317340308134" lon="10.342408517455167"><ele>642.0</ele><time>2026-04-11T10:23:40Z</time></trkpt><trkpt lat="45.683075020418826" lon="10.342426814638953"><ele>642.0</ele><time>2026-04-11T10:23:41Z</time></trkpt><trkpt lat="45.68296680539386" lon="10.342421279583661"><ele>642.0</ele><time>2026-04-11T10:23:42Z</time></trkpt><trkpt lat="45.682854576650506" lon="10.342380720751782"><ele>642.0</ele><time>2026-04-11T10:23:43Z</time></trkpt><trkpt lat="45.6827417965766" lon="10.34228818384308"><ele>642.0</ele><time>2026-04-11T10:23:44Z</time></trkpt><trkpt lat="45.682630272432704" lon="10.342245156506419"><ele>647.6</ele><time>2026-04-11T10:23:45Z</time></trkpt><trkpt lat="45.68252626799992" lon="10.342206380877952"><ele>653.2</ele><time>2026-04-11T10:23:46Z</time></trkpt><trkpt lat="45.68243902313821" lon="10.342158342981367"><ele>658.8</ele><time>2026-04-11T10:23:47Z</time></trkpt><trkpt lat="45.682347276137094" lon="10.342087383448101"><ele>664.4</ele><time>2026-04-11T10:23:48Z</time></trkpt><trkpt lat="45.68228765870622" lon="10.341994022028192"><ele>670.0</ele><time>2026-04-11T10:23:49Z</time></trkpt><trkpt lat="45.682204300406006" lon="10.34193819316836"><ele>670.0</ele><time>2026-04-11T10:23:50Z</time></trkpt><trkpt lat="45.68213467401982" lon="10.341873301642316"><ele>670.0</ele><time>2026-04-11T10:23:51Z</time></trkpt><trkpt lat="45.68198965763894" lon="10.34191478517588"><ele>670.0</ele><time>2026-04-11T10:23:53Z</time></trkpt><trkpt lat="45.68190085058016" lon="10.342001875767556"><ele>670.0</ele><time>2026-04-11T10:23:54Z</time></trkpt><trkpt lat="45.68183427531027" lon="10.34210058271973"><ele>670.0</ele><time>2026-04-11T10:23:55Z</time></trkpt><trkpt lat="45.68174259461261" lon="10.34213866071319"><ele>670.0</ele><time>2026-04-11T10:23:56Z</time></trkpt><trkpt lat="45.68163518216835" lon="10.342166065930767"><ele>670.0</ele><time>2026-04-11T10:23:57Z</time></trkpt><trkpt lat="45.681516191541455" lon="10.342176722732713"><ele>670.0</ele><time>2026-04-11T10:23:58Z</time></trkpt><trkpt lat="45.681412761489334" lon="10.342194283335171"><ele>670.0</ele><time>2026-04-11T10:23:59Z</time></trkpt><trkpt lat="45.68131180232368" lon="10.342201425148858"><ele>670.0</ele><time>2026-04-11T10:24:00.001Z</time></trkpt><trkpt lat="45.681206629540476" lon="10.342226239719563"><ele>665.0</ele><time>2026-04-11T10:24:01.001Z</time></trkpt><trkpt lat="45.68109310848477" lon="10.34224322624217"><ele>660.0</ele><time>2026-04-11T10:24:02.001Z</time></trkpt><trkpt lat="45.68097735163587" lon="10.342236651072568"><ele>655.0</ele><time>2026-04-11T10:24:03.001Z</time></trkpt><trkpt lat="45.68088039646033" lon="10.342246735057213"><ele>650.0</ele><time>2026-04-11T10:24:04.001Z</time></trkpt><trkpt lat="45.68078563606483" lon="10.342239777445256"><ele>645.0</ele><time>2026-04-11T10:24:05.001Z</time></trkpt><trkpt lat="45.68069295024004" lon="10.342237586164915"><ele>645.0</ele><time>2026-04-11T10:24:06.001Z</time></trkpt><trkpt lat="45.68059685691176" lon="10.342282520903423"><ele>645.0</ele><time>2026-04-11T10:24:07.001Z</time></trkpt><trkpt lat="45.680520672338275" lon="10.342357207165374"><ele>645.0</ele><time>2026-04-11T10:24:08.001Z</time></trkpt><trkpt lat="45.680440557241745" lon="10.342503596678718"><ele>645.0</ele><time>2026-04-11T10:24:09.001Z</time></trkpt><trkpt lat="45.68036476458253" lon="10.342600722536156"><ele>645.0</ele><time>2026-04-11T10:24:10.001Z</time></trkpt><trkpt lat="45.680306869077" lon="10.342689142795502"><ele>648.2</ele><time>2026-04-11T10:24:11.001Z</time></trkpt><trkpt lat="45.6802304475687" lon="10.342762945676716"><ele>651.4</ele><time>2026-04-11T10:24:12.001Z</time></trkpt><trkpt lat="45.68012640388141" lon="10.342808907656105"><ele>654.5999999999999</ele><time>2026-04-11T10:24:13.001Z</time></trkpt><trkpt lat="45.68000688847613" lon="10.342857278486786"><ele>657.8</ele><time>2026-04-11T10:24:14.001Z</time></trkpt><trkpt lat="45.67989548222678" lon="10.342859310568821"><ele>661.0</ele><time>2026-04-11T10:24:15.001Z</time></trkpt><trkpt lat="45.67981293247281" lon="10.3428556384416"><ele>661.0</ele><time>2026-04-11T10:24:16.001Z</time></trkpt><trkpt lat="45.67975911523446" lon="10.342905771242307"><ele>661.0</ele><time>2026-04-11T10:24:17.001Z</time></trkpt><trkpt lat="45.67969947698501" lon="10.342961349115427"><ele>661.0</ele><time>2026-04-11T10:24:18.001Z</time></trkpt><trkpt lat="45.67961528368763" lon="10.342991915209295"><ele>661.0</ele><time>2026-04-11T10:24:19.001Z</time></trkpt><trkpt lat="45.679526340739734" lon="10.342964645808188"><ele>661.0</ele><time>2026-04-11T10:24:20.001Z</time></trkpt><trkpt lat="45.67946397811099" lon="10.342916494291895"><ele>661.0</ele><time>2026-04-11T10:24:21.001Z</time></trkpt><trkpt lat="45.679414043032814" lon="10.34283147399023"><ele>658.5999999999999</ele><time>2026-04-11T10:24:22.001Z</time></trkpt><trkpt lat="45.679353201484766" lon="10.342710898984503"><ele>656.2</ele><time>2026-04-11T10:24:23.001Z</time></trkpt><trkpt lat="45.67928230463971" lon="10.342615830747167"><ele>653.8</ele><time>2026-04-11T10:24:24.001Z</time></trkpt><trkpt lat="45.679205166575805" lon="10.342553635152765"><ele>651.4000000000001</ele><time>2026-04-11T10:24:25.001Z</time></trkpt><trkpt lat="45.67911420950623" lon="10.342481000384057"><ele>649.0</ele><time>2026-04-11T10:24:26.001Z</time></trkpt><trkpt lat="45.67902337937969" lon="10.342428899990677"><ele>649.0</ele><time>2026-04-11T10:24:27.001Z</time></trkpt><trkpt lat="45.678959563482024" lon="10.342332817660346"><ele>649.0</ele><time>2026-04-11T10:24:28.001Z</time></trkpt><trkpt lat="45.678874474628316" lon="10.342257914936503"><ele>649.0</ele><time>2026-04-11T10:24:29.001Z</time></trkpt><trkpt lat="45.67879956575098" lon="10.342183995651686"><ele>649.0</ele><time>2026-04-11T10:24:30.001Z</time></trkpt><trkpt lat="45.67872015478983" lon="10.342110180002534"><ele>649.0</ele><time>2026-04-11T10:24:31.001Z</time></trkpt><trkpt lat="45.678642428756795" lon="10.342055667444658"><ele>650.2</ele><time>2026-04-11T10:24:32.001Z</time></trkpt><trkpt lat="45.67855882360819" lon="10.342006378660747"><ele>651.4000000000001</ele><time>2026-04-11T10:24:33.001Z</time></trkpt><trkpt lat="45.67845140026905" lon="10.341966540675042"><ele>652.6</ele><time>2026-04-11T10:24:34.001Z</time></trkpt><trkpt lat="45.6783545243372" lon="10.341923781220652"><ele>653.8</ele><time>2026-04-11T10:24:35.001Z</time></trkpt><trkpt lat="45.678246751705345" lon="10.341876068484623"><ele>655.0</ele><time>2026-04-11T10:24:36.001Z</time></trkpt><trkpt lat="45.67814714319951" lon="10.341827255702528"><ele>655.0</ele><time>2026-04-11T10:24:37.001Z</time></trkpt><trkpt lat="45.678051187300156" lon="10.34178610622797"><ele>655.0</ele><time>2026-04-11T10:24:38.001Z</time></trkpt><trkpt lat="45.677967815738484" lon="10.341763911772006"><ele>655.0</ele><time>2026-04-11T10:24:39.001Z</time></trkpt><trkpt lat="45.67789317837855" lon="10.341725907276082"><ele>655.0</ele><time>2026-04-11T10:24:40.001Z</time></trkpt><trkpt lat="45.67781780886142" lon="10.341596712635672"><ele>655.0</ele><time>2026-04-11T10:24:42.001Z</time></trkpt><trkpt lat="45.67777883332971" lon="10.341502302655758"><ele>653.8</ele><time>2026-04-11T10:24:43.001Z</time></trkpt><trkpt lat="45.67769538681842" lon="10.341458838752825"><ele>652.6</ele><time>2026-04-11T10:24:45.001Z</time></trkpt><trkpt lat="45.677632298595334" lon="10.341487504748935"><ele>651.4000000000001</ele><time>2026-04-11T10:24:46.001Z</time></trkpt><trkpt lat="45.67752663224577" lon="10.341483629346886"><ele>650.2</ele><time>2026-04-11T10:24:47.001Z</time></trkpt><trkpt lat="45.67742664984243" lon="10.34143423684353"><ele>649.0</ele><time>2026-04-11T10:24:48.001Z</time></trkpt><trkpt lat="45.6773284081131" lon="10.341419045188154"><ele>649.0</ele><time>2026-04-11T10:24:49.001Z</time></trkpt><trkpt lat="45.677246262862695" lon="10.341409835285509"><ele>649.0</ele><time>2026-04-11T10:24:50.001Z</time></trkpt><trkpt lat="45.677161421168336" lon="10.341377417398855"><ele>649.0</ele><time>2026-04-11T10:24:51.001Z</time></trkpt><trkpt lat="45.67709573854657" lon="10.341332554664357"><ele>649.0</ele><time>2026-04-11T10:24:52.001Z</time></trkpt><trkpt lat="45.67702936447318" lon="10.341243313596452"><ele>649.0</ele><time>2026-04-11T10:24:53.001Z</time></trkpt><trkpt lat="45.67698049498793" lon="10.341153769702876"><ele>649.0</ele><time>2026-04-11T10:24:54.001Z</time></trkpt><trkpt lat="45.676933893868686" lon="10.341075890251584"><ele>651.4000000000001</ele><time>2026-04-11T10:24:55.001Z</time></trkpt><trkpt lat="45.67685777405194" lon="10.340973248602326"><ele>653.8</ele><time>2026-04-11T10:24:56.001Z</time></trkpt><trkpt lat="45.676792743664116" lon="10.340858296372003"><ele>656.2</ele><time>2026-04-11T10:24:57.001Z</time></trkpt><trkpt lat="45.67671854129366" lon="10.340781667485043"><ele>658.5999999999999</ele><time>2026-04-11T10:24:58.001Z</time></trkpt><trkpt lat="45.676662066486465" lon="10.34070082859703"><ele>661.0</ele><time>2026-04-11T10:24:59.001Z</time></trkpt><trkpt lat="45.676619277293156" lon="10.340600496506475"><ele>663.8</ele><time>2026-04-11T10:25:00.001Z</time></trkpt><trkpt lat="45.676577123785634" lon="10.340518123804173"><ele>666.5999999999999</ele><time>2026-04-11T10:25:01.001Z</time></trkpt><trkpt lat="45.67649380093515" lon="10.340318105093758"><ele>669.4</ele><time>2026-04-11T10:25:03.001Z</time></trkpt><trkpt lat="45.676446162061815" lon="10.340219612908527"><ele>672.2</ele><time>2026-04-11T10:25:04.001Z</time></trkpt><trkpt lat="45.67639415155033" lon="10.34012831782276"><ele>675.0</ele><time>2026-04-11T10:25:05.001Z</time></trkpt><trkpt lat="45.676329777400035" lon="10.34005524389448"><ele>675.0</ele><time>2026-04-11T10:25:06.001Z</time></trkpt><trkpt lat="45.67624449914178" lon="10.340013630400982"><ele>675.0</ele><time>2026-04-11T10:25:07.001Z</time></trkpt><trkpt lat="45.676173470878524" lon="10.339927725794256"><ele>675.0</ele><time>2026-04-11T10:25:08Z</time></trkpt><trkpt lat="45.676097010865696" lon="10.33989264013642"><ele>675.0</ele><time>2026-04-11T10:25:09Z</time></trkpt><trkpt lat="45.676039559871974" lon="10.339819489966288"><ele>675.0</ele><time>2026-04-11T10:25:10Z</time></trkpt><trkpt lat="45.67599719770178" lon="10.33973968034514"><ele>675.0</ele><time>2026-04-11T10:25:11Z</time></trkpt><trkpt lat="45.675972513452734" lon="10.339604975401238"><ele>674.4</ele><time>2026-04-11T10:25:12Z</time></trkpt><trkpt lat="45.67593497936978" lon="10.33947097197256"><ele>673.8</ele><time>2026-04-11T10:25:13Z</time></trkpt><trkpt lat="45.67595011877085" lon="10.339344799063104"><ele>673.2</ele><time>2026-04-11T10:25:14Z</time></trkpt><trkpt lat="45.67593485323915" lon="10.339231216799652"><ele>672.6</ele><time>2026-04-11T10:25:15Z</time></trkpt><trkpt lat="45.67592112598652" lon="10.339109674534939"><ele>672.0</ele><time>2026-04-11T10:25:16Z</time></trkpt><trkpt lat="45.67589402606743" lon="10.33897888949226"><ele>673.8</ele><time>2026-04-11T10:25:17Z</time></trkpt><trkpt lat="45.6758339229046" lon="10.338869465102876"><ele>675.6</ele><time>2026-04-11T10:25:18Z</time></trkpt><trkpt lat="45.67577384312494" lon="10.338770961930331"><ele>677.4</ele><time>2026-04-11T10:25:19Z</time></trkpt><trkpt lat="45.6757102113201" lon="10.338671672283903"><ele>679.1999999999999</ele><time>2026-04-11T10:25:20Z</time></trkpt><trkpt lat="45.675654715645" lon="10.338581436234822"><ele>681.0</ele><time>2026-04-11T10:25:21Z</time></trkpt><trkpt lat="45.67558225467274" lon="10.338518043470513"><ele>681.0</ele><time>2026-04-11T10:25:22Z</time></trkpt><trkpt lat="45.67550817758961" lon="10.338474760230289"><ele>681.0</ele><time>2026-04-11T10:25:23Z</time></trkpt><trkpt lat="45.67542147564307" lon="10.338567543759595"><ele>681.0</ele><time>2026-04-11T10:25:24Z</time></trkpt><trkpt lat="45.675366191404706" lon="10.338650708445913"><ele>681.0</ele><time>2026-04-11T10:25:25Z</time></trkpt><trkpt lat="45.67528374453998" lon="10.338697242519496"><ele>681.0</ele><time>2026-04-11T10:25:26Z</time></trkpt><trkpt lat="45.67519429123254" lon="10.33869059703437"><ele>681.0</ele><time>2026-04-11T10:25:27Z</time></trkpt><trkpt lat="45.67511166898685" lon="10.33858456785177"><ele>676.1999999999999</ele><time>2026-04-11T10:25:28Z</time></trkpt><trkpt lat="45.67500781588582" lon="10.338545797794131"><ele>671.4</ele><time>2026-04-11T10:25:29Z</time></trkpt><trkpt lat="45.67490310130226" lon="10.338476866279022"><ele>666.6</ele><time>2026-04-11T10:25:30Z</time></trkpt><trkpt lat="45.67480920804002" lon="10.338408534995414"><ele>661.8</ele><time>2026-04-11T10:25:31Z</time></trkpt><trkpt lat="45.67472130211434" lon="10.338344555148295"><ele>657.0</ele><time>2026-04-11T10:25:32Z</time></trkpt><trkpt lat="45.674639271739736" lon="10.338271849544652"><ele>657.0</ele><time>2026-04-11T10:25:33Z</time></trkpt><trkpt lat="45.67455404244781" lon="10.338197845740094"><ele>657.0</ele><time>2026-04-11T10:25:34Z</time></trkpt><trkpt lat="45.67446227666214" lon="10.338148345935872"><ele>657.0</ele><time>2026-04-11T10:25:35Z</time></trkpt><trkpt lat="45.67437395478518" lon="10.338092253144167"><ele>657.0</ele><time>2026-04-11T10:25:36Z</time></trkpt><trkpt lat="45.67427714949877" lon="10.338047067989537"><ele>657.0</ele><time>2026-04-11T10:25:37Z</time></trkpt><trkpt lat="45.674198520522495" lon="10.337946910836466"><ele>657.6</ele><time>2026-04-11T10:25:38Z</time></trkpt><trkpt lat="45.67413322712938" lon="10.337836362872771"><ele>658.2</ele><time>2026-04-11T10:25:39Z</time></trkpt><trkpt lat="45.674062773285435" lon="10.337743709486519"><ele>658.8</ele><time>2026-04-11T10:25:40Z</time></trkpt><trkpt lat="45.673993176429725" lon="10.337680210087154"><ele>659.4</ele><time>2026-04-11T10:25:41Z</time></trkpt><trkpt lat="45.673923124437586" lon="10.337622286388703"><ele>660.0</ele><time>2026-04-11T10:25:42Z</time></trkpt><trkpt lat="45.67383610246159" lon="10.33756468673123"><ele>660.0</ele><time>2026-04-11T10:25:43Z</time></trkpt><trkpt lat="45.67375280259877" lon="10.337526198290227"><ele>660.0</ele><time>2026-04-11T10:25:44Z</time></trkpt><trkpt lat="45.67369238746249" lon="10.337484550581877"><ele>660.0</ele><time>2026-04-11T10:25:45Z</time></trkpt><trkpt lat="45.673614651495335" lon="10.337412220326106"><ele>660.0</ele><time>2026-04-11T10:25:47Z</time></trkpt><trkpt lat="45.673507298896865" lon="10.337438670317127"><ele>660.0</ele><time>2026-04-11T10:25:50Z</time></trkpt><trkpt lat="45.67344308746089" lon="10.337471002858662"><ele>660.0</ele><time>2026-04-11T10:25:51Z</time></trkpt><trkpt lat="45.67337980126512" lon="10.337490568297138"><ele>658.1666666666666</ele><time>2026-04-11T10:25:52Z</time></trkpt><trkpt lat="45.673314645162655" lon="10.337494058474055"><ele>656.3333333333334</ele><time>2026-04-11T10:25:53Z</time></trkpt><trkpt lat="45.67324332618156" lon="10.337500134235023"><ele>654.5</ele><time>2026-04-11T10:25:54Z</time></trkpt><trkpt lat="45.67316987541169" lon="10.337487523773056"><ele>652.6666666666667</ele><time>2026-04-11T10:25:55Z</time></trkpt><trkpt lat="45.673096724088204" lon="10.337440778020389"><ele>650.8333333333334</ele><time>2026-04-11T10:25:56.001Z</time></trkpt><trkpt lat="45.67299515515812" lon="10.33738621134309"><ele>649.0</ele><time>2026-04-11T10:25:57.001Z</time></trkpt><trkpt lat="45.672898154176714" lon="10.337327885182432"><ele>649.0</ele><time>2026-04-11T10:25:58.001Z</time></trkpt><trkpt lat="45.672825999131405" lon="10.337272783107808"><ele>649.0</ele><time>2026-04-11T10:25:59.001Z</time></trkpt><trkpt lat="45.672753298243315" lon="10.337192449509077"><ele>649.0</ele><time>2026-04-11T10:26:00.001Z</time></trkpt><trkpt lat="45.67268266268988" lon="10.33709944907587"><ele>649.0</ele><time>2026-04-11T10:26:01.001Z</time></trkpt><trkpt lat="45.672605404497716" lon="10.336985224736805"><ele>649.0</ele><time>2026-04-11T10:26:02.001Z</time></trkpt><trkpt lat="45.67253231252648" lon="10.336868143535156"><ele>649.6</ele><time>2026-04-11T10:26:03.001Z</time></trkpt><trkpt lat="45.67248657162118" lon="10.336745804488029"><ele>650.2</ele><time>2026-04-11T10:26:04.001Z</time></trkpt><trkpt lat="45.67244241938782" lon="10.336635907867283"><ele>650.8000000000001</ele><time>2026-04-11T10:26:05.001Z</time></trkpt><trkpt lat="45.67237560598118" lon="10.336506487334248"><ele>651.4000000000001</ele><time>2026-04-11T10:26:06.001Z</time></trkpt><trkpt lat="45.67233172981824" lon="10.336374767599258"><ele>652.0</ele><time>2026-04-11T10:26:07.001Z</time></trkpt><trkpt lat="45.67228999056358" lon="10.336249655461682"><ele>654.5</ele><time>2026-04-11T10:26:08.001Z</time></trkpt><trkpt lat="45.6722528920136" lon="10.336161567427443"><ele>657.0</ele><time>2026-04-11T10:26:09.001Z</time></trkpt><trkpt lat="45.67221754347769" lon="10.336069147719494"><ele>659.5</ele><time>2026-04-11T10:26:10.001Z</time></trkpt><trkpt lat="45.672209370543335" lon="10.335951909708516"><ele>662.0</ele><time>2026-04-11T10:26:11.001Z</time></trkpt><trkpt lat="45.67218246126418" lon="10.335831490670184"><ele>664.5</ele><time>2026-04-11T10:26:12.001Z</time></trkpt><trkpt lat="45.67214356962911" lon="10.335728648217883"><ele>667.0</ele><time>2026-04-11T10:26:13.001Z</time></trkpt><trkpt lat="45.67207962764199" lon="10.335597217001547"><ele>666.0</ele><time>2026-04-11T10:26:14.001Z</time></trkpt><trkpt lat="45.6720210398568" lon="10.335450204434796"><ele>665.0</ele><time>2026-04-11T10:26:15.001Z</time></trkpt><trkpt lat="45.67194454089947" lon="10.335318559887515"><ele>664.0</ele><time>2026-04-11T10:26:16.001Z</time></trkpt><trkpt lat="45.6718905705201" lon="10.335215409167137"><ele>663.0</ele><time>2026-04-11T10:26:17.001Z</time></trkpt><trkpt lat="45.671868352995034" lon="10.335108187857019"><ele>662.0</ele><time>2026-04-11T10:26:18.001Z</time></trkpt><trkpt lat="45.67190026917142" lon="10.334968913732567"><ele>662.0</ele><time>2026-04-11T10:26:19.001Z</time></trkpt><trkpt lat="45.671859181832005" lon="10.334795108363593"><ele>662.0</ele><time>2026-04-11T10:26:21.001Z</time></trkpt><trkpt lat="45.67179171732836" lon="10.334683257506558"><ele>662.0</ele><time>2026-04-11T10:26:22.001Z</time></trkpt><trkpt lat="45.67170897539125" lon="10.334576415993213"><ele>662.0</ele><time>2026-04-11T10:26:23.001Z</time></trkpt><trkpt lat="45.67163751952053" lon="10.334494444130208"><ele>662.0</ele><time>2026-04-11T10:26:24.001Z</time></trkpt><trkpt lat="45.67157760374827" lon="10.334444182194991"><ele>665.0</ele><time>2026-04-11T10:26:25.001Z</time></trkpt><trkpt lat="45.671523410018715" lon="10.33437706892417"><ele>668.0</ele><time>2026-04-11T10:26:26.001Z</time></trkpt><trkpt lat="45.67144672849639" lon="10.334305356634877"><ele>671.0</ele><time>2026-04-11T10:26:27.001Z</time></trkpt><trkpt lat="45.67138809274515" lon="10.334208557464802"><ele>674.0</ele><time>2026-04-11T10:26:28.001Z</time></trkpt><trkpt lat="45.67133204819809" lon="10.334125329790853"><ele>677.0</ele><time>2026-04-11T10:26:29.001Z</time></trkpt><trkpt lat="45.6712552046074" lon="10.334001290723494"><ele>680.0</ele><time>2026-04-11T10:26:31.001Z</time></trkpt><trkpt lat="45.671219513012886" lon="10.333917330168218"><ele>678.0</ele><time>2026-04-11T10:26:32.001Z</time></trkpt><trkpt lat="45.67116777196375" lon="10.333841859203618"><ele>676.0</ele><time>2026-04-11T10:26:33.001Z</time></trkpt><trkpt lat="45.671119237804334" lon="10.333754537892764"><ele>674.0</ele><time>2026-04-11T10:26:34.001Z</time></trkpt><trkpt lat="45.67106467304403" lon="10.333639168866874"><ele>672.0</ele><time>2026-04-11T10:26:35.001Z</time></trkpt><trkpt lat="45.67096847406206" lon="10.333508924053602"><ele>670.0</ele><time>2026-04-11T10:26:36.001Z</time></trkpt><trkpt lat="45.67088268336101" lon="10.333414288349546"><ele>670.0</ele><time>2026-04-11T10:26:37.001Z</time></trkpt><trkpt lat="45.67079873260062" lon="10.333330108068807"><ele>670.0</ele><time>2026-04-11T10:26:38.001Z</time></trkpt><trkpt lat="45.67071568176884" lon="10.333255478955596"><ele>670.0</ele><time>2026-04-11T10:26:39.001Z</time></trkpt><trkpt lat="45.670642979174374" lon="10.333191906650187"><ele>670.0</ele><time>2026-04-11T10:26:40.001Z</time></trkpt><trkpt lat="45.67059819335707" lon="10.333126330393263"><ele>670.0</ele><time>2026-04-11T10:26:41.001Z</time></trkpt><trkpt lat="45.67057459121936" lon="10.333036174141037"><ele>670.0</ele><time>2026-04-11T10:26:42.001Z</time></trkpt><trkpt lat="45.67063796315476" lon="10.33291436839091"><ele>670.6666666666667</ele><time>2026-04-11T10:26:43.001Z</time></trkpt><trkpt lat="45.67061372753208" lon="10.332771017855103"><ele>671.3333333333334</ele><time>2026-04-11T10:26:45.001Z</time></trkpt><trkpt lat="45.670556625456626" lon="10.332655349178472"><ele>672.0</ele><time>2026-04-11T10:26:47.001Z</time></trkpt><trkpt lat="45.6704624801983" lon="10.332702265997979"><ele>672.6666666666666</ele><time>2026-04-11T10:26:49.001Z</time></trkpt><trkpt lat="45.67041286735218" lon="10.332760140615315"><ele>673.3333333333333</ele><time>2026-04-11T10:26:50.001Z</time></trkpt><trkpt lat="45.67037135337517" lon="10.332852101261276"><ele>674.0</ele><time>2026-04-11T10:26:51.001Z</time></trkpt><trkpt lat="45.67024642703291" lon="10.333001968822575"><ele>671.0</ele><time>2026-04-11T10:26:52.001Z</time></trkpt><trkpt lat="45.67018283574576" lon="10.33306885069512"><ele>668.0</ele><time>2026-04-11T10:26:53.001Z</time></trkpt><trkpt lat="45.670053133867974" lon="10.333120317190929"><ele>665.0</ele><time>2026-04-11T10:26:54.001Z</time></trkpt><trkpt lat="45.66995632222901" lon="10.333181980778885"><ele>662.0</ele><time>2026-04-11T10:26:55.001Z</time></trkpt><trkpt lat="45.669864226106505" lon="10.333250620482037"><ele>659.0</ele><time>2026-04-11T10:26:56.001Z</time></trkpt><trkpt lat="45.66977797979404" lon="10.333286315806046"><ele>659.0</ele><time>2026-04-11T10:26:57.001Z</time></trkpt><trkpt lat="45.66969692370084" lon="10.333344618605052"><ele>659.0</ele><time>2026-04-11T10:26:58.001Z</time></trkpt><trkpt lat="45.669624204572536" lon="10.333393525258336"><ele>659.0</ele><time>2026-04-11T10:26:59.001Z</time></trkpt><trkpt lat="45.669561145544975" lon="10.3334297032952"><ele>659.0</ele><time>2026-04-11T10:27:00.001Z</time></trkpt><trkpt lat="45.66944556439604" lon="10.333428701737956"><ele>659.0</ele><time>2026-04-11T10:27:02.001Z</time></trkpt><trkpt lat="45.66934001904212" lon="10.333419919316356"><ele>659.6</ele><time>2026-04-11T10:27:03.001Z</time></trkpt><trkpt lat="45.669198667049294" lon="10.333394544666325"><ele>660.2</ele><time>2026-04-11T10:27:04.002Z</time></trkpt><trkpt lat="45.66911420824568" lon="10.333387382983139"><ele>660.8000000000001</ele><time>2026-04-11T10:27:05.002Z</time></trkpt><trkpt lat="45.66900425421576" lon="10.33338176054414"><ele>661.4000000000001</ele><time>2026-04-11T10:27:06.002Z</time></trkpt><trkpt lat="45.66889725194195" lon="10.333403661640967"><ele>662.0</ele><time>2026-04-11T10:27:07.002Z</time></trkpt><trkpt lat="45.66878148846761" lon="10.333356563672053"><ele>662.0</ele><time>2026-04-11T10:27:08.002Z</time></trkpt><trkpt lat="45.66865134497811" lon="10.33331680522131"><ele>662.0</ele><time>2026-04-11T10:27:09.002Z</time></trkpt><trkpt lat="45.66854169350971" lon="10.333268171482592"><ele>662.0</ele><time>2026-04-11T10:27:10.002Z</time></trkpt><trkpt lat="45.66842436568654" lon="10.33326315865028"><ele>662.0</ele><time>2026-04-11T10:27:11.002Z</time></trkpt><trkpt lat="45.66831763784591" lon="10.333308729684848"><ele>662.75</ele><time>2026-04-11T10:27:12.002Z</time></trkpt><trkpt lat="45.668212519794345" lon="10.333323386054047"><ele>663.5</ele><time>2026-04-11T10:27:13.002Z</time></trkpt><trkpt lat="45.668097270852876" lon="10.333364429616086"><ele>664.25</ele><time>2026-04-11T10:27:14Z</time></trkpt><trkpt lat="45.66795395197643" lon="10.333375286160841"><ele>665.0</ele><time>2026-04-11T10:27:15Z</time></trkpt><trkpt lat="45.66779802029941" lon="10.333421364191446"><ele>667.25</ele><time>2026-04-11T10:27:16Z</time></trkpt><trkpt lat="45.6676418291288" lon="10.333486182276832"><ele>669.5</ele><time>2026-04-11T10:27:17Z</time></trkpt><trkpt lat="45.66752795299682" lon="10.333476092021954"><ele>671.75</ele><time>2026-04-11T10:27:18Z</time></trkpt><trkpt lat="45.66739211150486" lon="10.333490406542639"><ele>674.0</ele><time>2026-04-11T10:27:19Z</time></trkpt><trkpt lat="45.66728298355685" lon="10.33351503374706"><ele>674.0</ele><time>2026-04-11T10:27:20Z</time></trkpt><trkpt lat="45.66717431294505" lon="10.333514401681493"><ele>674.0</ele><time>2026-04-11T10:27:21Z</time></trkpt><trkpt lat="45.66706907715395" lon="10.333521328151654"><ele>674.0</ele><time>2026-04-11T10:27:22Z</time></trkpt><trkpt lat="45.66695638277427" lon="10.333523836990654"><ele>674.0</ele><time>2026-04-11T10:27:23Z</time></trkpt><trkpt lat="45.66684075901513" lon="10.333498130194368"><ele>674.0</ele><time>2026-04-11T10:27:24Z</time></trkpt><trkpt lat="45.66670930911301" lon="10.333419863848913"><ele>673.2</ele><time>2026-04-11T10:27:25Z</time></trkpt><trkpt lat="45.666574873836375" lon="10.333335303949337"><ele>672.4000000000001</ele><time>2026-04-11T10:27:26Z</time></trkpt><trkpt lat="45.66651973935908" lon="10.333227051538358"><ele>671.6</ele><time>2026-04-11T10:27:28Z</time></trkpt><trkpt lat="45.66655209262897" lon="10.333120781424816"><ele>670.8</ele><time>2026-04-11T10:27:29Z</time></trkpt><trkpt lat="45.66657822058797" lon="10.332990823598879"><ele>670.0</ele><time>2026-04-11T10:27:30Z</time></trkpt><trkpt lat="45.66657673427818" lon="10.332858193703242"><ele>673.8333333333334</ele><time>2026-04-11T10:27:31Z</time></trkpt><trkpt lat="45.666570305066806" lon="10.33275311355077"><ele>677.6666666666667</ele><time>2026-04-11T10:27:32Z</time></trkpt><trkpt lat="45.66652497201764" lon="10.332686905749036"><ele>681.5</ele><time>2026-04-11T10:27:33Z</time></trkpt><trkpt lat="45.66646269960236" lon="10.332593570792293"><ele>685.3333333333334</ele><time>2026-04-11T10:27:34Z</time></trkpt><trkpt lat="45.666404067476655" lon="10.332467787362011"><ele>689.1666666666666</ele><time>2026-04-11T10:27:35Z</time></trkpt><trkpt lat="45.66632770270485" lon="10.33238473668796"><ele>693.0</ele><time>2026-04-11T10:27:36Z</time></trkpt><trkpt lat="45.66625820736093" lon="10.332318832377785"><ele>693.0</ele><time>2026-04-11T10:27:37Z</time></trkpt><trkpt lat="45.66616867319752" lon="10.332250664904578"><ele>693.0</ele><time>2026-04-11T10:27:38Z</time></trkpt><trkpt lat="45.666049930326366" lon="10.332192386013464"><ele>693.0</ele><time>2026-04-11T10:27:39Z</time></trkpt><trkpt lat="45.66590223843337" lon="10.332218015632709"><ele>693.0</ele><time>2026-04-11T10:27:40Z</time></trkpt><trkpt lat="45.66578440350442" lon="10.332243117170405"><ele>688.5999999999999</ele><time>2026-04-11T10:27:41Z</time></trkpt><trkpt lat="45.66567437183281" lon="10.332235373942757"><ele>684.1999999999999</ele><time>2026-04-11T10:27:42Z</time></trkpt><trkpt lat="45.665593390239565" lon="10.332178684645967"><ele>679.8</ele><time>2026-04-11T10:27:43Z</time></trkpt><trkpt lat="45.66550920812801" lon="10.332135920078136"><ele>675.4</ele><time>2026-04-11T10:27:44Z</time></trkpt><trkpt lat="45.6653919491692" lon="10.33219275850918"><ele>671.0</ele><time>2026-04-11T10:27:46Z</time></trkpt><trkpt lat="45.66532050313216" lon="10.332280838905216"><ele>668.8</ele><time>2026-04-11T10:27:47Z</time></trkpt><trkpt lat="45.66523839864204" lon="10.332342810744311"><ele>666.5999999999999</ele><time>2026-04-11T10:27:48Z</time></trkpt><trkpt lat="45.6651535391017" lon="10.332411747149264"><ele>664.4</ele><time>2026-04-11T10:27:49Z</time></trkpt><trkpt lat="45.665080540262416" lon="10.33247137344661"><ele>662.2</ele><time>2026-04-11T10:27:50Z</time></trkpt><trkpt lat="45.66500916814432" lon="10.332508024679527"><ele>660.0</ele><time>2026-04-11T10:27:51Z</time></trkpt><trkpt lat="45.664896454771444" lon="10.332520330873978"><ele>660.0</ele><time>2026-04-11T10:27:52Z</time></trkpt><trkpt lat="45.66480071005971" lon="10.33251046011179"><ele>660.0</ele><time>2026-04-11T10:27:53Z</time></trkpt><trkpt lat="45.66470944726768" lon="10.332500872572037"><ele>660.0</ele><time>2026-04-11T10:27:54Z</time></trkpt><trkpt lat="45.6646207169429" lon="10.33248345705444"><ele>660.0</ele><time>2026-04-11T10:27:55Z</time></trkpt><trkpt lat="45.664531889406994" lon="10.332506809699687"><ele>660.0</ele><time>2026-04-11T10:27:56Z</time></trkpt><trkpt lat="45.66446192394364" lon="10.332560308340325"><ele>660.0</ele><time>2026-04-11T10:27:57Z</time></trkpt><trkpt lat="45.66441233985176" lon="10.332628033548188"><ele>657.1666666666666</ele><time>2026-04-11T10:27:58Z</time></trkpt><trkpt lat="45.664360603146534" lon="10.332691764581702"><ele>654.3333333333334</ele><time>2026-04-11T10:27:59Z</time></trkpt><trkpt lat="45.66426810404188" lon="10.332754891609275"><ele>651.5</ele><time>2026-04-11T10:28:01.001Z</time></trkpt><trkpt lat="45.6641770030867" lon="10.332816615187571"><ele>648.6666666666667</ele><time>2026-04-11T10:28:03.001Z</time></trkpt><trkpt lat="45.664212008154706" lon="10.332922243639523"><ele>645.8333333333334</ele><time>2026-04-11T10:28:11.001Z</time></trkpt><trkpt lat="45.66423078412561" lon="10.333044662873775"><ele>643.0</ele><time>2026-04-11T10:28:14.001Z</time></trkpt><trkpt lat="45.66418961782909" lon="10.333140813689205"><ele>640.1666666666667</ele><time>2026-04-11T10:28:18.001Z</time></trkpt><trkpt lat="45.66412087123922" lon="10.33320612226609"><ele>637.3333333333334</ele><time>2026-04-11T10:28:22.001Z</time></trkpt><trkpt lat="45.66404130044939" lon="10.333222015688916"><ele>634.5</ele><time>2026-04-11T10:28:26.001Z</time></trkpt><trkpt lat="45.66399893759464" lon="10.333149345954013"><ele>631.6666666666666</ele><time>2026-04-11T10:28:29.001Z</time></trkpt><trkpt lat="45.66392177434519" lon="10.33312630625205"><ele>628.8333333333333</ele><time>2026-04-11T10:28:32.001Z</time></trkpt><trkpt lat="45.66385205192229" lon="10.333098920894225"><ele>626.0</ele><time>2026-04-11T10:28:35.001Z</time></trkpt><trkpt lat="45.663785365165396" lon="10.33315643305976"><ele>626.0</ele><time>2026-04-11T10:28:37.001Z</time></trkpt><trkpt lat="45.66373011366682" lon="10.333274160225386"><ele>626.0</ele><time>2026-04-11T10:28:41.001Z</time></trkpt><trkpt lat="45.66368160531847" lon="10.333360686695276"><ele>626.0</ele><time>2026-04-11T10:28:44.001Z</time></trkpt><trkpt lat="45.66364618038378" lon="10.333435558489652"><ele>626.0</ele><time>2026-04-11T10:28:46.001Z</time></trkpt><trkpt lat="45.66366170034914" lon="10.333552269541492"><ele>626.0</ele><time>2026-04-11T10:28:49.001Z</time></trkpt><trkpt lat="45.663710424789755" lon="10.333614490883889"><ele>626.0</ele><time>2026-04-11T10:28:53.001Z</time></trkpt><trkpt lat="45.66374138642464" lon="10.33374058329381"><ele>626.0</ele><time>2026-04-11T10:28:55.001Z</time></trkpt><trkpt lat="45.663756099893746" lon="10.33388743409086"><ele>626.0</ele><time>2026-04-11T10:28:57.001Z</time></trkpt><trkpt lat="45.6637952239624" lon="10.334019224578991"><ele>626.0</ele><time>2026-04-11T10:28:59.001Z</time></trkpt><trkpt lat="45.66381239585771" lon="10.334114443573688"><ele>626.0</ele><time>2026-04-11T10:29:02.001Z</time></trkpt><trkpt lat="45.66384643630712" lon="10.334252550712115"><ele>626.0</ele><time>2026-04-11T10:29:04.001Z</time></trkpt><trkpt lat="45.66377350288167" lon="10.334321940724296"><ele>622.4</ele><time>2026-04-11T10:29:07.001Z</time></trkpt><trkpt lat="45.66370709499852" lon="10.334281936369457"><ele>618.8</ele><time>2026-04-11T10:29:09.002Z</time></trkpt><trkpt lat="45.663743785562026" lon="10.334373599872494"><ele>615.1999999999999</ele><time>2026-04-11T10:30:10.001Z</time></trkpt><trkpt lat="45.66363537232099" lon="10.334365554323329"><ele>611.6</ele><time>2026-04-11T10:32:14Z</time></trkpt><trkpt lat="45.663562790893245" lon="10.334346515883604"><ele>608.0</ele><time>2026-04-11T10:32:15Z</time></trkpt><trkpt lat="45.66345233978097" lon="10.334261953669609"><ele>608.6</ele><time>2026-04-11T10:32:17Z</time></trkpt><trkpt lat="45.66339252267793" lon="10.334204000536612"><ele>609.1999999999999</ele><time>2026-04-11T10:32:18.001Z</time></trkpt><trkpt lat="45.66331118281453" lon="10.334104307017126"><ele>609.8</ele><time>2026-04-11T10:32:20.001Z</time></trkpt><trkpt lat="45.663260812233034" lon="10.333970293841556"><ele>610.4</ele><time>2026-04-11T10:32:22.001Z</time></trkpt><trkpt lat="45.663266257228756" lon="10.333827568999897"><ele>611.0</ele><time>2026-04-11T10:32:24.001Z</time></trkpt><trkpt lat="45.66322464008436" lon="10.33369803831235"><ele>611.0</ele><time>2026-04-11T10:32:26.001Z</time></trkpt><trkpt lat="45.66316024660789" lon="10.333683300027944"><ele>611.0</ele><time>2026-04-11T10:32:27.001Z</time></trkpt><trkpt lat="45.6630925119818" lon="10.333756397035966"><ele>611.0</ele><time>2026-04-11T10:32:28.001Z</time></trkpt><trkpt lat="45.66301392077409" lon="10.333808476602915"><ele>611.0</ele><time>2026-04-11T10:32:29.001Z</time></trkpt><trkpt lat="45.66292322767437" lon="10.333934602043742"><ele>611.0</ele><time>2026-04-11T10:32:30.001Z</time></trkpt><trkpt lat="45.662858394670074" lon="10.334044710087168"><ele>610.1666666666666</ele><time>2026-04-11T10:32:31.001Z</time></trkpt><trkpt lat="45.66279926697384" lon="10.334138066711596"><ele>609.3333333333333</ele><time>2026-04-11T10:32:32.001Z</time></trkpt><trkpt lat="45.6627436272786" lon="10.334200134469198"><ele>608.5</ele><time>2026-04-11T10:32:33.001Z</time></trkpt><trkpt lat="45.66264695294077" lon="10.33427024885606"><ele>607.6666666666666</ele><time>2026-04-11T10:32:35.001Z</time></trkpt><trkpt lat="45.66254769491495" lon="10.33431887635173"><ele>606.8333333333334</ele><time>2026-04-11T10:32:36.001Z</time></trkpt><trkpt lat="45.66247765511511" lon="10.334334891649064"><ele>606.0</ele><time>2026-04-11T10:32:37.001Z</time></trkpt><trkpt lat="45.662415671285935" lon="10.334359396033229"><ele>599.3333333333334</ele><time>2026-04-11T10:32:39.001Z</time></trkpt><trkpt lat="45.66244940624678" lon="10.33478366364702"><ele>592.6666666666667</ele><time>2026-04-11T10:32:40.001Z</time></trkpt><trkpt lat="45.6624707985605" lon="10.33493310150486"><ele>586.0</ele><time>2026-04-11T10:32:42.001Z</time></trkpt><trkpt lat="45.66242287009808" lon="10.3350264840085"><ele>586.0</ele><time>2026-04-11T10:32:44.001Z</time></trkpt><trkpt lat="45.66231487814215" lon="10.335070299494301"><ele>586.0</ele><time>2026-04-11T10:32:46.001Z</time></trkpt><trkpt lat="45.66219113786747" lon="10.335080670028873"><ele>586.0</ele><time>2026-04-11T10:32:48.001Z</time></trkpt><trkpt lat="45.66211740688973" lon="10.335123260022991"><ele>586.0</ele><time>2026-04-11T10:32:49.001Z</time></trkpt><trkpt lat="45.66203804841613" lon="10.335187554610648"><ele>586.0</ele><time>2026-04-11T10:32:50.001Z</time></trkpt><trkpt lat="45.66196139018982" lon="10.335210449529644"><ele>590.1666666666667</ele><time>2026-04-11T10:32:51.001Z</time></trkpt><trkpt lat="45.661897172260595" lon="10.335207727355577"><ele>594.3333333333334</ele><time>2026-04-11T10:32:52.001Z</time></trkpt><trkpt lat="45.6618138251033" lon="10.33529464963194"><ele>598.5</ele><time>2026-04-11T10:32:54.001Z</time></trkpt><trkpt lat="45.661715589890555" lon="10.335341072987783"><ele>602.6666666666666</ele><time>2026-04-11T10:32:55.001Z</time></trkpt><trkpt lat="45.661642629597225" lon="10.335369065207527"><ele>606.8333333333333</ele><time>2026-04-11T10:32:56.001Z</time></trkpt><trkpt lat="45.66154257831167" lon="10.335394701404455"><ele>611.0</ele><time>2026-04-11T10:32:58.001Z</time></trkpt><trkpt lat="45.66143348299951" lon="10.335365502255446"><ele>611.0</ele><time>2026-04-11T10:33:00.001Z</time></trkpt><trkpt lat="45.66136889811546" lon="10.33536357894618"><ele>611.0</ele><time>2026-04-11T10:33:01.001Z</time></trkpt><trkpt lat="45.66128756015397" lon="10.33539379407684"><ele>611.0</ele><time>2026-04-11T10:33:02.001Z</time></trkpt><trkpt lat="45.66122875341134" lon="10.33544800636594"><ele>611.0</ele><time>2026-04-11T10:33:03.001Z</time></trkpt><trkpt lat="45.66113531102446" lon="10.335553715202964"><ele>611.0</ele><time>2026-04-11T10:33:05.001Z</time></trkpt><trkpt lat="45.661020309498994" lon="10.33565628424041"><ele>610.1666666666666</ele><time>2026-04-11T10:33:07.001Z</time></trkpt><trkpt lat="45.660935299659776" lon="10.335720273382828"><ele>609.3333333333333</ele><time>2026-04-11T10:33:08.001Z</time></trkpt><trkpt lat="45.660920759299515" lon="10.335832849402975"><ele>608.5</ele><time>2026-04-11T10:33:11.001Z</time></trkpt><trkpt lat="45.660846777250015" lon="10.335938021380317"><ele>607.6666666666666</ele><time>2026-04-11T10:33:13.001Z</time></trkpt><trkpt lat="45.66078735963437" lon="10.335985466999476"><ele>606.8333333333334</ele><time>2026-04-11T10:33:16.001Z</time></trkpt><trkpt lat="45.66076156477576" lon="10.336090576176742"><ele>606.0</ele><time>2026-04-11T10:33:19.001Z</time></trkpt><trkpt lat="45.66069593362511" lon="10.3362287260535"><ele>606.0</ele><time>2026-04-11T10:33:22.001Z</time></trkpt><trkpt lat="45.66064327811314" lon="10.336289809598032"><ele>606.0</ele><time>2026-04-11T10:33:24.001Z</time></trkpt><trkpt lat="45.66058701582245" lon="10.336405115013562"><ele>606.0</ele><time>2026-04-11T10:33:27.001Z</time></trkpt><trkpt lat="45.660519761022336" lon="10.336456277898755"><ele>606.0</ele><time>2026-04-11T10:33:29.002Z</time></trkpt><trkpt lat="45.66044393644562" lon="10.336493276304303"><ele>606.0</ele><time>2026-04-11T10:33:31.002Z</time></trkpt><trkpt lat="45.66039592737892" lon="10.336565815149543"><ele>606.0</ele><time>2026-04-11T10:33:33Z</time></trkpt><trkpt lat="45.66031444657205" lon="10.336619940791257"><ele>607.0</ele><time>2026-04-11T10:33:36Z</time></trkpt><trkpt lat="45.66024794498758" lon="10.336673196808142"><ele>608.0</ele><time>2026-04-11T10:33:38Z</time></trkpt><trkpt lat="45.66017822709334" lon="10.336709167904063"><ele>609.0</ele><time>2026-04-11T10:33:41Z</time></trkpt><trkpt lat="45.660118725539" lon="10.336759917497144"><ele>610.0</ele><time>2026-04-11T10:33:44Z</time></trkpt><trkpt lat="45.66005930113494" lon="10.336825343454652"><ele>611.0</ele><time>2026-04-11T10:33:46Z</time></trkpt><trkpt lat="45.65999175897807" lon="10.33690846008013"><ele>612.0</ele><time>2026-04-11T10:33:49Z</time></trkpt><trkpt lat="45.659903576823616" lon="10.336967818137568"><ele>612.0</ele><time>2026-04-11T10:33:51Z</time></trkpt><trkpt lat="45.659830651572" lon="10.337009020920817"><ele>612.0</ele><time>2026-04-11T10:33:52Z</time></trkpt><trkpt lat="45.65971461123635" lon="10.337072312966088"><ele>612.0</ele><time>2026-04-11T10:33:54Z</time></trkpt><trkpt lat="45.65964835963926" lon="10.337114545921034"><ele>612.0</ele><time>2026-04-11T10:33:55Z</time></trkpt><trkpt lat="45.659580061244014" lon="10.337170599769161"><ele>612.0</ele><time>2026-04-11T10:33:57Z</time></trkpt><trkpt lat="45.65950035836169" lon="10.33724552019625"><ele>612.0</ele><time>2026-04-11T10:33:59Z</time></trkpt><trkpt lat="45.6594408667961" lon="10.337323584412822"><ele>611.8333333333334</ele><time>2026-04-11T10:34:01Z</time></trkpt><trkpt lat="45.65937905244981" lon="10.337405805918316"><ele>611.6666666666666</ele><time>2026-04-11T10:34:03Z</time></trkpt><trkpt lat="45.65930796046131" lon="10.337426313866494"><ele>611.5</ele><time>2026-04-11T10:34:05Z</time></trkpt><trkpt lat="45.65922648569896" lon="10.337492767013387"><ele>611.3333333333333</ele><time>2026-04-11T10:34:07Z</time></trkpt><trkpt lat="45.659148846021644" lon="10.337500539905006"><ele>611.1666666666666</ele><time>2026-04-11T10:34:08Z</time></trkpt><trkpt lat="45.65907802465051" lon="10.337531084967454"><ele>611.0</ele><time>2026-04-11T10:34:09Z</time></trkpt><trkpt lat="45.65896750669691" lon="10.337514810993921"><ele>611.0</ele><time>2026-04-11T10:34:11Z</time></trkpt><trkpt lat="45.65890444019041" lon="10.337523322721985"><ele>611.0</ele><time>2026-04-11T10:34:13Z</time></trkpt><trkpt lat="45.65877768286501" lon="10.337544221157538"><ele>611.0</ele><time>2026-04-11T10:34:51.001Z</time></trkpt><trkpt lat="45.658719397829" lon="10.337599518190219"><ele>611.0</ele><time>2026-04-11T10:34:52.001Z</time></trkpt><trkpt lat="45.65864904175368" lon="10.337692826558394"><ele>611.0</ele><time>2026-04-11T10:34:53.001Z</time></trkpt><trkpt lat="45.658574815295445" lon="10.337772267929592"><ele>611.0</ele><time>2026-04-11T10:34:54.001Z</time></trkpt><trkpt lat="45.658482658936705" lon="10.337843404140088"><ele>610.25</ele><time>2026-04-11T10:34:55.001Z</time></trkpt><trkpt lat="45.65841561025622" lon="10.337904462913576"><ele>609.5</ele><time>2026-04-11T10:34:56.001Z</time></trkpt><trkpt lat="45.65834861685831" lon="10.338016803741576"><ele>608.75</ele><time>2026-04-11T10:34:57.001Z</time></trkpt><trkpt lat="45.65826295043427" lon="10.338178577119018"><ele>608.0</ele><time>2026-04-11T10:34:58.001Z</time></trkpt><trkpt lat="45.658165748962894" lon="10.338315956322566"><ele>608.0</ele><time>2026-04-11T10:34:59.001Z</time></trkpt><trkpt lat="45.658046570584666" lon="10.338466314738612"><ele>608.0</ele><time>2026-04-11T10:35:00.001Z</time></trkpt><trkpt lat="45.65794492347236" lon="10.338556699534248"><ele>608.0</ele><time>2026-04-11T10:35:01.001Z</time></trkpt><trkpt lat="45.65785650540476" lon="10.338631849260306"><ele>608.0</ele><time>2026-04-11T10:35:02.001Z</time></trkpt><trkpt lat="45.65777124832867" lon="10.338706417294835"><ele>607.6666666666666</ele><time>2026-04-11T10:35:03.001Z</time></trkpt><trkpt lat="45.657715242590996" lon="10.338762852009644"><ele>607.3333333333333</ele><time>2026-04-11T10:35:04.001Z</time></trkpt><trkpt lat="45.65766820831783" lon="10.33883771120204"><ele>607.0</ele><time>2026-04-11T10:35:05.001Z</time></trkpt><trkpt lat="45.657622411583695" lon="10.338899601091986"><ele>606.6666666666666</ele><time>2026-04-11T10:35:06.001Z</time></trkpt><trkpt lat="45.65763371354353" lon="10.339071059150596"><ele>606.3333333333334</ele><time>2026-04-11T10:35:08.001Z</time></trkpt><trkpt lat="45.657595239096224" lon="10.339208359636404"><ele>606.0</ele><time>2026-04-11T10:35:10.001Z</time></trkpt><trkpt lat="45.65756065985158" lon="10.339349962510244"><ele>606.0</ele><time>2026-04-11T10:35:12.001Z</time></trkpt><trkpt lat="45.65755620388498" lon="10.33952253966333"><ele>606.0</ele><time>2026-04-11T10:35:13.001Z</time></trkpt><trkpt lat="45.65719921186991" lon="10.339364751502597"><ele>606.0</ele><time>2026-04-11T10:35:14.001Z</time></trkpt><trkpt lat="45.657121518708784" lon="10.33941995016975"><ele>606.0</ele><time>2026-04-11T10:35:15.001Z</time></trkpt><trkpt lat="45.657030469350296" lon="10.339515819202665"><ele>606.0</ele><time>2026-04-11T10:35:16.001Z</time></trkpt><trkpt lat="45.65696163680127" lon="10.339561152460309"><ele>606.0</ele><time>2026-04-11T10:35:17.001Z</time></trkpt><trkpt lat="45.65688130651304" lon="10.339544133454593"><ele>606.0</ele><time>2026-04-11T10:35:18.001Z</time></trkpt><trkpt lat="45.656803229075315" lon="10.339512984280484"><ele>606.0</ele><time>2026-04-11T10:35:19.001Z</time></trkpt><trkpt lat="45.656717284265405" lon="10.339553999692445"><ele>606.0</ele><time>2026-04-11T10:35:20.001Z</time></trkpt><trkpt lat="45.656602646784506" lon="10.33962671454584"><ele>606.0</ele><time>2026-04-11T10:35:21.001Z</time></trkpt><trkpt lat="45.65648237684475" lon="10.33968902039002"><ele>606.0</ele><time>2026-04-11T10:35:22.001Z</time></trkpt><trkpt lat="45.65634439410244" lon="10.33981104631182"><ele>606.0</ele><time>2026-04-11T10:35:23.001Z</time></trkpt><trkpt lat="45.65619759823303" lon="10.339889581941819"><ele>609.5</ele><time>2026-04-11T10:35:24.001Z</time></trkpt><trkpt lat="45.656073719226164" lon="10.3399266829052"><ele>613.0</ele><time>2026-04-11T10:35:25.001Z</time></trkpt><trkpt lat="45.65597763313542" lon="10.339953442377794"><ele>616.5</ele><time>2026-04-11T10:35:26.001Z</time></trkpt><trkpt lat="45.655869163923185" lon="10.340023423966683"><ele>620.0</ele><time>2026-04-11T10:35:27.001Z</time></trkpt><trkpt lat="45.655782998518966" lon="10.340148342840237"><ele>620.0</ele><time>2026-04-11T10:35:28.001Z</time></trkpt><trkpt lat="45.65569607676933" lon="10.340262370187473"><ele>620.0</ele><time>2026-04-11T10:35:29.001Z</time></trkpt><trkpt lat="45.65563809503516" lon="10.340346748665562"><ele>620.0</ele><time>2026-04-11T10:35:30.001Z</time></trkpt><trkpt lat="45.6555578915164" lon="10.34040485090839"><ele>620.0</ele><time>2026-04-11T10:35:31.001Z</time></trkpt><trkpt lat="45.65548836765818" lon="10.340444887551268"><ele>620.0</ele><time>2026-04-11T10:35:32.002Z</time></trkpt><trkpt lat="45.65536907177844" lon="10.34047595226424"><ele>623.5</ele><time>2026-04-11T10:35:33.002Z</time></trkpt><trkpt lat="45.655249725392714" lon="10.340448685494213"><ele>627.0</ele><time>2026-04-11T10:35:34.002Z</time></trkpt><trkpt lat="45.65514337083681" lon="10.340431252098355"><ele>630.5</ele><time>2026-04-11T10:35:35.002Z</time></trkpt><trkpt lat="45.65503208044724" lon="10.340458227271995"><ele>634.0</ele><time>2026-04-11T10:35:36.002Z</time></trkpt><trkpt lat="45.654939673977196" lon="10.340547418094838"><ele>628.75</ele><time>2026-04-11T10:35:37.002Z</time></trkpt><trkpt lat="45.65482157008192" lon="10.340636712012849"><ele>623.5</ele><time>2026-04-11T10:35:38Z</time></trkpt><trkpt lat="45.65472154067796" lon="10.340747333000802"><ele>618.25</ele><time>2026-04-11T10:35:39Z</time></trkpt><trkpt lat="45.65460932371694" lon="10.340845642251812"><ele>613.0</ele><time>2026-04-11T10:35:40Z</time></trkpt><trkpt lat="45.654489568373954" lon="10.340929501750983"><ele>612.4</ele><time>2026-04-11T10:35:41Z</time></trkpt><trkpt lat="45.65438290373464" lon="10.341051433737972"><ele>611.8</ele><time>2026-04-11T10:35:42Z</time></trkpt><trkpt lat="45.65431661190261" lon="10.34114903295016"><ele>611.2</ele><time>2026-04-11T10:35:43Z</time></trkpt><trkpt lat="45.65426913483548" lon="10.341247896308397"><ele>610.6</ele><time>2026-04-11T10:35:44Z</time></trkpt><trkpt lat="45.65420568430015" lon="10.341351304438305"><ele>610.0</ele><time>2026-04-11T10:35:45Z</time></trkpt><trkpt lat="45.654168732637935" lon="10.341448934299768"><ele>610.0</ele><time>2026-04-11T10:35:46Z</time></trkpt><trkpt lat="45.654112989371015" lon="10.341564755602748"><ele>610.0</ele><time>2026-04-11T10:35:47Z</time></trkpt><trkpt lat="45.654025927872155" lon="10.3416955469312"><ele>610.0</ele><time>2026-04-11T10:35:48Z</time></trkpt><trkpt lat="45.653942110120326" lon="10.341828808870838"><ele>610.0</ele><time>2026-04-11T10:35:49Z</time></trkpt><trkpt lat="45.653845210673246" lon="10.341963742951448"><ele>610.0</ele><time>2026-04-11T10:35:50Z</time></trkpt><trkpt lat="45.6537716699384" lon="10.342079493873555"><ele>610.0</ele><time>2026-04-11T10:35:51Z</time></trkpt><trkpt lat="45.653715540910135" lon="10.342171360402745"><ele>610.0</ele><time>2026-04-11T10:35:52Z</time></trkpt><trkpt lat="45.65361906188145" lon="10.342239474246123"><ele>610.0</ele><time>2026-04-11T10:35:53Z</time></trkpt><trkpt lat="45.65352441659504" lon="10.34228188549289"><ele>610.0</ele><time>2026-04-11T10:35:54Z</time></trkpt><trkpt lat="45.65342886841803" lon="10.342281465245927"><ele>608.5</ele><time>2026-04-11T10:35:55Z</time></trkpt><trkpt lat="45.65336185273576" lon="10.342281547962239"><ele>607.0</ele><time>2026-04-11T10:35:56Z</time></trkpt><trkpt lat="45.653289797947046" lon="10.342294558936644"><ele>605.5</ele><time>2026-04-11T10:35:57Z</time></trkpt><trkpt lat="45.65322686478729" lon="10.34235074760329"><ele>604.0</ele><time>2026-04-11T10:35:58Z</time></trkpt><trkpt lat="45.653182436998826" lon="10.342441811277896"><ele>602.5</ele><time>2026-04-11T10:35:59Z</time></trkpt><trkpt lat="45.653110594915084" lon="10.342558451916332"><ele>601.0</ele><time>2026-04-11T10:36:01Z</time></trkpt><trkpt lat="45.65301325372112" lon="10.34259998387087"><ele>601.0</ele><time>2026-04-11T10:36:02Z</time></trkpt><trkpt lat="45.65291164805552" lon="10.342608917027677"><ele>601.0</ele><time>2026-04-11T10:36:03Z</time></trkpt><trkpt lat="45.65280092134856" lon="10.342636603413892"><ele>601.0</ele><time>2026-04-11T10:36:04Z</time></trkpt><trkpt lat="45.65271313060112" lon="10.342703894639117"><ele>601.0</ele><time>2026-04-11T10:36:05Z</time></trkpt><trkpt lat="45.65257406882138" lon="10.342761712893273"><ele>604.25</ele><time>2026-04-11T10:36:06Z</time></trkpt><trkpt lat="45.652472107993425" lon="10.34273209087027"><ele>607.5</ele><time>2026-04-11T10:36:08Z</time></trkpt><trkpt lat="45.65236992221848" lon="10.342760142336033"><ele>610.75</ele><time>2026-04-11T10:36:09Z</time></trkpt><trkpt lat="45.65225527841668" lon="10.342870162291595"><ele>614.0</ele><time>2026-04-11T10:36:10Z</time></trkpt><trkpt lat="45.65214956390219" lon="10.343037373177685"><ele>611.75</ele><time>2026-04-11T10:36:11Z</time></trkpt><trkpt lat="45.65201983789731" lon="10.34315089075945"><ele>609.5</ele><time>2026-04-11T10:36:12Z</time></trkpt><trkpt lat="45.65188369286421" lon="10.343236253205864"><ele>607.25</ele><time>2026-04-11T10:36:13Z</time></trkpt><trkpt lat="45.65176657417099" lon="10.343341415884572"><ele>605.0</ele><time>2026-04-11T10:36:14Z</time></trkpt><trkpt lat="45.651690477513874" lon="10.343445544537651"><ele>605.0</ele><time>2026-04-11T10:36:15Z</time></trkpt><trkpt lat="45.65166528071282" lon="10.343533913806334"><ele>605.0</ele><time>2026-04-11T10:36:16Z</time></trkpt><trkpt lat="45.651653423962706" lon="10.343642846463103"><ele>605.0</ele><time>2026-04-11T10:36:17Z</time></trkpt><trkpt lat="45.65167179738168" lon="10.343755566613998"><ele>605.0</ele><time>2026-04-11T10:36:18Z</time></trkpt><trkpt lat="45.65167650360642" lon="10.34386274578286"><ele>605.0</ele><time>2026-04-11T10:36:19Z</time></trkpt><trkpt lat="45.651676190297934" lon="10.34396766406698"><ele>605.0</ele><time>2026-04-11T10:36:20Z</time></trkpt><trkpt lat="45.65165576955307" lon="10.344054212475422"><ele>605.0</ele><time>2026-04-11T10:36:21Z</time></trkpt><trkpt lat="45.651599632486366" lon="10.344148176733928"><ele>601.0</ele><time>2026-04-11T10:36:22Z</time></trkpt><trkpt lat="45.65150592225142" lon="10.344238282361198"><ele>597.0</ele><time>2026-04-11T10:36:23Z</time></trkpt><trkpt lat="45.651408690751914" lon="10.344345183333235"><ele>593.0</ele><time>2026-04-11T10:36:24Z</time></trkpt><trkpt lat="45.6513042772037" lon="10.344450085750054"><ele>589.0</ele><time>2026-04-11T10:36:25.001Z</time></trkpt><trkpt lat="45.651213067682626" lon="10.344551164177398"><ele>589.0</ele><time>2026-04-11T10:36:26.001Z</time></trkpt><trkpt lat="45.651143861105524" lon="10.344622066040799"><ele>589.0</ele><time>2026-04-11T10:36:27.001Z</time></trkpt><trkpt lat="45.6510886122028" lon="10.344680281534057"><ele>589.0</ele><time>2026-04-11T10:36:28.001Z</time></trkpt><trkpt lat="45.651029347981" lon="10.344752648798817"><ele>589.0</ele><time>2026-04-11T10:36:29.001Z</time></trkpt><trkpt lat="45.6509616304683" lon="10.344821194968453"><ele>589.0</ele><time>2026-04-11T10:36:30.001Z</time></trkpt><trkpt lat="45.650902567193214" lon="10.344896178058793"><ele>589.0</ele><time>2026-04-11T10:36:31.001Z</time></trkpt><trkpt lat="45.650840218130774" lon="10.345029600927703"><ele>588.6666666666667</ele><time>2026-04-11T10:36:33.001Z</time></trkpt><trkpt lat="45.650770613836556" lon="10.345154243737822"><ele>588.3333333333334</ele><time>2026-04-11T10:36:35.001Z</time></trkpt><trkpt lat="45.65067836380946" lon="10.345187092908885"><ele>588.0</ele><time>2026-04-11T10:36:36.001Z</time></trkpt><trkpt lat="45.65061077104632" lon="10.345227204144594"><ele>587.6666666666666</ele><time>2026-04-11T10:36:37.001Z</time></trkpt><trkpt lat="45.65053772037265" lon="10.345244447047673"><ele>587.3333333333333</ele><time>2026-04-11T10:36:38.001Z</time></trkpt><trkpt lat="45.65047315872771" lon="10.345287741161055"><ele>587.0</ele><time>2026-04-11T10:36:39.001Z</time></trkpt><trkpt lat="45.650399019496376" lon="10.345349951092489"><ele>587.0</ele><time>2026-04-11T10:36:41.001Z</time></trkpt><trkpt lat="45.65035890267124" lon="10.345447974957382"><ele>587.0</ele><time>2026-04-11T10:36:42.001Z</time></trkpt><trkpt lat="45.65028971952104" lon="10.345585147725597"><ele>587.0</ele><time>2026-04-11T10:36:43.001Z</time></trkpt><trkpt lat="45.65024932012718" lon="10.345671845853168"><ele>587.0</ele><time>2026-04-11T10:36:44.001Z</time></trkpt><trkpt lat="45.65021783619885" lon="10.345779952188925"><ele>587.0</ele><time>2026-04-11T10:36:46.001Z</time></trkpt><trkpt lat="45.650226929097855" lon="10.345895689417041"><ele>587.0</ele><time>2026-04-11T10:36:48.001Z</time></trkpt><trkpt lat="45.65015056404482" lon="10.346044079291712"><ele>588.3333333333333</ele><time>2026-04-11T10:36:50.001Z</time></trkpt><trkpt lat="45.65012060632183" lon="10.34614745130486"><ele>589.6666666666666</ele><time>2026-04-11T10:36:52.001Z</time></trkpt><trkpt lat="45.650088163485485" lon="10.346291471603394"><ele>591.0</ele><time>2026-04-11T10:36:56.001Z</time></trkpt><trkpt lat="45.65004611894607" lon="10.346392208077834"><ele>592.3333333333334</ele><time>2026-04-11T10:36:58.001Z</time></trkpt><trkpt lat="45.649998596107594" lon="10.346492270041601"><ele>593.6666666666667</ele><time>2026-04-11T10:37:00.001Z</time></trkpt><trkpt lat="45.64992769803741" lon="10.346577051428909"><ele>595.0</ele><time>2026-04-11T10:37:01.001Z</time></trkpt><trkpt lat="45.649870350745296" lon="10.346674180871"><ele>595.0</ele><time>2026-04-11T10:37:02.001Z</time></trkpt><trkpt lat="45.64983984626316" lon="10.346794142643255"><ele>595.0</ele><time>2026-04-11T10:37:03.001Z</time></trkpt><trkpt lat="45.64982924901675" lon="10.34690643481017"><ele>595.0</ele><time>2026-04-11T10:37:04.001Z</time></trkpt><trkpt lat="45.64979981553062" lon="10.34701091515068"><ele>595.0</ele><time>2026-04-11T10:37:05.001Z</time></trkpt><trkpt lat="45.64976313851206" lon="10.347103789327631"><ele>595.0</ele><time>2026-04-11T10:37:06.001Z</time></trkpt><trkpt lat="45.64972474891225" lon="10.347209576210824"><ele>595.0</ele><time>2026-04-11T10:37:07.001Z</time></trkpt><trkpt lat="45.64970207849884" lon="10.347297824684228"><ele>590.2</ele><time>2026-04-11T10:37:08.001Z</time></trkpt><trkpt lat="45.649618642568385" lon="10.3474577505909"><ele>585.4</ele><time>2026-04-11T10:37:10.001Z</time></trkpt><trkpt lat="45.649572096290434" lon="10.34755065550635"><ele>580.6</ele><time>2026-04-11T10:37:11.001Z</time></trkpt><trkpt lat="45.64952112703855" lon="10.347625772742951"><ele>575.8</ele><time>2026-04-11T10:37:12.001Z</time></trkpt><trkpt lat="45.649409368302216" lon="10.347761244976901"><ele>571.0</ele><time>2026-04-11T10:37:14.001Z</time></trkpt><trkpt lat="45.64934906916437" lon="10.347816810251484"><ele>581.6</ele><time>2026-04-11T10:37:15.001Z</time></trkpt><trkpt lat="45.64926318525288" lon="10.347864710019982"><ele>592.2</ele><time>2026-04-11T10:37:16.001Z</time></trkpt><trkpt lat="45.649188524248686" lon="10.347889225500143"><ele>602.8</ele><time>2026-04-11T10:37:17.001Z</time></trkpt><trkpt lat="45.64910868758032" lon="10.347917452533707"><ele>613.4</ele><time>2026-04-11T10:37:18.001Z</time></trkpt><trkpt lat="45.648987493106006" lon="10.347957265142458"><ele>624.0</ele><time>2026-04-11T10:37:19.001Z</time></trkpt><trkpt lat="45.64889907591173" lon="10.348003953405176"><ele>623.6</ele><time>2026-04-11T10:37:20.001Z</time></trkpt><trkpt lat="45.6488000025622" lon="10.348079959320966"><ele>623.2</ele><time>2026-04-11T10:37:21.001Z</time></trkpt><trkpt lat="45.64872789977219" lon="10.348097976886208"><ele>622.8000000000001</ele><time>2026-04-11T10:37:22.001Z</time></trkpt><trkpt lat="45.6486458868255" lon="10.348116294177112"><ele>622.4</ele><time>2026-04-11T10:37:23.001Z</time></trkpt><trkpt lat="45.648513944931985" lon="10.348023116478634"><ele>622.0</ele><time>2026-04-11T10:37:25.001Z</time></trkpt><trkpt lat="45.64845640254056" lon="10.347886003490057"><ele>622.0</ele><time>2026-04-11T10:37:28.001Z</time></trkpt><trkpt lat="45.64843084886667" lon="10.347749496529154"><ele>622.0</ele><time>2026-04-11T10:37:29.001Z</time></trkpt><trkpt lat="45.64842365500625" lon="10.347629592273048"><ele>622.0</ele><time>2026-04-11T10:37:30.001Z</time></trkpt><trkpt lat="45.64842538274556" lon="10.347436918273091"><ele>622.0</ele><time>2026-04-11T10:37:32.001Z</time></trkpt><trkpt lat="45.648394164961836" lon="10.34729773102751"><ele>622.0</ele><time>2026-04-11T10:37:34.001Z</time></trkpt><trkpt lat="45.64835505191395" lon="10.347206077571405"><ele>622.8333333333334</ele><time>2026-04-11T10:37:35.001Z</time></trkpt><trkpt lat="45.64831793723033" lon="10.3471250972084"><ele>623.6666666666667</ele><time>2026-04-11T10:37:36.001Z</time></trkpt><trkpt lat="45.64831976269528" lon="10.34702807456929"><ele>624.5</ele><time>2026-04-11T10:37:38.002Z</time></trkpt><trkpt lat="45.64828932118249" lon="10.346886449704556"><ele>625.3333333333334</ele><time>2026-04-11T10:37:40.002Z</time></trkpt><trkpt lat="45.64826216410354" lon="10.346798365921542"><ele>626.1666666666666</ele><time>2026-04-11T10:37:43.002Z</time></trkpt><trkpt lat="45.64820081071411" lon="10.346931774320794"><ele>627.0</ele><time>2026-04-11T10:37:48Z</time></trkpt><trkpt lat="45.64821366286445" lon="10.347040138884843"><ele>627.0</ele><time>2026-04-11T10:37:51Z</time></trkpt><trkpt lat="45.6481514764969" lon="10.34711067608489"><ele>627.0</ele><time>2026-04-11T10:37:54Z</time></trkpt><trkpt lat="45.64812017657242" lon="10.346994882189733"><ele>627.0</ele><time>2026-04-11T10:37:56Z</time></trkpt><trkpt lat="45.64808959944934" lon="10.3468978846297"><ele>627.0</ele><time>2026-04-11T10:37:58Z</time></trkpt><trkpt lat="45.64804531006425" lon="10.346797424794104"><ele>627.0</ele><time>2026-04-11T10:37:59Z</time></trkpt><trkpt lat="45.64801122614286" lon="10.346568621891555"><ele>627.0</ele><time>2026-04-11T10:38:00Z</time></trkpt><trkpt lat="45.648015257662486" lon="10.346456195195449"><ele>627.0</ele><time>2026-04-11T10:38:02Z</time></trkpt><trkpt lat="45.647976627059926" lon="10.346373234344338"><ele>627.0</ele><time>2026-04-11T10:38:04Z</time></trkpt><trkpt lat="45.64796278317031" lon="10.346219301956642"><ele>627.0</ele><time>2026-04-11T10:38:06Z</time></trkpt><trkpt lat="45.64794933846629" lon="10.34611213090739"><ele>627.0</ele><time>2026-04-11T10:38:08Z</time></trkpt><trkpt lat="45.6479847272359" lon="10.346031979031697"><ele>627.0</ele><time>2026-04-11T10:38:10Z</time></trkpt><trkpt lat="45.64805478610568" lon="10.346015683338635"><ele>626.5</ele><time>2026-04-11T10:38:11Z</time></trkpt><trkpt lat="45.64811909950685" lon="10.345989716013785"><ele>626.0</ele><time>2026-04-11T10:38:12Z</time></trkpt><trkpt lat="45.648179870993445" lon="10.345943324242416"><ele>625.5</ele><time>2026-04-11T10:38:13Z</time></trkpt><trkpt lat="45.64822555400705" lon="10.34587169281684"><ele>625.0</ele><time>2026-04-11T10:38:14Z</time></trkpt><trkpt lat="45.64822136857661" lon="10.345702891651642"><ele>624.5</ele><time>2026-04-11T10:38:16Z</time></trkpt><trkpt lat="45.648252562063874" lon="10.345815767282618"><ele>624.0</ele><time>2026-04-11T10:38:21Z</time></trkpt><trkpt lat="45.64820815768013" lon="10.34590327581966"><ele>624.0</ele><time>2026-04-11T10:38:22Z</time></trkpt><trkpt lat="45.64811651262109" lon="10.345968283935557"><ele>624.0</ele><time>2026-04-11T10:38:24Z</time></trkpt><trkpt lat="45.648017318857995" lon="10.34597353286417"><ele>624.0</ele><time>2026-04-11T10:38:26Z</time></trkpt><trkpt lat="45.64805260875322" lon="10.346066702087438"><ele>624.0</ele><time>2026-04-11T10:38:33.001Z</time></trkpt><trkpt lat="45.648050440625354" lon="10.346157187790213"><ele>624.0</ele><time>2026-04-11T10:38:34.001Z</time></trkpt><trkpt lat="45.648048490534066" lon="10.346247330865765"><ele>624.0</ele><time>2026-04-11T10:38:35.001Z</time></trkpt><trkpt lat="45.64807347391231" lon="10.346382211523247"><ele>624.6</ele><time>2026-04-11T10:38:38.001Z</time></trkpt><trkpt lat="45.648070588070354" lon="10.346507090386211"><ele>625.2</ele><time>2026-04-11T10:38:40.001Z</time></trkpt><trkpt lat="45.64806916881037" lon="10.346639440933792"><ele>625.8000000000001</ele><time>2026-04-11T10:38:41.001Z</time></trkpt><trkpt lat="45.64809702284337" lon="10.346765877934436"><ele>626.4</ele><time>2026-04-11T10:38:42.001Z</time></trkpt><trkpt lat="45.64815409072975" lon="10.346911477914539"><ele>627.0</ele><time>2026-04-11T10:38:43.001Z</time></trkpt><trkpt lat="45.648179859441186" lon="10.347004937766561"><ele>627.0</ele><time>2026-04-11T10:38:44.001Z</time></trkpt><trkpt lat="45.648185936352796" lon="10.347118031021799"><ele>627.0</ele><time>2026-04-11T10:38:46.001Z</time></trkpt><trkpt lat="45.648194123500076" lon="10.346992376446481"><ele>627.0</ele><time>2026-04-11T10:38:54.001Z</time></trkpt><trkpt lat="45.648098382967724" lon="10.346881235093328"><ele>627.0</ele><time>2026-04-11T10:38:55.001Z</time></trkpt><trkpt lat="45.6480599787926" lon="10.34676674716383"><ele>627.0</ele><time>2026-04-11T10:38:56.001Z</time></trkpt><trkpt lat="45.64802978853054" lon="10.346673168638262"><ele>627.0</ele><time>2026-04-11T10:38:57.001Z</time></trkpt><trkpt lat="45.64801105269083" lon="10.346579628761333"><ele>627.0</ele><time>2026-04-11T10:38:58.001Z</time></trkpt><trkpt lat="45.648023146001904" lon="10.346485376781345"><ele>627.0</ele><time>2026-04-11T10:38:59.001Z</time></trkpt><trkpt lat="45.64800717222062" lon="10.34632549860191"><ele>627.0</ele><time>2026-04-11T10:39:01.001Z</time></trkpt><trkpt lat="45.64793063415988" lon="10.346188629955872"><ele>627.0</ele><time>2026-04-11T10:39:03.001Z</time></trkpt><trkpt lat="45.64793437363988" lon="10.346016846290205"><ele>626.5</ele><time>2026-04-11T10:39:05.001Z</time></trkpt><trkpt lat="45.64786872323517" lon="10.34588730629951"><ele>626.0</ele><time>2026-04-11T10:39:07.001Z</time></trkpt><trkpt lat="45.64781412236433" lon="10.34580340481347"><ele>625.5</ele><time>2026-04-11T10:39:08.001Z</time></trkpt><trkpt lat="45.64777882952309" lon="10.345721164176926"><ele>625.0</ele><time>2026-04-11T10:39:09.001Z</time></trkpt><trkpt lat="45.647756188887534" lon="10.345636679536918"><ele>624.5</ele><time>2026-04-11T10:39:10.001Z</time></trkpt><trkpt lat="45.64771501385437" lon="10.345540314321953"><ele>624.0</ele><time>2026-04-11T10:39:11.001Z</time></trkpt><trkpt lat="45.64766085861567" lon="10.345439806317255"><ele>616.75</ele><time>2026-04-11T10:39:12.001Z</time></trkpt><trkpt lat="45.647602147379885" lon="10.345300349064368"><ele>609.5</ele><time>2026-04-11T10:39:13.001Z</time></trkpt><trkpt lat="45.64753079271875" lon="10.345141586075716"><ele>602.25</ele><time>2026-04-11T10:39:14.001Z</time></trkpt><trkpt lat="45.64745189076586" lon="10.344983153973754"><ele>595.0</ele><time>2026-04-11T10:39:15.001Z</time></trkpt><trkpt lat="45.64737616065315" lon="10.344797921847897"><ele>598.3333333333334</ele><time>2026-04-11T10:39:16.001Z</time></trkpt><trkpt lat="45.647289377389896" lon="10.344622921368364"><ele>601.6666666666666</ele><time>2026-04-11T10:39:17.001Z</time></trkpt><trkpt lat="45.647199686749204" lon="10.34442385745368"><ele>605.0</ele><time>2026-04-11T10:39:18.001Z</time></trkpt><trkpt lat="45.64713014732656" lon="10.344232146156818"><ele>605.0</ele><time>2026-04-11T10:39:19.001Z</time></trkpt><trkpt lat="45.64710695254215" lon="10.344012788499626"><ele>605.0</ele><time>2026-04-11T10:39:20.001Z</time></trkpt><trkpt lat="45.64705344028487" lon="10.343834397464562"><ele>605.0</ele><time>2026-04-11T10:39:21.001Z</time></trkpt><trkpt lat="45.64700265126499" lon="10.343652308377832"><ele>605.0</ele><time>2026-04-11T10:39:22.001Z</time></trkpt><trkpt lat="45.64695487305498" lon="10.343466442503715"><ele>599.25</ele><time>2026-04-11T10:39:23.001Z</time></trkpt><trkpt lat="45.64690911143248" lon="10.343271245517087"><ele>593.5</ele><time>2026-04-11T10:39:24.001Z</time></trkpt><trkpt lat="45.646865521476684" lon="10.343084304639808"><ele>587.75</ele><time>2026-04-11T10:39:25.001Z</time></trkpt><trkpt lat="45.64682132787723" lon="10.342889975754245"><ele>582.0</ele><time>2026-04-11T10:39:26.001Z</time></trkpt><trkpt lat="45.646779715481124" lon="10.342709886698154"><ele>582.0</ele><time>2026-04-11T10:39:27.001Z</time></trkpt><trkpt lat="45.64673801579529" lon="10.342532727776147"><ele>582.0</ele><time>2026-04-11T10:39:28.001Z</time></trkpt><trkpt lat="45.646697844054074" lon="10.342359569180877"><ele>582.0</ele><time>2026-04-11T10:39:29.001Z</time></trkpt><trkpt lat="45.64666420655335" lon="10.342204060560746"><ele>582.0</ele><time>2026-04-11T10:39:30.001Z</time></trkpt><trkpt lat="45.64661327237102" lon="10.342070544843615"><ele>582.4</ele><time>2026-04-11T10:39:31.001Z</time></trkpt><trkpt lat="45.64656282229524" lon="10.341953681390663"><ele>582.8000000000001</ele><time>2026-04-11T10:39:32.001Z</time></trkpt><trkpt lat="45.64648357674214" lon="10.341878016905083"><ele>583.2</ele><time>2026-04-11T10:39:33.001Z</time></trkpt><trkpt lat="45.64638961655852" lon="10.341840211228355"><ele>583.6</ele><time>2026-04-11T10:39:34.001Z</time></trkpt><trkpt lat="45.64628637683657" lon="10.34188071737731"><ele>584.0</ele><time>2026-04-11T10:39:35.001Z</time></trkpt><trkpt lat="45.64619972858704" lon="10.341956396485864"><ele>584.0</ele><time>2026-04-11T10:39:36.001Z</time></trkpt><trkpt lat="45.64613794259249" lon="10.342071677389146"><ele>584.0</ele><time>2026-04-11T10:39:37.001Z</time></trkpt><trkpt lat="45.64611209760527" lon="10.342246235790704"><ele>584.0</ele><time>2026-04-11T10:39:38.001Z</time></trkpt><trkpt lat="45.64612160289509" lon="10.342423353549"><ele>584.0</ele><time>2026-04-11T10:39:39.001Z</time></trkpt><trkpt lat="45.64617010734118" lon="10.342601583801121"><ele>583.5</ele><time>2026-04-11T10:39:40.001Z</time></trkpt><trkpt lat="45.646224643311285" lon="10.342789021105364"><ele>583.0</ele><time>2026-04-11T10:39:41.001Z</time></trkpt><trkpt lat="45.64625739131561" lon="10.342954382674163"><ele>582.5</ele><time>2026-04-11T10:39:42.001Z</time></trkpt><trkpt lat="45.64628869420417" lon="10.343112428142653"><ele>582.0</ele><time>2026-04-11T10:39:43.001Z</time></trkpt><trkpt lat="45.64632423571358" lon="10.34325650446322"><ele>582.0</ele><time>2026-04-11T10:39:44.001Z</time></trkpt><trkpt lat="45.646353451338655" lon="10.343408543694851"><ele>582.0</ele><time>2026-04-11T10:39:45.001Z</time></trkpt><trkpt lat="45.6463887459823" lon="10.343553715807001"><ele>582.0</ele><time>2026-04-11T10:39:46.002Z</time></trkpt><trkpt lat="45.64642514262721" lon="10.3436835997833"><ele>582.0</ele><time>2026-04-11T10:39:47.002Z</time></trkpt><trkpt lat="45.64645744950352" lon="10.343795024943347"><ele>582.0</ele><time>2026-04-11T10:39:48.002Z</time></trkpt><trkpt lat="45.6464840586989" lon="10.343899177864948"><ele>581.3333333333334</ele><time>2026-04-11T10:39:49.002Z</time></trkpt><trkpt lat="45.646497609208325" lon="10.343998883484822"><ele>580.6666666666666</ele><time>2026-04-11T10:39:50Z</time></trkpt><trkpt lat="45.64652583407287" lon="10.344095544620203"><ele>580.0</ele><time>2026-04-11T10:39:51Z</time></trkpt><trkpt lat="45.64655659906266" lon="10.344218875017765"><ele>579.3333333333333</ele><time>2026-04-11T10:39:52Z</time></trkpt><trkpt lat="45.64658990621146" lon="10.344352396457303"><ele>578.6666666666666</ele><time>2026-04-11T10:39:53Z</time></trkpt><trkpt lat="45.64661734248698" lon="10.344462382794573"><ele>578.0</ele><time>2026-04-11T10:39:54Z</time></trkpt><trkpt lat="45.646650367680245" lon="10.344594773975537"><ele>575.4</ele><time>2026-04-11T10:39:55Z</time></trkpt><trkpt lat="45.64668038420528" lon="10.344715096449724"><ele>572.8</ele><time>2026-04-11T10:39:56Z</time></trkpt><trkpt lat="45.64670949973046" lon="10.344832902794677"><ele>570.2</ele><time>2026-04-11T10:39:57Z</time></trkpt><trkpt lat="45.64674020971902" lon="10.344957160583633"><ele>567.6</ele><time>2026-04-11T10:39:58Z</time></trkpt><trkpt lat="45.64677074248397" lon="10.345080701349591"><ele>565.0</ele><time>2026-04-11T10:39:59Z</time></trkpt><trkpt lat="45.6468026100574" lon="10.34520964286336"><ele>565.0</ele><time>2026-04-11T10:40:00Z</time></trkpt><trkpt lat="45.64683026735364" lon="10.34532154894581"><ele>565.0</ele><time>2026-04-11T10:40:01Z</time></trkpt><trkpt lat="45.64685829160178" lon="10.345434939797272"><ele>565.0</ele><time>2026-04-11T10:40:02Z</time></trkpt><trkpt lat="45.64688508337046" lon="10.345543343867092"><ele>565.0</ele><time>2026-04-11T10:40:03Z</time></trkpt><trkpt lat="45.6469075735728" lon="10.345634359323457"><ele>565.0</ele><time>2026-04-11T10:40:04Z</time></trkpt><trkpt lat="45.646935149102816" lon="10.345746049361384"><ele>565.0</ele><time>2026-04-11T10:40:06Z</time></trkpt><trkpt lat="45.64675188308231" lon="10.345754387393798"><ele>565.0</ele><time>2026-04-11T10:40:09Z</time></trkpt><trkpt lat="45.64669051771699" lon="10.345607810035526"><ele>565.0</ele><time>2026-04-11T10:40:11Z</time></trkpt><trkpt lat="45.64667307525992" lon="10.345507625147363"><ele>565.0</ele><time>2026-04-11T10:40:12Z</time></trkpt><trkpt lat="45.646611603816865" lon="10.345383133824866"><ele>565.0</ele><time>2026-04-11T10:40:14Z</time></trkpt><trkpt lat="45.64653866753692" lon="10.345432160900272"><ele>565.0</ele><time>2026-04-11T10:40:17Z</time></trkpt><trkpt lat="45.64654506857332" lon="10.345626893682496"><ele>563.1666666666667</ele><time>2026-04-11T10:40:20Z</time></trkpt><trkpt lat="45.64653724851597" lon="10.345762028862564"><ele>561.3333333333334</ele><time>2026-04-11T10:40:21Z</time></trkpt><trkpt lat="45.64654844790614" lon="10.34591383731177"><ele>559.5</ele><time>2026-04-11T10:40:22Z</time></trkpt><trkpt lat="45.64657412065396" lon="10.346019695664205"><ele>557.6666666666666</ele><time>2026-04-11T10:40:23Z</time></trkpt><trkpt lat="45.64661740489924" lon="10.3460999694502"><ele>555.8333333333333</ele><time>2026-04-11T10:40:24Z</time></trkpt><trkpt lat="45.646669916989055" lon="10.346197907260406"><ele>554.0</ele><time>2026-04-11T10:40:25Z</time></trkpt><trkpt lat="45.64669852620916" lon="10.346312663779683"><ele>551.1666666666666</ele><time>2026-04-11T10:40:26Z</time></trkpt><trkpt lat="45.646720748298556" lon="10.346428639838535"><ele>548.3333333333333</ele><time>2026-04-11T10:40:27Z</time></trkpt><trkpt lat="45.64672806701856" lon="10.346530252252"><ele>545.5</ele><time>2026-04-11T10:40:28Z</time></trkpt><trkpt lat="45.64675946668406" lon="10.34663711723382"><ele>542.6666666666666</ele><time>2026-04-11T10:40:29Z</time></trkpt><trkpt lat="45.64680357595105" lon="10.346729419548053"><ele>539.8333333333334</ele><time>2026-04-11T10:40:30Z</time></trkpt><trkpt lat="45.64684880159239" lon="10.346800184981692"><ele>537.0</ele><time>2026-04-11T10:40:31Z</time></trkpt><trkpt lat="45.64686095419729" lon="10.346903363953194"><ele>537.0</ele><time>2026-04-11T10:40:33Z</time></trkpt><trkpt lat="45.64678918719019" lon="10.346899280240114"><ele>537.0</ele><time>2026-04-11T10:40:35Z</time></trkpt><trkpt lat="45.64669209579613" lon="10.346781261374442"><ele>537.0</ele><time>2026-04-11T10:40:37Z</time></trkpt><trkpt lat="45.646631024439884" lon="10.346678928590373"><ele>537.0</ele><time>2026-04-11T10:40:38Z</time></trkpt><trkpt lat="45.64657243418982" lon="10.34659125330447"><ele>537.0</ele><time>2026-04-11T10:40:39Z</time></trkpt><trkpt lat="45.64654172943809" lon="10.34648552253014"><ele>537.0</ele><time>2026-04-11T10:40:40.001Z</time></trkpt><trkpt lat="45.646541660381864" lon="10.346341988610682"><ele>537.0</ele><time>2026-04-11T10:40:42.001Z</time></trkpt><trkpt lat="45.646471751518106" lon="10.3463652810244"><ele>537.0</ele><time>2026-04-11T10:40:44.001Z</time></trkpt><trkpt lat="45.646456632241616" lon="10.34646848318721"><ele>537.0</ele><time>2026-04-11T10:40:46.001Z</time></trkpt><trkpt lat="45.646501151094064" lon="10.346625662725979"><ele>537.0</ele><time>2026-04-11T10:40:48.001Z</time></trkpt><trkpt lat="45.646536430833045" lon="10.34677584735649"><ele>537.0</ele><time>2026-04-11T10:40:49.001Z</time></trkpt><trkpt lat="45.64657077179565" lon="10.34694037502113"><ele>537.0</ele><time>2026-04-11T10:40:50.001Z</time></trkpt><trkpt lat="45.64660473344635" lon="10.347076204048703"><ele>537.0</ele><time>2026-04-11T10:40:51.001Z</time></trkpt><trkpt lat="45.64664093096104" lon="10.347209014632547"><ele>537.0</ele><time>2026-04-11T10:40:52.001Z</time></trkpt><trkpt lat="45.64666919386238" lon="10.34734367747408"><ele>537.0</ele><time>2026-04-11T10:40:53.001Z</time></trkpt><trkpt lat="45.646695045861584" lon="10.347457555195213"><ele>535.8333333333334</ele><time>2026-04-11T10:40:54.001Z</time></trkpt><trkpt lat="45.646715427744745" lon="10.347545950427811"><ele>534.6666666666666</ele><time>2026-04-11T10:40:55.001Z</time></trkpt><trkpt lat="45.64671031727958" lon="10.347639108341411"><ele>533.5</ele><time>2026-04-11T10:40:58.001Z</time></trkpt><trkpt lat="45.64662667272665" lon="10.347593281734067"><ele>532.3333333333333</ele><time>2026-04-11T10:41:00.001Z</time></trkpt><trkpt lat="45.646598147225596" lon="10.3475096549351"><ele>531.1666666666666</ele><time>2026-04-11T10:41:01.001Z</time></trkpt><trkpt lat="45.64655797481375" lon="10.347410322977602"><ele>530.0</ele><time>2026-04-11T10:41:02.001Z</time></trkpt><trkpt lat="45.646448923817765" lon="10.347316336685678"><ele>530.0</ele><time>2026-04-11T10:41:04.001Z</time></trkpt><trkpt lat="45.6464238774557" lon="10.347223187627279"><ele>530.0</ele><time>2026-04-11T10:41:05.001Z</time></trkpt><trkpt lat="45.64635028974586" lon="10.347066905939624"><ele>530.0</ele><time>2026-04-11T10:41:07.001Z</time></trkpt><trkpt lat="45.64629009540694" lon="10.346974431250075"><ele>530.0</ele><time>2026-04-11T10:41:08.001Z</time></trkpt><trkpt lat="45.64622771936209" lon="10.34682098755965"><ele>530.0</ele><time>2026-04-11T10:41:10.001Z</time></trkpt><trkpt lat="45.646244430811294" lon="10.346678836954867"><ele>531.0</ele><time>2026-04-11T10:41:11.001Z</time></trkpt><trkpt lat="45.646266677963375" lon="10.346524440321696"><ele>532.0</ele><time>2026-04-11T10:41:12.001Z</time></trkpt><trkpt lat="45.64628016004932" lon="10.346433000356585"><ele>533.0</ele><time>2026-04-11T10:41:13.001Z</time></trkpt><trkpt lat="45.64625739967622" lon="10.346270893007746"><ele>534.0</ele><time>2026-04-11T10:41:15.001Z</time></trkpt><trkpt lat="45.64622401619558" lon="10.346173123767526"><ele>535.0</ele><time>2026-04-11T10:41:16.001Z</time></trkpt><trkpt lat="45.64618809101311" lon="10.346083458076153"><ele>536.0</ele><time>2026-04-11T10:41:17.001Z</time></trkpt><trkpt lat="45.64612358822386" lon="10.34594442866215"><ele>536.0</ele><time>2026-04-11T10:41:19.001Z</time></trkpt><trkpt lat="45.64603280765781" lon="10.345905506044902"><ele>536.0</ele><time>2026-04-11T10:41:21.001Z</time></trkpt><trkpt lat="45.645940162180445" lon="10.345857355811857"><ele>536.0</ele><time>2026-04-11T10:41:25.001Z</time></trkpt><trkpt lat="45.64588609544795" lon="10.345768634680828"><ele>536.0</ele><time>2026-04-11T10:41:28.001Z</time></trkpt><trkpt lat="45.64583635273467" lon="10.345676690335901"><ele>536.0</ele><time>2026-04-11T10:41:29.001Z</time></trkpt><trkpt lat="45.6457640561272" lon="10.345540686515575"><ele>536.5</ele><time>2026-04-11T10:41:30.001Z</time></trkpt><trkpt lat="45.64570037157848" lon="10.34541316989458"><ele>537.0</ele><time>2026-04-11T10:41:31.001Z</time></trkpt><trkpt lat="45.64565370515727" lon="10.345346947954347"><ele>537.5</ele><time>2026-04-11T10:41:33.001Z</time></trkpt><trkpt lat="45.64559795929117" lon="10.345269407276447"><ele>538.0</ele><time>2026-04-11T10:41:34.001Z</time></trkpt><trkpt lat="45.64551787411622" lon="10.345170521933088"><ele>538.5</ele><time>2026-04-11T10:41:36.001Z</time></trkpt><trkpt lat="45.645453958576255" lon="10.345113867825182"><ele>539.0</ele><time>2026-04-11T10:41:39.001Z</time></trkpt><trkpt lat="45.64538961220013" lon="10.345050164078025"><ele>539.0</ele><time>2026-04-11T10:41:43.001Z</time></trkpt><trkpt lat="45.645327353350865" lon="10.3450044982337"><ele>539.0</ele><time>2026-04-11T10:41:45.001Z</time></trkpt><trkpt lat="45.64524832471633" lon="10.344926187654298"><ele>539.0</ele><time>2026-04-11T10:42:03Z</time></trkpt><trkpt lat="45.64522676943818" lon="10.344817638041176"><ele>539.0</ele><time>2026-04-11T10:42:05Z</time></trkpt><trkpt lat="45.645232330961036" lon="10.344727382488715"><ele>539.0</ele><time>2026-04-11T10:42:07Z</time></trkpt><trkpt lat="45.64523910172326" lon="10.344607668905613"><ele>539.0</ele><time>2026-04-11T10:42:09Z</time></trkpt><trkpt lat="45.64522745757612" lon="10.344498238021119"><ele>540.5</ele><time>2026-04-11T10:42:16Z</time></trkpt><trkpt lat="45.64518539127188" lon="10.344412200882426"><ele>542.0</ele><time>2026-04-11T10:42:19Z</time></trkpt><trkpt lat="45.64513043050012" lon="10.3443349558098"><ele>543.5</ele><time>2026-04-11T10:42:22Z</time></trkpt><trkpt lat="45.64508850972338" lon="10.344234133471382"><ele>545.0</ele><time>2026-04-11T10:42:25Z</time></trkpt><trkpt lat="45.64508887366128" lon="10.34412778369382"><ele>546.5</ele><time>2026-04-11T10:42:26Z</time></trkpt><trkpt lat="45.64512892168718" lon="10.343989698080534"><ele>548.0</ele><time>2026-04-11T10:42:28Z</time></trkpt><trkpt lat="45.64517037073177" lon="10.3438799777401"><ele>549.1666666666666</ele><time>2026-04-11T10:42:31Z</time></trkpt><trkpt lat="45.64515621110055" lon="10.343791782959595"><ele>550.3333333333333</ele><time>2026-04-11T10:42:35Z</time></trkpt><trkpt lat="45.645107999137096" lon="10.343692891405567"><ele>551.5</ele><time>2026-04-11T10:42:40Z</time></trkpt><trkpt lat="45.645054062132374" lon="10.34362126140707"><ele>552.6666666666666</ele><time>2026-04-11T10:42:43Z</time></trkpt><trkpt lat="45.64498502487382" lon="10.34353659069048"><ele>553.8333333333334</ele><time>2026-04-11T10:42:45Z</time></trkpt><trkpt lat="45.644934170980044" lon="10.343455690758743"><ele>555.0</ele><time>2026-04-11T10:42:48.001Z</time></trkpt><trkpt lat="45.64489178467295" lon="10.343386717774152"><ele>555.0</ele><time>2026-04-11T10:42:50.001Z</time></trkpt><trkpt lat="45.64483802710856" lon="10.343299617601565"><ele>555.0</ele><time>2026-04-11T10:42:52.001Z</time></trkpt><trkpt lat="45.64476055788172" lon="10.343167972892848"><ele>555.0</ele><time>2026-04-11T10:42:54.001Z</time></trkpt><trkpt lat="45.644714949080736" lon="10.343080648642054"><ele>555.0</ele><time>2026-04-11T10:42:55.001Z</time></trkpt><trkpt lat="45.64466263761985" lon="10.342994552070556"><ele>555.0</ele><time>2026-04-11T10:42:57.001Z</time></trkpt><trkpt lat="45.644607320572526" lon="10.342856433157685"><ele>555.4</ele><time>2026-04-11T10:42:59.001Z</time></trkpt><trkpt lat="45.644560439382616" lon="10.342728569467477"><ele>555.8</ele><time>2026-04-11T10:43:01.001Z</time></trkpt><trkpt lat="45.644515138582676" lon="10.342599709518593"><ele>556.2</ele><time>2026-04-11T10:43:03.001Z</time></trkpt><trkpt lat="45.6444728973342" lon="10.342478849919123"><ele>556.6</ele><time>2026-04-11T10:43:05.001Z</time></trkpt><trkpt lat="45.6444441972062" lon="10.342389063347666"><ele>557.0</ele><time>2026-04-11T10:43:07.001Z</time></trkpt><trkpt lat="45.64439944453966" lon="10.342273432780372"><ele>558.1666666666666</ele><time>2026-04-11T10:43:09.001Z</time></trkpt><trkpt lat="45.64436023733961" lon="10.342168589532095"><ele>559.3333333333333</ele><time>2026-04-11T10:43:11.001Z</time></trkpt><trkpt lat="45.64432304422746" lon="10.342041868517436"><ele>560.5</ele><time>2026-04-11T10:43:13.001Z</time></trkpt><trkpt lat="45.644281801113586" lon="10.341930093550314"><ele>561.6666666666666</ele><time>2026-04-11T10:43:14.001Z</time></trkpt><trkpt lat="45.64424000802551" lon="10.341810916639206"><ele>562.8333333333334</ele><time>2026-04-11T10:43:15.001Z</time></trkpt><trkpt lat="45.64420527754167" lon="10.341726825026925"><ele>564.0</ele><time>2026-04-11T10:43:16.001Z</time></trkpt><trkpt lat="45.64415575910203" lon="10.341561144034287"><ele>564.0</ele><time>2026-04-11T10:43:18.001Z</time></trkpt><trkpt lat="45.64413190319319" lon="10.34147660265339"><ele>564.0</ele><time>2026-04-11T10:43:19.001Z</time></trkpt><trkpt lat="45.644092594776325" lon="10.341340938100917"><ele>564.0</ele><time>2026-04-11T10:43:21.001Z</time></trkpt><trkpt lat="45.644039618384554" lon="10.341174640339444"><ele>564.0</ele><time>2026-04-11T10:43:23.001Z</time></trkpt><trkpt lat="45.64398727514739" lon="10.341013362025897"><ele>564.0</ele><time>2026-04-11T10:43:25.001Z</time></trkpt><trkpt lat="45.643947506088104" lon="10.340908184731926"><ele>565.5</ele><time>2026-04-11T10:43:26.001Z</time></trkpt><trkpt lat="45.643909852838796" lon="10.340793449539795"><ele>567.0</ele><time>2026-04-11T10:43:27.001Z</time></trkpt><trkpt lat="45.643874691827065" lon="10.340652614708658"><ele>568.5</ele><time>2026-04-11T10:43:29.001Z</time></trkpt><trkpt lat="45.64386260190131" lon="10.340541065168036"><ele>570.0</ele><time>2026-04-11T10:43:32.001Z</time></trkpt><trkpt lat="45.6438692659039" lon="10.34043063500287"><ele>571.5</ele><time>2026-04-11T10:43:35.001Z</time></trkpt><trkpt lat="45.64384350659601" lon="10.340331056349443"><ele>573.0</ele><time>2026-04-11T10:43:37.001Z</time></trkpt><trkpt lat="45.6438234052354" lon="10.34018871776466"><ele>574.8333333333334</ele><time>2026-04-11T10:43:40.001Z</time></trkpt><trkpt lat="45.643814694481414" lon="10.340062971117895"><ele>576.6666666666666</ele><time>2026-04-11T10:43:42.001Z</time></trkpt><trkpt lat="45.64381012574617" lon="10.339954854836181"><ele>578.5</ele><time>2026-04-11T10:43:44.001Z</time></trkpt><trkpt lat="45.64379354590831" lon="10.33983917046398"><ele>580.3333333333333</ele><time>2026-04-11T10:43:46.001Z</time></trkpt><trkpt lat="45.643765216958315" lon="10.339714719259433"><ele>582.1666666666666</ele><time>2026-04-11T10:43:48.001Z</time></trkpt><trkpt lat="45.64375171078939" lon="10.339625108834118"><ele>584.0</ele><time>2026-04-11T10:43:50.001Z</time></trkpt><trkpt lat="45.64376591470046" lon="10.339501304643015"><ele>584.0</ele><time>2026-04-11T10:43:54.001Z</time></trkpt><trkpt lat="45.64387844874257" lon="10.339500756863307"><ele>584.0</ele><time>2026-04-11T10:43:56.001Z</time></trkpt><trkpt lat="45.64394867540327" lon="10.339573481265504"><ele>584.0</ele><time>2026-04-11T10:43:59.001Z</time></trkpt><trkpt lat="45.644006074465274" lon="10.33964402623067"><ele>584.0</ele><time>2026-04-11T10:44:00.001Z</time></trkpt><trkpt lat="45.64406683907953" lon="10.33975022123656"><ele>584.0</ele><time>2026-04-11T10:44:02Z</time></trkpt><trkpt lat="45.64409828425583" lon="10.339847424593893"><ele>584.0</ele><time>2026-04-11T10:44:03Z</time></trkpt><trkpt lat="45.644114430516886" lon="10.339952717432572"><ele>584.0</ele><time>2026-04-11T10:44:04Z</time></trkpt><trkpt lat="45.64413171893295" lon="10.34009908149233"><ele>584.0</ele><time>2026-04-11T10:44:07Z</time></trkpt><trkpt lat="45.64415721901128" lon="10.340203742506697"><ele>584.0</ele><time>2026-04-11T10:44:09Z</time></trkpt><trkpt lat="45.64420393663509" lon="10.340286945054961"><ele>584.0</ele><time>2026-04-11T10:44:11Z</time></trkpt><trkpt lat="45.644275758773745" lon="10.34034392199355"><ele>584.0</ele><time>2026-04-11T10:44:13Z</time></trkpt><trkpt lat="45.64436356203086" lon="10.340400158193532"><ele>584.0</ele><time>2026-04-11T10:44:15Z</time></trkpt><trkpt lat="45.64442440030485" lon="10.340444760657459"><ele>585.4</ele><time>2026-04-11T10:44:17Z</time></trkpt><trkpt lat="45.64454905242191" lon="10.34047504807044"><ele>586.8</ele><time>2026-04-11T10:44:19Z</time></trkpt><trkpt lat="45.6446196254605" lon="10.340488221225247"><ele>588.2</ele><time>2026-04-11T10:44:20Z</time></trkpt><trkpt lat="45.6447210426492" lon="10.340490026018152"><ele>589.6</ele><time>2026-04-11T10:44:22Z</time></trkpt><trkpt lat="45.64484620007538" lon="10.340462495441015"><ele>591.0</ele><time>2026-04-11T10:44:24Z</time></trkpt><trkpt lat="45.64493326273148" lon="10.340416005871303"><ele>591.0</ele><time>2026-04-11T10:44:26Z</time></trkpt><trkpt lat="45.64499713667063" lon="10.340336864545636"><ele>591.0</ele><time>2026-04-11T10:44:28Z</time></trkpt><trkpt lat="45.64502760571823" lon="10.340188905102718"><ele>591.0</ele><time>2026-04-11T10:44:30Z</time></trkpt><trkpt lat="45.64504977480971" lon="10.340096855431907"><ele>591.0</ele><time>2026-04-11T10:44:31Z</time></trkpt><trkpt lat="45.64507984181891" lon="10.339988420811784"><ele>591.0</ele><time>2026-04-11T10:44:32Z</time></trkpt><trkpt lat="45.64510735638606" lon="10.3398893625615"><ele>591.0</ele><time>2026-04-11T10:44:33Z</time></trkpt><trkpt lat="45.64514271488407" lon="10.339813409829159"><ele>591.0</ele><time>2026-04-11T10:44:34Z</time></trkpt><trkpt lat="45.64518280304946" lon="10.339738156457258"><ele>591.0</ele><time>2026-04-11T10:44:35Z</time></trkpt><trkpt lat="45.64525810284645" lon="10.339559906524862"><ele>591.0</ele><time>2026-04-11T10:44:37Z</time></trkpt><trkpt lat="45.64531270468458" lon="10.339465894119446"><ele>591.0</ele><time>2026-04-11T10:44:38Z</time></trkpt><trkpt lat="45.64533271203584" lon="10.339322349983332"><ele>591.0</ele><time>2026-04-11T10:44:39Z</time></trkpt><trkpt lat="45.64536143207802" lon="10.339168942035657"><ele>590.5</ele><time>2026-04-11T10:44:40Z</time></trkpt><trkpt lat="45.64535993885898" lon="10.339066044142358"><ele>590.0</ele><time>2026-04-11T10:44:41Z</time></trkpt><trkpt lat="45.645359517531084" lon="10.338968561701812"><ele>589.5</ele><time>2026-04-11T10:44:42Z</time></trkpt><trkpt lat="45.64535649837007" lon="10.33887643963024"><ele>589.0</ele><time>2026-04-11T10:44:43Z</time></trkpt><trkpt lat="45.64532693148472" lon="10.338737443171643"><ele>588.5</ele><time>2026-04-11T10:44:45Z</time></trkpt><trkpt lat="45.64538902799742" lon="10.338654699791666"><ele>588.0</ele><time>2026-04-11T10:44:47Z</time></trkpt><trkpt lat="45.64536543652906" lon="10.338550605061016"><ele>589.6666666666666</ele><time>2026-04-11T10:44:49Z</time></trkpt><trkpt lat="45.64529597336865" lon="10.338405011780804"><ele>591.3333333333334</ele><time>2026-04-11T10:44:51.001Z</time></trkpt><trkpt lat="45.64533952616605" lon="10.338339069509368"><ele>593.0</ele><time>2026-04-11T10:44:53.001Z</time></trkpt><trkpt lat="45.64540307744755" lon="10.338332321812313"><ele>594.6666666666667</ele><time>2026-04-11T10:44:55.001Z</time></trkpt><trkpt lat="45.64550944938552" lon="10.33834435527912"><ele>596.3333333333334</ele><time>2026-04-11T10:44:57.001Z</time></trkpt><trkpt lat="45.64554348288593" lon="10.338436260605718"><ele>598.0</ele><time>2026-04-11T10:45:01.001Z</time></trkpt><trkpt lat="45.645599769710174" lon="10.338484132173727"><ele>598.0</ele><time>2026-04-11T10:45:02.001Z</time></trkpt><trkpt lat="45.645681588399505" lon="10.33861301226605"><ele>598.0</ele><time>2026-04-11T10:45:04.001Z</time></trkpt><trkpt lat="45.64579453334114" lon="10.338671418879745"><ele>598.0</ele><time>2026-04-11T10:45:06.001Z</time></trkpt><trkpt lat="45.64587518566619" lon="10.338727909661761"><ele>598.0</ele><time>2026-04-11T10:45:07.001Z</time></trkpt><trkpt lat="45.64594495830874" lon="10.338768763320406"><ele>598.0</ele><time>2026-04-11T10:45:08.001Z</time></trkpt><trkpt lat="45.64604897173394" lon="10.338909558133006"><ele>601.8333333333334</ele><time>2026-04-11T10:45:10.001Z</time></trkpt><trkpt lat="45.64613285723418" lon="10.338881203474779"><ele>605.6666666666667</ele><time>2026-04-11T10:45:12.001Z</time></trkpt><trkpt lat="45.64621611944976" lon="10.33883833404951"><ele>609.5</ele><time>2026-04-11T10:45:16.001Z</time></trkpt><trkpt lat="45.64630171132855" lon="10.338787354788186"><ele>613.3333333333334</ele><time>2026-04-11T10:45:17.001Z</time></trkpt><trkpt lat="45.64636362710004" lon="10.338765169797506"><ele>617.1666666666666</ele><time>2026-04-11T10:45:19.001Z</time></trkpt><trkpt lat="45.64644198560816" lon="10.338755808385583"><ele>621.0</ele><time>2026-04-11T10:45:21.001Z</time></trkpt><trkpt lat="45.64650544771754" lon="10.338752482500254"><ele>621.0</ele><time>2026-04-11T10:45:23.001Z</time></trkpt><trkpt lat="45.64661171493206" lon="10.338809557082753"><ele>621.0</ele><time>2026-04-11T10:45:25.001Z</time></trkpt><trkpt lat="45.646679805867514" lon="10.33888646058572"><ele>621.0</ele><time>2026-04-11T10:45:28.001Z</time></trkpt><trkpt lat="45.64679940718798" lon="10.338932412982079"><ele>621.0</ele><time>2026-04-11T10:45:33.001Z</time></trkpt><trkpt lat="45.64690897513322" lon="10.338982848484967"><ele>621.0</ele><time>2026-04-11T10:45:37.001Z</time></trkpt><trkpt lat="45.646981563297295" lon="10.338997629307553"><ele>621.2</ele><time>2026-04-11T10:45:41.001Z</time></trkpt><trkpt lat="45.64704806777573" lon="10.339043640650889"><ele>621.4000000000001</ele><time>2026-04-11T10:45:48.001Z</time></trkpt><trkpt lat="45.64710476145688" lon="10.339117701519815"><ele>621.6</ele><time>2026-04-11T10:47:29.001Z</time></trkpt><trkpt lat="45.647199503884394" lon="10.339202934470869"><ele>621.8000000000001</ele><time>2026-04-11T10:48:46Z</time></trkpt><trkpt lat="45.64729431126697" lon="10.339332852416268"><ele>622.0</ele><time>2026-04-11T10:48:48Z</time></trkpt><trkpt lat="45.64736798715067" lon="10.33942830856848"><ele>622.0</ele><time>2026-04-11T10:48:49Z</time></trkpt><trkpt lat="45.64741600637017" lon="10.339503336996346"><ele>622.0</ele><time>2026-04-11T10:48:50Z</time></trkpt><trkpt lat="45.64746971703933" lon="10.339570985429905"><ele>622.0</ele><time>2026-04-11T10:48:51Z</time></trkpt><trkpt lat="45.64752166971013" lon="10.339648588864303"><ele>622.0</ele><time>2026-04-11T10:48:52Z</time></trkpt><trkpt lat="45.64761323391586" lon="10.339748665919656"><ele>622.0</ele><time>2026-04-11T10:48:54Z</time></trkpt><trkpt lat="45.647701377539434" lon="10.33981659769358"><ele>622.0</ele><time>2026-04-11T10:48:56Z</time></trkpt><trkpt lat="45.64773574903197" lon="10.339733155623465"><ele>620.8000000000001</ele><time>2026-04-11T10:48:57Z</time></trkpt><trkpt lat="45.647846836509565" lon="10.339718211432917"><ele>619.6</ele><time>2026-04-11T10:49:00Z</time></trkpt><trkpt lat="45.64794946449539" lon="10.339606153138153"><ele>618.4000000000001</ele><time>2026-04-11T10:49:02Z</time></trkpt><trkpt lat="45.64803961750572" lon="10.33959510334937"><ele>617.2</ele><time>2026-04-11T10:49:04.001Z</time></trkpt><trkpt lat="45.648121327418" lon="10.339678981447351"><ele>616.0</ele><time>2026-04-11T10:49:05.001Z</time></trkpt><trkpt lat="45.6482108767748" lon="10.33972648687796"><ele>616.0</ele><time>2026-04-11T10:49:07.001Z</time></trkpt><trkpt lat="45.64827890215638" lon="10.339738398839218"><ele>616.0</ele><time>2026-04-11T10:49:08.001Z</time></trkpt><trkpt lat="45.648343203966014" lon="10.339691226116365"><ele>616.0</ele><time>2026-04-11T10:49:09.001Z</time></trkpt><trkpt lat="45.648361172765426" lon="10.33960144160932"><ele>616.0</ele><time>2026-04-11T10:49:10.001Z</time></trkpt><trkpt lat="45.64835395964907" lon="10.339484847246089"><ele>616.0</ele><time>2026-04-11T10:49:11.001Z</time></trkpt><trkpt lat="45.64834385125511" lon="10.339375593654774"><ele>616.0</ele><time>2026-04-11T10:49:12.001Z</time></trkpt><trkpt lat="45.648294644357655" lon="10.339301260461438"><ele>616.0</ele><time>2026-04-11T10:49:13.001Z</time></trkpt><trkpt lat="45.64821085413418" lon="10.339281903933454"><ele>619.2</ele><time>2026-04-11T10:49:14.001Z</time></trkpt><trkpt lat="45.648117955230425" lon="10.339254252083622"><ele>622.4000000000001</ele><time>2026-04-11T10:49:15.001Z</time></trkpt><trkpt lat="45.648050182229724" lon="10.339190360936074"><ele>625.6</ele><time>2026-04-11T10:49:16.001Z</time></trkpt><trkpt lat="45.64797175378127" lon="10.339078892243391"><ele>628.8000000000001</ele><time>2026-04-11T10:49:17.001Z</time></trkpt><trkpt lat="45.64789322954001" lon="10.33898986069177"><ele>632.0</ele><time>2026-04-11T10:49:18.001Z</time></trkpt><trkpt lat="45.64781198076011" lon="10.33888498030837"><ele>633.2</ele><time>2026-04-11T10:49:19.001Z</time></trkpt><trkpt lat="45.647739346090304" lon="10.338778699482438"><ele>634.4000000000001</ele><time>2026-04-11T10:49:20.001Z</time></trkpt><trkpt lat="45.6476620772178" lon="10.338701701105762"><ele>635.5999999999999</ele><time>2026-04-11T10:49:21.001Z</time></trkpt><trkpt lat="45.64756740313924" lon="10.338610469331794"><ele>636.8</ele><time>2026-04-11T10:49:22.001Z</time></trkpt><trkpt lat="45.647480705362376" lon="10.33851583261903"><ele>638.0</ele><time>2026-04-11T10:49:23.001Z</time></trkpt><trkpt lat="45.64739941708081" lon="10.338414810135882"><ele>638.0</ele><time>2026-04-11T10:49:24.001Z</time></trkpt><trkpt lat="45.647302781041574" lon="10.338312143583238"><ele>638.0</ele><time>2026-04-11T10:49:25.001Z</time></trkpt><trkpt lat="45.647221228429274" lon="10.338209074746523"><ele>638.0</ele><time>2026-04-11T10:49:26.001Z</time></trkpt><trkpt lat="45.64716828838715" lon="10.3381158789447"><ele>638.0</ele><time>2026-04-11T10:49:27.001Z</time></trkpt><trkpt lat="45.64709759707325" lon="10.337970531513166"><ele>638.0</ele><time>2026-04-11T10:49:28.001Z</time></trkpt><trkpt lat="45.64701939594245" lon="10.337861218598896"><ele>637.4</ele><time>2026-04-11T10:49:29.001Z</time></trkpt><trkpt lat="45.64694453749435" lon="10.337748160905132"><ele>636.8</ele><time>2026-04-11T10:49:30.001Z</time></trkpt><trkpt lat="45.6468871075584" lon="10.337636779376075"><ele>636.2</ele><time>2026-04-11T10:49:31.001Z</time></trkpt><trkpt lat="45.646899118731206" lon="10.337453260294197"><ele>635.6</ele><time>2026-04-11T10:49:32.001Z</time></trkpt><trkpt lat="45.64685568913184" lon="10.3373264669176"><ele>635.0</ele><time>2026-04-11T10:49:33.001Z</time></trkpt><trkpt lat="45.646821317099175" lon="10.3372177021981"><ele>637.4</ele><time>2026-04-11T10:49:34.001Z</time></trkpt><trkpt lat="45.64679153121638" lon="10.337093634541114"><ele>639.8</ele><time>2026-04-11T10:49:35.001Z</time></trkpt><trkpt lat="45.646740367596486" lon="10.336958043899132"><ele>642.2</ele><time>2026-04-11T10:49:36.001Z</time></trkpt><trkpt lat="45.64670977546274" lon="10.336839897445099"><ele>644.6</ele><time>2026-04-11T10:49:37.001Z</time></trkpt><trkpt lat="45.64669126807878" lon="10.336716399165269"><ele>647.0</ele><time>2026-04-11T10:49:38.001Z</time></trkpt><trkpt lat="45.64667213868786" lon="10.33660138091081"><ele>647.0</ele><time>2026-04-11T10:49:39.001Z</time></trkpt><trkpt lat="45.64666132769775" lon="10.336467582484852"><ele>647.0</ele><time>2026-04-11T10:49:40.001Z</time></trkpt><trkpt lat="45.64664918113409" lon="10.336355118897027"><ele>647.0</ele><time>2026-04-11T10:49:41.001Z</time></trkpt><trkpt lat="45.64663599869721" lon="10.336116257117023"><ele>647.0</ele><time>2026-04-11T10:49:43.001Z</time></trkpt><trkpt lat="45.64660965212209" lon="10.336023068836756"><ele>647.0</ele><time>2026-04-11T10:49:44.001Z</time></trkpt><trkpt lat="45.646565904570124" lon="10.335907265512143"><ele>647.75</ele><time>2026-04-11T10:49:45.001Z</time></trkpt><trkpt lat="45.64653032708395" lon="10.335827572577909"><ele>648.5</ele><time>2026-04-11T10:49:46.001Z</time></trkpt><trkpt lat="45.64651253559976" lon="10.335724069094196"><ele>649.25</ele><time>2026-04-11T10:49:47.001Z</time></trkpt><trkpt lat="45.64654556539985" lon="10.335607450826155"><ele>650.0</ele><time>2026-04-11T10:49:50.001Z</time></trkpt><trkpt lat="45.6462583599993" lon="10.335318172616581"><ele>650.0</ele><time>2026-04-11T10:49:53.001Z</time></trkpt><trkpt lat="45.64632291906447" lon="10.33519167898221"><ele>650.0</ele><time>2026-04-11T10:49:54.001Z</time></trkpt><trkpt lat="45.64637841512721" lon="10.335060063885825"><ele>650.0</ele><time>2026-04-11T10:49:55.001Z</time></trkpt><trkpt lat="45.64644194695515" lon="10.334949329896274"><ele>650.0</ele><time>2026-04-11T10:49:56.001Z</time></trkpt><trkpt lat="45.646519481244944" lon="10.334853566947025"><ele>650.0</ele><time>2026-04-11T10:49:57.001Z</time></trkpt><trkpt lat="45.646513710957315" lon="10.334728666009783"><ele>650.8</ele><time>2026-04-11T10:49:58.001Z</time></trkpt><trkpt lat="45.64647706500476" lon="10.334568882845781"><ele>651.6</ele><time>2026-04-11T10:50:00.001Z</time></trkpt><trkpt lat="45.64640755073454" lon="10.334513796276518"><ele>652.4000000000001</ele><time>2026-04-11T10:50:02.001Z</time></trkpt><trkpt lat="45.64633077718037" lon="10.334579760668682"><ele>653.2</ele><time>2026-04-11T10:50:03.001Z</time></trkpt><trkpt lat="45.64624414473715" lon="10.334613650600458"><ele>654.0</ele><time>2026-04-11T10:50:04.001Z</time></trkpt><trkpt lat="45.64616475531087" lon="10.334672117001322"><ele>650.5</ele><time>2026-04-11T10:50:05.001Z</time></trkpt><trkpt lat="45.64608868002916" lon="10.3347661776649"><ele>647.0</ele><time>2026-04-11T10:50:06.001Z</time></trkpt><trkpt lat="45.64602087364146" lon="10.33483865927619"><ele>643.5</ele><time>2026-04-11T10:50:07.001Z</time></trkpt><trkpt lat="45.645948071899625" lon="10.334876623330624"><ele>640.0</ele><time>2026-04-11T10:50:08.001Z</time></trkpt><trkpt lat="45.64584048360905" lon="10.334899863726475"><ele>636.5</ele><time>2026-04-11T10:50:09.001Z</time></trkpt><trkpt lat="45.64577571672857" lon="10.33488256691822"><ele>633.0</ele><time>2026-04-11T10:50:10.001Z</time></trkpt><trkpt lat="45.64570875712757" lon="10.334808884709908"><ele>633.0</ele><time>2026-04-11T10:50:11.001Z</time></trkpt><trkpt lat="45.64563858543474" lon="10.334762172083007"><ele>633.0</ele><time>2026-04-11T10:50:12.001Z</time></trkpt><trkpt lat="45.64558217190343" lon="10.334661440529455"><ele>633.0</ele><time>2026-04-11T10:50:13.001Z</time></trkpt><trkpt lat="45.64557868633273" lon="10.334510823351252"><ele>633.0</ele><time>2026-04-11T10:50:14.001Z</time></trkpt><trkpt lat="45.64550081822273" lon="10.334330834729355"><ele>633.0</ele><time>2026-04-11T10:50:15.001Z</time></trkpt><trkpt lat="45.645448690955185" lon="10.334190976427667"><ele>636.4</ele><time>2026-04-11T10:50:16.001Z</time></trkpt><trkpt lat="45.64540778698628" lon="10.334043051466994"><ele>639.8</ele><time>2026-04-11T10:50:17.001Z</time></trkpt><trkpt lat="45.645384434303786" lon="10.333889049603634"><ele>643.2</ele><time>2026-04-11T10:50:18.001Z</time></trkpt><trkpt lat="45.645390776378754" lon="10.333761954445553"><ele>646.6</ele><time>2026-04-11T10:50:19.001Z</time></trkpt><trkpt lat="45.64538440850109" lon="10.333601634071295"><ele>650.0</ele><time>2026-04-11T10:50:20Z</time></trkpt><trkpt lat="45.64537829085036" lon="10.333447613264447"><ele>652.8</ele><time>2026-04-11T10:50:21Z</time></trkpt><trkpt lat="45.64537341481545" lon="10.333324852103337"><ele>655.6</ele><time>2026-04-11T10:50:22Z</time></trkpt><trkpt lat="45.64536408376938" lon="10.3331615610349"><ele>658.4000000000001</ele><time>2026-04-11T10:50:23Z</time></trkpt><trkpt lat="45.64533520941299" lon="10.332962143454434"><ele>661.2</ele><time>2026-04-11T10:50:24Z</time></trkpt><trkpt lat="45.64531043924227" lon="10.332858769500385"><ele>664.0</ele><time>2026-04-11T10:50:25Z</time></trkpt><trkpt lat="45.64527781302076" lon="10.332772780965378"><ele>664.0</ele><time>2026-04-11T10:50:27Z</time></trkpt><trkpt lat="45.64480485889807" lon="10.333054549338327"><ele>662.0</ele><time>2026-04-11T10:50:28Z</time></trkpt><trkpt lat="45.644787347556765" lon="10.333167627323991"><ele>660.0</ele><time>2026-04-11T10:50:29Z</time></trkpt><trkpt lat="45.64477159819322" lon="10.333288431465219"><ele>658.0</ele><time>2026-04-11T10:50:30Z</time></trkpt><trkpt lat="45.64473570306405" lon="10.333391081403361"><ele>656.0</ele><time>2026-04-11T10:50:31Z</time></trkpt><trkpt lat="45.64470075849534" lon="10.333522089206099"><ele>654.0</ele><time>2026-04-11T10:50:32Z</time></trkpt><trkpt lat="45.64464346263547" lon="10.33364397398182"><ele>652.0</ele><time>2026-04-11T10:50:33Z</time></trkpt><trkpt lat="45.6445683560007" lon="10.333754830411639"><ele>652.0</ele><time>2026-04-11T10:50:34Z</time></trkpt><trkpt lat="45.64452870351431" lon="10.333881199104582"><ele>652.0</ele><time>2026-04-11T10:50:36Z</time></trkpt><trkpt lat="45.64456362640298" lon="10.333957705296116"><ele>652.0</ele><time>2026-04-11T10:50:37Z</time></trkpt><trkpt lat="45.64459086406411" lon="10.334062048687262"><ele>652.0</ele><time>2026-04-11T10:50:38Z</time></trkpt><trkpt lat="45.644608145020115" lon="10.334157649929326"><ele>652.0</ele><time>2026-04-11T10:50:39Z</time></trkpt><trkpt lat="45.64462028476492" lon="10.334299650976876"><ele>652.0</ele><time>2026-04-11T10:50:40Z</time></trkpt><trkpt lat="45.64461663568508" lon="10.334426215428023"><ele>650.4000000000001</ele><time>2026-04-11T10:50:41Z</time></trkpt><trkpt lat="45.64458980179055" lon="10.334554677334724"><ele>648.8000000000001</ele><time>2026-04-11T10:50:42Z</time></trkpt><trkpt lat="45.64456023756416" lon="10.334682551143251"><ele>647.2</ele><time>2026-04-11T10:50:43Z</time></trkpt><trkpt lat="45.64456011399768" lon="10.334811064602693"><ele>645.6</ele><time>2026-04-11T10:50:44Z</time></trkpt><trkpt lat="45.64455019068579" lon="10.334943003684806"><ele>644.0</ele><time>2026-04-11T10:50:45Z</time></trkpt><trkpt lat="45.64454914159371" lon="10.335056374017432"><ele>643.2</ele><time>2026-04-11T10:50:46Z</time></trkpt><trkpt lat="45.64451276323801" lon="10.335204048506393"><ele>642.4000000000001</ele><time>2026-04-11T10:50:48Z</time></trkpt><trkpt lat="45.644454953977345" lon="10.335326180687852"><ele>641.6</ele><time>2026-04-11T10:52:26Z</time></trkpt><trkpt lat="45.64435873949789" lon="10.335332660020999"><ele>640.8</ele><time>2026-04-11T10:52:28Z</time></trkpt><trkpt lat="45.6442512628825" lon="10.33532959510639"><ele>640.0</ele><time>2026-04-11T10:52:30Z</time></trkpt><trkpt lat="45.64418882761357" lon="10.33531806544585"><ele>645.4</ele><time>2026-04-11T10:52:31Z</time></trkpt><trkpt lat="45.64409878396085" lon="10.335211799020257"><ele>650.8</ele><time>2026-04-11T10:52:33Z</time></trkpt><trkpt lat="45.64404349990616" lon="10.335141643213264"><ele>656.2</ele><time>2026-04-11T10:52:34Z</time></trkpt><trkpt lat="45.643985962302175" lon="10.335041980838518"><ele>661.6</ele><time>2026-04-11T10:52:35Z</time></trkpt><trkpt lat="45.643925025899804" lon="10.334914341249934"><ele>667.0</ele><time>2026-04-11T10:52:36Z</time></trkpt><trkpt lat="45.643856047149505" lon="10.334815917737375"><ele>667.2</ele><time>2026-04-11T10:52:37Z</time></trkpt><trkpt lat="45.64380350461635" lon="10.334694959585926"><ele>667.4000000000001</ele><time>2026-04-11T10:52:38Z</time></trkpt><trkpt lat="45.643712985295785" lon="10.33458997984917"><ele>667.5999999999999</ele><time>2026-04-11T10:52:39Z</time></trkpt><trkpt lat="45.64364615107213" lon="10.334458700014917"><ele>667.8</ele><time>2026-04-11T10:52:40Z</time></trkpt><trkpt lat="45.64358858715983" lon="10.334364974314456"><ele>668.0</ele><time>2026-04-11T10:52:41Z</time></trkpt><trkpt lat="45.64353217596642" lon="10.33426252121167"><ele>668.0</ele><time>2026-04-11T10:52:42Z</time></trkpt><trkpt lat="45.64348804430444" lon="10.334124490861097"><ele>668.0</ele><time>2026-04-11T10:52:43Z</time></trkpt><trkpt lat="45.64345415117561" lon="10.334014427234907"><ele>668.0</ele><time>2026-04-11T10:52:44Z</time></trkpt><trkpt lat="45.64342189725332" lon="10.333868450565152"><ele>668.0</ele><time>2026-04-11T10:52:45Z</time></trkpt><trkpt lat="45.643426681000705" lon="10.333731770987965"><ele>668.0</ele><time>2026-04-11T10:52:46Z</time></trkpt><trkpt lat="45.64338883940539" lon="10.333624743319504"><ele>672.4</ele><time>2026-04-11T10:52:47Z</time></trkpt><trkpt lat="45.64334127239552" lon="10.333521903519014"><ele>676.8</ele><time>2026-04-11T10:52:48Z</time></trkpt><trkpt lat="45.64327818013294" lon="10.333425912099193"><ele>681.2</ele><time>2026-04-11T10:52:49Z</time></trkpt><trkpt lat="45.64320544654655" lon="10.333303229025043"><ele>685.6</ele><time>2026-04-11T10:52:50Z</time></trkpt><trkpt lat="45.64314353032753" lon="10.33319331662584"><ele>690.0</ele><time>2026-04-11T10:52:51Z</time></trkpt><trkpt lat="45.64308004429737" lon="10.33309285860267"><ele>694.2</ele><time>2026-04-11T10:52:52Z</time></trkpt><trkpt lat="45.643009303531656" lon="10.332972800575213"><ele>698.4</ele><time>2026-04-11T10:52:53Z</time></trkpt><trkpt lat="45.64293037909781" lon="10.332890129853562"><ele>702.5999999999999</ele><time>2026-04-11T10:52:54Z</time></trkpt><trkpt lat="45.64285703823081" lon="10.33281258230236"><ele>706.8</ele><time>2026-04-11T10:52:55Z</time></trkpt><trkpt lat="45.64279624585648" lon="10.33271960880887"><ele>711.0</ele><time>2026-04-11T10:52:56Z</time></trkpt><trkpt lat="45.64273110801183" lon="10.332630417096583"><ele>711.0</ele><time>2026-04-11T10:52:57Z</time></trkpt><trkpt lat="45.6426550281362" lon="10.332556600179123"><ele>711.0</ele><time>2026-04-11T10:52:58Z</time></trkpt><trkpt lat="45.64255951167768" lon="10.332538804311616"><ele>711.0</ele><time>2026-04-11T10:52:59Z</time></trkpt><trkpt lat="45.64246821277176" lon="10.332561896845116"><ele>711.0</ele><time>2026-04-11T10:53:00Z</time></trkpt><trkpt lat="45.64235259456567" lon="10.332593853233737"><ele>711.0</ele><time>2026-04-11T10:53:01Z</time></trkpt><trkpt lat="45.64227140450763" lon="10.332586752705522"><ele>711.0</ele><time>2026-04-11T10:53:02Z</time></trkpt><trkpt lat="45.64217779101677" lon="10.332612705327376"><ele>711.0</ele><time>2026-04-11T10:53:03Z</time></trkpt><trkpt lat="45.64209431445672" lon="10.332592800521953"><ele>711.0</ele><time>2026-04-11T10:53:04Z</time></trkpt><trkpt lat="45.6420285608488" lon="10.332607247915355"><ele>711.0</ele><time>2026-04-11T10:53:05Z</time></trkpt><trkpt lat="45.64197737449731" lon="10.332522033299442"><ele>711.0</ele><time>2026-04-11T10:53:07Z</time></trkpt><trkpt lat="45.64197755027516" lon="10.332391285899973"><ele>711.0</ele><time>2026-04-11T10:53:09Z</time></trkpt><trkpt lat="45.64198324239299" lon="10.332272095786674"><ele>710.5</ele><time>2026-04-11T10:53:10Z</time></trkpt><trkpt lat="45.64195898828154" lon="10.332151816730137"><ele>710.0</ele><time>2026-04-11T10:53:12Z</time></trkpt><trkpt lat="45.641922335432966" lon="10.332076919932499"><ele>709.5</ele><time>2026-04-11T10:53:14Z</time></trkpt><trkpt lat="45.64192646018639" lon="10.331961524123985"><ele>709.0</ele><time>2026-04-11T10:53:57.001Z</time></trkpt><trkpt lat="45.64202946360766" lon="10.3318207873882"><ele>708.5</ele><time>2026-04-11T10:53:59.001Z</time></trkpt><trkpt lat="45.64208274958411" lon="10.331763581561404"><ele>708.0</ele><time>2026-04-11T10:54:00.001Z</time></trkpt><trkpt lat="45.64215545565723" lon="10.331708781709183"><ele>710.5999999999999</ele><time>2026-04-11T10:54:01.001Z</time></trkpt><trkpt lat="45.64224454209504" lon="10.331576553496381"><ele>713.1999999999999</ele><time>2026-04-11T10:54:03.001Z</time></trkpt><trkpt lat="45.64223833888879" lon="10.331466241678303"><ele>715.8</ele><time>2026-04-11T10:54:04.001Z</time></trkpt><trkpt lat="45.64229216038854" lon="10.331352593315463"><ele>718.4</ele><time>2026-04-11T10:54:05.001Z</time></trkpt><trkpt lat="45.64233056394345" lon="10.331274538906072"><ele>721.0</ele><time>2026-04-11T10:54:06.001Z</time></trkpt><trkpt lat="45.64244855398837" lon="10.331235547217423"><ele>720.6666666666667</ele><time>2026-04-11T10:54:08.001Z</time></trkpt><trkpt lat="45.642524616685954" lon="10.331203482546089"><ele>720.3333333333334</ele><time>2026-04-11T10:54:09.001Z</time></trkpt><trkpt lat="45.642594011583824" lon="10.331170083711351"><ele>720.0</ele><time>2026-04-11T10:54:10.001Z</time></trkpt><trkpt lat="45.642655388158744" lon="10.331140857558337"><ele>719.6666666666666</ele><time>2026-04-11T10:54:11.001Z</time></trkpt><trkpt lat="45.64276464432183" lon="10.331084511700212"><ele>719.3333333333333</ele><time>2026-04-11T10:54:13.001Z</time></trkpt><trkpt lat="45.64282901181384" lon="10.331051443282611"><ele>719.0</ele><time>2026-04-11T10:54:14.001Z</time></trkpt><trkpt lat="45.64295316202457" lon="10.330965093316346"><ele>718.9999999999999</ele><time>2026-04-11T10:54:16.001Z</time></trkpt><trkpt lat="45.643017380827075" lon="10.33091906520783"><ele>719.0</ele><time>2026-04-11T10:54:17.001Z</time></trkpt><trkpt lat="45.64306908071506" lon="10.330850986459751"><ele>719.0</ele><time>2026-04-11T10:54:18.001Z</time></trkpt><trkpt lat="45.64311861102251" lon="10.330777647928773"><ele>719.0</ele><time>2026-04-11T10:54:19.001Z</time></trkpt><trkpt lat="45.643179677034404" lon="10.33071494004037"><ele>719.0</ele><time>2026-04-11T10:54:20.001Z</time></trkpt><trkpt lat="45.64319751160281" lon="10.330626420520211"><ele>718.9999999999999</ele><time>2026-04-11T10:54:21.001Z</time></trkpt><trkpt lat="45.64318916583053" lon="10.330526386279699"><ele>719.0</ele><time>2026-04-11T10:54:22.001Z</time></trkpt><trkpt lat="45.64318422422616" lon="10.330434659274525"><ele>715.5</ele><time>2026-04-11T10:54:23.001Z</time></trkpt><trkpt lat="45.64319115206848" lon="10.330342517529585"><ele>712.0</ele><time>2026-04-11T10:54:24.001Z</time></trkpt><trkpt lat="45.64323971050224" lon="10.330232990467044"><ele>708.5</ele><time>2026-04-11T10:54:25.001Z</time></trkpt><trkpt lat="45.64328578315323" lon="10.330123236913913"><ele>705.0</ele><time>2026-04-11T10:54:26.001Z</time></trkpt><trkpt lat="45.64331821526512" lon="10.330017987249569"><ele>701.5</ele><time>2026-04-11T10:54:27.001Z</time></trkpt><trkpt lat="45.64334424340717" lon="10.32992914778257"><ele>698.0</ele><time>2026-04-11T10:54:28.001Z</time></trkpt><trkpt lat="45.64337183454058" lon="10.329823291803436"><ele>698.0</ele><time>2026-04-11T10:54:29.001Z</time></trkpt><trkpt lat="45.643403332865184" lon="10.329738168558832"><ele>698.0</ele><time>2026-04-11T10:54:30.001Z</time></trkpt><trkpt lat="45.643413013341494" lon="10.329646356922767"><ele>698.0</ele><time>2026-04-11T10:54:31.001Z</time></trkpt><trkpt lat="45.64342129011172" lon="10.329459531773582"><ele>698.0</ele><time>2026-04-11T10:54:33Z</time></trkpt><trkpt lat="45.64344458480606" lon="10.329357224562154"><ele>698.0</ele><time>2026-04-11T10:54:34Z</time></trkpt><trkpt lat="45.64344341162925" lon="10.32926019774483"><ele>698.0</ele><time>2026-04-11T10:54:39Z</time></trkpt><trkpt lat="45.64348164826677" lon="10.329170606013829"><ele>698.4</ele><time>2026-04-11T10:54:42Z</time></trkpt><trkpt lat="45.64337832390547" lon="10.329133913662156"><ele>698.8</ele><time>2026-04-11T10:54:47Z</time></trkpt><trkpt lat="45.64329752531241" lon="10.329094412457785"><ele>699.2</ele><time>2026-04-11T10:54:50Z</time></trkpt><trkpt lat="45.64318893108465" lon="10.329047362101672"><ele>699.6</ele><time>2026-04-11T10:54:52Z</time></trkpt><trkpt lat="45.643077078076224" lon="10.328928508813997"><ele>700.0</ele><time>2026-04-11T10:54:54Z</time></trkpt><trkpt lat="45.64299639759589" lon="10.328869021471256"><ele>702.2</ele><time>2026-04-11T10:54:56Z</time></trkpt><trkpt lat="45.64290350414485" lon="10.328836650089702"><ele>704.4</ele><time>2026-04-11T10:54:57Z</time></trkpt><trkpt lat="45.64280883506579" lon="10.328747717714402"><ele>706.5999999999999</ele><time>2026-04-11T10:54:58Z</time></trkpt><trkpt lat="45.642717364239694" lon="10.328725269701925"><ele>708.8</ele><time>2026-04-11T10:54:59Z</time></trkpt><trkpt lat="45.642631563884294" lon="10.328670123010792"><ele>711.0</ele><time>2026-04-11T10:55:00Z</time></trkpt><trkpt lat="45.64256760840793" lon="10.328609252743535"><ele>711.0</ele><time>2026-04-11T10:55:01Z</time></trkpt><trkpt lat="45.64251252761114" lon="10.32853719280063"><ele>711.0</ele><time>2026-04-11T10:55:02Z</time></trkpt><trkpt lat="45.64245934860179" lon="10.328484794562641"><ele>711.0</ele><time>2026-04-11T10:55:03Z</time></trkpt><trkpt lat="45.64237939383657" lon="10.32843680352358"><ele>711.0</ele><time>2026-04-11T10:55:05Z</time></trkpt><trkpt lat="45.64234428504306" lon="10.32831686547488"><ele>711.0</ele><time>2026-04-11T10:55:08Z</time></trkpt><trkpt lat="45.64228277371189" lon="10.328236970723506"><ele>711.0</ele><time>2026-04-11T10:55:11Z</time></trkpt><trkpt lat="45.64221197196787" lon="10.328211390208585"><ele>711.3333333333334</ele><time>2026-04-11T10:55:15Z</time></trkpt><trkpt lat="45.6421936835471" lon="10.32805042508413"><ele>711.6666666666666</ele><time>2026-04-11T10:55:17Z</time></trkpt><trkpt lat="45.642212216071776" lon="10.327937330270432"><ele>712.0</ele><time>2026-04-11T10:55:18Z</time></trkpt><trkpt lat="45.64224783852011" lon="10.327802704931864"><ele>712.3333333333333</ele><time>2026-04-11T10:55:19Z</time></trkpt><trkpt lat="45.642263115223585" lon="10.327712550826803"><ele>712.6666666666666</ele><time>2026-04-11T10:55:20Z</time></trkpt><trkpt lat="45.64225654748559" lon="10.327616487209808"><ele>713.0</ele><time>2026-04-11T10:55:22Z</time></trkpt><trkpt lat="45.642260442044766" lon="10.32750111529825"><ele>713.0</ele><time>2026-04-11T10:55:23Z</time></trkpt><trkpt lat="45.642258586064465" lon="10.327364808531321"><ele>713.0</ele><time>2026-04-11T10:55:24Z</time></trkpt><trkpt lat="45.64228110577662" lon="10.327253698674317"><ele>713.0</ele><time>2026-04-11T10:55:25Z</time></trkpt><trkpt lat="45.642320585883574" lon="10.327140067590461"><ele>713.0</ele><time>2026-04-11T10:55:26Z</time></trkpt><trkpt lat="45.6423747005521" lon="10.327037034922473"><ele>713.0</ele><time>2026-04-11T10:55:27.001Z</time></trkpt><trkpt lat="45.642414432044106" lon="10.326950022062274"><ele>713.0</ele><time>2026-04-11T10:55:28.001Z</time></trkpt><trkpt lat="45.642433792532685" lon="10.32684959062927"><ele>713.8333333333333</ele><time>2026-04-11T10:55:29.001Z</time></trkpt><trkpt lat="45.64240543304902" lon="10.326751948249834"><ele>714.6666666666666</ele><time>2026-04-11T10:55:31.001Z</time></trkpt><trkpt lat="45.6423246327316" lon="10.326733400150015"><ele>715.5</ele><time>2026-04-11T10:55:40.001Z</time></trkpt><trkpt lat="45.64221092027969" lon="10.326661608168243"><ele>716.3333333333334</ele><time>2026-04-11T10:55:42.001Z</time></trkpt><trkpt lat="45.642128732865075" lon="10.326600196608627"><ele>717.1666666666667</ele><time>2026-04-11T10:55:44.001Z</time></trkpt><trkpt lat="45.6420614426648" lon="10.326648018471433"><ele>718.0</ele><time>2026-04-11T10:55:47.001Z</time></trkpt><trkpt lat="45.641992106709665" lon="10.32666586998132"><ele>712.0</ele><time>2026-04-11T10:55:49.001Z</time></trkpt><trkpt lat="45.64185954324403" lon="10.326703619579563"><ele>706.0</ele><time>2026-04-11T10:55:51.001Z</time></trkpt><trkpt lat="45.64175914728335" lon="10.326626471162832"><ele>700.0</ele><time>2026-04-11T10:55:54.001Z</time></trkpt><trkpt lat="45.64170027441171" lon="10.326452862728331"><ele>694.0</ele><time>2026-04-11T10:55:56.001Z</time></trkpt><trkpt lat="45.64166637269021" lon="10.326364566505596"><ele>694.0</ele><time>2026-04-11T10:55:57.001Z</time></trkpt><trkpt lat="45.641637000898555" lon="10.326247139698623"><ele>694.0</ele><time>2026-04-11T10:55:59.001Z</time></trkpt><trkpt lat="45.64160272588634" lon="10.326087794924536"><ele>694.0</ele><time>2026-04-11T10:56:01.001Z</time></trkpt><trkpt lat="45.64158824338396" lon="10.32596769598756"><ele>694.0</ele><time>2026-04-11T10:56:03.001Z</time></trkpt><trkpt lat="45.64151281065879" lon="10.325869350865664"><ele>694.0</ele><time>2026-04-11T10:56:05.001Z</time></trkpt><trkpt lat="45.641457523357566" lon="10.325779612960684"><ele>694.0</ele><time>2026-04-11T10:56:07.001Z</time></trkpt><trkpt lat="45.641375649135135" lon="10.325822059369761"><ele>694.0</ele><time>2026-04-11T10:56:09.001Z</time></trkpt><trkpt lat="45.641260764399824" lon="10.325808378760597"><ele>694.0</ele><time>2026-04-11T10:56:11.001Z</time></trkpt><trkpt lat="45.641173224358155" lon="10.325725649377945"><ele>694.0</ele><time>2026-04-11T10:56:13.001Z</time></trkpt><trkpt lat="45.64107697374521" lon="10.325678433543159"><ele>694.0</ele><time>2026-04-11T10:56:15.001Z</time></trkpt><trkpt lat="45.64100989466366" lon="10.325642165009619"><ele>690.0</ele><time>2026-04-11T10:56:17.001Z</time></trkpt><trkpt lat="45.64093017382282" lon="10.325507135285159"><ele>686.0</ele><time>2026-04-11T10:56:19.001Z</time></trkpt><trkpt lat="45.64086710704653" lon="10.325367761943125"><ele>682.0</ele><time>2026-04-11T10:56:21.001Z</time></trkpt><trkpt lat="45.640815856166085" lon="10.325289404955765"><ele>678.0</ele><time>2026-04-11T10:56:22.001Z</time></trkpt><trkpt lat="45.64076311716785" lon="10.325231195092007"><ele>674.0</ele><time>2026-04-11T10:56:23.001Z</time></trkpt><trkpt lat="45.640713124573004" lon="10.325169721034449"><ele>670.0</ele><time>2026-04-11T10:56:24.001Z</time></trkpt><trkpt lat="45.64063773850319" lon="10.325028373936254"><ele>670.0</ele><time>2026-04-11T10:56:26.001Z</time></trkpt><trkpt lat="45.64060137640704" lon="10.324912452586045"><ele>670.0</ele><time>2026-04-11T10:56:27.001Z</time></trkpt><trkpt lat="45.640574768307246" lon="10.32481278399638"><ele>670.0</ele><time>2026-04-11T10:56:28.001Z</time></trkpt><trkpt lat="45.64052626984044" lon="10.324649915776005"><ele>670.0</ele><time>2026-04-11T10:56:30.001Z</time></trkpt><trkpt lat="45.64048411071439" lon="10.32448993704429"><ele>670.0</ele><time>2026-04-11T10:56:32.001Z</time></trkpt><trkpt lat="45.64047479970708" lon="10.324343639435016"><ele>669.2</ele><time>2026-04-11T10:58:10.001Z</time></trkpt><trkpt lat="45.640463425183285" lon="10.32423674148349"><ele>668.4</ele><time>2026-04-11T10:58:12.001Z</time></trkpt><trkpt lat="45.640479209428406" lon="10.32410963349821"><ele>667.5999999999999</ele><time>2026-04-11T10:58:14.001Z</time></trkpt><trkpt lat="45.6404861000439" lon="10.323988401936088"><ele>666.8</ele><time>2026-04-11T10:58:16.001Z</time></trkpt><trkpt lat="45.640531343761076" lon="10.323861994549638"><ele>666.0</ele><time>2026-04-11T10:58:18.001Z</time></trkpt><trkpt lat="45.640602018198685" lon="10.323695277163225"><ele>661.1666666666666</ele><time>2026-04-11T10:58:20.001Z</time></trkpt><trkpt lat="45.64066953701954" lon="10.323638150681"><ele>656.3333333333334</ele><time>2026-04-11T10:58:24.001Z</time></trkpt><trkpt lat="45.640727199893" lon="10.32348435935091"><ele>651.5</ele><time>2026-04-11T10:58:26.001Z</time></trkpt><trkpt lat="45.64078223559133" lon="10.323427527959044"><ele>646.6666666666667</ele><time>2026-04-11T10:58:27.001Z</time></trkpt><trkpt lat="45.64087046917852" lon="10.323392719132865"><ele>641.8333333333334</ele><time>2026-04-11T10:58:28.001Z</time></trkpt><trkpt lat="45.64094280788439" lon="10.323388456283556"><ele>637.0</ele><time>2026-04-11T10:58:29.001Z</time></trkpt><trkpt lat="45.64100828400999" lon="10.323399939526066"><ele>637.0</ele><time>2026-04-11T10:58:30.001Z</time></trkpt><trkpt lat="45.64108877657299" lon="10.323353790843665"><ele>637.0</ele><time>2026-04-11T10:58:36.001Z</time></trkpt><trkpt lat="45.641172719523475" lon="10.323308143301897"><ele>637.0</ele><time>2026-04-11T10:58:38.001Z</time></trkpt><trkpt lat="45.641253300494974" lon="10.323364198346841"><ele>637.0</ele><time>2026-04-11T10:58:40.001Z</time></trkpt><trkpt lat="45.64133933661846" lon="10.323353643992549"><ele>637.0</ele><time>2026-04-11T10:58:43.001Z</time></trkpt><trkpt lat="45.64138595590346" lon="10.3232596304581"><ele>637.0</ele><time>2026-04-11T10:58:45Z</time></trkpt><trkpt lat="45.6413092217985" lon="10.323282783105874"><ele>639.6666666666667</ele><time>2026-04-11T10:58:52Z</time></trkpt><trkpt lat="45.64127390558767" lon="10.32317675935511"><ele>642.3333333333334</ele><time>2026-04-11T10:58:54Z</time></trkpt><trkpt lat="45.641244562587865" lon="10.323040208608319"><ele>645.0</ele><time>2026-04-11T10:58:56Z</time></trkpt><trkpt lat="45.6411731732611" lon="10.32297769341466"><ele>647.6666666666666</ele><time>2026-04-11T10:58:58Z</time></trkpt><trkpt lat="45.641103936075815" lon="10.322925049736787"><ele>650.3333333333333</ele><time>2026-04-11T10:59:02Z</time></trkpt><trkpt lat="45.641063535730346" lon="10.322849298348757"><ele>653.0</ele><time>2026-04-11T10:59:04Z</time></trkpt><trkpt lat="45.64101681912561" lon="10.32276005978667"><ele>647.4285714285714</ele><time>2026-04-11T10:59:07Z</time></trkpt><trkpt lat="45.64096204032984" lon="10.322711022920126"><ele>641.8571428571429</ele><time>2026-04-11T10:59:18Z</time></trkpt><trkpt lat="45.640942753317525" lon="10.322608846097191"><ele>636.2857142857142</ele><time>2026-04-11T10:59:20Z</time></trkpt><trkpt lat="45.64089946924061" lon="10.322537518695816"><ele>630.7142857142858</ele><time>2026-04-11T10:59:23Z</time></trkpt><trkpt lat="45.64095176918422" lon="10.322466718279426"><ele>625.1428571428571</ele><time>2026-04-11T10:59:26Z</time></trkpt><trkpt lat="45.64102591135896" lon="10.322381546109137"><ele>619.5714285714286</ele><time>2026-04-11T10:59:30Z</time></trkpt><trkpt lat="45.64108920804101" lon="10.322371298261476"><ele>614.0</ele><time>2026-04-11T10:59:35.001Z</time></trkpt><trkpt lat="45.64112666675163" lon="10.322296373613318"><ele>614.6666666666666</ele><time>2026-04-11T10:59:38.001Z</time></trkpt><trkpt lat="45.64116729613984" lon="10.322204147765023"><ele>615.3333333333333</ele><time>2026-04-11T10:59:40.001Z</time></trkpt><trkpt lat="45.64124826152654" lon="10.322156810821683"><ele>616.0</ele><time>2026-04-11T10:59:42.001Z</time></trkpt><trkpt lat="45.64131209788288" lon="10.322115205459555"><ele>616.6666666666666</ele><time>2026-04-11T10:59:44.001Z</time></trkpt><trkpt lat="45.64133005604499" lon="10.322008844332926"><ele>617.3333333333334</ele><time>2026-04-11T10:59:47.001Z</time></trkpt><trkpt lat="45.641340454557046" lon="10.321908721413555"><ele>618.0</ele><time>2026-04-11T10:59:49.001Z</time></trkpt><trkpt lat="45.641388560584716" lon="10.321831582692987"><ele>618.0</ele><time>2026-04-11T10:59:52.001Z</time></trkpt><trkpt lat="45.641418661382474" lon="10.321741704445573"><ele>618.0</ele><time>2026-04-11T10:59:54.001Z</time></trkpt><trkpt lat="45.64144063714939" lon="10.32163612281976"><ele>618.0</ele><time>2026-04-11T10:59:56.001Z</time></trkpt><trkpt lat="45.641485259934335" lon="10.321552515133664"><ele>618.0</ele><time>2026-04-11T10:59:58.001Z</time></trkpt><trkpt lat="45.6415156714925" lon="10.321413074643326"><ele>618.0</ele><time>2026-04-11T11:00:00.001Z</time></trkpt><trkpt lat="45.64157780953265" lon="10.321316114842974"><ele>618.0</ele><time>2026-04-11T11:00:02.001Z</time></trkpt><trkpt lat="45.64162759973839" lon="10.32124567740145"><ele>614.3333333333334</ele><time>2026-04-11T11:00:04.001Z</time></trkpt><trkpt lat="45.641659441093225" lon="10.321157996410657"><ele>610.6666666666666</ele><time>2026-04-11T11:00:06.001Z</time></trkpt><trkpt lat="45.641728494963665" lon="10.321057770250519"><ele>607.0</ele><time>2026-04-11T11:00:08.001Z</time></trkpt><trkpt lat="45.64177589378557" lon="10.3209853204842"><ele>603.3333333333333</ele><time>2026-04-11T11:00:11.001Z</time></trkpt><trkpt lat="45.641785582713695" lon="10.320850560561723"><ele>599.6666666666666</ele><time>2026-04-11T11:00:15.001Z</time></trkpt><trkpt lat="45.64180723526801" lon="10.320723089343675"><ele>596.0</ele><time>2026-04-11T11:00:16.001Z</time></trkpt><trkpt lat="45.64183626737942" lon="10.32063875105099"><ele>595.8333333333333</ele><time>2026-04-11T11:00:17.001Z</time></trkpt><trkpt lat="45.641820322268366" lon="10.320514866300105"><ele>595.6666666666666</ele><time>2026-04-11T11:00:19.001Z</time></trkpt><trkpt lat="45.641845461301756" lon="10.320399590197567"><ele>595.5</ele><time>2026-04-11T11:00:21.001Z</time></trkpt><trkpt lat="45.64186682141375" lon="10.32028979092282"><ele>595.3333333333334</ele><time>2026-04-11T11:00:23.001Z</time></trkpt><trkpt lat="45.64190232415247" lon="10.320183165694509"><ele>595.1666666666667</ele><time>2026-04-11T11:00:54Z</time></trkpt><trkpt lat="45.64196267016571" lon="10.32010357793758"><ele>595.0</ele><time>2026-04-11T11:00:56Z</time></trkpt><trkpt lat="45.64207895943334" lon="10.320046269957496"><ele>597.3333333333334</ele><time>2026-04-11T11:00:58Z</time></trkpt><trkpt lat="45.64216997917227" lon="10.320048721887987"><ele>599.6666666666667</ele><time>2026-04-11T11:01:00Z</time></trkpt><trkpt lat="45.64214866572439" lon="10.31990339255522"><ele>602.0</ele><time>2026-04-11T11:01:03Z</time></trkpt><trkpt lat="45.642158562556006" lon="10.319772900258581"><ele>604.3333333333334</ele><time>2026-04-11T11:01:04Z</time></trkpt><trkpt lat="45.6421722309461" lon="10.319682638218323"><ele>606.6666666666666</ele><time>2026-04-11T11:01:05Z</time></trkpt><trkpt lat="45.642172537053014" lon="10.319591876778524"><ele>609.0</ele><time>2026-04-11T11:01:06Z</time></trkpt><trkpt lat="45.642215551888334" lon="10.319477314273191"><ele>609.0</ele><time>2026-04-11T11:01:07Z</time></trkpt><trkpt lat="45.64229397627455" lon="10.319367298505293"><ele>609.0</ele><time>2026-04-11T11:01:08Z</time></trkpt><trkpt lat="45.642363045775014" lon="10.31931578702424"><ele>609.0</ele><time>2026-04-11T11:01:09Z</time></trkpt><trkpt lat="45.642504056353026" lon="10.319279135056732"><ele>609.0</ele><time>2026-04-11T11:01:11Z</time></trkpt><trkpt lat="45.64261393301059" lon="10.319155445533003"><ele>609.0</ele><time>2026-04-11T11:01:13Z</time></trkpt><trkpt lat="45.64272477794183" lon="10.319031265528958"><ele>609.0</ele><time>2026-04-11T11:01:15Z</time></trkpt><trkpt lat="45.64279477718925" lon="10.319027181356336"><ele>609.0</ele><time>2026-04-11T11:01:16Z</time></trkpt><trkpt lat="45.642845686374216" lon="10.318956235022796"><ele>609.0</ele><time>2026-04-11T11:01:17Z</time></trkpt><trkpt lat="45.64291120713285" lon="10.31882196721861"><ele>609.0</ele><time>2026-04-11T11:01:18Z</time></trkpt><trkpt lat="45.64296593802082" lon="10.318691105217674"><ele>612.0</ele><time>2026-04-11T11:01:19Z</time></trkpt><trkpt lat="45.64305227377085" lon="10.318458068987328"><ele>615.0</ele><time>2026-04-11T11:01:20Z</time></trkpt><trkpt lat="45.64309208687216" lon="10.318361484588575"><ele>618.0</ele><time>2026-04-11T11:01:21Z</time></trkpt><trkpt lat="45.643140418667656" lon="10.318293047917905"><ele>621.0</ele><time>2026-04-11T11:01:22Z</time></trkpt><trkpt lat="45.64319299498524" lon="10.31823140636946"><ele>624.0</ele><time>2026-04-11T11:01:23Z</time></trkpt><trkpt lat="45.6432499013833" lon="10.3181366204222"><ele>622.4</ele><time>2026-04-11T11:01:24Z</time></trkpt><trkpt lat="45.64330863827037" lon="10.318032536397567"><ele>620.8</ele><time>2026-04-11T11:01:25Z</time></trkpt><trkpt lat="45.6433616354171" lon="10.31796746650575"><ele>619.2</ele><time>2026-04-11T11:01:26Z</time></trkpt><trkpt lat="45.64339623236937" lon="10.317837063616125"><ele>617.6</ele><time>2026-04-11T11:01:28Z</time></trkpt><trkpt lat="45.64343997320505" lon="10.317760629359206"><ele>616.0</ele><time>2026-04-11T11:01:29Z</time></trkpt><trkpt lat="45.64352671820588" lon="10.317621011372948"><ele>616.0</ele><time>2026-04-11T11:01:31Z</time></trkpt><trkpt lat="45.64353044129983" lon="10.317528581478035"><ele>616.0</ele><time>2026-04-11T11:01:32Z</time></trkpt><trkpt lat="45.64351516109796" lon="10.31744077306015"><ele>616.0</ele><time>2026-04-11T11:01:33Z</time></trkpt><trkpt lat="45.6435424611972" lon="10.317336155575129"><ele>616.0</ele><time>2026-04-11T11:01:34Z</time></trkpt><trkpt lat="45.6435982399181" lon="10.31716736525624"><ele>616.0</ele><time>2026-04-11T11:01:35Z</time></trkpt><trkpt lat="45.643687116297215" lon="10.31708905481105"><ele>616.0</ele><time>2026-04-11T11:01:36Z</time></trkpt><trkpt lat="45.64372748570821" lon="10.316995556018155"><ele>618.1666666666667</ele><time>2026-04-11T11:01:37Z</time></trkpt><trkpt lat="45.64377589494272" lon="10.316905130840604"><ele>620.3333333333334</ele><time>2026-04-11T11:01:38.001Z</time></trkpt><trkpt lat="45.64381215767606" lon="10.316818862329248"><ele>622.5</ele><time>2026-04-11T11:01:39.001Z</time></trkpt><trkpt lat="45.6438661365926" lon="10.316685239320083"><ele>624.6666666666666</ele><time>2026-04-11T11:01:41.001Z</time></trkpt><trkpt lat="45.64390227702209" lon="10.316563923974762"><ele>626.8333333333333</ele><time>2026-04-11T11:01:42.001Z</time></trkpt><trkpt lat="45.643901305696865" lon="10.31642222721032"><ele>629.0</ele><time>2026-04-11T11:01:43.001Z</time></trkpt><trkpt lat="45.643912390642065" lon="10.316222809554382"><ele>629.0</ele><time>2026-04-11T11:01:44.001Z</time></trkpt><trkpt lat="45.643938922941004" lon="10.3160818096907"><ele>629.0</ele><time>2026-04-11T11:01:45.001Z</time></trkpt><trkpt lat="45.64397428250853" lon="10.315966584026231"><ele>629.0</ele><time>2026-04-11T11:01:46.001Z</time></trkpt><trkpt lat="45.6440007608369" lon="10.315856621305914"><ele>629.0</ele><time>2026-04-11T11:01:47.001Z</time></trkpt><trkpt lat="45.6440255867849" lon="10.315718885475297"><ele>629.0</ele><time>2026-04-11T11:01:48.001Z</time></trkpt><trkpt lat="45.64407326464649" lon="10.315635546688462"><ele>629.0</ele><time>2026-04-11T11:01:49.001Z</time></trkpt><trkpt lat="45.644159757273925" lon="10.315546716689493"><ele>629.6666666666666</ele><time>2026-04-11T11:01:50.001Z</time></trkpt><trkpt lat="45.64423314698952" lon="10.315479031021543"><ele>630.3333333333333</ele><time>2026-04-11T11:01:51.001Z</time></trkpt><trkpt lat="45.64430957807429" lon="10.315441423929807"><ele>631.0</ele><time>2026-04-11T11:01:52.001Z</time></trkpt><trkpt lat="45.64437208162355" lon="10.315425857695297"><ele>631.6666666666666</ele><time>2026-04-11T11:01:53.001Z</time></trkpt><trkpt lat="45.64443884678895" lon="10.315401766960653"><ele>632.3333333333334</ele><time>2026-04-11T11:01:54.001Z</time></trkpt><trkpt lat="45.644495332006876" lon="10.315324959428574"><ele>633.0</ele><time>2026-04-11T11:01:55.001Z</time></trkpt><trkpt lat="45.644550716818316" lon="10.315248352717166"><ele>633.0</ele><time>2026-04-11T11:01:56.001Z</time></trkpt><trkpt lat="45.644628126991954" lon="10.315173496831347"><ele>633.0</ele><time>2026-04-11T11:01:57.001Z</time></trkpt><trkpt lat="45.64468013502646" lon="10.315113736654874"><ele>633.0</ele><time>2026-04-11T11:01:58.001Z</time></trkpt><trkpt lat="45.64473502798884" lon="10.31504849984163"><ele>633.0</ele><time>2026-04-11T11:01:59.001Z</time></trkpt><trkpt lat="45.64478698988795" lon="10.314934563804773"><ele>633.0</ele><time>2026-04-11T11:02:01.001Z</time></trkpt><trkpt lat="45.64473532908219" lon="10.314806265265261"><ele>633.0</ele><time>2026-04-11T11:02:03.001Z</time></trkpt><trkpt lat="45.64469565385945" lon="10.31468538648086"><ele>635.0</ele><time>2026-04-11T11:02:06.001Z</time></trkpt><trkpt lat="45.644740433485666" lon="10.314512314034598"><ele>637.0</ele><time>2026-04-11T11:02:08.001Z</time></trkpt><trkpt lat="45.64478234093889" lon="10.314346955207792"><ele>639.0</ele><time>2026-04-11T11:02:09.001Z</time></trkpt><trkpt lat="45.64483986273071" lon="10.314234362594036"><ele>641.0</ele><time>2026-04-11T11:02:10.001Z</time></trkpt><trkpt lat="45.6448160795236" lon="10.314107964349446"><ele>643.0</ele><time>2026-04-11T11:02:12.001Z</time></trkpt><trkpt lat="45.64475493089569" lon="10.313953550841457"><ele>644.5999999999999</ele><time>2026-04-11T11:02:13.001Z</time></trkpt><trkpt lat="45.64472435871368" lon="10.313826707067008"><ele>646.1999999999999</ele><time>2026-04-11T11:02:14.001Z</time></trkpt><trkpt lat="45.64471669493399" lon="10.313733950751791"><ele>647.8</ele><time>2026-04-11T11:02:15.001Z</time></trkpt><trkpt lat="45.64473581219553" lon="10.313629827259955"><ele>649.4</ele><time>2026-04-11T11:02:16.001Z</time></trkpt><trkpt lat="45.64480207965549" lon="10.313420886902994"><ele>651.0</ele><time>2026-04-11T11:02:18.001Z</time></trkpt><trkpt lat="45.64479786919084" lon="10.313323757956413"><ele>651.0</ele><time>2026-04-11T11:02:19.001Z</time></trkpt><trkpt lat="45.644844319433865" lon="10.313147829302233"><ele>651.0</ele><time>2026-04-11T11:02:20.001Z</time></trkpt><trkpt lat="45.64489833068029" lon="10.312998517568138"><ele>651.0</ele><time>2026-04-11T11:02:21.001Z</time></trkpt><trkpt lat="45.64495766101558" lon="10.312834351119157"><ele>651.0</ele><time>2026-04-11T11:02:22.001Z</time></trkpt><trkpt lat="45.64501679590306" lon="10.312668913163126"><ele>652.25</ele><time>2026-04-11T11:02:23.001Z</time></trkpt><trkpt lat="45.64507583867347" lon="10.312504875747251"><ele>653.5</ele><time>2026-04-11T11:02:24.001Z</time></trkpt><trkpt lat="45.64514278292381" lon="10.312346562693183"><ele>654.75</ele><time>2026-04-11T11:02:25.001Z</time></trkpt><trkpt lat="45.64520283129393" lon="10.312192912165312"><ele>656.0</ele><time>2026-04-11T11:02:26.001Z</time></trkpt><trkpt lat="45.64525608387597" lon="10.312071612018396"><ele>657.8</ele><time>2026-04-11T11:02:27.001Z</time></trkpt><trkpt lat="45.64528080318548" lon="10.311945780171767"><ele>659.5999999999999</ele><time>2026-04-11T11:02:28.001Z</time></trkpt><trkpt lat="45.64528348943669" lon="10.311817058672865"><ele>661.4</ele><time>2026-04-11T11:02:29.001Z</time></trkpt><trkpt lat="45.64530176885022" lon="10.311688384388548"><ele>663.2</ele><time>2026-04-11T11:02:30.001Z</time></trkpt><trkpt lat="45.6453606504979" lon="10.31159730893355"><ele>665.0</ele><time>2026-04-11T11:02:31.001Z</time></trkpt><trkpt lat="45.64546318297504" lon="10.311514229210667"><ele>665.8</ele><time>2026-04-11T11:02:32.001Z</time></trkpt><trkpt lat="45.645526474124594" lon="10.311444199319332"><ele>666.6</ele><time>2026-04-11T11:02:33.001Z</time></trkpt><trkpt lat="45.64556097665806" lon="10.311350291495547"><ele>667.4000000000001</ele><time>2026-04-11T11:02:34.001Z</time></trkpt><trkpt lat="45.645623826586395" lon="10.311247477933506"><ele>668.2</ele><time>2026-04-11T11:02:35.001Z</time></trkpt><trkpt lat="45.64569299949031" lon="10.311135162773757"><ele>669.0</ele><time>2026-04-11T11:02:36.001Z</time></trkpt><trkpt lat="45.64580088128344" lon="10.311015701322308"><ele>669.0</ele><time>2026-04-11T11:02:37.001Z</time></trkpt><trkpt lat="45.64589486783436" lon="10.310926163297305"><ele>669.0</ele><time>2026-04-11T11:02:38.001Z</time></trkpt><trkpt lat="45.645966656100654" lon="10.310826041009397"><ele>669.0</ele><time>2026-04-11T11:02:39.001Z</time></trkpt><trkpt lat="45.64601792347195" lon="10.310710519849156"><ele>669.0</ele><time>2026-04-11T11:02:40.001Z</time></trkpt><trkpt lat="45.64607635419696" lon="10.310612747356506"><ele>669.0</ele><time>2026-04-11T11:02:41.001Z</time></trkpt><trkpt lat="45.64616034106629" lon="10.310525532830045"><ele>673.8000000000001</ele><time>2026-04-11T11:02:42.001Z</time></trkpt><trkpt lat="45.64625321091861" lon="10.310420334009716"><ele>678.6</ele><time>2026-04-11T11:02:43.001Z</time></trkpt><trkpt lat="45.64629319868661" lon="10.310299980944112"><ele>683.4</ele><time>2026-04-11T11:02:44.001Z</time></trkpt><trkpt lat="45.64631585770256" lon="10.310174222435439"><ele>688.2</ele><time>2026-04-11T11:02:45.001Z</time></trkpt><trkpt lat="45.64633350123881" lon="10.310032185122083"><ele>693.0</ele><time>2026-04-11T11:02:46.001Z</time></trkpt><trkpt lat="45.64638179540093" lon="10.309877434769723"><ele>692.8</ele><time>2026-04-11T11:02:47.001Z</time></trkpt><trkpt lat="45.64642253370588" lon="10.309739829858154"><ele>692.5999999999999</ele><time>2026-04-11T11:02:48.001Z</time></trkpt><trkpt lat="45.64643439254381" lon="10.309599339696586"><ele>692.4000000000001</ele><time>2026-04-11T11:02:49.001Z</time></trkpt><trkpt lat="45.64642853073781" lon="10.309467892222791"><ele>692.2</ele><time>2026-04-11T11:02:50.001Z</time></trkpt><trkpt lat="45.64642633617781" lon="10.309290422682537"><ele>692.0</ele><time>2026-04-11T11:02:51.001Z</time></trkpt><trkpt lat="45.64642753209522" lon="10.309164246697975"><ele>692.0</ele><time>2026-04-11T11:02:52.001Z</time></trkpt><trkpt lat="45.6464198886055" lon="10.309051069375249"><ele>692.0</ele><time>2026-04-11T11:02:53.001Z</time></trkpt><trkpt lat="45.64645013630329" lon="10.30893347455054"><ele>692.0</ele><time>2026-04-11T11:02:54.001Z</time></trkpt><trkpt lat="45.64648722601306" lon="10.308807463240173"><ele>692.0</ele><time>2026-04-11T11:02:55.001Z</time></trkpt><trkpt lat="45.64654521836211" lon="10.308667636767893"><ele>692.0</ele><time>2026-04-11T11:02:56Z</time></trkpt><trkpt lat="45.64660195343876" lon="10.308528021432155"><ele>691.5</ele><time>2026-04-11T11:02:57Z</time></trkpt><trkpt lat="45.646648348091105" lon="10.30840804375519"><ele>691.0</ele><time>2026-04-11T11:02:58Z</time></trkpt><trkpt lat="45.64668825548133" lon="10.308292657135285"><ele>690.5</ele><time>2026-04-11T11:02:59Z</time></trkpt><trkpt lat="45.64673247063387" lon="10.308190619605169"><ele>690.0</ele><time>2026-04-11T11:03:00Z</time></trkpt><trkpt lat="45.64678920564687" lon="10.30808538847526"><ele>689.5</ele><time>2026-04-11T11:03:01Z</time></trkpt><trkpt lat="45.64684557236217" lon="10.307998981603872"><ele>689.0</ele><time>2026-04-11T11:03:02Z</time></trkpt><trkpt lat="45.64690901167134" lon="10.307904775846026"><ele>689.8333333333333</ele><time>2026-04-11T11:03:03Z</time></trkpt><trkpt lat="45.64696334110724" lon="10.30780940467062"><ele>690.6666666666666</ele><time>2026-04-11T11:03:04Z</time></trkpt><trkpt lat="45.64700658464093" lon="10.30769346833842"><ele>691.5</ele><time>2026-04-11T11:03:05Z</time></trkpt><trkpt lat="45.64703085363238" lon="10.307574958836389"><ele>692.3333333333334</ele><time>2026-04-11T11:03:06Z</time></trkpt><trkpt lat="45.64706367988795" lon="10.307451434221191"><ele>693.1666666666667</ele><time>2026-04-11T11:03:07Z</time></trkpt><trkpt lat="45.6470843320997" lon="10.307332937947743"><ele>694.0</ele><time>2026-04-11T11:03:08Z</time></trkpt><trkpt lat="45.64710650577938" lon="10.307208192074858"><ele>694.1666666666667</ele><time>2026-04-11T11:03:09Z</time></trkpt><trkpt lat="45.64711086693969" lon="10.307093743019543"><ele>694.3333333333334</ele><time>2026-04-11T11:03:10Z</time></trkpt><trkpt lat="45.64708096645174" lon="10.306982154140059"><ele>694.5</ele><time>2026-04-11T11:03:11Z</time></trkpt><trkpt lat="45.647031940666764" lon="10.30688378981743"><ele>694.6666666666666</ele><time>2026-04-11T11:03:12Z</time></trkpt><trkpt lat="45.64699538045567" lon="10.306780859425112"><ele>694.8333333333333</ele><time>2026-04-11T11:03:13Z</time></trkpt><trkpt lat="45.64696416669767" lon="10.306688901736308"><ele>695.0</ele><time>2026-04-11T11:03:14Z</time></trkpt><trkpt lat="45.64692810172283" lon="10.306580013928551"><ele>695.0</ele><time>2026-04-11T11:03:15Z</time></trkpt><trkpt lat="45.64689836732802" lon="10.30649895703716"><ele>695.0</ele><time>2026-04-11T11:03:16Z</time></trkpt><trkpt lat="45.64682925666811" lon="10.306440967297494"><ele>695.0</ele><time>2026-04-11T11:03:17Z</time></trkpt><trkpt lat="45.64674989093126" lon="10.306348009523244"><ele>695.0</ele><time>2026-04-11T11:03:18Z</time></trkpt><trkpt lat="45.64668440020502" lon="10.306274542197372"><ele>695.0</ele><time>2026-04-11T11:03:19Z</time></trkpt><trkpt lat="45.646616194532776" lon="10.306246553803586"><ele>695.0</ele><time>2026-04-11T11:03:20Z</time></trkpt><trkpt lat="45.64654670496825" lon="10.306115753258096"><ele>698.0</ele><time>2026-04-11T11:03:22Z</time></trkpt><trkpt lat="45.64654184869534" lon="10.30598522776242"><ele>701.0</ele><time>2026-04-11T11:03:23Z</time></trkpt><trkpt lat="45.646505118365255" lon="10.305899571665496"><ele>704.0</ele><time>2026-04-11T11:03:24Z</time></trkpt><trkpt lat="45.64647864996502" lon="10.305747022669037"><ele>707.0</ele><time>2026-04-11T11:03:25Z</time></trkpt><trkpt lat="45.64644724767349" lon="10.305595114545397"><ele>710.0</ele><time>2026-04-11T11:03:26Z</time></trkpt><trkpt lat="45.64643694427541" lon="10.305478446465"><ele>713.2</ele><time>2026-04-11T11:03:27Z</time></trkpt><trkpt lat="45.64647023103016" lon="10.305332486650315"><ele>716.4</ele><time>2026-04-11T11:03:28Z</time></trkpt><trkpt lat="45.64649067379345" lon="10.305226374190616"><ele>719.5999999999999</ele><time>2026-04-11T11:03:29Z</time></trkpt><trkpt lat="45.64645593483912" lon="10.30512604930015"><ele>722.8</ele><time>2026-04-11T11:03:31Z</time></trkpt><trkpt lat="45.6463403599916" lon="10.305091389068274"><ele>726.0</ele><time>2026-04-11T11:03:33Z</time></trkpt><trkpt lat="45.64627395012506" lon="10.305010701024024"><ele>726.0</ele><time>2026-04-11T11:03:34Z</time></trkpt><trkpt lat="45.64622485609193" lon="10.304953864439172"><ele>726.0</ele><time>2026-04-11T11:03:35Z</time></trkpt><trkpt lat="45.646213254893006" lon="10.304816504302726"><ele>726.0</ele><time>2026-04-11T11:03:37Z</time></trkpt><trkpt lat="45.64624769263021" lon="10.304724092915317"><ele>726.0</ele><time>2026-04-11T11:03:38Z</time></trkpt><trkpt lat="45.64628320021016" lon="10.304628018182083"><ele>726.0</ele><time>2026-04-11T11:03:40Z</time></trkpt><trkpt lat="45.64637150320786" lon="10.304574295248656"><ele>726.0</ele><time>2026-04-11T11:03:42Z</time></trkpt><trkpt lat="45.64643473613934" lon="10.304607136092029"><ele>726.5</ele><time>2026-04-11T11:03:43.001Z</time></trkpt><trkpt lat="45.64650489853572" lon="10.304639630421482"><ele>727.0</ele><time>2026-04-11T11:03:44.001Z</time></trkpt><trkpt lat="45.64659253300995" lon="10.304675153180865"><ele>727.5</ele><time>2026-04-11T11:03:45.001Z</time></trkpt><trkpt lat="45.646683474443975" lon="10.304689362022334"><ele>728.0</ele><time>2026-04-11T11:03:46.001Z</time></trkpt><trkpt lat="45.646757295192494" lon="10.304607767446685"><ele>728.5</ele><time>2026-04-11T11:03:47.001Z</time></trkpt><trkpt lat="45.64680300042527" lon="10.304523688258424"><ele>729.0</ele><time>2026-04-11T11:03:48.001Z</time></trkpt><trkpt lat="45.64682644872554" lon="10.304420237674698"><ele>729.0</ele><time>2026-04-11T11:03:49.001Z</time></trkpt><trkpt lat="45.646851454100016" lon="10.304335992145173"><ele>729.0</ele><time>2026-04-11T11:03:50.001Z</time></trkpt><trkpt lat="45.646917774709706" lon="10.304228582571879"><ele>729.0</ele><time>2026-04-11T11:03:53.001Z</time></trkpt><trkpt lat="45.64698187132183" lon="10.30419292453509"><ele>729.0</ele><time>2026-04-11T11:03:55.001Z</time></trkpt><trkpt lat="45.64705693968367" lon="10.304057545529007"><ele>729.0</ele><time>2026-04-11T11:04:26.001Z</time></trkpt><trkpt lat="45.647088268585016" lon="10.303943762768672"><ele>729.0</ele><time>2026-04-11T11:04:27.001Z</time></trkpt><trkpt lat="45.64711060113108" lon="10.303849830859225"><ele>732.1666666666666</ele><time>2026-04-11T11:04:28.001Z</time></trkpt><trkpt lat="45.64713451913919" lon="10.303756030741646"><ele>735.3333333333334</ele><time>2026-04-11T11:04:29.001Z</time></trkpt><trkpt lat="45.64717282088302" lon="10.303626477652415"><ele>738.5</ele><time>2026-04-11T11:04:31.001Z</time></trkpt><trkpt lat="45.64715953306845" lon="10.30350568691455"><ele>741.6666666666667</ele><time>2026-04-11T11:04:33.001Z</time></trkpt><trkpt lat="45.647121276726345" lon="10.30343047419603"><ele>744.8333333333334</ele><time>2026-04-11T11:04:35.001Z</time></trkpt><trkpt lat="45.64706930312628" lon="10.303351310925143"><ele>748.0</ele><time>2026-04-11T11:04:37.001Z</time></trkpt><trkpt lat="45.64699561227472" lon="10.303215141078372"><ele>748.0</ele><time>2026-04-11T11:04:39.001Z</time></trkpt><trkpt lat="45.646984041626666" lon="10.303117795233794"><ele>748.0</ele><time>2026-04-11T11:04:40.001Z</time></trkpt><trkpt lat="45.647013758976655" lon="10.303003809103636"><ele>748.0</ele><time>2026-04-11T11:04:42.001Z</time></trkpt><trkpt lat="45.64709184971821" lon="10.30292705422579"><ele>748.0</ele><time>2026-04-11T11:04:44.001Z</time></trkpt><trkpt lat="45.647189951465926" lon="10.302876323453495"><ele>748.0</ele><time>2026-04-11T11:04:46.001Z</time></trkpt><trkpt lat="45.647239124526585" lon="10.302709342096955"><ele>743.75</ele><time>2026-04-11T11:04:48.001Z</time></trkpt><trkpt lat="45.64728556823843" lon="10.302598210010423"><ele>739.5</ele><time>2026-04-11T11:04:49.001Z</time></trkpt><trkpt lat="45.647539665905455" lon="10.302509371521209"><ele>735.25</ele><time>2026-04-11T11:04:51.001Z</time></trkpt><trkpt lat="45.64756369699996" lon="10.302408832530663"><ele>731.0</ele><time>2026-04-11T11:04:52.001Z</time></trkpt><trkpt lat="45.647604772716456" lon="10.302236983746562"><ele>727.25</ele><time>2026-04-11T11:04:54.001Z</time></trkpt><trkpt lat="45.64763676235176" lon="10.302103148373998"><ele>723.5</ele><time>2026-04-11T11:04:56.001Z</time></trkpt><trkpt lat="45.64765930275254" lon="10.302009049453707"><ele>719.75</ele><time>2026-04-11T11:04:57.001Z</time></trkpt><trkpt lat="45.647676032621426" lon="10.301896683354768"><ele>716.0</ele><time>2026-04-11T11:04:59.001Z</time></trkpt><trkpt lat="45.647287235652875" lon="10.301639187927245"><ele>716.0</ele><time>2026-04-11T11:05:00.001Z</time></trkpt><trkpt lat="45.64735823642215" lon="10.301518916499143"><ele>716.0</ele><time>2026-04-11T11:05:02Z</time></trkpt><trkpt lat="45.64744684357657" lon="10.301430811281366"><ele>716.0</ele><time>2026-04-11T11:05:03Z</time></trkpt><trkpt lat="45.647516781709406" lon="10.301363631497285"><ele>716.0</ele><time>2026-04-11T11:05:04Z</time></trkpt><trkpt lat="45.64756629234071" lon="10.301280381364947"><ele>716.0</ele><time>2026-04-11T11:05:05Z</time></trkpt><trkpt lat="45.64757082779638" lon="10.301160896912402"><ele>713.8333333333333</ele><time>2026-04-11T11:05:06Z</time></trkpt><trkpt lat="45.64759269439586" lon="10.301036094227944"><ele>711.6666666666666</ele><time>2026-04-11T11:05:07Z</time></trkpt><trkpt lat="45.647638529407615" lon="10.300916768880523"><ele>709.5</ele><time>2026-04-11T11:05:08Z</time></trkpt><trkpt lat="45.64767786464833" lon="10.300809605496681"><ele>707.3333333333334</ele><time>2026-04-11T11:05:09Z</time></trkpt><trkpt lat="45.64771508562992" lon="10.300724407471346"><ele>705.1666666666667</ele><time>2026-04-11T11:05:10Z</time></trkpt><trkpt lat="45.64776775739603" lon="10.3006697487475"><ele>703.0</ele><time>2026-04-11T11:05:11Z</time></trkpt><trkpt lat="45.64781575340816" lon="10.300603069340637"><ele>702.0</ele><time>2026-04-11T11:05:12Z</time></trkpt><trkpt lat="45.64781955599479" lon="10.300511785997065"><ele>701.0</ele><time>2026-04-11T11:05:13Z</time></trkpt><trkpt lat="45.6478116366846" lon="10.300377281249586"><ele>700.0</ele><time>2026-04-11T11:05:14Z</time></trkpt><trkpt lat="45.6478304040733" lon="10.300242757775841"><ele>699.0</ele><time>2026-04-11T11:05:15Z</time></trkpt><trkpt lat="45.64780899701517" lon="10.300089930776341"><ele>698.0</ele><time>2026-04-11T11:05:17Z</time></trkpt><trkpt lat="45.64777432506858" lon="10.299992607621366"><ele>697.0</ele><time>2026-04-11T11:05:18Z</time></trkpt><trkpt lat="45.647730185288566" lon="10.29989489089976"><ele>697.0</ele><time>2026-04-11T11:05:19Z</time></trkpt><trkpt lat="45.64766764417807" lon="10.299821661168968"><ele>697.0</ele><time>2026-04-11T11:05:20Z</time></trkpt><trkpt lat="45.64760229986667" lon="10.299800957361468"><ele>697.0</ele><time>2026-04-11T11:05:21Z</time></trkpt><trkpt lat="45.64753345294422" lon="10.299766738984895"><ele>697.0</ele><time>2026-04-11T11:05:22Z</time></trkpt><trkpt lat="45.647453219821" lon="10.299639388604454"><ele>697.0</ele><time>2026-04-11T11:05:24Z</time></trkpt><trkpt lat="45.6474298273055" lon="10.299520265237295"><ele>697.0</ele><time>2026-04-11T11:05:25Z</time></trkpt><trkpt lat="45.64740899509119" lon="10.299405303691776"><ele>696.8</ele><time>2026-04-11T11:05:26Z</time></trkpt><trkpt lat="45.64740879649465" lon="10.299270245875617"><ele>696.6</ele><time>2026-04-11T11:05:27Z</time></trkpt><trkpt lat="45.64745187808168" lon="10.299153876631472"><ele>696.4</ele><time>2026-04-11T11:05:28Z</time></trkpt><trkpt lat="45.647501190438476" lon="10.299060883170787"><ele>696.1999999999999</ele><time>2026-04-11T11:05:29Z</time></trkpt><trkpt lat="45.64753313866584" lon="10.298974259709937"><ele>696.0</ele><time>2026-04-11T11:05:30Z</time></trkpt><trkpt lat="45.64748147348514" lon="10.298809878083532"><ele>694.8333333333334</ele><time>2026-04-11T11:05:32Z</time></trkpt><trkpt lat="45.64745285055926" lon="10.298677800291419"><ele>693.6666666666666</ele><time>2026-04-11T11:05:33Z</time></trkpt><trkpt lat="45.64743440127226" lon="10.298558417500702"><ele>692.5</ele><time>2026-04-11T11:05:34Z</time></trkpt><trkpt lat="45.64742561254329" lon="10.29845250177822"><ele>691.3333333333333</ele><time>2026-04-11T11:05:35Z</time></trkpt><trkpt lat="45.64743419835061" lon="10.2983217186371"><ele>690.1666666666666</ele><time>2026-04-11T11:05:36Z</time></trkpt><trkpt lat="45.64746643715755" lon="10.298195388355088"><ele>689.0</ele><time>2026-04-11T11:05:37Z</time></trkpt><trkpt lat="45.647510515758356" lon="10.298066372783211"><ele>687.5</ele><time>2026-04-11T11:05:38Z</time></trkpt><trkpt lat="45.647578880952146" lon="10.297933944072652"><ele>686.0</ele><time>2026-04-11T11:05:39Z</time></trkpt><trkpt lat="45.6476335447038" lon="10.297821885032288"><ele>684.5</ele><time>2026-04-11T11:05:40Z</time></trkpt><trkpt lat="45.64766986390228" lon="10.297720775551547"><ele>683.0</ele><time>2026-04-11T11:05:41Z</time></trkpt><trkpt lat="45.64766773483676" lon="10.29762607378906"><ele>681.5</ele><time>2026-04-11T11:05:42Z</time></trkpt><trkpt lat="45.64762724787511" lon="10.297515472513668"><ele>680.0</ele><time>2026-04-11T11:05:43Z</time></trkpt><trkpt lat="45.64758219302909" lon="10.297425963248838"><ele>677.0</ele><time>2026-04-11T11:05:44Z</time></trkpt><trkpt lat="45.647589007126285" lon="10.29717862084214"><ele>674.0</ele><time>2026-04-11T11:05:47Z</time></trkpt><trkpt lat="45.64763152323615" lon="10.29699477070559"><ele>671.0</ele><time>2026-04-11T11:05:49Z</time></trkpt><trkpt lat="45.647635832904896" lon="10.296850746558304"><ele>668.0</ele><time>2026-04-11T11:05:50Z</time></trkpt><trkpt lat="45.64764112679098" lon="10.296712844364036"><ele>668.0</ele><time>2026-04-11T11:05:51Z</time></trkpt><trkpt lat="45.64765260557465" lon="10.296569199951184"><ele>668.0</ele><time>2026-04-11T11:05:52Z</time></trkpt><trkpt lat="45.647680774685384" lon="10.296437824292084"><ele>668.0</ele><time>2026-04-11T11:05:53Z</time></trkpt><trkpt lat="45.647716285937896" lon="10.296321356555405"><ele>668.0</ele><time>2026-04-11T11:05:54Z</time></trkpt><trkpt lat="45.647760808113965" lon="10.296200855036734"><ele>668.0</ele><time>2026-04-11T11:05:55Z</time></trkpt><trkpt lat="45.64780567816522" lon="10.29609283536833"><ele>667.3333333333333</ele><time>2026-04-11T11:05:56Z</time></trkpt><trkpt lat="45.64784785208694" lon="10.29599371061802"><ele>666.6666666666666</ele><time>2026-04-11T11:05:57Z</time></trkpt><trkpt lat="45.64789253817511" lon="10.295897191286766"><ele>666.0</ele><time>2026-04-11T11:05:58Z</time></trkpt><trkpt lat="45.64794121749508" lon="10.295805758973918"><ele>665.3333333333334</ele><time>2026-04-11T11:05:59Z</time></trkpt><trkpt lat="45.64798233026021" lon="10.29569928120169"><ele>664.6666666666667</ele><time>2026-04-11T11:06:00.001Z</time></trkpt><trkpt lat="45.64800226588468" lon="10.295574352625303"><ele>664.0</ele><time>2026-04-11T11:06:01.001Z</time></trkpt><trkpt lat="45.64799851854684" lon="10.2954367888318"><ele>664.0</ele><time>2026-04-11T11:06:02.001Z</time></trkpt><trkpt lat="45.647993778443045" lon="10.295335409542243"><ele>664.0</ele><time>2026-04-11T11:06:03.001Z</time></trkpt><trkpt lat="45.64801564823082" lon="10.295212792890764"><ele>664.0</ele><time>2026-04-11T11:06:04.001Z</time></trkpt><trkpt lat="45.648032509970555" lon="10.295083531974692"><ele>664.0</ele><time>2026-04-11T11:06:05.001Z</time></trkpt><trkpt lat="45.64809796643085" lon="10.294968292086367"><ele>664.0</ele><time>2026-04-11T11:06:06.001Z</time></trkpt><trkpt lat="45.64816906901939" lon="10.294882511803031"><ele>664.0</ele><time>2026-04-11T11:06:07.001Z</time></trkpt><trkpt lat="45.648237755164935" lon="10.294817352340411"><ele>664.0</ele><time>2026-04-11T11:06:08.001Z</time></trkpt><trkpt lat="45.64830760902736" lon="10.294791579174715"><ele>664.0</ele><time>2026-04-11T11:06:09.001Z</time></trkpt><trkpt lat="45.64838457854073" lon="10.294779387862812"><ele>664.0</ele><time>2026-04-11T11:06:10.001Z</time></trkpt><trkpt lat="45.64848796066796" lon="10.2947676251555"><ele>664.0</ele><time>2026-04-11T11:06:12.001Z</time></trkpt><trkpt lat="45.64852993005518" lon="10.294641685119531"><ele>664.0</ele><time>2026-04-11T11:06:14.001Z</time></trkpt><trkpt lat="45.648493676518086" lon="10.294554429418527"><ele>664.0</ele><time>2026-04-11T11:06:15.001Z</time></trkpt><trkpt lat="45.64846947115286" lon="10.29443474194921"><ele>662.2</ele><time>2026-04-11T11:06:16.001Z</time></trkpt><trkpt lat="45.648421838575295" lon="10.294327563520843"><ele>660.4000000000001</ele><time>2026-04-11T11:06:17.001Z</time></trkpt><trkpt lat="45.648371297011394" lon="10.29421939245697"><ele>658.6</ele><time>2026-04-11T11:06:18.001Z</time></trkpt><trkpt lat="45.64827466245348" lon="10.294179852817209"><ele>656.8</ele><time>2026-04-11T11:06:19.001Z</time></trkpt><trkpt lat="45.6481973665522" lon="10.294121280417414"><ele>655.0</ele><time>2026-04-11T11:06:20.001Z</time></trkpt><trkpt lat="45.64817646273654" lon="10.293976174555961"><ele>654.0</ele><time>2026-04-11T11:06:21.001Z</time></trkpt><trkpt lat="45.64813817495471" lon="10.293860865001674"><ele>653.0</ele><time>2026-04-11T11:06:22.001Z</time></trkpt><trkpt lat="45.64813853380001" lon="10.293714997499434"><ele>652.0</ele><time>2026-04-11T11:06:23.001Z</time></trkpt><trkpt lat="45.6481425262248" lon="10.293573961262544"><ele>651.0</ele><time>2026-04-11T11:06:24.001Z</time></trkpt><trkpt lat="45.64816838761399" lon="10.293455516489345"><ele>650.0</ele><time>2026-04-11T11:06:25.001Z</time></trkpt><trkpt lat="45.64822759217726" lon="10.293323684956441"><ele>650.0</ele><time>2026-04-11T11:06:26.001Z</time></trkpt><trkpt lat="45.648292166643856" lon="10.293216093011049"><ele>650.0</ele><time>2026-04-11T11:06:27.001Z</time></trkpt><trkpt lat="45.64836564362837" lon="10.293101262299508"><ele>650.0</ele><time>2026-04-11T11:06:28.001Z</time></trkpt><trkpt lat="45.648450869498745" lon="10.29296681884396"><ele>650.0</ele><time>2026-04-11T11:06:29.001Z</time></trkpt><trkpt lat="45.648501185513574" lon="10.292828067029012"><ele>650.0</ele><time>2026-04-11T11:06:30.001Z</time></trkpt><trkpt lat="45.64853071288003" lon="10.292724143061603"><ele>650.8571428571428</ele><time>2026-04-11T11:06:31.001Z</time></trkpt><trkpt lat="45.648574221696" lon="10.292632142403125"><ele>651.7142857142858</ele><time>2026-04-11T11:06:32.001Z</time></trkpt><trkpt lat="45.648627033651046" lon="10.292572511076234"><ele>652.5714285714286</ele><time>2026-04-11T11:06:33.001Z</time></trkpt><trkpt lat="45.64870540964096" lon="10.292562306678404"><ele>653.4285714285713</ele><time>2026-04-11T11:06:34.001Z</time></trkpt><trkpt lat="45.64877512393587" lon="10.292550513650369"><ele>654.2857142857142</ele><time>2026-04-11T11:06:35.001Z</time></trkpt><trkpt lat="45.64884900033651" lon="10.292549022101776"><ele>655.1428571428571</ele><time>2026-04-11T11:06:36.001Z</time></trkpt><trkpt lat="45.64891543230444" lon="10.292529368611547"><ele>656.0</ele><time>2026-04-11T11:06:37.001Z</time></trkpt><trkpt lat="45.64895919191803" lon="10.292457317689472"><ele>656.0</ele><time>2026-04-11T11:06:38.001Z</time></trkpt><trkpt lat="45.64899501823181" lon="10.292271093357156"><ele>656.0</ele><time>2026-04-11T11:06:40.001Z</time></trkpt><trkpt lat="45.64897498536422" lon="10.29216251751738"><ele>656.0</ele><time>2026-04-11T11:06:41.001Z</time></trkpt><trkpt lat="45.6489484442275" lon="10.292063226037435"><ele>656.0</ele><time>2026-04-11T11:06:42.001Z</time></trkpt><trkpt lat="45.648892595448885" lon="10.292009929150705"><ele>656.0</ele><time>2026-04-11T11:06:43.001Z</time></trkpt><trkpt lat="45.64885766743538" lon="10.291926666536357"><ele>656.0</ele><time>2026-04-11T11:06:45.001Z</time></trkpt><trkpt lat="45.648809133239865" lon="10.291821490457158"><ele>652.6666666666666</ele><time>2026-04-11T11:06:48.001Z</time></trkpt><trkpt lat="45.64883072636953" lon="10.29171556433152"><ele>649.3333333333333</ele><time>2026-04-11T11:06:49.001Z</time></trkpt><trkpt lat="45.64887417666671" lon="10.291622891172368"><ele>646.0</ele><time>2026-04-11T11:06:50.001Z</time></trkpt><trkpt lat="45.648911190980115" lon="10.291546753497336"><ele>642.6666666666666</ele><time>2026-04-11T11:06:51.001Z</time></trkpt><trkpt lat="45.64893839474045" lon="10.291461643024695"><ele>639.3333333333334</ele><time>2026-04-11T11:06:52.001Z</time></trkpt><trkpt lat="45.648942103854054" lon="10.291304642062906"><ele>636.0</ele><time>2026-04-11T11:06:54.001Z</time></trkpt><trkpt lat="45.64897312368024" lon="10.291167995445818"><ele>632.6666666666666</ele><time>2026-04-11T11:06:56.001Z</time></trkpt><trkpt lat="45.649009565554515" lon="10.291091190995678"><ele>629.3333333333334</ele><time>2026-04-11T11:06:58.001Z</time></trkpt><trkpt lat="45.64904572948803" lon="10.290998398020028"><ele>626.0</ele><time>2026-04-11T11:07:00.001Z</time></trkpt><trkpt lat="45.64911256070163" lon="10.290918096367482"><ele>622.6666666666667</ele><time>2026-04-11T11:07:02.001Z</time></trkpt><trkpt lat="45.64915186881647" lon="10.290836334615104"><ele>619.3333333333334</ele><time>2026-04-11T11:07:05.001Z</time></trkpt><trkpt lat="45.64920939954904" lon="10.290750520738376"><ele>616.0</ele><time>2026-04-11T11:07:07.001Z</time></trkpt><trkpt lat="45.64925440852586" lon="10.290656527450096"><ele>612.3333333333334</ele><time>2026-04-11T11:07:09Z</time></trkpt><trkpt lat="45.64929831564212" lon="10.2905665606777"><ele>608.6666666666667</ele><time>2026-04-11T11:07:11Z</time></trkpt><trkpt lat="45.649313854119235" lon="10.29046307064511"><ele>605.0</ele><time>2026-04-11T11:07:13Z</time></trkpt><trkpt lat="45.64933001604367" lon="10.290340558904353"><ele>601.3333333333334</ele><time>2026-04-11T11:07:16Z</time></trkpt><trkpt lat="45.64933316078459" lon="10.290221505620256"><ele>597.6666666666666</ele><time>2026-04-11T11:07:19Z</time></trkpt><trkpt lat="45.64933955042904" lon="10.290117880691241"><ele>594.0</ele><time>2026-04-11T11:07:21Z</time></trkpt><trkpt lat="45.64937841821393" lon="10.28998875745103"><ele>594.0</ele><time>2026-04-11T11:07:23Z</time></trkpt><trkpt lat="45.64942987623237" lon="10.289868460227412"><ele>594.0</ele><time>2026-04-11T11:07:25Z</time></trkpt><trkpt lat="45.649478530624805" lon="10.289778580522754"><ele>594.0</ele><time>2026-04-11T11:07:27Z</time></trkpt><trkpt lat="45.64941893282928" lon="10.289696071128084"><ele>594.0</ele><time>2026-04-11T11:07:29Z</time></trkpt><trkpt lat="45.64931594214897" lon="10.289596756256984"><ele>594.0</ele><time>2026-04-11T11:07:31Z</time></trkpt><trkpt lat="45.64927355804592" lon="10.289501638334823"><ele>592.6666666666666</ele><time>2026-04-11T11:07:33Z</time></trkpt><trkpt lat="45.649303985754" lon="10.289370259515213"><ele>591.3333333333334</ele><time>2026-04-11T11:07:35Z</time></trkpt><trkpt lat="45.64932887365161" lon="10.289253093893251"><ele>590.0</ele><time>2026-04-11T11:07:37Z</time></trkpt><trkpt lat="45.649283435334894" lon="10.289166554946474"><ele>588.6666666666667</ele><time>2026-04-11T11:07:40Z</time></trkpt><trkpt lat="45.64926890291939" lon="10.289021614194242"><ele>587.3333333333334</ele><time>2026-04-11T11:07:42Z</time></trkpt><trkpt lat="45.64926846408539" lon="10.28890412991761"><ele>586.0</ele><time>2026-04-11T11:07:43Z</time></trkpt><trkpt lat="45.64927994434165" lon="10.288751577648785"><ele>585.75</ele><time>2026-04-11T11:07:44Z</time></trkpt><trkpt lat="45.64929643829303" lon="10.288573977860393"><ele>585.5</ele><time>2026-04-11T11:07:45Z</time></trkpt><trkpt lat="45.64929055889817" lon="10.288406566964367"><ele>585.25</ele><time>2026-04-11T11:07:46Z</time></trkpt><trkpt lat="45.64928760553404" lon="10.288242022371854"><ele>585.0</ele><time>2026-04-11T11:07:47Z</time></trkpt><trkpt lat="45.64931420234273" lon="10.288069261707436"><ele>585.75</ele><time>2026-04-11T11:07:48Z</time></trkpt><trkpt lat="45.64928364624838" lon="10.28790523469254"><ele>586.5</ele><time>2026-04-11T11:07:49Z</time></trkpt><trkpt lat="45.64925346975413" lon="10.287738493837887"><ele>587.25</ele><time>2026-04-11T11:07:50Z</time></trkpt><trkpt lat="45.649241548779706" lon="10.287583872680658"><ele>588.0</ele><time>2026-04-11T11:07:51Z</time></trkpt><trkpt lat="45.6492569322926" lon="10.28743598664977"><ele>588.0</ele><time>2026-04-11T11:07:52Z</time></trkpt><trkpt lat="45.64928358668218" lon="10.287267592128405"><ele>588.0</ele><time>2026-04-11T11:07:53Z</time></trkpt><trkpt lat="45.649317214833644" lon="10.287106676384743"><ele>588.0</ele><time>2026-04-11T11:07:54Z</time></trkpt><trkpt lat="45.64935894526204" lon="10.286953095623318"><ele>588.0</ele><time>2026-04-11T11:07:55Z</time></trkpt><trkpt lat="45.64942939526439" lon="10.286813554330767"><ele>589.25</ele><time>2026-04-11T11:07:56Z</time></trkpt><trkpt lat="45.649510574513954" lon="10.286690473333087"><ele>590.5</ele><time>2026-04-11T11:07:57Z</time></trkpt><trkpt lat="45.649593808782356" lon="10.286571197816174"><ele>591.75</ele><time>2026-04-11T11:07:58Z</time></trkpt><trkpt lat="45.649672636970315" lon="10.286442197227522"><ele>593.0</ele><time>2026-04-11T11:07:59Z</time></trkpt><trkpt lat="45.64974337129866" lon="10.286324945263292"><ele>593.0</ele><time>2026-04-11T11:08:00Z</time></trkpt><trkpt lat="45.64981448499751" lon="10.286206358971036"><ele>593.0</ele><time>2026-04-11T11:08:01Z</time></trkpt><trkpt lat="45.64987198333142" lon="10.28612058695253"><ele>593.0</ele><time>2026-04-11T11:08:02.001Z</time></trkpt><trkpt lat="45.6499096477723" lon="10.286045598572418"><ele>593.0</ele><time>2026-04-11T11:08:04.001Z</time></trkpt><trkpt lat="45.64998069088737" lon="10.285911531264572"><ele>593.0</ele><time>2026-04-11T11:08:06.001Z</time></trkpt><trkpt lat="45.650085913127064" lon="10.285899145760371"><ele>593.0</ele><time>2026-04-11T11:08:07.001Z</time></trkpt><trkpt lat="45.6501884165407" lon="10.285903154489644"><ele>593.0</ele><time>2026-04-11T11:08:08.001Z</time></trkpt><trkpt lat="45.65028289811002" lon="10.285878184777895"><ele>593.0</ele><time>2026-04-11T11:08:09.001Z</time></trkpt><trkpt lat="45.65034090047533" lon="10.285799787000649"><ele>593.0</ele><time>2026-04-11T11:08:10.001Z</time></trkpt><trkpt lat="45.650374553071" lon="10.285700123562862"><ele>593.0</ele><time>2026-04-11T11:08:11.001Z</time></trkpt><trkpt lat="45.650402334079644" lon="10.28556342765611"><ele>593.6666666666666</ele><time>2026-04-11T11:08:12.001Z</time></trkpt><trkpt lat="45.65042781045431" lon="10.285446253607798"><ele>594.3333333333333</ele><time>2026-04-11T11:08:13.001Z</time></trkpt><trkpt lat="45.65046070445004" lon="10.285336833378434"><ele>595.0</ele><time>2026-04-11T11:08:14.001Z</time></trkpt><trkpt lat="45.65050482337" lon="10.285200199770555"><ele>595.6666666666666</ele><time>2026-04-11T11:08:15.001Z</time></trkpt><trkpt lat="45.650525473145876" lon="10.28510072422138"><ele>596.3333333333334</ele><time>2026-04-11T11:08:16.001Z</time></trkpt><trkpt lat="45.65060166362261" lon="10.285054858447936"><ele>597.0</ele><time>2026-04-11T11:08:17.001Z</time></trkpt><trkpt lat="45.65071220388568" lon="10.284990315689237"><ele>597.0</ele><time>2026-04-11T11:08:18.001Z</time></trkpt><trkpt lat="45.65080546478981" lon="10.28495463858867"><ele>597.0</ele><time>2026-04-11T11:08:19.001Z</time></trkpt><trkpt lat="45.65088454400464" lon="10.284851835068787"><ele>597.0</ele><time>2026-04-11T11:08:29.001Z</time></trkpt><trkpt lat="45.650981829481665" lon="10.284798838751508"><ele>597.0</ele><time>2026-04-11T11:08:30.001Z</time></trkpt><trkpt lat="45.65108167022647" lon="10.284732296019186"><ele>597.0</ele><time>2026-04-11T11:08:31.001Z</time></trkpt><trkpt lat="45.6511973634385" lon="10.284657555409561"><ele>596.25</ele><time>2026-04-11T11:08:32.001Z</time></trkpt><trkpt lat="45.65131218353068" lon="10.284575200792569"><ele>595.5</ele><time>2026-04-11T11:08:33.001Z</time></trkpt><trkpt lat="45.65143622866681" lon="10.284470973861962"><ele>594.75</ele><time>2026-04-11T11:08:34.001Z</time></trkpt><trkpt lat="45.65154643669248" lon="10.284327677929937"><ele>594.0</ele><time>2026-04-11T11:08:35.001Z</time></trkpt><trkpt lat="45.65165569228458" lon="10.284146295319944"><ele>594.0</ele><time>2026-04-11T11:08:36.001Z</time></trkpt><trkpt lat="45.651784091092125" lon="10.283985791045854"><ele>594.0</ele><time>2026-04-11T11:08:37.001Z</time></trkpt><trkpt lat="45.65186790186463" lon="10.283774151710078"><ele>594.0</ele><time>2026-04-11T11:08:38.001Z</time></trkpt><trkpt lat="45.651981662597535" lon="10.28359866210257"><ele>593.0</ele><time>2026-04-11T11:08:39.001Z</time></trkpt><trkpt lat="45.65209657186294" lon="10.283406528016245"><ele>592.0</ele><time>2026-04-11T11:08:40.001Z</time></trkpt><trkpt lat="45.652197700538615" lon="10.283194672159771"><ele>591.0</ele><time>2026-04-11T11:08:41.001Z</time></trkpt><trkpt lat="45.65232372204767" lon="10.283032884372853"><ele>591.0</ele><time>2026-04-11T11:08:42.001Z</time></trkpt><trkpt lat="45.6524247337329" lon="10.282902595090832"><ele>591.0</ele><time>2026-04-11T11:08:43.001Z</time></trkpt><trkpt lat="45.6524989760112" lon="10.282790010446497"><ele>591.0</ele><time>2026-04-11T11:08:44.001Z</time></trkpt><trkpt lat="45.65253875866109" lon="10.282678814519898"><ele>591.0</ele><time>2026-04-11T11:08:45.001Z</time></trkpt><trkpt lat="45.65256250993528" lon="10.282576694518935"><ele>591.0</ele><time>2026-04-11T11:08:46.001Z</time></trkpt><trkpt lat="45.65262708555052" lon="10.282534267006122"><ele>591.0</ele><time>2026-04-11T11:08:47.001Z</time></trkpt><trkpt lat="45.65269850246294" lon="10.282554603989649"><ele>591.0</ele><time>2026-04-11T11:08:48.001Z</time></trkpt><trkpt lat="45.65275997098261" lon="10.282606452606009"><ele>591.0</ele><time>2026-04-11T11:08:49.001Z</time></trkpt><trkpt lat="45.65284466691671" lon="10.282600733864877"><ele>591.0</ele><time>2026-04-11T11:08:51.001Z</time></trkpt><trkpt lat="45.65289389910724" lon="10.282518295513166"><ele>591.0</ele><time>2026-04-11T11:08:52.001Z</time></trkpt><trkpt lat="45.65290067618797" lon="10.282386206998364"><ele>591.0</ele><time>2026-04-11T11:08:53.001Z</time></trkpt><trkpt lat="45.65289546285934" lon="10.282237028250329"><ele>596.75</ele><time>2026-04-11T11:08:54.001Z</time></trkpt><trkpt lat="45.65290438017949" lon="10.282093981822925"><ele>602.5</ele><time>2026-04-11T11:08:55.001Z</time></trkpt><trkpt lat="45.65294604326409" lon="10.28192422757067"><ele>608.25</ele><time>2026-04-11T11:08:56.001Z</time></trkpt><trkpt lat="45.65299258826365" lon="10.281764394094596"><ele>614.0</ele><time>2026-04-11T11:08:57.001Z</time></trkpt><trkpt lat="45.6530519531267" lon="10.281584707416894"><ele>613.5</ele><time>2026-04-11T11:08:58.001Z</time></trkpt><trkpt lat="45.6530983975159" lon="10.281416765349261"><ele>613.0</ele><time>2026-04-11T11:08:59.001Z</time></trkpt><trkpt lat="45.65311087948247" lon="10.281241700372972"><ele>612.5</ele><time>2026-04-11T11:09:00.001Z</time></trkpt><trkpt lat="45.65309627233659" lon="10.281066897567785"><ele>612.0</ele><time>2026-04-11T11:09:01.001Z</time></trkpt><trkpt lat="45.65307022512087" lon="10.280886852441519"><ele>612.0</ele><time>2026-04-11T11:09:02.001Z</time></trkpt><trkpt lat="45.65304219715212" lon="10.28072789838102"><ele>612.0</ele><time>2026-04-11T11:09:03.001Z</time></trkpt><trkpt lat="45.65299659029422" lon="10.280609842027074"><ele>612.0</ele><time>2026-04-11T11:09:04.001Z</time></trkpt><trkpt lat="45.652967387286395" lon="10.280504672201037"><ele>612.0</ele><time>2026-04-11T11:09:05.001Z</time></trkpt><trkpt lat="45.65294881588509" lon="10.280411880832853"><ele>612.0</ele><time>2026-04-11T11:09:06.001Z</time></trkpt><trkpt lat="45.652927682232445" lon="10.280285519265677"><ele>612.0</ele><time>2026-04-11T11:09:07.001Z</time></trkpt><trkpt lat="45.65294938794102" lon="10.280169390241436"><ele>611.6</ele><time>2026-04-11T11:09:08.001Z</time></trkpt><trkpt lat="45.65301546559677" lon="10.280029971409643"><ele>611.2</ele><time>2026-04-11T11:09:09.001Z</time></trkpt><trkpt lat="45.65308293515153" lon="10.279945175842961"><ele>610.8</ele><time>2026-04-11T11:09:10.001Z</time></trkpt><trkpt lat="45.65316889088079" lon="10.279902217426608"><ele>610.4</ele><time>2026-04-11T11:09:11.001Z</time></trkpt><trkpt lat="45.65326039510671" lon="10.279884946587755"><ele>610.0</ele><time>2026-04-11T11:09:12.001Z</time></trkpt><trkpt lat="45.653378448433045" lon="10.27984308699561"><ele>610.0</ele><time>2026-04-11T11:09:13.001Z</time></trkpt><trkpt lat="45.65348508163527" lon="10.279800367115977"><ele>610.0</ele><time>2026-04-11T11:09:14Z</time></trkpt><trkpt lat="45.653575312786906" lon="10.279761721704208"><ele>610.0</ele><time>2026-04-11T11:09:15Z</time></trkpt><trkpt lat="45.6536475602827" lon="10.279740797711261"><ele>610.0</ele><time>2026-04-11T11:09:16Z</time></trkpt><trkpt lat="45.65365411642038" lon="10.279595816952527"><ele>610.0</ele><time>2026-04-11T11:09:18Z</time></trkpt><trkpt lat="45.65355830844324" lon="10.279510209072928"><ele>610.2</ele><time>2026-04-11T11:09:20Z</time></trkpt><trkpt lat="45.65345291377155" lon="10.279419968055924"><ele>610.4</ele><time>2026-04-11T11:09:21Z</time></trkpt><trkpt lat="45.65342732227976" lon="10.279332916075836"><ele>610.6</ele><time>2026-04-11T11:09:22Z</time></trkpt><trkpt lat="45.653451668528625" lon="10.279202803207095"><ele>610.8</ele><time>2026-04-11T11:09:23Z</time></trkpt><trkpt lat="45.653507600819594" lon="10.279010049037122"><ele>611.0</ele><time>2026-04-11T11:09:24Z</time></trkpt><trkpt lat="45.653554854736484" lon="10.278865811718747"><ele>611.25</ele><time>2026-04-11T11:09:25Z</time></trkpt><trkpt lat="45.65360315440855" lon="10.278692925918666"><ele>611.5</ele><time>2026-04-11T11:09:26Z</time></trkpt><trkpt lat="45.653651099663946" lon="10.27848853275729"><ele>611.75</ele><time>2026-04-11T11:09:27Z</time></trkpt><trkpt lat="45.653706001880906" lon="10.27829602206677"><ele>612.0</ele><time>2026-04-11T11:09:28Z</time></trkpt><trkpt lat="45.65375414892728" lon="10.278078959507134"><ele>614.6</ele><time>2026-04-11T11:09:29Z</time></trkpt><trkpt lat="45.65377870466127" lon="10.277911773993429"><ele>617.2</ele><time>2026-04-11T11:09:30Z</time></trkpt><trkpt lat="45.65380775954515" lon="10.277761377603433"><ele>619.8</ele><time>2026-04-11T11:09:31Z</time></trkpt><trkpt lat="45.65383055656802" lon="10.27761279659098"><ele>622.4</ele><time>2026-04-11T11:09:32Z</time></trkpt><trkpt lat="45.653880929867306" lon="10.277509414278702"><ele>625.0</ele><time>2026-04-11T11:09:33Z</time></trkpt><trkpt lat="45.653982567692985" lon="10.277456620236153"><ele>625.0</ele><time>2026-04-11T11:09:34Z</time></trkpt><trkpt lat="45.65410481685706" lon="10.277419691836764"><ele>625.0</ele><time>2026-04-11T11:09:35Z</time></trkpt><trkpt lat="45.654191265281305" lon="10.27735281102207"><ele>625.0</ele><time>2026-04-11T11:09:36Z</time></trkpt><trkpt lat="45.6542581278003" lon="10.277233216683564"><ele>625.0</ele><time>2026-04-11T11:09:37Z</time></trkpt><trkpt lat="45.65430855495803" lon="10.277107093787723"><ele>625.0</ele><time>2026-04-11T11:09:38Z</time></trkpt><trkpt lat="45.65430990182645" lon="10.276964990602634"><ele>623.6</ele><time>2026-04-11T11:09:39Z</time></trkpt><trkpt lat="45.65426036927148" lon="10.276779592278318"><ele>622.2</ele><time>2026-04-11T11:09:40Z</time></trkpt><trkpt lat="45.654208883568735" lon="10.276639956243937"><ele>620.8</ele><time>2026-04-11T11:09:41Z</time></trkpt><trkpt lat="45.654237925923454" lon="10.27652382831408"><ele>619.4</ele><time>2026-04-11T11:09:42Z</time></trkpt><trkpt lat="45.654253044932304" lon="10.27643205145196"><ele>618.0</ele><time>2026-04-11T11:09:43Z</time></trkpt><trkpt lat="45.65431187545928" lon="10.27634718905875"><ele>615.0</ele><time>2026-04-11T11:09:44Z</time></trkpt><trkpt lat="45.65436090497713" lon="10.276274827743418"><ele>615.0</ele><time>2026-04-11T11:09:46Z</time></trkpt><trkpt lat="45.654422605281525" lon="10.276254273564543"><ele>615.0</ele><time>2026-04-11T11:10:21.001Z</time></trkpt><trkpt lat="45.65443704877398" lon="10.276163998761257"><ele>615.0</ele><time>2026-04-11T11:13:27Z</time></trkpt><trkpt lat="45.65437638126471" lon="10.276116540734767"><ele>615.0</ele><time>2026-04-11T11:13:32Z</time></trkpt><trkpt lat="45.65433719893967" lon="10.27599465831408"><ele>615.0</ele><time>2026-04-11T11:15:05.001Z</time></trkpt></trkseg></trk></gpx>